<?xml version='1.0' encoding='UTF-8'?><gpx version="1.1" creator="JPX - https://github.com/jenetics/jpx" xmlns="http://www.topografix.com/GPX/1/1"><trk><trkseg><trkpt lat="37.877092" lon="14.9549468"><ele>755.0</ele><time>2026-04-05T07:47:12.239Z</time></trkpt><trkpt lat="37.8770749" lon="14.9550253"><ele>755.0</ele><time>2026-04-05T07:47:21.279Z</time></trkpt><trkpt lat="37.8770688" lon="14.9551468"><ele>755.0</ele><time>2026-04-05T07:48:50.282Z</time></trkpt><trkpt lat="37.8770379" lon="14.9552269"><ele>755.0</ele><time>2026-04-05T07:48:53.281Z</time></trkpt><trkpt lat="37.8770044" lon="14.9553192"><ele>755.0</ele><time>2026-04-05T07:48:56.222Z</time></trkpt><trkpt lat="37.8769679" lon="14.9554146"><ele>755.0</ele><time>2026-04-05T07:48:59.262Z</time></trkpt><trkpt lat="37.8769595" lon="14.9554956"><ele>754.8333333333333</ele><time>2026-04-05T07:49:02.282Z</time></trkpt><trkpt lat="37.8769641" lon="14.9555932"><ele>754.6666666666666</ele><time>2026-04-05T07:49:52.266Z</time></trkpt><trkpt lat="37.8769494" lon="14.9556725"><ele>754.5</ele><time>2026-04-05T07:49:54.195Z</time></trkpt><trkpt lat="37.8769414" lon="14.9557543"><ele>754.3333333333334</ele><time>2026-04-05T07:49:56.237Z</time></trkpt><trkpt lat="37.876915" lon="14.9558571"><ele>754.1666666666667</ele><time>2026-04-05T07:49:58.262Z</time></trkpt><trkpt lat="37.8768856" lon="14.9559551"><ele>754.0</ele><time>2026-04-05T07:50:00.194Z</time></trkpt><trkpt lat="37.8768664" lon="14.9560542"><ele>753.9999999999999</ele><time>2026-04-05T07:50:02.219Z</time></trkpt><trkpt lat="37.8768439" lon="14.9561485"><ele>754.0</ele><time>2026-04-05T07:50:04.279Z</time></trkpt><trkpt lat="37.8768283" lon="14.956236"><ele>754.0</ele><time>2026-04-05T07:50:06.13Z</time></trkpt><trkpt lat="37.8768086" lon="14.9563307"><ele>754.0</ele><time>2026-04-05T07:50:08.225Z</time></trkpt><trkpt lat="37.8767966" lon="14.9564111"><ele>754.0</ele><time>2026-04-05T07:50:10.142Z</time></trkpt><trkpt lat="37.8767742" lon="14.9564931"><ele>753.9999999999999</ele><time>2026-04-05T07:50:12.257Z</time></trkpt><trkpt lat="37.8767549" lon="14.9565794"><ele>754.0</ele><time>2026-04-05T07:50:15.163Z</time></trkpt><trkpt lat="37.8766799" lon="14.9566305"><ele>754.3333333333334</ele><time>2026-04-05T07:50:20.258Z</time></trkpt><trkpt lat="37.8765919" lon="14.9566409"><ele>754.6666666666667</ele><time>2026-04-05T07:50:23.282Z</time></trkpt><trkpt lat="37.8765281" lon="14.9566295"><ele>755.0</ele><time>2026-04-05T07:50:25.22Z</time></trkpt><trkpt lat="37.8764559" lon="14.9566223"><ele>755.3333333333334</ele><time>2026-04-05T07:50:27.22Z</time></trkpt><trkpt lat="37.8763716" lon="14.9566127"><ele>755.6666666666666</ele><time>2026-04-05T07:50:29.26Z</time></trkpt><trkpt lat="37.8762866" lon="14.9566114"><ele>756.0</ele><time>2026-04-05T07:50:31.28Z</time></trkpt><trkpt lat="37.8761971" lon="14.9566309"><ele>756.0</ele><time>2026-04-05T07:50:33.2Z</time></trkpt><trkpt lat="37.876118" lon="14.9566681"><ele>756.0</ele><time>2026-04-05T07:50:35.182Z</time></trkpt><trkpt lat="37.8760388" lon="14.9567262"><ele>756.0</ele><time>2026-04-05T07:50:37.24Z</time></trkpt><trkpt lat="37.8759433" lon="14.9567612"><ele>756.0</ele><time>2026-04-05T07:50:39.221Z</time></trkpt><trkpt lat="37.8758601" lon="14.9568"><ele>756.0</ele><time>2026-04-05T07:50:41.198Z</time></trkpt><trkpt lat="37.8757836" lon="14.9568404"><ele>756.0</ele><time>2026-04-05T07:50:43.098Z</time></trkpt><trkpt lat="37.8757063" lon="14.9569051"><ele>756.3333333333334</ele><time>2026-04-05T07:50:45.262Z</time></trkpt><trkpt lat="37.875637" lon="14.9569455"><ele>756.6666666666666</ele><time>2026-04-05T07:50:47.282Z</time></trkpt><trkpt lat="37.8755564" lon="14.9569791"><ele>757.0</ele><time>2026-04-05T07:50:50.262Z</time></trkpt><trkpt lat="37.8754745" lon="14.9569929"><ele>757.3333333333333</ele><time>2026-04-05T07:50:54.301Z</time></trkpt><trkpt lat="37.8754102" lon="14.9570114"><ele>757.6666666666666</ele><time>2026-04-05T07:50:56.243Z</time></trkpt><trkpt lat="37.8753333" lon="14.9569982"><ele>758.0</ele><time>2026-04-05T07:50:58.202Z</time></trkpt><trkpt lat="37.8752584" lon="14.9569818"><ele>758.0</ele><time>2026-04-05T07:51:00.102Z</time></trkpt><trkpt lat="37.8751754" lon="14.9569581"><ele>758.0</ele><time>2026-04-05T07:51:02.263Z</time></trkpt><trkpt lat="37.8750933" lon="14.9569416"><ele>758.0</ele><time>2026-04-05T07:51:04.265Z</time></trkpt><trkpt lat="37.8750157" lon="14.9569165"><ele>758.0</ele><time>2026-04-05T07:51:06.225Z</time></trkpt><trkpt lat="37.8749356" lon="14.9568954"><ele>758.0</ele><time>2026-04-05T07:51:08.3Z</time></trkpt><trkpt lat="37.8748357" lon="14.9568437"><ele>758.0</ele><time>2026-04-05T07:51:11.201Z</time></trkpt><trkpt lat="37.8747337" lon="14.9568182"><ele>758.3333333333333</ele><time>2026-04-05T07:51:14.305Z</time></trkpt><trkpt lat="37.8746622" lon="14.9568008"><ele>758.6666666666666</ele><time>2026-04-05T07:51:16.284Z</time></trkpt><trkpt lat="37.8745895" lon="14.9567801"><ele>759.0</ele><time>2026-04-05T07:51:18.246Z</time></trkpt><trkpt lat="37.8745194" lon="14.9567671"><ele>759.3333333333334</ele><time>2026-04-05T07:51:20.195Z</time></trkpt><trkpt lat="37.8744433" lon="14.956739"><ele>759.6666666666667</ele><time>2026-04-05T07:51:22.205Z</time></trkpt><trkpt lat="37.8743654" lon="14.9567196"><ele>760.0</ele><time>2026-04-05T07:51:24.193Z</time></trkpt><trkpt lat="37.8742836" lon="14.9567159"><ele>760.5</ele><time>2026-04-05T07:51:26.285Z</time></trkpt><trkpt lat="37.874212" lon="14.956745"><ele>761.0</ele><time>2026-04-05T07:51:28.196Z</time></trkpt><trkpt lat="37.8741405" lon="14.956797"><ele>761.5</ele><time>2026-04-05T07:51:30.264Z</time></trkpt><trkpt lat="37.8740777" lon="14.9568603"><ele>762.0</ele><time>2026-04-05T07:51:32.162Z</time></trkpt><trkpt lat="37.8740419" lon="14.9569486"><ele>762.5</ele><time>2026-04-05T07:51:34.263Z</time></trkpt><trkpt lat="37.8739803" lon="14.9570185"><ele>763.0</ele><time>2026-04-05T07:51:36.265Z</time></trkpt><trkpt lat="37.8739104" lon="14.9570865"><ele>763.0</ele><time>2026-04-05T07:51:38.204Z</time></trkpt><trkpt lat="37.8738495" lon="14.9571689"><ele>763.0</ele><time>2026-04-05T07:51:40.304Z</time></trkpt><trkpt lat="37.8737959" lon="14.9572472"><ele>763.0</ele><time>2026-04-05T07:51:42.204Z</time></trkpt><trkpt lat="37.8737374" lon="14.9573309"><ele>763.0</ele><time>2026-04-05T07:51:44.245Z</time></trkpt><trkpt lat="37.8736776" lon="14.9574106"><ele>763.0</ele><time>2026-04-05T07:51:46.283Z</time></trkpt><trkpt lat="37.8736171" lon="14.9574838"><ele>763.0</ele><time>2026-04-05T07:51:48.244Z</time></trkpt><trkpt lat="37.8735509" lon="14.9575478"><ele>763.0</ele><time>2026-04-05T07:51:50.283Z</time></trkpt><trkpt lat="37.8734845" lon="14.9576077"><ele>763.0</ele><time>2026-04-05T07:51:52.218Z</time></trkpt><trkpt lat="37.8734297" lon="14.9576766"><ele>763.0</ele><time>2026-04-05T07:51:54.222Z</time></trkpt><trkpt lat="37.8733811" lon="14.9577663"><ele>763.0</ele><time>2026-04-05T07:51:56.301Z</time></trkpt><trkpt lat="37.8733294" lon="14.9578447"><ele>763.0</ele><time>2026-04-05T07:51:58.222Z</time></trkpt><trkpt lat="37.8732772" lon="14.957926"><ele>763.0</ele><time>2026-04-05T07:52:00.202Z</time></trkpt><trkpt lat="37.8732348" lon="14.9580253"><ele>763.1666666666667</ele><time>2026-04-05T07:52:02.282Z</time></trkpt><trkpt lat="37.8731809" lon="14.9581142"><ele>763.3333333333334</ele><time>2026-04-05T07:52:04.222Z</time></trkpt><trkpt lat="37.8731211" lon="14.9581946"><ele>763.5</ele><time>2026-04-05T07:52:06.222Z</time></trkpt><trkpt lat="37.8730628" lon="14.9582655"><ele>763.6666666666666</ele><time>2026-04-05T07:52:08.082Z</time></trkpt><trkpt lat="37.8729942" lon="14.9583412"><ele>763.8333333333333</ele><time>2026-04-05T07:52:10.223Z</time></trkpt><trkpt lat="37.8729739" lon="14.9584432"><ele>764.0</ele><time>2026-04-05T07:52:12.284Z</time></trkpt><trkpt lat="37.8729289" lon="14.9585378"><ele>763.5</ele><time>2026-04-05T07:53:37.198Z</time></trkpt><trkpt lat="37.8728956" lon="14.9586109"><ele>763.0</ele><time>2026-04-05T07:53:39.275Z</time></trkpt><trkpt lat="37.8728586" lon="14.9586935"><ele>762.5</ele><time>2026-04-05T07:53:41.235Z</time></trkpt><trkpt lat="37.8728211" lon="14.958795"><ele>762.0</ele><time>2026-04-05T07:53:43.195Z</time></trkpt><trkpt lat="37.8727167" lon="14.9591233"><ele>762.0</ele><time>2026-04-05T07:53:45.194Z</time></trkpt><trkpt lat="37.8726817" lon="14.959255"><ele>762.0</ele><time>2026-04-05T07:53:47.195Z</time></trkpt><trkpt lat="37.8726583" lon="14.9593333"><ele>762.0</ele><time>2026-04-05T07:53:48.193Z</time></trkpt><trkpt lat="37.8726333" lon="14.9594817"><ele>762.0</ele><time>2026-04-05T07:53:50.193Z</time></trkpt><trkpt lat="37.872605" lon="14.9596133"><ele>762.0</ele><time>2026-04-05T07:53:52.2Z</time></trkpt><trkpt lat="37.87258" lon="14.9597317"><ele>762.0</ele><time>2026-04-05T07:53:54.194Z</time></trkpt><trkpt lat="37.872555" lon="14.9598383"><ele>762.0</ele><time>2026-04-05T07:53:56.195Z</time></trkpt><trkpt lat="37.872535" lon="14.9599383"><ele>762.0</ele><time>2026-04-05T07:53:58.195Z</time></trkpt><trkpt lat="37.8725167" lon="14.960045"><ele>762.0</ele><time>2026-04-05T07:54:00.201Z</time></trkpt><trkpt lat="37.8724933" lon="14.9601433"><ele>762.0</ele><time>2026-04-05T07:54:02.194Z</time></trkpt><trkpt lat="37.87247" lon="14.96024"><ele>762.0</ele><time>2026-04-05T07:54:04.193Z</time></trkpt><trkpt lat="37.8724417" lon="14.960335"><ele>761.8333333333334</ele><time>2026-04-05T07:54:06.194Z</time></trkpt><trkpt lat="37.872415" lon="14.96043"><ele>761.6666666666666</ele><time>2026-04-05T07:54:08.194Z</time></trkpt><trkpt lat="37.8723833" lon="14.960525"><ele>761.5</ele><time>2026-04-05T07:54:10.194Z</time></trkpt><trkpt lat="37.872345" lon="14.9606067"><ele>761.3333333333333</ele><time>2026-04-05T07:54:12.194Z</time></trkpt><trkpt lat="37.87231" lon="14.9606917"><ele>761.1666666666666</ele><time>2026-04-05T07:54:14.197Z</time></trkpt><trkpt lat="37.8722783" lon="14.9607717"><ele>761.0</ele><time>2026-04-05T07:54:16.194Z</time></trkpt><trkpt lat="37.8722467" lon="14.96086"><ele>760.6666666666666</ele><time>2026-04-05T07:54:18.193Z</time></trkpt><trkpt lat="37.8722" lon="14.9609383"><ele>760.3333333333333</ele><time>2026-04-05T07:54:20.194Z</time></trkpt><trkpt lat="37.8721533" lon="14.9610233"><ele>760.0</ele><time>2026-04-05T07:54:22.194Z</time></trkpt><trkpt lat="37.8721083" lon="14.961115"><ele>759.6666666666666</ele><time>2026-04-05T07:54:24.197Z</time></trkpt><trkpt lat="37.872065" lon="14.9612133"><ele>759.3333333333334</ele><time>2026-04-05T07:54:26.194Z</time></trkpt><trkpt lat="37.8720233" lon="14.9613017"><ele>759.0</ele><time>2026-04-05T07:54:28.193Z</time></trkpt><trkpt lat="37.87198" lon="14.96139"><ele>759.0</ele><time>2026-04-05T07:54:30.194Z</time></trkpt><trkpt lat="37.871935" lon="14.9614833"><ele>759.0</ele><time>2026-04-05T07:54:32.199Z</time></trkpt><trkpt lat="37.8718867" lon="14.9615733"><ele>759.0</ele><time>2026-04-05T07:54:34.194Z</time></trkpt><trkpt lat="37.8718333" lon="14.9616633"><ele>759.0</ele><time>2026-04-05T07:54:36.194Z</time></trkpt><trkpt lat="37.8717817" lon="14.9617567"><ele>759.0</ele><time>2026-04-05T07:54:38.198Z</time></trkpt><trkpt lat="37.8717283" lon="14.9618567"><ele>759.0</ele><time>2026-04-05T07:54:40.195Z</time></trkpt><trkpt lat="37.8716767" lon="14.9619583"><ele>759.6</ele><time>2026-04-05T07:54:42.194Z</time></trkpt><trkpt lat="37.87162" lon="14.9620583"><ele>760.2</ele><time>2026-04-05T07:54:44.194Z</time></trkpt><trkpt lat="37.8715683" lon="14.9621633"><ele>760.8000000000001</ele><time>2026-04-05T07:54:46.194Z</time></trkpt><trkpt lat="37.871525" lon="14.9622733"><ele>761.4000000000001</ele><time>2026-04-05T07:54:48.196Z</time></trkpt><trkpt lat="37.8714917" lon="14.9623833"><ele>762.0</ele><time>2026-04-05T07:54:50.193Z</time></trkpt><trkpt lat="37.87146" lon="14.9625"><ele>761.4000000000001</ele><time>2026-04-05T07:54:52.193Z</time></trkpt><trkpt lat="37.8714367" lon="14.9626183"><ele>760.8000000000001</ele><time>2026-04-05T07:54:54.195Z</time></trkpt><trkpt lat="37.8714233" lon="14.9627417"><ele>760.2</ele><time>2026-04-05T07:54:56.195Z</time></trkpt><trkpt lat="37.8714183" lon="14.9628617"><ele>759.6</ele><time>2026-04-05T07:54:58.195Z</time></trkpt><trkpt lat="37.8714183" lon="14.9629833"><ele>759.0</ele><time>2026-04-05T07:55:00.194Z</time></trkpt><trkpt lat="37.8714233" lon="14.9631083"><ele>759.0</ele><time>2026-04-05T07:55:02.197Z</time></trkpt><trkpt lat="37.8714283" lon="14.963225"><ele>759.0</ele><time>2026-04-05T07:55:04.195Z</time></trkpt><trkpt lat="37.8714317" lon="14.9633183"><ele>759.0</ele><time>2026-04-05T07:55:06.195Z</time></trkpt><trkpt lat="37.8714217" lon="14.963435"><ele>759.0</ele><time>2026-04-05T07:55:08.199Z</time></trkpt><trkpt lat="37.8713967" lon="14.9635667"><ele>759.0</ele><time>2026-04-05T07:55:10.193Z</time></trkpt><trkpt lat="37.871355" lon="14.9636933"><ele>759.25</ele><time>2026-04-05T07:55:12.193Z</time></trkpt><trkpt lat="37.8713117" lon="14.9638283"><ele>759.5</ele><time>2026-04-05T07:55:14.196Z</time></trkpt><trkpt lat="37.8712717" lon="14.9639583"><ele>759.75</ele><time>2026-04-05T07:55:16.195Z</time></trkpt><trkpt lat="37.8712283" lon="14.9640967"><ele>760.0</ele><time>2026-04-05T07:55:18.193Z</time></trkpt><trkpt lat="37.8711833" lon="14.96424"><ele>760.5</ele><time>2026-04-05T07:55:20.195Z</time></trkpt><trkpt lat="37.871135" lon="14.96438"><ele>761.0</ele><time>2026-04-05T07:55:22.193Z</time></trkpt><trkpt lat="37.8710917" lon="14.9645183"><ele>761.5</ele><time>2026-04-05T07:55:24.194Z</time></trkpt><trkpt lat="37.8710467" lon="14.9646617"><ele>762.0</ele><time>2026-04-05T07:55:26.197Z</time></trkpt><trkpt lat="37.8710017" lon="14.964795"><ele>762.0</ele><time>2026-04-05T07:55:28.194Z</time></trkpt><trkpt lat="37.8709567" lon="14.9649267"><ele>762.0</ele><time>2026-04-05T07:55:30.197Z</time></trkpt><trkpt lat="37.8709167" lon="14.9650633"><ele>762.0</ele><time>2026-04-05T07:55:32.199Z</time></trkpt><trkpt lat="37.87088" lon="14.9651917"><ele>762.0</ele><time>2026-04-05T07:55:34.194Z</time></trkpt><trkpt lat="37.8708417" lon="14.9653133"><ele>762.0</ele><time>2026-04-05T07:55:36.194Z</time></trkpt><trkpt lat="37.8708017" lon="14.965425"><ele>762.8</ele><time>2026-04-05T07:55:38.195Z</time></trkpt><trkpt lat="37.8707683" lon="14.96554"><ele>763.6</ele><time>2026-04-05T07:55:40.194Z</time></trkpt><trkpt lat="37.8707383" lon="14.965665"><ele>764.4</ele><time>2026-04-05T07:55:42.194Z</time></trkpt><trkpt lat="37.8707" lon="14.965785"><ele>765.1999999999999</ele><time>2026-04-05T07:55:44.195Z</time></trkpt><trkpt lat="37.870655" lon="14.9658983"><ele>766.0</ele><time>2026-04-05T07:55:46.195Z</time></trkpt><trkpt lat="37.8706017" lon="14.9659983"><ele>766.3333333333334</ele><time>2026-04-05T07:55:48.193Z</time></trkpt><trkpt lat="37.8705483" lon="14.9660817"><ele>766.6666666666667</ele><time>2026-04-05T07:55:50.196Z</time></trkpt><trkpt lat="37.8704883" lon="14.9661533"><ele>767.0</ele><time>2026-04-05T07:55:52.195Z</time></trkpt><trkpt lat="37.870425" lon="14.96623"><ele>767.3333333333334</ele><time>2026-04-05T07:55:54.194Z</time></trkpt><trkpt lat="37.8703583" lon="14.9663067"><ele>767.6666666666666</ele><time>2026-04-05T07:55:56.195Z</time></trkpt><trkpt lat="37.8702883" lon="14.9663817"><ele>768.0</ele><time>2026-04-05T07:55:58.194Z</time></trkpt><trkpt lat="37.870225" lon="14.966465"><ele>768.0</ele><time>2026-04-05T07:56:00.193Z</time></trkpt><trkpt lat="37.8701733" lon="14.9665583"><ele>768.0</ele><time>2026-04-05T07:56:02.194Z</time></trkpt><trkpt lat="37.870115" lon="14.9666417"><ele>768.0</ele><time>2026-04-05T07:56:04.195Z</time></trkpt><trkpt lat="37.870055" lon="14.9667167"><ele>768.0</ele><time>2026-04-05T07:56:06.196Z</time></trkpt><trkpt lat="37.8699967" lon="14.9668"><ele>768.0</ele><time>2026-04-05T07:56:08.193Z</time></trkpt><trkpt lat="37.8699383" lon="14.9668817"><ele>768.0</ele><time>2026-04-05T07:56:10.193Z</time></trkpt><trkpt lat="37.86988" lon="14.9669683"><ele>767.8</ele><time>2026-04-05T07:56:12.194Z</time></trkpt><trkpt lat="37.8698267" lon="14.9670633"><ele>767.5999999999999</ele><time>2026-04-05T07:56:14.194Z</time></trkpt><trkpt lat="37.8697783" lon="14.96717"><ele>767.4000000000001</ele><time>2026-04-05T07:56:16.195Z</time></trkpt><trkpt lat="37.8697417" lon="14.9672917"><ele>767.2</ele><time>2026-04-05T07:56:18.194Z</time></trkpt><trkpt lat="37.8697117" lon="14.9674267"><ele>767.0</ele><time>2026-04-05T07:56:20.195Z</time></trkpt><trkpt lat="37.8696917" lon="14.96757"><ele>767.0</ele><time>2026-04-05T07:56:22.193Z</time></trkpt><trkpt lat="37.86968" lon="14.9677133"><ele>767.0</ele><time>2026-04-05T07:56:24.194Z</time></trkpt><trkpt lat="37.8696767" lon="14.96787"><ele>767.0</ele><time>2026-04-05T07:56:26.194Z</time></trkpt><trkpt lat="37.8696683" lon="14.967955"><ele>767.0</ele><time>2026-04-05T07:56:27.194Z</time></trkpt><trkpt lat="37.8696683" lon="14.9680383"><ele>767.0</ele><time>2026-04-05T07:56:28.194Z</time></trkpt><trkpt lat="37.8696733" lon="14.9681233"><ele>767.0</ele><time>2026-04-05T07:56:29.192Z</time></trkpt><trkpt lat="37.869675" lon="14.9682083"><ele>767.0</ele><time>2026-04-05T07:56:30.194Z</time></trkpt><trkpt lat="37.8696717" lon="14.9682917"><ele>767.0</ele><time>2026-04-05T07:56:31.192Z</time></trkpt><trkpt lat="37.86967" lon="14.9683767"><ele>767.0</ele><time>2026-04-05T07:56:32.193Z</time></trkpt><trkpt lat="37.8696667" lon="14.9684583"><ele>767.0</ele><time>2026-04-05T07:56:33.194Z</time></trkpt><trkpt lat="37.8696617" lon="14.96854"><ele>767.0</ele><time>2026-04-05T07:56:34.191Z</time></trkpt><trkpt lat="37.8696567" lon="14.96862"><ele>767.0</ele><time>2026-04-05T07:56:35.192Z</time></trkpt><trkpt lat="37.86965" lon="14.9687783"><ele>767.0</ele><time>2026-04-05T07:56:37.194Z</time></trkpt><trkpt lat="37.8696467" lon="14.968935"><ele>767.0</ele><time>2026-04-05T07:56:39.192Z</time></trkpt><trkpt lat="37.8696367" lon="14.96909"><ele>767.0</ele><time>2026-04-05T07:56:41.192Z</time></trkpt><trkpt lat="37.8696317" lon="14.96917"><ele>767.0</ele><time>2026-04-05T07:56:42.192Z</time></trkpt><trkpt lat="37.8696267" lon="14.9693267"><ele>767.0</ele><time>2026-04-05T07:56:44.193Z</time></trkpt><trkpt lat="37.8696217" lon="14.9694817"><ele>767.0</ele><time>2026-04-05T07:56:46.192Z</time></trkpt><trkpt lat="37.8696083" lon="14.9696383"><ele>767.0</ele><time>2026-04-05T07:56:48.191Z</time></trkpt><trkpt lat="37.8695983" lon="14.9697933"><ele>767.0</ele><time>2026-04-05T07:56:50.193Z</time></trkpt><trkpt lat="37.8695983" lon="14.9698733"><ele>767.0</ele><time>2026-04-05T07:56:51.193Z</time></trkpt><trkpt lat="37.8695967" lon="14.9699533"><ele>767.0</ele><time>2026-04-05T07:56:52.192Z</time></trkpt><trkpt lat="37.86959" lon="14.97011"><ele>766.4000000000001</ele><time>2026-04-05T07:56:54.194Z</time></trkpt><trkpt lat="37.8695833" lon="14.970265"><ele>765.8000000000001</ele><time>2026-04-05T07:56:56.191Z</time></trkpt><trkpt lat="37.869575" lon="14.9704233"><ele>765.2</ele><time>2026-04-05T07:56:58.191Z</time></trkpt><trkpt lat="37.869565" lon="14.9705783"><ele>764.6</ele><time>2026-04-05T07:57:00.196Z</time></trkpt><trkpt lat="37.8695617" lon="14.9706583"><ele>764.0</ele><time>2026-04-05T07:57:01.193Z</time></trkpt><trkpt lat="37.8695567" lon="14.9707383"><ele>764.0</ele><time>2026-04-05T07:57:02.192Z</time></trkpt><trkpt lat="37.8695533" lon="14.9708183"><ele>764.0</ele><time>2026-04-05T07:57:03.194Z</time></trkpt><trkpt lat="37.8695483" lon="14.9708983"><ele>764.0</ele><time>2026-04-05T07:57:04.192Z</time></trkpt><trkpt lat="37.8695367" lon="14.97105"><ele>764.0</ele><time>2026-04-05T07:57:06.194Z</time></trkpt><trkpt lat="37.8695317" lon="14.97113"><ele>764.0</ele><time>2026-04-05T07:57:07.194Z</time></trkpt><trkpt lat="37.8695283" lon="14.9712133"><ele>764.0</ele><time>2026-04-05T07:57:08.192Z</time></trkpt><trkpt lat="37.8695183" lon="14.9713733"><ele>764.2</ele><time>2026-04-05T07:57:10.194Z</time></trkpt><trkpt lat="37.86951" lon="14.9714533"><ele>764.4000000000001</ele><time>2026-04-05T07:57:11.193Z</time></trkpt><trkpt lat="37.8695" lon="14.971535"><ele>764.6</ele><time>2026-04-05T07:57:12.192Z</time></trkpt><trkpt lat="37.869475" lon="14.97169"><ele>764.8</ele><time>2026-04-05T07:57:14.197Z</time></trkpt><trkpt lat="37.8694417" lon="14.971835"><ele>765.0</ele><time>2026-04-05T07:57:16.191Z</time></trkpt><trkpt lat="37.8694117" lon="14.971975"><ele>765.2</ele><time>2026-04-05T07:57:18.194Z</time></trkpt><trkpt lat="37.8693683" lon="14.9721083"><ele>765.4</ele><time>2026-04-05T07:57:20.192Z</time></trkpt><trkpt lat="37.86933" lon="14.97224"><ele>765.5999999999999</ele><time>2026-04-05T07:57:22.193Z</time></trkpt><trkpt lat="37.869285" lon="14.9723633"><ele>765.8</ele><time>2026-04-05T07:57:24.196Z</time></trkpt><trkpt lat="37.86924" lon="14.9724783"><ele>766.0</ele><time>2026-04-05T07:57:26.193Z</time></trkpt><trkpt lat="37.869195" lon="14.9725883"><ele>767.0</ele><time>2026-04-05T07:57:28.193Z</time></trkpt><trkpt lat="37.8691483" lon="14.9727033"><ele>768.0</ele><time>2026-04-05T07:57:30.192Z</time></trkpt><trkpt lat="37.8690983" lon="14.97282"><ele>769.0</ele><time>2026-04-05T07:57:32.192Z</time></trkpt><trkpt lat="37.8690517" lon="14.9729417"><ele>770.0</ele><time>2026-04-05T07:57:34.193Z</time></trkpt><trkpt lat="37.8690017" lon="14.9730533"><ele>771.0</ele><time>2026-04-05T07:57:36.191Z</time></trkpt><trkpt lat="37.8689533" lon="14.9731683"><ele>771.0</ele><time>2026-04-05T07:57:38.192Z</time></trkpt><trkpt lat="37.8689083" lon="14.97329"><ele>771.0</ele><time>2026-04-05T07:57:40.191Z</time></trkpt><trkpt lat="37.8688633" lon="14.97341"><ele>771.0</ele><time>2026-04-05T07:57:42.192Z</time></trkpt><trkpt lat="37.8688183" lon="14.9735317"><ele>771.0</ele><time>2026-04-05T07:57:44.193Z</time></trkpt><trkpt lat="37.86877" lon="14.97365"><ele>771.0</ele><time>2026-04-05T07:57:46.192Z</time></trkpt><trkpt lat="37.8687217" lon="14.97377"><ele>770.5999999999999</ele><time>2026-04-05T07:57:48.191Z</time></trkpt><trkpt lat="37.868675" lon="14.97389"><ele>770.2</ele><time>2026-04-05T07:57:50.194Z</time></trkpt><trkpt lat="37.868625" lon="14.9740083"><ele>769.8</ele><time>2026-04-05T07:57:52.194Z</time></trkpt><trkpt lat="37.8685767" lon="14.9741317"><ele>769.4000000000001</ele><time>2026-04-05T07:57:54.193Z</time></trkpt><trkpt lat="37.8685317" lon="14.9742517"><ele>769.0</ele><time>2026-04-05T07:57:56.195Z</time></trkpt><trkpt lat="37.8684817" lon="14.97436"><ele>769.6</ele><time>2026-04-05T07:57:58.194Z</time></trkpt><trkpt lat="37.86843" lon="14.97447"><ele>770.2</ele><time>2026-04-05T07:58:00.192Z</time></trkpt><trkpt lat="37.8683817" lon="14.9745817"><ele>770.8000000000001</ele><time>2026-04-05T07:58:02.192Z</time></trkpt><trkpt lat="37.8683317" lon="14.9747017"><ele>771.4000000000001</ele><time>2026-04-05T07:58:04.193Z</time></trkpt><trkpt lat="37.8682883" lon="14.97482"><ele>772.0</ele><time>2026-04-05T07:58:06.192Z</time></trkpt><trkpt lat="37.8682383" lon="14.9749417"><ele>771.6</ele><time>2026-04-05T07:58:08.196Z</time></trkpt><trkpt lat="37.8681917" lon="14.975055"><ele>771.2</ele><time>2026-04-05T07:58:10.194Z</time></trkpt><trkpt lat="37.868145" lon="14.97517"><ele>770.8</ele><time>2026-04-05T07:58:12.191Z</time></trkpt><trkpt lat="37.8680983" lon="14.9752833"><ele>770.4</ele><time>2026-04-05T07:58:14.192Z</time></trkpt><trkpt lat="37.86805" lon="14.9754"><ele>770.0</ele><time>2026-04-05T07:58:16.191Z</time></trkpt><trkpt lat="37.8680033" lon="14.9755183"><ele>770.0</ele><time>2026-04-05T07:58:18.193Z</time></trkpt><trkpt lat="37.8679567" lon="14.9756367"><ele>770.0</ele><time>2026-04-05T07:58:20.193Z</time></trkpt><trkpt lat="37.86791" lon="14.97575"><ele>770.0</ele><time>2026-04-05T07:58:22.193Z</time></trkpt><trkpt lat="37.8678633" lon="14.9758633"><ele>770.0</ele><time>2026-04-05T07:58:24.193Z</time></trkpt><trkpt lat="37.8678133" lon="14.975975"><ele>770.0</ele><time>2026-04-05T07:58:26.193Z</time></trkpt><trkpt lat="37.867765" lon="14.97609"><ele>770.0</ele><time>2026-04-05T07:58:28.193Z</time></trkpt><trkpt lat="37.8677183" lon="14.9762067"><ele>770.0</ele><time>2026-04-05T07:58:30.191Z</time></trkpt><trkpt lat="37.8676717" lon="14.9763183"><ele>770.0</ele><time>2026-04-05T07:58:32.192Z</time></trkpt><trkpt lat="37.8676283" lon="14.9764333"><ele>770.0</ele><time>2026-04-05T07:58:34.192Z</time></trkpt><trkpt lat="37.867585" lon="14.9765483"><ele>770.0</ele><time>2026-04-05T07:58:36.192Z</time></trkpt><trkpt lat="37.86754" lon="14.9766633"><ele>771.0</ele><time>2026-04-05T07:58:38.193Z</time></trkpt><trkpt lat="37.8674933" lon="14.97678"><ele>772.0</ele><time>2026-04-05T07:58:40.193Z</time></trkpt><trkpt lat="37.8674483" lon="14.976895"><ele>773.0</ele><time>2026-04-05T07:58:42.193Z</time></trkpt><trkpt lat="37.867405" lon="14.9770017"><ele>774.0</ele><time>2026-04-05T07:58:44.197Z</time></trkpt><trkpt lat="37.867365" lon="14.977105"><ele>775.0</ele><time>2026-04-05T07:58:46.194Z</time></trkpt><trkpt lat="37.8673283" lon="14.977205"><ele>774.9999999999999</ele><time>2026-04-05T07:58:48.194Z</time></trkpt><trkpt lat="37.8672933" lon="14.9773017"><ele>775.0</ele><time>2026-04-05T07:58:50.193Z</time></trkpt><trkpt lat="37.8672567" lon="14.9773967"><ele>775.0</ele><time>2026-04-05T07:58:52.198Z</time></trkpt><trkpt lat="37.8672183" lon="14.9774883"><ele>775.0</ele><time>2026-04-05T07:58:54.196Z</time></trkpt><trkpt lat="37.8671767" lon="14.9775717"><ele>774.9999999999999</ele><time>2026-04-05T07:58:56.193Z</time></trkpt><trkpt lat="37.867135" lon="14.9776567"><ele>775.0</ele><time>2026-04-05T07:58:58.193Z</time></trkpt><trkpt lat="37.8670983" lon="14.977745"><ele>775.4999999999999</ele><time>2026-04-05T07:59:00.193Z</time></trkpt><trkpt lat="37.86706" lon="14.9778333"><ele>776.0</ele><time>2026-04-05T07:59:02.194Z</time></trkpt><trkpt lat="37.8670267" lon="14.9779217"><ele>776.5</ele><time>2026-04-05T07:59:04.192Z</time></trkpt><trkpt lat="37.8669933" lon="14.9780083"><ele>777.0</ele><time>2026-04-05T07:59:06.194Z</time></trkpt><trkpt lat="37.866955" lon="14.9780917"><ele>777.4999999999999</ele><time>2026-04-05T07:59:08.195Z</time></trkpt><trkpt lat="37.8669167" lon="14.978185"><ele>778.0</ele><time>2026-04-05T07:59:10.192Z</time></trkpt><trkpt lat="37.86688" lon="14.9782783"><ele>777.8333333333333</ele><time>2026-04-05T07:59:12.194Z</time></trkpt><trkpt lat="37.866845" lon="14.97837"><ele>777.6666666666666</ele><time>2026-04-05T07:59:14.196Z</time></trkpt><trkpt lat="37.8668183" lon="14.9784617"><ele>777.5</ele><time>2026-04-05T07:59:16.194Z</time></trkpt><trkpt lat="37.866795" lon="14.9785567"><ele>777.3333333333333</ele><time>2026-04-05T07:59:18.194Z</time></trkpt><trkpt lat="37.8667733" lon="14.9786533"><ele>777.1666666666666</ele><time>2026-04-05T07:59:20.194Z</time></trkpt><trkpt lat="37.8667533" lon="14.9787467"><ele>777.0</ele><time>2026-04-05T07:59:22.195Z</time></trkpt><trkpt lat="37.8667333" lon="14.97884"><ele>778.0</ele><time>2026-04-05T07:59:24.193Z</time></trkpt><trkpt lat="37.8667167" lon="14.978935"><ele>779.0</ele><time>2026-04-05T07:59:26.193Z</time></trkpt><trkpt lat="37.8666967" lon="14.9790283"><ele>780.0</ele><time>2026-04-05T07:59:28.194Z</time></trkpt><trkpt lat="37.86668" lon="14.9791233"><ele>781.0</ele><time>2026-04-05T07:59:30.194Z</time></trkpt><trkpt lat="37.8666667" lon="14.9792233"><ele>782.0</ele><time>2026-04-05T07:59:32.195Z</time></trkpt><trkpt lat="37.8666467" lon="14.9793233"><ele>783.0</ele><time>2026-04-05T07:59:34.193Z</time></trkpt><trkpt lat="37.8666267" lon="14.9794233"><ele>783.3333333333334</ele><time>2026-04-05T07:59:36.194Z</time></trkpt><trkpt lat="37.8666117" lon="14.9795183"><ele>783.6666666666667</ele><time>2026-04-05T07:59:38.195Z</time></trkpt><trkpt lat="37.866595" lon="14.979615"><ele>784.0</ele><time>2026-04-05T07:59:40.194Z</time></trkpt><trkpt lat="37.8665633" lon="14.9797067"><ele>784.3333333333334</ele><time>2026-04-05T07:59:42.196Z</time></trkpt><trkpt lat="37.8665033" lon="14.9797567"><ele>784.6666666666667</ele><time>2026-04-05T07:59:44.194Z</time></trkpt><trkpt lat="37.8664383" lon="14.9797733"><ele>785.0</ele><time>2026-04-05T07:59:46.192Z</time></trkpt><trkpt lat="37.866345" lon="14.9797917"><ele>785.0</ele><time>2026-04-05T07:59:49.192Z</time></trkpt><trkpt lat="37.8662767" lon="14.9798017"><ele>785.0</ele><time>2026-04-05T07:59:51.194Z</time></trkpt><trkpt lat="37.8662117" lon="14.9798183"><ele>785.0</ele><time>2026-04-05T07:59:53.195Z</time></trkpt><trkpt lat="37.8661483" lon="14.9798317"><ele>785.0</ele><time>2026-04-05T07:59:55.193Z</time></trkpt><trkpt lat="37.8660817" lon="14.979845"><ele>785.0</ele><time>2026-04-05T07:59:57.196Z</time></trkpt><trkpt lat="37.8660117" lon="14.9798667"><ele>785.0</ele><time>2026-04-05T07:59:59.194Z</time></trkpt><trkpt lat="37.86594" lon="14.9798817"><ele>785.0</ele><time>2026-04-05T08:00:01.193Z</time></trkpt><trkpt lat="37.865875" lon="14.9799"><ele>786.0</ele><time>2026-04-05T08:00:03.193Z</time></trkpt><trkpt lat="37.8658117" lon="14.97992"><ele>787.0</ele><time>2026-04-05T08:00:05.193Z</time></trkpt><trkpt lat="37.8657483" lon="14.97994"><ele>788.0</ele><time>2026-04-05T08:00:07.195Z</time></trkpt><trkpt lat="37.8656817" lon="14.97996"><ele>789.0</ele><time>2026-04-05T08:00:09.194Z</time></trkpt><trkpt lat="37.86559" lon="14.9799867"><ele>790.0</ele><time>2026-04-05T08:00:12.199Z</time></trkpt><trkpt lat="37.8655033" lon="14.98001"><ele>791.0</ele><time>2026-04-05T08:00:15.193Z</time></trkpt><trkpt lat="37.86544" lon="14.980025"><ele>792.0</ele><time>2026-04-05T08:00:17.199Z</time></trkpt><trkpt lat="37.8653767" lon="14.9800383"><ele>792.3333333333334</ele><time>2026-04-05T08:00:19.194Z</time></trkpt><trkpt lat="37.8652883" lon="14.98006"><ele>792.6666666666667</ele><time>2026-04-05T08:00:22.195Z</time></trkpt><trkpt lat="37.8652" lon="14.9800817"><ele>793.0</ele><time>2026-04-05T08:00:25.194Z</time></trkpt><trkpt lat="37.8651367" lon="14.9800883"><ele>793.3333333333334</ele><time>2026-04-05T08:00:27.192Z</time></trkpt><trkpt lat="37.865045" lon="14.9800867"><ele>793.6666666666667</ele><time>2026-04-05T08:00:30.195Z</time></trkpt><trkpt lat="37.8649817" lon="14.98008"><ele>794.0</ele><time>2026-04-05T08:00:32.193Z</time></trkpt><trkpt lat="37.8648933" lon="14.980045"><ele>795.0</ele><time>2026-04-05T08:00:35.193Z</time></trkpt><trkpt lat="37.8648133" lon="14.9799983"><ele>796.0</ele><time>2026-04-05T08:00:38.194Z</time></trkpt><trkpt lat="37.8647267" lon="14.9799533"><ele>797.0</ele><time>2026-04-05T08:00:41.195Z</time></trkpt><trkpt lat="37.8646383" lon="14.9799167"><ele>798.0</ele><time>2026-04-05T08:00:44.194Z</time></trkpt><trkpt lat="37.8645583" lon="14.9798633"><ele>799.0</ele><time>2026-04-05T08:00:47.195Z</time></trkpt><trkpt lat="37.8644767" lon="14.9798067"><ele>798.9999999999999</ele><time>2026-04-05T08:00:50.195Z</time></trkpt><trkpt lat="37.86442" lon="14.979765"><ele>799.0</ele><time>2026-04-05T08:00:52.193Z</time></trkpt><trkpt lat="37.8643683" lon="14.9797183"><ele>799.0</ele><time>2026-04-05T08:00:54.195Z</time></trkpt><trkpt lat="37.864295" lon="14.9796483"><ele>799.0</ele><time>2026-04-05T08:00:57.193Z</time></trkpt><trkpt lat="37.8642267" lon="14.97958"><ele>798.9999999999999</ele><time>2026-04-05T08:01:00.195Z</time></trkpt><trkpt lat="37.864155" lon="14.9795133"><ele>799.0</ele><time>2026-04-05T08:01:03.195Z</time></trkpt><trkpt lat="37.8640817" lon="14.979445"><ele>799.8333333333333</ele><time>2026-04-05T08:01:06.196Z</time></trkpt><trkpt lat="37.8640067" lon="14.9793817"><ele>800.6666666666666</ele><time>2026-04-05T08:01:09.193Z</time></trkpt><trkpt lat="37.86393" lon="14.9793267"><ele>801.5</ele><time>2026-04-05T08:01:12.193Z</time></trkpt><trkpt lat="37.863845" lon="14.9792867"><ele>802.3333333333333</ele><time>2026-04-05T08:01:15.193Z</time></trkpt><trkpt lat="37.8637567" lon="14.979275"><ele>803.1666666666666</ele><time>2026-04-05T08:01:18.193Z</time></trkpt><trkpt lat="37.8636717" lon="14.97931"><ele>804.0</ele><time>2026-04-05T08:01:21.193Z</time></trkpt><trkpt lat="37.86362" lon="14.9793583"><ele>804.0</ele><time>2026-04-05T08:01:23.198Z</time></trkpt><trkpt lat="37.8635483" lon="14.9794267"><ele>804.0</ele><time>2026-04-05T08:01:26.194Z</time></trkpt><trkpt lat="37.8634733" lon="14.979485"><ele>804.0</ele><time>2026-04-05T08:01:29.195Z</time></trkpt><trkpt lat="37.8633867" lon="14.9795167"><ele>804.0</ele><time>2026-04-05T08:01:32.195Z</time></trkpt><trkpt lat="37.8633033" lon="14.97952"><ele>804.0</ele><time>2026-04-05T08:01:35.195Z</time></trkpt><trkpt lat="37.86324" lon="14.9795233"><ele>804.0</ele><time>2026-04-05T08:01:37.194Z</time></trkpt><trkpt lat="37.8631517" lon="14.9795217"><ele>806.1666666666666</ele><time>2026-04-05T08:01:40.194Z</time></trkpt><trkpt lat="37.8630683" lon="14.979505"><ele>808.3333333333333</ele><time>2026-04-05T08:01:43.194Z</time></trkpt><trkpt lat="37.8629833" lon="14.9794883"><ele>810.5</ele><time>2026-04-05T08:01:46.193Z</time></trkpt><trkpt lat="37.8628967" lon="14.9794767"><ele>812.6666666666666</ele><time>2026-04-05T08:01:49.193Z</time></trkpt><trkpt lat="37.8628133" lon="14.9794633"><ele>814.8333333333333</ele><time>2026-04-05T08:01:52.194Z</time></trkpt><trkpt lat="37.8627317" lon="14.9794517"><ele>817.0</ele><time>2026-04-05T08:01:55.194Z</time></trkpt><trkpt lat="37.8626483" lon="14.9794433"><ele>818.8333333333333</ele><time>2026-04-05T08:01:58.194Z</time></trkpt><trkpt lat="37.8625583" lon="14.979435"><ele>820.6666666666666</ele><time>2026-04-05T08:02:01.194Z</time></trkpt><trkpt lat="37.8624667" lon="14.97943"><ele>822.5</ele><time>2026-04-05T08:02:04.195Z</time></trkpt><trkpt lat="37.862375" lon="14.9794267"><ele>824.3333333333333</ele><time>2026-04-05T08:02:07.194Z</time></trkpt><trkpt lat="37.86229" lon="14.97943"><ele>826.1666666666666</ele><time>2026-04-05T08:02:10.193Z</time></trkpt><trkpt lat="37.862205" lon="14.9794283"><ele>828.0</ele><time>2026-04-05T08:02:13.193Z</time></trkpt><trkpt lat="37.8621133" lon="14.9794333"><ele>828.0</ele><time>2026-04-05T08:02:16.193Z</time></trkpt><trkpt lat="37.86202" lon="14.97944"><ele>828.0</ele><time>2026-04-05T08:02:19.194Z</time></trkpt><trkpt lat="37.8619567" lon="14.979445"><ele>828.0</ele><time>2026-04-05T08:02:21.192Z</time></trkpt><trkpt lat="37.8618933" lon="14.9794517"><ele>828.0</ele><time>2026-04-05T08:02:23.194Z</time></trkpt><trkpt lat="37.8618" lon="14.9794567"><ele>828.0</ele><time>2026-04-05T08:02:26.194Z</time></trkpt><trkpt lat="37.8617133" lon="14.9794733"><ele>828.0</ele><time>2026-04-05T08:02:29.194Z</time></trkpt><trkpt lat="37.8616317" lon="14.9794917"><ele>830.0</ele><time>2026-04-05T08:02:32.194Z</time></trkpt><trkpt lat="37.8615517" lon="14.97952"><ele>832.0</ele><time>2026-04-05T08:02:35.193Z</time></trkpt><trkpt lat="37.861475" lon="14.9795617"><ele>834.0</ele><time>2026-04-05T08:02:38.193Z</time></trkpt><trkpt lat="37.861415" lon="14.979635"><ele>836.0</ele><time>2026-04-05T08:02:41.193Z</time></trkpt><trkpt lat="37.8614133" lon="14.97974"><ele>838.0</ele><time>2026-04-05T08:02:44.193Z</time></trkpt><trkpt lat="37.861425" lon="14.979845"><ele>840.0</ele><time>2026-04-05T08:02:47.193Z</time></trkpt><trkpt lat="37.8614133" lon="14.9799517"><ele>840.1666666666666</ele><time>2026-04-05T08:02:50.194Z</time></trkpt><trkpt lat="37.8613667" lon="14.9800317"><ele>840.3333333333333</ele><time>2026-04-05T08:02:53.192Z</time></trkpt><trkpt lat="37.8612867" lon="14.9800667"><ele>840.5</ele><time>2026-04-05T08:02:56.193Z</time></trkpt><trkpt lat="37.861205" lon="14.980085"><ele>840.6666666666666</ele><time>2026-04-05T08:02:59.194Z</time></trkpt><trkpt lat="37.86112" lon="14.9801"><ele>840.8333333333333</ele><time>2026-04-05T08:03:02.194Z</time></trkpt><trkpt lat="37.8610267" lon="14.9801117"><ele>841.0</ele><time>2026-04-05T08:03:05.194Z</time></trkpt><trkpt lat="37.8609617" lon="14.9801233"><ele>841.6666666666666</ele><time>2026-04-05T08:03:07.193Z</time></trkpt><trkpt lat="37.860895" lon="14.9801317"><ele>842.3333333333333</ele><time>2026-04-05T08:03:09.193Z</time></trkpt><trkpt lat="37.8608283" lon="14.980135"><ele>843.0</ele><time>2026-04-05T08:03:11.194Z</time></trkpt><trkpt lat="37.860765" lon="14.9801433"><ele>843.6666666666667</ele><time>2026-04-05T08:03:13.192Z</time></trkpt><trkpt lat="37.8606733" lon="14.9801433"><ele>844.3333333333334</ele><time>2026-04-05T08:03:16.193Z</time></trkpt><trkpt lat="37.8605783" lon="14.9801417"><ele>845.0</ele><time>2026-04-05T08:03:19.194Z</time></trkpt><trkpt lat="37.8604867" lon="14.9801467"><ele>845.0000000000001</ele><time>2026-04-05T08:03:22.199Z</time></trkpt><trkpt lat="37.8604233" lon="14.9801467"><ele>845.0</ele><time>2026-04-05T08:03:24.193Z</time></trkpt><trkpt lat="37.8603267" lon="14.9801383"><ele>845.0</ele><time>2026-04-05T08:03:27.193Z</time></trkpt><trkpt lat="37.8602633" lon="14.9801367"><ele>845.0</ele><time>2026-04-05T08:03:29.194Z</time></trkpt><trkpt lat="37.8601717" lon="14.9801317"><ele>845.0000000000001</ele><time>2026-04-05T08:03:32.193Z</time></trkpt><trkpt lat="37.86008" lon="14.9801317"><ele>845.0</ele><time>2026-04-05T08:03:35.2Z</time></trkpt><trkpt lat="37.8599883" lon="14.9801333"><ele>846.5000000000001</ele><time>2026-04-05T08:03:38.193Z</time></trkpt><trkpt lat="37.8598983" lon="14.9801483"><ele>848.0</ele><time>2026-04-05T08:03:41.195Z</time></trkpt><trkpt lat="37.85981" lon="14.9801533"><ele>849.5</ele><time>2026-04-05T08:03:44.194Z</time></trkpt><trkpt lat="37.8597233" lon="14.9801917"><ele>851.0</ele><time>2026-04-05T08:03:47.195Z</time></trkpt><trkpt lat="37.8596667" lon="14.9802317"><ele>852.5000000000001</ele><time>2026-04-05T08:03:49.193Z</time></trkpt><trkpt lat="37.8596167" lon="14.9802867"><ele>854.0</ele><time>2026-04-05T08:03:51.195Z</time></trkpt><trkpt lat="37.8595467" lon="14.9803683"><ele>854.0</ele><time>2026-04-05T08:03:54.193Z</time></trkpt><trkpt lat="37.859495" lon="14.9804183"><ele>854.0</ele><time>2026-04-05T08:03:56.194Z</time></trkpt><trkpt lat="37.8594483" lon="14.9804733"><ele>854.0</ele><time>2026-04-05T08:03:58.194Z</time></trkpt><trkpt lat="37.8593983" lon="14.980525"><ele>854.0</ele><time>2026-04-05T08:04:00.193Z</time></trkpt><trkpt lat="37.8593467" lon="14.9805767"><ele>854.0</ele><time>2026-04-05T08:04:02.195Z</time></trkpt><trkpt lat="37.8593" lon="14.980635"><ele>854.0</ele><time>2026-04-05T08:04:04.192Z</time></trkpt><trkpt lat="37.8592683" lon="14.98071"><ele>854.0</ele><time>2026-04-05T08:04:06.192Z</time></trkpt><trkpt lat="37.8592533" lon="14.9807917"><ele>856.1428571428571</ele><time>2026-04-05T08:04:08.194Z</time></trkpt><trkpt lat="37.8592517" lon="14.9808733"><ele>858.2857142857142</ele><time>2026-04-05T08:04:10.194Z</time></trkpt><trkpt lat="37.8592533" lon="14.9809567"><ele>860.4285714285714</ele><time>2026-04-05T08:04:12.196Z</time></trkpt><trkpt lat="37.859245" lon="14.9810383"><ele>862.5714285714286</ele><time>2026-04-05T08:04:14.194Z</time></trkpt><trkpt lat="37.8592267" lon="14.9811433"><ele>864.7142857142857</ele><time>2026-04-05T08:04:17.191Z</time></trkpt><trkpt lat="37.8591767" lon="14.9812183"><ele>866.8571428571429</ele><time>2026-04-05T08:04:20.196Z</time></trkpt><trkpt lat="37.8591067" lon="14.981265"><ele>869.0</ele><time>2026-04-05T08:04:23.193Z</time></trkpt><trkpt lat="37.8590417" lon="14.981315"><ele>869.0000000000001</ele><time>2026-04-05T08:04:26.196Z</time></trkpt><trkpt lat="37.8589733" lon="14.9813817"><ele>869.0</ele><time>2026-04-05T08:04:29.192Z</time></trkpt><trkpt lat="37.8589133" lon="14.98143"><ele>869.0</ele><time>2026-04-05T08:04:32.197Z</time></trkpt><trkpt lat="37.8588467" lon="14.9814817"><ele>869.0</ele><time>2026-04-05T08:04:35.196Z</time></trkpt><trkpt lat="37.85878" lon="14.9815333"><ele>869.0000000000001</ele><time>2026-04-05T08:04:38.194Z</time></trkpt><trkpt lat="37.858715" lon="14.9815717"><ele>869.0</ele><time>2026-04-05T08:04:41.194Z</time></trkpt><trkpt lat="37.8586517" lon="14.9816117"><ele>869.0000000000001</ele><time>2026-04-05T08:04:44.193Z</time></trkpt><trkpt lat="37.85858" lon="14.981655"><ele>869.0</ele><time>2026-04-05T08:04:47.193Z</time></trkpt><trkpt lat="37.8585067" lon="14.9817033"><ele>869.0</ele><time>2026-04-05T08:04:50.193Z</time></trkpt><trkpt lat="37.8584267" lon="14.9817633"><ele>869.0</ele><time>2026-04-05T08:04:53.194Z</time></trkpt><trkpt lat="37.8583717" lon="14.9818083"><ele>869.0000000000001</ele><time>2026-04-05T08:04:55.193Z</time></trkpt><trkpt lat="37.858315" lon="14.98185"><ele>869.0</ele><time>2026-04-05T08:04:57.192Z</time></trkpt><trkpt lat="37.8582383" lon="14.98191"><ele>870.0</ele><time>2026-04-05T08:05:00.193Z</time></trkpt><trkpt lat="37.8581867" lon="14.98196"><ele>871.0000000000001</ele><time>2026-04-05T08:05:02.195Z</time></trkpt><trkpt lat="37.858125" lon="14.9820367"><ele>872.0000000000001</ele><time>2026-04-05T08:05:04.194Z</time></trkpt><trkpt lat="37.85807" lon="14.9821433"><ele>873.0</ele><time>2026-04-05T08:05:06.195Z</time></trkpt><trkpt lat="37.8580333" lon="14.98227"><ele>874.0</ele><time>2026-04-05T08:05:08.195Z</time></trkpt><trkpt lat="37.8580183" lon="14.9824067"><ele>874.1666666666666</ele><time>2026-04-05T08:05:10.193Z</time></trkpt><trkpt lat="37.85803" lon="14.9825167"><ele>874.3333333333333</ele><time>2026-04-05T08:05:12.193Z</time></trkpt><trkpt lat="37.85804" lon="14.9826"><ele>874.5</ele><time>2026-04-05T08:05:14.193Z</time></trkpt><trkpt lat="37.8580567" lon="14.9827017"><ele>874.6666666666667</ele><time>2026-04-05T08:05:17.194Z</time></trkpt><trkpt lat="37.8580733" lon="14.98281"><ele>874.8333333333334</ele><time>2026-04-05T08:05:20.194Z</time></trkpt><trkpt lat="37.85809" lon="14.9829133"><ele>875.0</ele><time>2026-04-05T08:05:23.193Z</time></trkpt><trkpt lat="37.8581067" lon="14.9830133"><ele>875.0000000000001</ele><time>2026-04-05T08:05:26.194Z</time></trkpt><trkpt lat="37.85813" lon="14.98312"><ele>875.0</ele><time>2026-04-05T08:05:29.192Z</time></trkpt><trkpt lat="37.85815" lon="14.9832267"><ele>875.0</ele><time>2026-04-05T08:05:32.194Z</time></trkpt><trkpt lat="37.8581717" lon="14.9833267"><ele>875.0</ele><time>2026-04-05T08:05:35.192Z</time></trkpt><trkpt lat="37.8581767" lon="14.98343"><ele>875.0000000000001</ele><time>2026-04-05T08:05:38.199Z</time></trkpt><trkpt lat="37.858165" lon="14.9835333"><ele>875.0</ele><time>2026-04-05T08:05:41.193Z</time></trkpt><trkpt lat="37.8581333" lon="14.98363"><ele>875.3333333333334</ele><time>2026-04-05T08:05:44.194Z</time></trkpt><trkpt lat="37.8580967" lon="14.98372"><ele>875.6666666666667</ele><time>2026-04-05T08:05:47.194Z</time></trkpt><trkpt lat="37.8580433" lon="14.983795"><ele>876.0</ele><time>2026-04-05T08:05:50.195Z</time></trkpt><trkpt lat="37.8579783" lon="14.983855"><ele>876.3333333333333</ele><time>2026-04-05T08:05:53.196Z</time></trkpt><trkpt lat="37.8579017" lon="14.983885"><ele>876.6666666666666</ele><time>2026-04-05T08:05:56.194Z</time></trkpt><trkpt lat="37.85782" lon="14.9839033"><ele>877.0</ele><time>2026-04-05T08:05:59.196Z</time></trkpt><trkpt lat="37.8577367" lon="14.9839183"><ele>876.9999999999999</ele><time>2026-04-05T08:06:02.194Z</time></trkpt><trkpt lat="37.8576517" lon="14.9839083"><ele>877.0</ele><time>2026-04-05T08:06:05.192Z</time></trkpt><trkpt lat="37.85757" lon="14.9838833"><ele>877.0</ele><time>2026-04-05T08:06:08.193Z</time></trkpt><trkpt lat="37.8574883" lon="14.983855"><ele>877.0</ele><time>2026-04-05T08:06:11.195Z</time></trkpt><trkpt lat="37.85741" lon="14.9838283"><ele>876.9999999999999</ele><time>2026-04-05T08:06:14.193Z</time></trkpt><trkpt lat="37.8573283" lon="14.98382"><ele>877.0</ele><time>2026-04-05T08:06:17.192Z</time></trkpt><trkpt lat="37.8572417" lon="14.9838283"><ele>879.6666666666666</ele><time>2026-04-05T08:06:20.197Z</time></trkpt><trkpt lat="37.8571617" lon="14.9838483"><ele>882.3333333333333</ele><time>2026-04-05T08:06:23.192Z</time></trkpt><trkpt lat="37.8570783" lon="14.98389"><ele>885.0</ele><time>2026-04-05T08:06:26.193Z</time></trkpt><trkpt lat="37.8569983" lon="14.9839167"><ele>887.6666666666667</ele><time>2026-04-05T08:06:29.193Z</time></trkpt><trkpt lat="37.8569167" lon="14.9839533"><ele>890.3333333333334</ele><time>2026-04-05T08:06:32.192Z</time></trkpt><trkpt lat="37.856835" lon="14.9839917"><ele>893.0</ele><time>2026-04-05T08:06:35.196Z</time></trkpt><trkpt lat="37.856755" lon="14.9840333"><ele>894.5000000000001</ele><time>2026-04-05T08:06:38.2Z</time></trkpt><trkpt lat="37.85667" lon="14.9840517"><ele>896.0</ele><time>2026-04-05T08:06:41.192Z</time></trkpt><trkpt lat="37.8565867" lon="14.984045"><ele>897.5</ele><time>2026-04-05T08:06:44.193Z</time></trkpt><trkpt lat="37.85651" lon="14.9840133"><ele>899.0</ele><time>2026-04-05T08:06:47.192Z</time></trkpt><trkpt lat="37.85643" lon="14.9839933"><ele>900.5000000000001</ele><time>2026-04-05T08:06:50.194Z</time></trkpt><trkpt lat="37.85634" lon="14.9839933"><ele>902.0</ele><time>2026-04-05T08:06:53.204Z</time></trkpt><trkpt lat="37.85626" lon="14.9840367"><ele>902.0000000000001</ele><time>2026-04-05T08:06:56.193Z</time></trkpt><trkpt lat="37.8561917" lon="14.98411"><ele>902.0</ele><time>2026-04-05T08:06:59.197Z</time></trkpt><trkpt lat="37.85615" lon="14.98417"><ele>902.0</ele><time>2026-04-05T08:07:01.194Z</time></trkpt><trkpt lat="37.85613" lon="14.9842683"><ele>902.0</ele><time>2026-04-05T08:07:04.193Z</time></trkpt><trkpt lat="37.8561283" lon="14.984375"><ele>902.0000000000001</ele><time>2026-04-05T08:07:07.196Z</time></trkpt><trkpt lat="37.8561267" lon="14.9844867"><ele>902.0</ele><time>2026-04-05T08:07:10.193Z</time></trkpt><trkpt lat="37.8561317" lon="14.9846017"><ele>902.2857142857142</ele><time>2026-04-05T08:07:13.193Z</time></trkpt><trkpt lat="37.8561317" lon="14.9846817"><ele>902.5714285714287</ele><time>2026-04-05T08:07:15.192Z</time></trkpt><trkpt lat="37.8561233" lon="14.984795"><ele>902.8571428571429</ele><time>2026-04-05T08:07:18.194Z</time></trkpt><trkpt lat="37.85606" lon="14.9848633"><ele>903.1428571428571</ele><time>2026-04-05T08:07:21.192Z</time></trkpt><trkpt lat="37.8560317" lon="14.9849617"><ele>903.4285714285713</ele><time>2026-04-05T08:07:24.194Z</time></trkpt><trkpt lat="37.8560383" lon="14.9850417"><ele>903.7142857142858</ele><time>2026-04-05T08:07:26.194Z</time></trkpt><trkpt lat="37.8560533" lon="14.98512"><ele>904.0</ele><time>2026-04-05T08:07:28.193Z</time></trkpt><trkpt lat="37.856075" lon="14.9852317"><ele>904.4999999999999</ele><time>2026-04-05T08:07:31.191Z</time></trkpt><trkpt lat="37.8560833" lon="14.9853117"><ele>905.0</ele><time>2026-04-05T08:07:33.193Z</time></trkpt><trkpt lat="37.8560833" lon="14.9854317"><ele>905.5</ele><time>2026-04-05T08:07:36.196Z</time></trkpt><trkpt lat="37.8560817" lon="14.985545"><ele>906.0</ele><time>2026-04-05T08:07:39.191Z</time></trkpt><trkpt lat="37.8560683" lon="14.9856583"><ele>906.4999999999999</ele><time>2026-04-05T08:07:42.193Z</time></trkpt><trkpt lat="37.856045" lon="14.9857717"><ele>907.0</ele><time>2026-04-05T08:07:45.192Z</time></trkpt><trkpt lat="37.856015" lon="14.9858817"><ele>907.6</ele><time>2026-04-05T08:07:48.193Z</time></trkpt><trkpt lat="37.8559817" lon="14.9859867"><ele>908.2</ele><time>2026-04-05T08:07:51.191Z</time></trkpt><trkpt lat="37.8559383" lon="14.9860883"><ele>908.8</ele><time>2026-04-05T08:07:54.192Z</time></trkpt><trkpt lat="37.8559017" lon="14.9861967"><ele>909.4</ele><time>2026-04-05T08:07:57.193Z</time></trkpt><trkpt lat="37.8558617" lon="14.986295"><ele>910.0</ele><time>2026-04-05T08:08:00.192Z</time></trkpt><trkpt lat="37.8558267" lon="14.9864033"><ele>911.8333333333333</ele><time>2026-04-05T08:08:03.192Z</time></trkpt><trkpt lat="37.8558017" lon="14.9864783"><ele>913.6666666666666</ele><time>2026-04-05T08:08:05.192Z</time></trkpt><trkpt lat="37.855765" lon="14.9865833"><ele>915.5</ele><time>2026-04-05T08:08:08.193Z</time></trkpt><trkpt lat="37.8557383" lon="14.9866583"><ele>917.3333333333333</ele><time>2026-04-05T08:08:10.192Z</time></trkpt><trkpt lat="37.8556933" lon="14.9867583"><ele>919.1666666666666</ele><time>2026-04-05T08:08:13.191Z</time></trkpt><trkpt lat="37.8556167" lon="14.9868233"><ele>921.0</ele><time>2026-04-05T08:08:16.193Z</time></trkpt><trkpt lat="37.8555267" lon="14.9868567"><ele>921.0</ele><time>2026-04-05T08:08:19.193Z</time></trkpt><trkpt lat="37.855435" lon="14.986845"><ele>921.0</ele><time>2026-04-05T08:08:22.192Z</time></trkpt><trkpt lat="37.8553583" lon="14.9867867"><ele>921.0</ele><time>2026-04-05T08:08:25.194Z</time></trkpt><trkpt lat="37.855305" lon="14.9867067"><ele>921.0</ele><time>2026-04-05T08:08:28.193Z</time></trkpt><trkpt lat="37.8552783" lon="14.9866"><ele>921.0</ele><time>2026-04-05T08:08:31.192Z</time></trkpt><trkpt lat="37.8552567" lon="14.9864867"><ele>921.0</ele><time>2026-04-05T08:08:34.193Z</time></trkpt><trkpt lat="37.855245" lon="14.9864083"><ele>921.0</ele><time>2026-04-05T08:08:36.193Z</time></trkpt><trkpt lat="37.8552283" lon="14.986325"><ele>921.0</ele><time>2026-04-05T08:08:39.192Z</time></trkpt><trkpt lat="37.8552433" lon="14.9862067"><ele>921.0</ele><time>2026-04-05T08:09:22.199Z</time></trkpt><trkpt lat="37.8552233" lon="14.9861083"><ele>921.0</ele><time>2026-04-05T08:09:25.191Z</time></trkpt><trkpt lat="37.855205" lon="14.9859983"><ele>921.0</ele><time>2026-04-05T08:09:28.191Z</time></trkpt><trkpt lat="37.8551767" lon="14.9858883"><ele>921.0</ele><time>2026-04-05T08:09:31.193Z</time></trkpt><trkpt lat="37.85515" lon="14.9858133"><ele>923.1428571428573</ele><time>2026-04-05T08:09:33.195Z</time></trkpt><trkpt lat="37.855115" lon="14.9857433"><ele>925.2857142857143</ele><time>2026-04-05T08:09:35.198Z</time></trkpt><trkpt lat="37.8550817" lon="14.985675"><ele>927.4285714285716</ele><time>2026-04-05T08:09:37.192Z</time></trkpt><trkpt lat="37.855035" lon="14.985575"><ele>929.5714285714287</ele><time>2026-04-05T08:09:40.191Z</time></trkpt><trkpt lat="37.855" lon="14.9855083"><ele>931.7142857142858</ele><time>2026-04-05T08:09:42.197Z</time></trkpt><trkpt lat="37.8549633" lon="14.98544"><ele>933.8571428571429</ele><time>2026-04-05T08:09:44.192Z</time></trkpt><trkpt lat="37.8549167" lon="14.985335"><ele>936.0</ele><time>2026-04-05T08:09:47.192Z</time></trkpt><trkpt lat="37.8548783" lon="14.98527"><ele>936.0</ele><time>2026-04-05T08:09:49.199Z</time></trkpt><trkpt lat="37.8548383" lon="14.9852083"><ele>936.0000000000001</ele><time>2026-04-05T08:09:51.192Z</time></trkpt><trkpt lat="37.8547983" lon="14.9851333"><ele>936.0</ele><time>2026-04-05T08:09:53.199Z</time></trkpt><trkpt lat="37.8547517" lon="14.985075"><ele>936.0</ele><time>2026-04-05T08:09:55.193Z</time></trkpt><trkpt lat="37.8546967" lon="14.9850267"><ele>936.0000000000001</ele><time>2026-04-05T08:09:57.196Z</time></trkpt><trkpt lat="37.8546367" lon="14.9849833"><ele>936.0</ele><time>2026-04-05T08:09:59.194Z</time></trkpt><trkpt lat="37.8545767" lon="14.9849483"><ele>936.0</ele><time>2026-04-05T08:10:01.193Z</time></trkpt><trkpt lat="37.8545167" lon="14.98492"><ele>934.8333333333334</ele><time>2026-04-05T08:10:03.192Z</time></trkpt><trkpt lat="37.85443" lon="14.9848733"><ele>933.6666666666667</ele><time>2026-04-05T08:10:06.196Z</time></trkpt><trkpt lat="37.8543667" lon="14.984845"><ele>932.5</ele><time>2026-04-05T08:10:08.195Z</time></trkpt><trkpt lat="37.8543067" lon="14.9848133"><ele>931.3333333333334</ele><time>2026-04-05T08:10:10.193Z</time></trkpt><trkpt lat="37.854245" lon="14.984785"><ele>930.1666666666667</ele><time>2026-04-05T08:10:12.194Z</time></trkpt><trkpt lat="37.854185" lon="14.9847567"><ele>929.0</ele><time>2026-04-05T08:10:14.197Z</time></trkpt><trkpt lat="37.8540983" lon="14.9847083"><ele>931.2857142857143</ele><time>2026-04-05T08:10:17.192Z</time></trkpt><trkpt lat="37.8540133" lon="14.9846633"><ele>933.5714285714287</ele><time>2026-04-05T08:10:20.192Z</time></trkpt><trkpt lat="37.8539283" lon="14.9846217"><ele>935.8571428571429</ele><time>2026-04-05T08:10:23.194Z</time></trkpt><trkpt lat="37.8538633" lon="14.9845967"><ele>938.1428571428571</ele><time>2026-04-05T08:10:25.192Z</time></trkpt><trkpt lat="37.8538017" lon="14.9845683"><ele>940.4285714285714</ele><time>2026-04-05T08:10:27.192Z</time></trkpt><trkpt lat="37.8537433" lon="14.9845367"><ele>942.7142857142858</ele><time>2026-04-05T08:10:29.191Z</time></trkpt><trkpt lat="37.8536817" lon="14.9845017"><ele>945.0</ele><time>2026-04-05T08:10:31.193Z</time></trkpt><trkpt lat="37.8536183" lon="14.984475"><ele>945.0</ele><time>2026-04-05T08:10:33.195Z</time></trkpt><trkpt lat="37.8535583" lon="14.9844467"><ele>945.0</ele><time>2026-04-05T08:10:35.195Z</time></trkpt><trkpt lat="37.8534783" lon="14.9844"><ele>945.0</ele><time>2026-04-05T08:10:38.192Z</time></trkpt><trkpt lat="37.8534" lon="14.984335"><ele>945.0</ele><time>2026-04-05T08:10:41.192Z</time></trkpt><trkpt lat="37.8533517" lon="14.9842817"><ele>945.0</ele><time>2026-04-05T08:10:43.192Z</time></trkpt><trkpt lat="37.8532917" lon="14.9841967"><ele>945.0</ele><time>2026-04-05T08:10:46.193Z</time></trkpt><trkpt lat="37.8532417" lon="14.9841083"><ele>945.2</ele><time>2026-04-05T08:10:49.196Z</time></trkpt><trkpt lat="37.8531933" lon="14.98401"><ele>945.4</ele><time>2026-04-05T08:10:52.193Z</time></trkpt><trkpt lat="37.853145" lon="14.9839133"><ele>945.5999999999999</ele><time>2026-04-05T08:10:55.193Z</time></trkpt><trkpt lat="37.8531017" lon="14.9838133"><ele>945.8</ele><time>2026-04-05T08:10:58.192Z</time></trkpt><trkpt lat="37.8530533" lon="14.9837183"><ele>946.0</ele><time>2026-04-05T08:11:01.191Z</time></trkpt><trkpt lat="37.8530017" lon="14.983615"><ele>945.9999999999999</ele><time>2026-04-05T08:11:04.193Z</time></trkpt><trkpt lat="37.852965" lon="14.983545"><ele>946.0</ele><time>2026-04-05T08:11:06.193Z</time></trkpt><trkpt lat="37.852925" lon="14.9834783"><ele>946.0</ele><time>2026-04-05T08:11:08.196Z</time></trkpt><trkpt lat="37.852865" lon="14.98339"><ele>946.0</ele><time>2026-04-05T08:11:11.191Z</time></trkpt><trkpt lat="37.852785" lon="14.9833283"><ele>945.9999999999999</ele><time>2026-04-05T08:11:14.194Z</time></trkpt><trkpt lat="37.8527" lon="14.983275"><ele>946.0</ele><time>2026-04-05T08:11:17.193Z</time></trkpt><trkpt lat="37.8526383" lon="14.9832483"><ele>947.8333333333333</ele><time>2026-04-05T08:11:19.193Z</time></trkpt><trkpt lat="37.8525517" lon="14.9832017"><ele>949.6666666666666</ele><time>2026-04-05T08:11:22.195Z</time></trkpt><trkpt lat="37.8524667" lon="14.983155"><ele>951.5</ele><time>2026-04-05T08:11:25.193Z</time></trkpt><trkpt lat="37.8523883" lon="14.9831017"><ele>953.3333333333333</ele><time>2026-04-05T08:11:28.192Z</time></trkpt><trkpt lat="37.8523133" lon="14.983055"><ele>955.1666666666666</ele><time>2026-04-05T08:11:31.194Z</time></trkpt><trkpt lat="37.85223" lon="14.9830133"><ele>957.0</ele><time>2026-04-05T08:11:34.194Z</time></trkpt><trkpt lat="37.85215" lon="14.9829767"><ele>957.0</ele><time>2026-04-05T08:11:37.193Z</time></trkpt><trkpt lat="37.8520717" lon="14.9829367"><ele>957.0000000000001</ele><time>2026-04-05T08:11:40.192Z</time></trkpt><trkpt lat="37.851995" lon="14.9828867"><ele>957.0</ele><time>2026-04-05T08:11:43.194Z</time></trkpt><trkpt lat="37.8519367" lon="14.9828533"><ele>957.0</ele><time>2026-04-05T08:11:45.192Z</time></trkpt><trkpt lat="37.851875" lon="14.982825"><ele>957.0000000000001</ele><time>2026-04-05T08:11:47.193Z</time></trkpt><trkpt lat="37.8518133" lon="14.9827967"><ele>957.0</ele><time>2026-04-05T08:11:49.194Z</time></trkpt><trkpt lat="37.8517517" lon="14.9827683"><ele>957.0</ele><time>2026-04-05T08:11:51.193Z</time></trkpt><trkpt lat="37.851695" lon="14.9827283"><ele>957.5</ele><time>2026-04-05T08:11:53.194Z</time></trkpt><trkpt lat="37.851615" lon="14.9826633"><ele>958.0</ele><time>2026-04-05T08:11:56.194Z</time></trkpt><trkpt lat="37.8515417" lon="14.9825967"><ele>958.5</ele><time>2026-04-05T08:11:59.195Z</time></trkpt><trkpt lat="37.8514617" lon="14.9825183"><ele>959.0</ele><time>2026-04-05T08:12:26.192Z</time></trkpt><trkpt lat="37.8514083" lon="14.982475"><ele>959.5</ele><time>2026-04-05T08:12:29.194Z</time></trkpt><trkpt lat="37.85135" lon="14.982405"><ele>960.0</ele><time>2026-04-05T08:12:32.195Z</time></trkpt><trkpt lat="37.851285" lon="14.9823317"><ele>960.0</ele><time>2026-04-05T08:12:35.192Z</time></trkpt><trkpt lat="37.8512183" lon="14.9822617"><ele>960.0</ele><time>2026-04-05T08:12:38.196Z</time></trkpt><trkpt lat="37.851155" lon="14.982195"><ele>960.0</ele><time>2026-04-05T08:12:41.194Z</time></trkpt><trkpt lat="37.8510933" lon="14.9821267"><ele>960.0</ele><time>2026-04-05T08:12:44.193Z</time></trkpt><trkpt lat="37.8510317" lon="14.98205"><ele>960.0</ele><time>2026-04-05T08:12:47.197Z</time></trkpt><trkpt lat="37.8509633" lon="14.98198"><ele>960.0</ele><time>2026-04-05T08:12:50.195Z</time></trkpt><trkpt lat="37.8508883" lon="14.981915"><ele>961.8333333333334</ele><time>2026-04-05T08:12:53.193Z</time></trkpt><trkpt lat="37.8508167" lon="14.9818517"><ele>963.6666666666667</ele><time>2026-04-05T08:12:56.194Z</time></trkpt><trkpt lat="37.850735" lon="14.9818083"><ele>965.5</ele><time>2026-04-05T08:12:59.194Z</time></trkpt><trkpt lat="37.8506417" lon="14.9817933"><ele>967.3333333333334</ele><time>2026-04-05T08:13:02.194Z</time></trkpt><trkpt lat="37.8505517" lon="14.9818083"><ele>969.1666666666667</ele><time>2026-04-05T08:13:05.193Z</time></trkpt><trkpt lat="37.8504917" lon="14.981835"><ele>971.0</ele><time>2026-04-05T08:13:07.193Z</time></trkpt><trkpt lat="37.8504167" lon="14.9819"><ele>971.0000000000001</ele><time>2026-04-05T08:13:10.195Z</time></trkpt><trkpt lat="37.8503833" lon="14.981995"><ele>971.0</ele><time>2026-04-05T08:13:13.192Z</time></trkpt><trkpt lat="37.8503833" lon="14.9821067"><ele>971.0</ele><time>2026-04-05T08:13:16.193Z</time></trkpt><trkpt lat="37.8503883" lon="14.9822217"><ele>971.0</ele><time>2026-04-05T08:13:19.194Z</time></trkpt><trkpt lat="37.8503967" lon="14.982335"><ele>971.0000000000001</ele><time>2026-04-05T08:13:22.193Z</time></trkpt><trkpt lat="37.8504067" lon="14.982445"><ele>971.0</ele><time>2026-04-05T08:13:25.195Z</time></trkpt><trkpt lat="37.85042" lon="14.9825517"><ele>972.1666666666667</ele><time>2026-04-05T08:13:28.199Z</time></trkpt><trkpt lat="37.85044" lon="14.982655"><ele>973.3333333333334</ele><time>2026-04-05T08:13:31.194Z</time></trkpt><trkpt lat="37.85048" lon="14.9827567"><ele>974.5</ele><time>2026-04-05T08:13:34.193Z</time></trkpt><trkpt lat="37.850525" lon="14.9828467"><ele>975.6666666666667</ele><time>2026-04-05T08:13:37.202Z</time></trkpt><trkpt lat="37.8505733" lon="14.98293"><ele>976.8333333333334</ele><time>2026-04-05T08:13:40.193Z</time></trkpt><trkpt lat="37.8506317" lon="14.9830133"><ele>978.0</ele><time>2026-04-05T08:13:43.193Z</time></trkpt><trkpt lat="37.850685" lon="14.9830983"><ele>978.0</ele><time>2026-04-05T08:13:46.194Z</time></trkpt><trkpt lat="37.8507433" lon="14.98318"><ele>978.0</ele><time>2026-04-05T08:13:49.194Z</time></trkpt><trkpt lat="37.8507983" lon="14.9832683"><ele>978.0</ele><time>2026-04-05T08:13:52.194Z</time></trkpt><trkpt lat="37.8508533" lon="14.9833517"><ele>978.0</ele><time>2026-04-05T08:13:55.194Z</time></trkpt><trkpt lat="37.85091" lon="14.9834333"><ele>978.0</ele><time>2026-04-05T08:13:58.193Z</time></trkpt><trkpt lat="37.8509633" lon="14.98352"><ele>978.0</ele><time>2026-04-05T08:14:01.193Z</time></trkpt><trkpt lat="37.8510217" lon="14.9836033"><ele>977.6666666666666</ele><time>2026-04-05T08:14:04.193Z</time></trkpt><trkpt lat="37.8510783" lon="14.9836883"><ele>977.3333333333333</ele><time>2026-04-05T08:14:07.194Z</time></trkpt><trkpt lat="37.851085" lon="14.9838017"><ele>977.0</ele><time>2026-04-05T08:14:10.194Z</time></trkpt><trkpt lat="37.8510383" lon="14.9838967"><ele>976.6666666666666</ele><time>2026-04-05T08:14:13.193Z</time></trkpt><trkpt lat="37.8509683" lon="14.983965"><ele>976.3333333333333</ele><time>2026-04-05T08:14:16.193Z</time></trkpt><trkpt lat="37.8508833" lon="14.983975"><ele>976.0</ele><time>2026-04-05T08:14:19.194Z</time></trkpt><trkpt lat="37.8507983" lon="14.9839517"><ele>978.4999999999999</ele><time>2026-04-05T08:14:22.193Z</time></trkpt><trkpt lat="37.8507183" lon="14.9839233"><ele>981.0</ele><time>2026-04-05T08:14:25.194Z</time></trkpt><trkpt lat="37.8506217" lon="14.9838583"><ele>983.5</ele><time>2026-04-05T08:14:29.197Z</time></trkpt><trkpt lat="37.850555" lon="14.9838"><ele>986.0</ele><time>2026-04-05T08:14:32.193Z</time></trkpt><trkpt lat="37.85048" lon="14.9837533"><ele>988.4999999999999</ele><time>2026-04-05T08:14:35.194Z</time></trkpt><trkpt lat="37.850405" lon="14.9836967"><ele>991.0</ele><time>2026-04-05T08:14:38.196Z</time></trkpt><trkpt lat="37.8503333" lon="14.98364"><ele>990.9999999999999</ele><time>2026-04-05T08:14:41.192Z</time></trkpt><trkpt lat="37.8502567" lon="14.9835833"><ele>991.0</ele><time>2026-04-05T08:14:44.193Z</time></trkpt><trkpt lat="37.85018" lon="14.98353"><ele>991.0</ele><time>2026-04-05T08:14:47.192Z</time></trkpt><trkpt lat="37.8501033" lon="14.9834767"><ele>991.0</ele><time>2026-04-05T08:14:50.194Z</time></trkpt><trkpt lat="37.850035" lon="14.9834167"><ele>990.9999999999999</ele><time>2026-04-05T08:14:53.193Z</time></trkpt><trkpt lat="37.8499633" lon="14.98334"><ele>991.0</ele><time>2026-04-05T08:14:56.193Z</time></trkpt><trkpt lat="37.849895" lon="14.9832633"><ele>991.3333333333333</ele><time>2026-04-05T08:14:59.194Z</time></trkpt><trkpt lat="37.8498367" lon="14.983175"><ele>991.6666666666666</ele><time>2026-04-05T08:15:02.197Z</time></trkpt><trkpt lat="37.84979" lon="14.9830733"><ele>992.0</ele><time>2026-04-05T08:15:05.195Z</time></trkpt><trkpt lat="37.8497617" lon="14.9830017"><ele>992.3333333333333</ele><time>2026-04-05T08:15:07.193Z</time></trkpt><trkpt lat="37.84973" lon="14.9829267"><ele>992.6666666666666</ele><time>2026-04-05T08:15:09.193Z</time></trkpt><trkpt lat="37.8497" lon="14.9828483"><ele>993.0</ele><time>2026-04-05T08:15:11.195Z</time></trkpt><trkpt lat="37.849665" lon="14.9827733"><ele>993.0</ele><time>2026-04-05T08:15:13.194Z</time></trkpt><trkpt lat="37.84963" lon="14.98269"><ele>993.0</ele><time>2026-04-05T08:15:15.192Z</time></trkpt><trkpt lat="37.849595" lon="14.9826117"><ele>993.0</ele><time>2026-04-05T08:15:17.193Z</time></trkpt><trkpt lat="37.8495467" lon="14.98254"><ele>993.0</ele><time>2026-04-05T08:15:19.193Z</time></trkpt><trkpt lat="37.84948" lon="14.9824917"><ele>993.0</ele><time>2026-04-05T08:15:21.195Z</time></trkpt><trkpt lat="37.84941" lon="14.982485"><ele>993.0</ele><time>2026-04-05T08:15:23.195Z</time></trkpt><trkpt lat="37.8493433" lon="14.98252"><ele>993.0</ele><time>2026-04-05T08:15:25.192Z</time></trkpt><trkpt lat="37.8492917" lon="14.982585"><ele>993.0</ele><time>2026-04-05T08:15:27.193Z</time></trkpt><trkpt lat="37.8492583" lon="14.9826633"><ele>993.0</ele><time>2026-04-05T08:15:29.193Z</time></trkpt><trkpt lat="37.8492433" lon="14.9827817"><ele>993.0</ele><time>2026-04-05T08:15:32.192Z</time></trkpt><trkpt lat="37.849255" lon="14.9828617"><ele>993.0</ele><time>2026-04-05T08:15:34.193Z</time></trkpt><trkpt lat="37.849285" lon="14.9829367"><ele>993.0</ele><time>2026-04-05T08:15:36.192Z</time></trkpt><trkpt lat="37.849315" lon="14.9830133"><ele>993.0</ele><time>2026-04-05T08:15:38.192Z</time></trkpt><trkpt lat="37.8493517" lon="14.983085"><ele>993.0</ele><time>2026-04-05T08:15:40.194Z</time></trkpt><trkpt lat="37.849395" lon="14.9831583"><ele>993.0</ele><time>2026-04-05T08:15:42.195Z</time></trkpt><trkpt lat="37.84944" lon="14.9832283"><ele>993.0</ele><time>2026-04-05T08:15:44.196Z</time></trkpt><trkpt lat="37.84948" lon="14.9833"><ele>993.0</ele><time>2026-04-05T08:15:46.192Z</time></trkpt><trkpt lat="37.8495217" lon="14.9833717"><ele>993.0</ele><time>2026-04-05T08:15:48.193Z</time></trkpt><trkpt lat="37.8495617" lon="14.983445"><ele>993.0</ele><time>2026-04-05T08:15:50.194Z</time></trkpt><trkpt lat="37.8496033" lon="14.983515"><ele>993.0</ele><time>2026-04-05T08:15:52.195Z</time></trkpt><trkpt lat="37.8496467" lon="14.983585"><ele>993.0</ele><time>2026-04-05T08:15:54.193Z</time></trkpt><trkpt lat="37.84969" lon="14.983655"><ele>994.7142857142857</ele><time>2026-04-05T08:15:56.194Z</time></trkpt><trkpt lat="37.8497317" lon="14.983725"><ele>996.4285714285716</ele><time>2026-04-05T08:15:58.193Z</time></trkpt><trkpt lat="37.849775" lon="14.983795"><ele>998.1428571428572</ele><time>2026-04-05T08:16:00.192Z</time></trkpt><trkpt lat="37.8498183" lon="14.983865"><ele>999.8571428571429</ele><time>2026-04-05T08:16:02.194Z</time></trkpt><trkpt lat="37.8498617" lon="14.9839333"><ele>1001.5714285714287</ele><time>2026-04-05T08:16:04.193Z</time></trkpt><trkpt lat="37.8499017" lon="14.9840033"><ele>1003.2857142857144</ele><time>2026-04-05T08:16:06.196Z</time></trkpt><trkpt lat="37.8499467" lon="14.9840717"><ele>1005.0000000000001</ele><time>2026-04-05T08:16:08.194Z</time></trkpt><trkpt lat="37.84999" lon="14.9841467"><ele>1004.0000000000001</ele><time>2026-04-05T08:16:10.193Z</time></trkpt><trkpt lat="37.8500367" lon="14.9842167"><ele>1003.0</ele><time>2026-04-05T08:16:12.199Z</time></trkpt><trkpt lat="37.850085" lon="14.9842917"><ele>1002.0000000000001</ele><time>2026-04-05T08:16:14.193Z</time></trkpt><trkpt lat="37.8501283" lon="14.9843683"><ele>1001.0000000000001</ele><time>2026-04-05T08:16:16.196Z</time></trkpt><trkpt lat="37.8501733" lon="14.9844417"><ele>1000.0</ele><time>2026-04-05T08:16:18.195Z</time></trkpt><trkpt lat="37.85022" lon="14.9845167"><ele>999.0000000000001</ele><time>2026-04-05T08:16:20.195Z</time></trkpt><trkpt lat="37.8502617" lon="14.9845933"><ele>998.0000000000001</ele><time>2026-04-05T08:16:22.198Z</time></trkpt><trkpt lat="37.850305" lon="14.9846733"><ele>998.0000000000001</ele><time>2026-04-05T08:16:24.194Z</time></trkpt><trkpt lat="37.8503517" lon="14.984755"><ele>998.0</ele><time>2026-04-05T08:16:26.195Z</time></trkpt><trkpt lat="37.8504033" lon="14.9848467"><ele>998.0</ele><time>2026-04-05T08:16:28.197Z</time></trkpt><trkpt lat="37.8504583" lon="14.9849367"><ele>998.0</ele><time>2026-04-05T08:16:30.192Z</time></trkpt><trkpt lat="37.8505133" lon="14.98503"><ele>998.0000000000001</ele><time>2026-04-05T08:16:32.194Z</time></trkpt><trkpt lat="37.8505667" lon="14.9851283"><ele>998.0</ele><time>2026-04-05T08:16:34.192Z</time></trkpt><trkpt lat="37.85063" lon="14.9852267"><ele>999.2</ele><time>2026-04-05T08:16:36.193Z</time></trkpt><trkpt lat="37.8506783" lon="14.9853283"><ele>1000.4</ele><time>2026-04-05T08:16:38.192Z</time></trkpt><trkpt lat="37.8507083" lon="14.9854467"><ele>1001.6000000000001</ele><time>2026-04-05T08:16:40.193Z</time></trkpt><trkpt lat="37.8507167" lon="14.9855717"><ele>1002.8000000000001</ele><time>2026-04-05T08:16:42.193Z</time></trkpt><trkpt lat="37.8507183" lon="14.985695"><ele>1004.0</ele><time>2026-04-05T08:16:44.196Z</time></trkpt><trkpt lat="37.8507267" lon="14.9858183"><ele>1004.8333333333334</ele><time>2026-04-05T08:16:46.194Z</time></trkpt><trkpt lat="37.85073" lon="14.985925"><ele>1005.6666666666667</ele><time>2026-04-05T08:16:48.197Z</time></trkpt><trkpt lat="37.850735" lon="14.98603"><ele>1006.5</ele><time>2026-04-05T08:16:50.2Z</time></trkpt><trkpt lat="37.8507433" lon="14.9861367"><ele>1007.3333333333333</ele><time>2026-04-05T08:16:52.194Z</time></trkpt><trkpt lat="37.85075" lon="14.9862433"><ele>1008.1666666666666</ele><time>2026-04-05T08:16:54.197Z</time></trkpt><trkpt lat="37.8507517" lon="14.9863467"><ele>1009.0</ele><time>2026-04-05T08:16:56.197Z</time></trkpt><trkpt lat="37.8507517" lon="14.9864533"><ele>1008.9999999999999</ele><time>2026-04-05T08:16:58.193Z</time></trkpt><trkpt lat="37.8507433" lon="14.986555"><ele>1009.0</ele><time>2026-04-05T08:17:00.193Z</time></trkpt><trkpt lat="37.8507317" lon="14.9866583"><ele>1009.0</ele><time>2026-04-05T08:17:02.193Z</time></trkpt><trkpt lat="37.8507083" lon="14.9867633"><ele>1009.0</ele><time>2026-04-05T08:17:04.195Z</time></trkpt><trkpt lat="37.8506817" lon="14.9868633"><ele>1008.9999999999999</ele><time>2026-04-05T08:17:06.192Z</time></trkpt><trkpt lat="37.8506583" lon="14.9869733"><ele>1009.0</ele><time>2026-04-05T08:17:08.196Z</time></trkpt><trkpt lat="37.850635" lon="14.9870783"><ele>1009.4999999999999</ele><time>2026-04-05T08:17:10.197Z</time></trkpt><trkpt lat="37.8506117" lon="14.9871767"><ele>1010.0</ele><time>2026-04-05T08:17:12.195Z</time></trkpt><trkpt lat="37.85059" lon="14.9872733"><ele>1010.5</ele><time>2026-04-05T08:17:14.195Z</time></trkpt><trkpt lat="37.8505733" lon="14.9873733"><ele>1011.0</ele><time>2026-04-05T08:17:16.193Z</time></trkpt><trkpt lat="37.850565" lon="14.98747"><ele>1011.4999999999999</ele><time>2026-04-05T08:17:18.194Z</time></trkpt><trkpt lat="37.85056" lon="14.9875617"><ele>1012.0</ele><time>2026-04-05T08:17:20.194Z</time></trkpt><trkpt lat="37.8505583" lon="14.987645"><ele>1012.7142857142858</ele><time>2026-04-05T08:17:22.194Z</time></trkpt><trkpt lat="37.85056" lon="14.98773"><ele>1013.4285714285714</ele><time>2026-04-05T08:17:24.193Z</time></trkpt><trkpt lat="37.8505683" lon="14.9878117"><ele>1014.1428571428571</ele><time>2026-04-05T08:17:26.2Z</time></trkpt><trkpt lat="37.8505767" lon="14.9878917"><ele>1014.8571428571429</ele><time>2026-04-05T08:17:28.192Z</time></trkpt><trkpt lat="37.8505867" lon="14.9879717"><ele>1015.5714285714284</ele><time>2026-04-05T08:17:30.192Z</time></trkpt><trkpt lat="37.8506" lon="14.9880517"><ele>1016.2857142857142</ele><time>2026-04-05T08:17:32.193Z</time></trkpt><trkpt lat="37.8506117" lon="14.988135"><ele>1017.0</ele><time>2026-04-05T08:17:34.195Z</time></trkpt><trkpt lat="37.850625" lon="14.988215"><ele>1017.0</ele><time>2026-04-05T08:17:36.197Z</time></trkpt><trkpt lat="37.8506367" lon="14.9882967"><ele>1016.9999999999999</ele><time>2026-04-05T08:17:38.193Z</time></trkpt><trkpt lat="37.850645" lon="14.9883767"><ele>1017.0</ele><time>2026-04-05T08:17:40.192Z</time></trkpt><trkpt lat="37.8506567" lon="14.9884567"><ele>1017.0</ele><time>2026-04-05T08:17:42.196Z</time></trkpt><trkpt lat="37.8506667" lon="14.9885367"><ele>1016.9999999999999</ele><time>2026-04-05T08:17:44.192Z</time></trkpt><trkpt lat="37.8506817" lon="14.9886517"><ele>1017.0</ele><time>2026-04-05T08:17:47.194Z</time></trkpt><trkpt lat="37.8507017" lon="14.9887617"><ele>1017.0</ele><time>2026-04-05T08:17:50.194Z</time></trkpt><trkpt lat="37.850715" lon="14.9888617"><ele>1018.6</ele><time>2026-04-05T08:17:53.193Z</time></trkpt><trkpt lat="37.8507233" lon="14.9889667"><ele>1020.2</ele><time>2026-04-05T08:17:56.196Z</time></trkpt><trkpt lat="37.8507383" lon="14.9890783"><ele>1021.8</ele><time>2026-04-05T08:17:59.193Z</time></trkpt><trkpt lat="37.8507517" lon="14.98919"><ele>1023.4</ele><time>2026-04-05T08:18:02.192Z</time></trkpt><trkpt lat="37.85077" lon="14.9893067"><ele>1025.0</ele><time>2026-04-05T08:18:05.193Z</time></trkpt><trkpt lat="37.8507817" lon="14.9894267"><ele>1026.0</ele><time>2026-04-05T08:18:08.196Z</time></trkpt><trkpt lat="37.8507917" lon="14.9895067"><ele>1027.0</ele><time>2026-04-05T08:18:10.192Z</time></trkpt><trkpt lat="37.8507967" lon="14.9895867"><ele>1028.0</ele><time>2026-04-05T08:18:12.194Z</time></trkpt><trkpt lat="37.8508117" lon="14.9897033"><ele>1029.0</ele><time>2026-04-05T08:18:15.198Z</time></trkpt><trkpt lat="37.8508317" lon="14.9898167"><ele>1030.0</ele><time>2026-04-05T08:18:18.199Z</time></trkpt><trkpt lat="37.8508417" lon="14.9899333"><ele>1031.0</ele><time>2026-04-05T08:18:21.194Z</time></trkpt><trkpt lat="37.8508567" lon="14.9900483"><ele>1031.2857142857142</ele><time>2026-04-05T08:18:24.199Z</time></trkpt><trkpt lat="37.850865" lon="14.9901317"><ele>1031.5714285714284</ele><time>2026-04-05T08:18:26.193Z</time></trkpt><trkpt lat="37.8508767" lon="14.9902167"><ele>1031.857142857143</ele><time>2026-04-05T08:18:28.194Z</time></trkpt><trkpt lat="37.8508933" lon="14.9902983"><ele>1032.142857142857</ele><time>2026-04-05T08:18:30.192Z</time></trkpt><trkpt lat="37.8509117" lon="14.9903833"><ele>1032.4285714285716</ele><time>2026-04-05T08:18:32.198Z</time></trkpt><trkpt lat="37.8509233" lon="14.99047"><ele>1032.7142857142858</ele><time>2026-04-05T08:18:34.192Z</time></trkpt><trkpt lat="37.8509233" lon="14.9905567"><ele>1033.0</ele><time>2026-04-05T08:18:36.194Z</time></trkpt><trkpt lat="37.850925" lon="14.9906417"><ele>1033.0</ele><time>2026-04-05T08:18:38.192Z</time></trkpt><trkpt lat="37.8509267" lon="14.990725"><ele>1033.0</ele><time>2026-04-05T08:18:40.194Z</time></trkpt><trkpt lat="37.8509217" lon="14.990805"><ele>1033.0</ele><time>2026-04-05T08:18:42.194Z</time></trkpt><trkpt lat="37.8509033" lon="14.9909133"><ele>1033.0</ele><time>2026-04-05T08:18:45.195Z</time></trkpt><trkpt lat="37.850875" lon="14.991015"><ele>1033.0</ele><time>2026-04-05T08:18:48.192Z</time></trkpt><trkpt lat="37.850835" lon="14.9911233"><ele>1033.0</ele><time>2026-04-05T08:18:51.194Z</time></trkpt><trkpt lat="37.8507933" lon="14.9912267"><ele>1033.0</ele><time>2026-04-05T08:18:54.195Z</time></trkpt><trkpt lat="37.8507567" lon="14.9912933"><ele>1033.0</ele><time>2026-04-05T08:18:56.194Z</time></trkpt><trkpt lat="37.8507167" lon="14.9913633"><ele>1033.0</ele><time>2026-04-05T08:18:58.193Z</time></trkpt><trkpt lat="37.8506633" lon="14.99145"><ele>1033.0</ele><time>2026-04-05T08:19:01.192Z</time></trkpt><trkpt lat="37.8505983" lon="14.991515"><ele>1033.0</ele><time>2026-04-05T08:19:04.194Z</time></trkpt><trkpt lat="37.8505333" lon="14.9915917"><ele>1033.0</ele><time>2026-04-05T08:19:07.192Z</time></trkpt><trkpt lat="37.8504733" lon="14.9916767"><ele>1033.1666666666665</ele><time>2026-04-05T08:19:10.192Z</time></trkpt><trkpt lat="37.8504233" lon="14.9917667"><ele>1033.3333333333333</ele><time>2026-04-05T08:19:13.193Z</time></trkpt><trkpt lat="37.8503917" lon="14.991865"><ele>1033.5</ele><time>2026-04-05T08:19:16.192Z</time></trkpt><trkpt lat="37.8503617" lon="14.99196"><ele>1033.6666666666667</ele><time>2026-04-05T08:19:19.192Z</time></trkpt><trkpt lat="37.8503383" lon="14.99207"><ele>1033.8333333333335</ele><time>2026-04-05T08:19:22.196Z</time></trkpt><trkpt lat="37.850325" lon="14.9921867"><ele>1034.0</ele><time>2026-04-05T08:19:25.193Z</time></trkpt><trkpt lat="37.8503167" lon="14.9923"><ele>1034.0</ele><time>2026-04-05T08:19:28.198Z</time></trkpt><trkpt lat="37.85031" lon="14.9924167"><ele>1034.0</ele><time>2026-04-05T08:19:31.192Z</time></trkpt><trkpt lat="37.8503067" lon="14.992535"><ele>1034.0</ele><time>2026-04-05T08:19:34.193Z</time></trkpt><trkpt lat="37.8503017" lon="14.99262"><ele>1034.0</ele><time>2026-04-05T08:19:36.196Z</time></trkpt><trkpt lat="37.8502967" lon="14.99273"><ele>1034.0</ele><time>2026-04-05T08:19:39.196Z</time></trkpt><trkpt lat="37.85029" lon="14.9928367"><ele>1034.0</ele><time>2026-04-05T08:19:42.195Z</time></trkpt><trkpt lat="37.850275" lon="14.99294"><ele>1033.857142857143</ele><time>2026-04-05T08:19:45.193Z</time></trkpt><trkpt lat="37.8502617" lon="14.9930433"><ele>1033.7142857142858</ele><time>2026-04-05T08:19:48.195Z</time></trkpt><trkpt lat="37.8502517" lon="14.9931517"><ele>1033.5714285714287</ele><time>2026-04-05T08:19:51.199Z</time></trkpt><trkpt lat="37.8502467" lon="14.9932317"><ele>1033.4285714285716</ele><time>2026-04-05T08:19:53.192Z</time></trkpt><trkpt lat="37.8502333" lon="14.99334"><ele>1033.2857142857142</ele><time>2026-04-05T08:19:56.195Z</time></trkpt><trkpt lat="37.8502233" lon="14.99342"><ele>1033.1428571428573</ele><time>2026-04-05T08:19:58.194Z</time></trkpt><trkpt lat="37.8502133" lon="14.9935"><ele>1033.0</ele><time>2026-04-05T08:20:00.194Z</time></trkpt><trkpt lat="37.8501983" lon="14.9936133"><ele>1032.8333333333333</ele><time>2026-04-05T08:20:03.192Z</time></trkpt><trkpt lat="37.85019" lon="14.99372"><ele>1032.6666666666665</ele><time>2026-04-05T08:20:06.194Z</time></trkpt><trkpt lat="37.85018" lon="14.9938333"><ele>1032.5</ele><time>2026-04-05T08:20:09.194Z</time></trkpt><trkpt lat="37.8501683" lon="14.993915"><ele>1032.3333333333333</ele><time>2026-04-05T08:20:11.195Z</time></trkpt><trkpt lat="37.85016" lon="14.994"><ele>1032.1666666666667</ele><time>2026-04-05T08:20:13.194Z</time></trkpt><trkpt lat="37.8501533" lon="14.99408"><ele>1032.0</ele><time>2026-04-05T08:20:15.198Z</time></trkpt><trkpt lat="37.85014" lon="14.99419"><ele>1032.8333333333333</ele><time>2026-04-05T08:20:18.197Z</time></trkpt><trkpt lat="37.8501317" lon="14.9943033"><ele>1033.6666666666667</ele><time>2026-04-05T08:20:21.194Z</time></trkpt><trkpt lat="37.8501083" lon="14.9944083"><ele>1034.5</ele><time>2026-04-05T08:20:24.194Z</time></trkpt><trkpt lat="37.8500733" lon="14.9945117"><ele>1035.3333333333335</ele><time>2026-04-05T08:20:27.194Z</time></trkpt><trkpt lat="37.85002" lon="14.99459"><ele>1036.1666666666667</ele><time>2026-04-05T08:20:30.193Z</time></trkpt><trkpt lat="37.8499383" lon="14.9946317"><ele>1037.0</ele><time>2026-04-05T08:20:33.194Z</time></trkpt><trkpt lat="37.849855" lon="14.9946417"><ele>1039.3333333333335</ele><time>2026-04-05T08:20:36.193Z</time></trkpt><trkpt lat="37.8497733" lon="14.9946083"><ele>1041.6666666666667</ele><time>2026-04-05T08:20:39.193Z</time></trkpt><trkpt lat="37.84971" lon="14.9945267"><ele>1044.0</ele><time>2026-04-05T08:20:42.195Z</time></trkpt><trkpt lat="37.8496817" lon="14.9944217"><ele>1046.3333333333333</ele><time>2026-04-05T08:20:45.198Z</time></trkpt><trkpt lat="37.84966" lon="14.994345"><ele>1048.6666666666665</ele><time>2026-04-05T08:20:47.196Z</time></trkpt><trkpt lat="37.84964" lon="14.9942683"><ele>1051.0</ele><time>2026-04-05T08:20:49.192Z</time></trkpt><trkpt lat="37.8496133" lon="14.9941617"><ele>1051.0</ele><time>2026-04-05T08:20:52.193Z</time></trkpt><trkpt lat="37.8495833" lon="14.9940567"><ele>1051.0</ele><time>2026-04-05T08:20:55.192Z</time></trkpt><trkpt lat="37.84955" lon="14.9939517"><ele>1051.0</ele><time>2026-04-05T08:20:58.193Z</time></trkpt><trkpt lat="37.849505" lon="14.993855"><ele>1051.0</ele><time>2026-04-05T08:21:01.197Z</time></trkpt><trkpt lat="37.849445" lon="14.9937783"><ele>1051.0</ele><time>2026-04-05T08:21:04.194Z</time></trkpt><trkpt lat="37.8493683" lon="14.993725"><ele>1051.0</ele><time>2026-04-05T08:21:07.192Z</time></trkpt><trkpt lat="37.84929" lon="14.9937067"><ele>1054.6666666666665</ele><time>2026-04-05T08:21:10.193Z</time></trkpt><trkpt lat="37.8492117" lon="14.9937267"><ele>1058.3333333333333</ele><time>2026-04-05T08:21:13.192Z</time></trkpt><trkpt lat="37.8491383" lon="14.99378"><ele>1062.0</ele><time>2026-04-05T08:21:16.198Z</time></trkpt><trkpt lat="37.8490833" lon="14.9938717"><ele>1065.6666666666667</ele><time>2026-04-05T08:21:19.194Z</time></trkpt><trkpt lat="37.8490567" lon="14.9939717"><ele>1069.3333333333335</ele><time>2026-04-05T08:21:22.194Z</time></trkpt><trkpt lat="37.8490467" lon="14.9940817"><ele>1073.0</ele><time>2026-04-05T08:21:25.194Z</time></trkpt><trkpt lat="37.8490467" lon="14.9941883"><ele>1073.3333333333335</ele><time>2026-04-05T08:21:28.196Z</time></trkpt><trkpt lat="37.849075" lon="14.994295"><ele>1073.6666666666667</ele><time>2026-04-05T08:21:31.192Z</time></trkpt><trkpt lat="37.849125" lon="14.9943867"><ele>1074.0</ele><time>2026-04-05T08:21:34.192Z</time></trkpt><trkpt lat="37.84917" lon="14.9944783"><ele>1074.3333333333333</ele><time>2026-04-05T08:21:37.195Z</time></trkpt><trkpt lat="37.8492133" lon="14.9945733"><ele>1074.6666666666665</ele><time>2026-04-05T08:21:40.193Z</time></trkpt><trkpt lat="37.84926" lon="14.99467"><ele>1075.0</ele><time>2026-04-05T08:21:43.193Z</time></trkpt><trkpt lat="37.8493083" lon="14.9947617"><ele>1074.0</ele><time>2026-04-05T08:21:46.199Z</time></trkpt><trkpt lat="37.8493483" lon="14.9948633"><ele>1073.0</ele><time>2026-04-05T08:21:49.192Z</time></trkpt><trkpt lat="37.8493783" lon="14.9949567"><ele>1072.0</ele><time>2026-04-05T08:21:52.193Z</time></trkpt><trkpt lat="37.849385" lon="14.9950617"><ele>1071.0</ele><time>2026-04-05T08:21:55.193Z</time></trkpt><trkpt lat="37.8493567" lon="14.995165"><ele>1070.0</ele><time>2026-04-05T08:21:58.193Z</time></trkpt><trkpt lat="37.8493067" lon="14.9952417"><ele>1069.0</ele><time>2026-04-05T08:22:01.192Z</time></trkpt><trkpt lat="37.84925" lon="14.995305"><ele>1069.0</ele><time>2026-04-05T08:22:04.193Z</time></trkpt><trkpt lat="37.8491817" lon="14.9953433"><ele>1069.0</ele><time>2026-04-05T08:22:07.193Z</time></trkpt><trkpt lat="37.8491117" lon="14.9953683"><ele>1069.0</ele><time>2026-04-05T08:22:10.194Z</time></trkpt><trkpt lat="37.8490317" lon="14.9953833"><ele>1069.0</ele><time>2026-04-05T08:22:14.193Z</time></trkpt><trkpt lat="37.84897" lon="14.9953633"><ele>1069.0</ele><time>2026-04-05T08:22:17.192Z</time></trkpt><trkpt lat="37.8489017" lon="14.9953067"><ele>1069.0</ele><time>2026-04-05T08:22:21.192Z</time></trkpt><trkpt lat="37.8488467" lon="14.995235"><ele>1069.0</ele><time>2026-04-05T08:22:25.194Z</time></trkpt><trkpt lat="37.8487917" lon="14.9951733"><ele>1069.0</ele><time>2026-04-05T08:22:28.193Z</time></trkpt><trkpt lat="37.848745" lon="14.9951167"><ele>1069.0</ele><time>2026-04-05T08:22:31.193Z</time></trkpt><trkpt lat="37.8486967" lon="14.9950583"><ele>1069.0</ele><time>2026-04-05T08:22:34.193Z</time></trkpt><trkpt lat="37.8486517" lon="14.9949983"><ele>1069.0</ele><time>2026-04-05T08:22:37.193Z</time></trkpt><trkpt lat="37.8486083" lon="14.99494"><ele>1069.0</ele><time>2026-04-05T08:22:40.192Z</time></trkpt><trkpt lat="37.8485533" lon="14.994895"><ele>1069.0</ele><time>2026-04-05T08:22:43.194Z</time></trkpt><trkpt lat="37.84849" lon="14.994855"><ele>1072.6666666666665</ele><time>2026-04-05T08:22:46.194Z</time></trkpt><trkpt lat="37.84843" lon="14.9948233"><ele>1076.3333333333333</ele><time>2026-04-05T08:22:49.194Z</time></trkpt><trkpt lat="37.84837" lon="14.9947883"><ele>1080.0</ele><time>2026-04-05T08:22:52.193Z</time></trkpt><trkpt lat="37.8482967" lon="14.9947517"><ele>1083.6666666666667</ele><time>2026-04-05T08:22:56.192Z</time></trkpt><trkpt lat="37.84822" lon="14.9947267"><ele>1087.3333333333335</ele><time>2026-04-05T08:23:00.193Z</time></trkpt><trkpt lat="37.848145" lon="14.9946833"><ele>1091.0</ele><time>2026-04-05T08:23:04.193Z</time></trkpt><trkpt lat="37.8480667" lon="14.9946533"><ele>1091.0</ele><time>2026-04-05T08:23:08.193Z</time></trkpt><trkpt lat="37.8479933" lon="14.9946117"><ele>1091.0</ele><time>2026-04-05T08:23:12.192Z</time></trkpt><trkpt lat="37.8479267" lon="14.9945533"><ele>1091.0</ele><time>2026-04-05T08:23:16.193Z</time></trkpt><trkpt lat="37.847865" lon="14.9944817"><ele>1091.0</ele><time>2026-04-05T08:23:20.194Z</time></trkpt><trkpt lat="37.8478217" lon="14.9943917"><ele>1091.0</ele><time>2026-04-05T08:23:24.193Z</time></trkpt><trkpt lat="37.84779" lon="14.9943183"><ele>1091.0</ele><time>2026-04-05T08:23:27.191Z</time></trkpt><trkpt lat="37.847765" lon="14.9942383"><ele>1090.5714285714284</ele><time>2026-04-05T08:23:30.192Z</time></trkpt><trkpt lat="37.847735" lon="14.9941583"><ele>1090.142857142857</ele><time>2026-04-05T08:23:33.194Z</time></trkpt><trkpt lat="37.8477167" lon="14.9940733"><ele>1089.7142857142858</ele><time>2026-04-05T08:23:36.193Z</time></trkpt><trkpt lat="37.847715" lon="14.9939783"><ele>1089.2857142857142</ele><time>2026-04-05T08:23:39.193Z</time></trkpt><trkpt lat="37.8477217" lon="14.9938917"><ele>1088.857142857143</ele><time>2026-04-05T08:23:42.194Z</time></trkpt><trkpt lat="37.8477567" lon="14.9938167"><ele>1088.4285714285713</ele><time>2026-04-05T08:23:45.204Z</time></trkpt><trkpt lat="37.847805" lon="14.99374"><ele>1088.0</ele><time>2026-04-05T08:23:48.193Z</time></trkpt><trkpt lat="37.8478583" lon="14.9936883"><ele>1088.0</ele><time>2026-04-05T08:23:51.193Z</time></trkpt><trkpt lat="37.8479267" lon="14.99365"><ele>1088.0</ele><time>2026-04-05T08:23:54.193Z</time></trkpt><trkpt lat="37.848" lon="14.9936133"><ele>1088.0</ele><time>2026-04-05T08:23:57.192Z</time></trkpt><trkpt lat="37.84807" lon="14.99357"><ele>1088.0</ele><time>2026-04-05T08:24:00.193Z</time></trkpt><trkpt lat="37.8481283" lon="14.9935"><ele>1088.0</ele><time>2026-04-05T08:24:03.192Z</time></trkpt><trkpt lat="37.8481633" lon="14.9934183"><ele>1088.0</ele><time>2026-04-05T08:24:06.194Z</time></trkpt><trkpt lat="37.848175" lon="14.9933267"><ele>1089.142857142857</ele><time>2026-04-05T08:24:09.192Z</time></trkpt><trkpt lat="37.8481683" lon="14.993235"><ele>1090.2857142857142</ele><time>2026-04-05T08:24:12.197Z</time></trkpt><trkpt lat="37.8481517" lon="14.9931433"><ele>1091.4285714285716</ele><time>2026-04-05T08:24:15.194Z</time></trkpt><trkpt lat="37.84814" lon="14.99305"><ele>1092.5714285714284</ele><time>2026-04-05T08:24:18.192Z</time></trkpt><trkpt lat="37.8481283" lon="14.9929583"><ele>1093.7142857142858</ele><time>2026-04-05T08:24:21.194Z</time></trkpt><trkpt lat="37.848115" lon="14.992865"><ele>1094.857142857143</ele><time>2026-04-05T08:24:24.194Z</time></trkpt><trkpt lat="37.8481083" lon="14.9927717"><ele>1096.0</ele><time>2026-04-05T08:24:27.193Z</time></trkpt><trkpt lat="37.8480983" lon="14.9926833"><ele>1096.0000000000002</ele><time>2026-04-05T08:24:30.193Z</time></trkpt><trkpt lat="37.8480933" lon="14.9925917"><ele>1096.0</ele><time>2026-04-05T08:24:33.193Z</time></trkpt><trkpt lat="37.848085" lon="14.9925"><ele>1096.0</ele><time>2026-04-05T08:24:36.193Z</time></trkpt><trkpt lat="37.8480717" lon="14.99241"><ele>1096.0</ele><time>2026-04-05T08:24:39.192Z</time></trkpt><trkpt lat="37.8480517" lon="14.99232"><ele>1096.0</ele><time>2026-04-05T08:24:42.192Z</time></trkpt><trkpt lat="37.8480267" lon="14.9922317"><ele>1096.0000000000002</ele><time>2026-04-05T08:24:45.194Z</time></trkpt><trkpt lat="37.8480017" lon="14.9921467"><ele>1096.0</ele><time>2026-04-05T08:24:48.193Z</time></trkpt><trkpt lat="37.8479667" lon="14.99206"><ele>1095.857142857143</ele><time>2026-04-05T08:24:51.194Z</time></trkpt><trkpt lat="37.8479333" lon="14.9919817"><ele>1095.7142857142858</ele><time>2026-04-05T08:24:54.192Z</time></trkpt><trkpt lat="37.8478933" lon="14.9918917"><ele>1095.5714285714284</ele><time>2026-04-05T08:24:58.193Z</time></trkpt><trkpt lat="37.8478567" lon="14.9918167"><ele>1095.4285714285716</ele><time>2026-04-05T08:25:01.193Z</time></trkpt><trkpt lat="37.84782" lon="14.9917417"><ele>1095.2857142857142</ele><time>2026-04-05T08:25:04.193Z</time></trkpt><trkpt lat="37.8477783" lon="14.991665"><ele>1095.142857142857</ele><time>2026-04-05T08:25:07.194Z</time></trkpt><trkpt lat="37.84774" lon="14.9915883"><ele>1095.0</ele><time>2026-04-05T08:25:10.193Z</time></trkpt><trkpt lat="37.8477017" lon="14.9915133"><ele>1095.3333333333333</ele><time>2026-04-05T08:25:13.193Z</time></trkpt><trkpt lat="37.8476633" lon="14.9914333"><ele>1095.6666666666667</ele><time>2026-04-05T08:25:16.192Z</time></trkpt><trkpt lat="37.8476183" lon="14.991355"><ele>1096.0</ele><time>2026-04-05T08:25:19.193Z</time></trkpt><trkpt lat="37.8475567" lon="14.9912783"><ele>1096.3333333333335</ele><time>2026-04-05T08:25:22.194Z</time></trkpt><trkpt lat="37.8475" lon="14.9912217"><ele>1096.6666666666667</ele><time>2026-04-05T08:25:25.192Z</time></trkpt><trkpt lat="37.8474567" lon="14.99116"><ele>1097.0</ele><time>2026-04-05T08:25:28.193Z</time></trkpt><trkpt lat="37.8474083" lon="14.9910783"><ele>1098.7142857142858</ele><time>2026-04-05T08:25:31.194Z</time></trkpt><trkpt lat="37.847355" lon="14.991015"><ele>1100.4285714285716</ele><time>2026-04-05T08:25:34.192Z</time></trkpt><trkpt lat="37.8473067" lon="14.99096"><ele>1102.142857142857</ele><time>2026-04-05T08:25:37.193Z</time></trkpt><trkpt lat="37.84726" lon="14.990895"><ele>1103.857142857143</ele><time>2026-04-05T08:25:40.193Z</time></trkpt><trkpt lat="37.8472" lon="14.9908283"><ele>1105.5714285714284</ele><time>2026-04-05T08:25:43.193Z</time></trkpt><trkpt lat="37.8471517" lon="14.9907633"><ele>1107.2857142857142</ele><time>2026-04-05T08:25:46.192Z</time></trkpt><trkpt lat="37.8470983" lon="14.9907033"><ele>1109.0</ele><time>2026-04-05T08:25:49.193Z</time></trkpt><trkpt lat="37.84705" lon="14.9906383"><ele>1108.9999999999998</ele><time>2026-04-05T08:25:52.193Z</time></trkpt><trkpt lat="37.8470017" lon="14.9905767"><ele>1109.0</ele><time>2026-04-05T08:25:55.194Z</time></trkpt><trkpt lat="37.8469467" lon="14.9905183"><ele>1109.0</ele><time>2026-04-05T08:25:58.193Z</time></trkpt><trkpt lat="37.8468933" lon="14.9904583"><ele>1109.0</ele><time>2026-04-05T08:26:01.193Z</time></trkpt><trkpt lat="37.8468417" lon="14.990395"><ele>1109.0</ele><time>2026-04-05T08:26:04.206Z</time></trkpt><trkpt lat="37.8467917" lon="14.990335"><ele>1108.9999999999998</ele><time>2026-04-05T08:26:07.193Z</time></trkpt><trkpt lat="37.8467417" lon="14.9902717"><ele>1109.0</ele><time>2026-04-05T08:26:10.192Z</time></trkpt><trkpt lat="37.846685" lon="14.9902133"><ele>1109.9999999999998</ele><time>2026-04-05T08:26:13.192Z</time></trkpt><trkpt lat="37.8466417" lon="14.990145"><ele>1111.0</ele><time>2026-04-05T08:26:16.193Z</time></trkpt><trkpt lat="37.8466067" lon="14.9900767"><ele>1112.0</ele><time>2026-04-05T08:26:19.192Z</time></trkpt><trkpt lat="37.8465767" lon="14.989995"><ele>1113.0</ele><time>2026-04-05T08:26:22.193Z</time></trkpt><trkpt lat="37.8465417" lon="14.989915"><ele>1114.0</ele><time>2026-04-05T08:26:25.193Z</time></trkpt><trkpt lat="37.8464983" lon="14.989835"><ele>1114.9999999999998</ele><time>2026-04-05T08:26:28.192Z</time></trkpt><trkpt lat="37.84646" lon="14.98976"><ele>1116.0</ele><time>2026-04-05T08:26:31.192Z</time></trkpt><trkpt lat="37.8464167" lon="14.9896867"><ele>1116.0</ele><time>2026-04-05T08:26:34.193Z</time></trkpt><trkpt lat="37.8463717" lon="14.9896083"><ele>1116.0</ele><time>2026-04-05T08:26:37.193Z</time></trkpt><trkpt lat="37.8463233" lon="14.9895333"><ele>1116.0</ele><time>2026-04-05T08:26:40.191Z</time></trkpt><trkpt lat="37.8462733" lon="14.98946"><ele>1116.0</ele><time>2026-04-05T08:26:43.192Z</time></trkpt><trkpt lat="37.8462117" lon="14.9894017"><ele>1116.0</ele><time>2026-04-05T08:26:46.194Z</time></trkpt><trkpt lat="37.846155" lon="14.9893383"><ele>1116.0</ele><time>2026-04-05T08:26:49.193Z</time></trkpt><trkpt lat="37.84609" lon="14.9893017"><ele>1115.9999999999998</ele><time>2026-04-05T08:26:52.195Z</time></trkpt><trkpt lat="37.84602" lon="14.98927"><ele>1116.0</ele><time>2026-04-05T08:26:55.194Z</time></trkpt><trkpt lat="37.8459483" lon="14.9892417"><ele>1116.0</ele><time>2026-04-05T08:26:58.202Z</time></trkpt><trkpt lat="37.8458783" lon="14.9892133"><ele>1116.0</ele><time>2026-04-05T08:27:01.193Z</time></trkpt><trkpt lat="37.8458133" lon="14.9891867"><ele>1116.0</ele><time>2026-04-05T08:27:04.193Z</time></trkpt><trkpt lat="37.845745" lon="14.9891633"><ele>1115.9999999999998</ele><time>2026-04-05T08:27:07.194Z</time></trkpt><trkpt lat="37.8456717" lon="14.9891383"><ele>1116.0</ele><time>2026-04-05T08:27:10.194Z</time></trkpt><trkpt lat="37.8456033" lon="14.9891217"><ele>1116.8571428571427</ele><time>2026-04-05T08:27:13.193Z</time></trkpt><trkpt lat="37.8455333" lon="14.98911"><ele>1117.7142857142858</ele><time>2026-04-05T08:27:16.193Z</time></trkpt><trkpt lat="37.8454583" lon="14.9891133"><ele>1118.5714285714284</ele><time>2026-04-05T08:27:19.193Z</time></trkpt><trkpt lat="37.845385" lon="14.9891267"><ele>1119.4285714285713</ele><time>2026-04-05T08:27:22.194Z</time></trkpt><trkpt lat="37.8453133" lon="14.9891567"><ele>1120.2857142857142</ele><time>2026-04-05T08:27:25.195Z</time></trkpt><trkpt lat="37.8452483" lon="14.9892117"><ele>1121.142857142857</ele><time>2026-04-05T08:27:28.194Z</time></trkpt><trkpt lat="37.8452" lon="14.9892833"><ele>1122.0</ele><time>2026-04-05T08:27:31.193Z</time></trkpt><trkpt lat="37.8451717" lon="14.9893617"><ele>1122.857142857143</ele><time>2026-04-05T08:27:34.194Z</time></trkpt><trkpt lat="37.8451567" lon="14.98945"><ele>1123.7142857142856</ele><time>2026-04-05T08:27:37.195Z</time></trkpt><trkpt lat="37.8451567" lon="14.9895367"><ele>1124.5714285714284</ele><time>2026-04-05T08:27:40.194Z</time></trkpt><trkpt lat="37.8451717" lon="14.9896283"><ele>1125.4285714285713</ele><time>2026-04-05T08:27:43.193Z</time></trkpt><trkpt lat="37.8452017" lon="14.989715"><ele>1126.2857142857142</ele><time>2026-04-05T08:27:46.193Z</time></trkpt><trkpt lat="37.845225" lon="14.9898033"><ele>1127.142857142857</ele><time>2026-04-05T08:27:49.194Z</time></trkpt><trkpt lat="37.84524" lon="14.98989"><ele>1128.0</ele><time>2026-04-05T08:27:52.194Z</time></trkpt><trkpt lat="37.84525" lon="14.989975"><ele>1128.5714285714287</ele><time>2026-04-05T08:27:55.194Z</time></trkpt><trkpt lat="37.8452633" lon="14.9900617"><ele>1129.142857142857</ele><time>2026-04-05T08:27:58.194Z</time></trkpt><trkpt lat="37.8452833" lon="14.990155"><ele>1129.7142857142858</ele><time>2026-04-05T08:28:01.193Z</time></trkpt><trkpt lat="37.8453033" lon="14.9902433"><ele>1130.2857142857142</ele><time>2026-04-05T08:28:04.193Z</time></trkpt><trkpt lat="37.8453183" lon="14.9903317"><ele>1130.857142857143</ele><time>2026-04-05T08:28:07.192Z</time></trkpt><trkpt lat="37.8453317" lon="14.9904167"><ele>1131.4285714285716</ele><time>2026-04-05T08:28:10.192Z</time></trkpt><trkpt lat="37.8453483" lon="14.990505"><ele>1132.0</ele><time>2026-04-05T08:28:13.194Z</time></trkpt><trkpt lat="37.8453617" lon="14.9905983"><ele>1132.0</ele><time>2026-04-05T08:28:16.193Z</time></trkpt><trkpt lat="37.8453783" lon="14.99069"><ele>1132.0</ele><time>2026-04-05T08:28:19.193Z</time></trkpt><trkpt lat="37.8453917" lon="14.9907833"><ele>1132.0</ele><time>2026-04-05T08:28:22.193Z</time></trkpt><trkpt lat="37.8454067" lon="14.990865"><ele>1132.0</ele><time>2026-04-05T08:28:25.193Z</time></trkpt><trkpt lat="37.8454267" lon="14.9909517"><ele>1132.0</ele><time>2026-04-05T08:28:28.193Z</time></trkpt><trkpt lat="37.84544" lon="14.9910367"><ele>1132.0</ele><time>2026-04-05T08:28:31.193Z</time></trkpt><trkpt lat="37.845455" lon="14.9911267"><ele>1132.0</ele><time>2026-04-05T08:28:34.193Z</time></trkpt><trkpt lat="37.84547" lon="14.9912133"><ele>1132.4285714285716</ele><time>2026-04-05T08:28:37.193Z</time></trkpt><trkpt lat="37.8454883" lon="14.9913"><ele>1132.857142857143</ele><time>2026-04-05T08:28:40.193Z</time></trkpt><trkpt lat="37.84551" lon="14.99139"><ele>1133.2857142857142</ele><time>2026-04-05T08:28:43.193Z</time></trkpt><trkpt lat="37.845525" lon="14.9914767"><ele>1133.7142857142858</ele><time>2026-04-05T08:28:46.194Z</time></trkpt><trkpt lat="37.8455417" lon="14.9915667"><ele>1134.142857142857</ele><time>2026-04-05T08:28:49.195Z</time></trkpt><trkpt lat="37.8455533" lon="14.99166"><ele>1134.5714285714287</ele><time>2026-04-05T08:28:52.2Z</time></trkpt><trkpt lat="37.8455567" lon="14.991755"><ele>1135.0</ele><time>2026-04-05T08:28:55.193Z</time></trkpt><trkpt lat="37.8455633" lon="14.991855"><ele>1135.2857142857142</ele><time>2026-04-05T08:28:58.193Z</time></trkpt><trkpt lat="37.8455517" lon="14.9919433"><ele>1135.5714285714284</ele><time>2026-04-05T08:29:01.193Z</time></trkpt><trkpt lat="37.8455317" lon="14.9920267"><ele>1135.8571428571427</ele><time>2026-04-05T08:29:04.192Z</time></trkpt><trkpt lat="37.8455183" lon="14.992115"><ele>1136.142857142857</ele><time>2026-04-05T08:29:07.193Z</time></trkpt><trkpt lat="37.8454867" lon="14.9922017"><ele>1136.4285714285713</ele><time>2026-04-05T08:29:10.194Z</time></trkpt><trkpt lat="37.8454383" lon="14.9922733"><ele>1136.7142857142856</ele><time>2026-04-05T08:29:13.193Z</time></trkpt><trkpt lat="37.845365" lon="14.992305"><ele>1137.0</ele><time>2026-04-05T08:29:16.194Z</time></trkpt><trkpt lat="37.84529" lon="14.9922967"><ele>1136.9999999999998</ele><time>2026-04-05T08:29:19.194Z</time></trkpt><trkpt lat="37.845215" lon="14.9922683"><ele>1137.0</ele><time>2026-04-05T08:29:22.194Z</time></trkpt><trkpt lat="37.84515" lon="14.9922267"><ele>1137.0</ele><time>2026-04-05T08:29:25.193Z</time></trkpt><trkpt lat="37.845095" lon="14.99218"><ele>1137.0</ele><time>2026-04-05T08:29:28.192Z</time></trkpt><trkpt lat="37.845035" lon="14.9921283"><ele>1137.0</ele><time>2026-04-05T08:29:31.193Z</time></trkpt><trkpt lat="37.8449833" lon="14.99207"><ele>1136.9999999999998</ele><time>2026-04-05T08:29:34.195Z</time></trkpt><trkpt lat="37.844935" lon="14.9920117"><ele>1137.0</ele><time>2026-04-05T08:29:37.192Z</time></trkpt><trkpt lat="37.84489" lon="14.991935"><ele>1139.0</ele><time>2026-04-05T08:29:40.194Z</time></trkpt><trkpt lat="37.844865" lon="14.9918433"><ele>1141.0</ele><time>2026-04-05T08:29:43.194Z</time></trkpt><trkpt lat="37.84485" lon="14.9917467"><ele>1143.0</ele><time>2026-04-05T08:29:46.192Z</time></trkpt><trkpt lat="37.844835" lon="14.9916467"><ele>1145.0</ele><time>2026-04-05T08:29:49.193Z</time></trkpt><trkpt lat="37.84481" lon="14.9915383"><ele>1147.0</ele><time>2026-04-05T08:29:52.193Z</time></trkpt><trkpt lat="37.8447917" lon="14.991425"><ele>1149.0</ele><time>2026-04-05T08:29:55.193Z</time></trkpt><trkpt lat="37.844775" lon="14.99134"><ele>1149.0</ele><time>2026-04-05T08:29:57.194Z</time></trkpt><trkpt lat="37.844755" lon="14.991245"><ele>1149.0</ele><time>2026-04-05T08:29:59.196Z</time></trkpt><trkpt lat="37.844715" lon="14.99115"><ele>1149.0</ele><time>2026-04-05T08:30:01.195Z</time></trkpt><trkpt lat="37.8446783" lon="14.99104"><ele>1149.0</ele><time>2026-04-05T08:30:03.195Z</time></trkpt><trkpt lat="37.8446533" lon="14.9909233"><ele>1149.0</ele><time>2026-04-05T08:30:05.195Z</time></trkpt><trkpt lat="37.8446433" lon="14.9908333"><ele>1149.0</ele><time>2026-04-05T08:30:07.194Z</time></trkpt><trkpt lat="37.8446017" lon="14.9907433"><ele>1148.1666666666667</ele><time>2026-04-05T08:32:47.192Z</time></trkpt><trkpt lat="37.8445667" lon="14.9906583"><ele>1147.3333333333333</ele><time>2026-04-05T08:32:51.194Z</time></trkpt><trkpt lat="37.8445483" lon="14.990565"><ele>1146.5</ele><time>2026-04-05T08:32:54.192Z</time></trkpt><trkpt lat="37.8445167" lon="14.9904833"><ele>1145.6666666666665</ele><time>2026-04-05T08:32:57.193Z</time></trkpt><trkpt lat="37.8444667" lon="14.990415"><ele>1144.8333333333333</ele><time>2026-04-05T08:33:00.194Z</time></trkpt><trkpt lat="37.8443967" lon="14.9903783"><ele>1144.0</ele><time>2026-04-05T08:33:03.194Z</time></trkpt><trkpt lat="37.8443267" lon="14.9903283"><ele>1146.0</ele><time>2026-04-05T08:33:06.194Z</time></trkpt><trkpt lat="37.8442567" lon="14.9902917"><ele>1148.0</ele><time>2026-04-05T08:33:09.193Z</time></trkpt><trkpt lat="37.8441767" lon="14.9902617"><ele>1150.0</ele><time>2026-04-05T08:33:12.193Z</time></trkpt><trkpt lat="37.84411" lon="14.99022"><ele>1152.0</ele><time>2026-04-05T08:33:15.193Z</time></trkpt><trkpt lat="37.84404" lon="14.990175"><ele>1154.0</ele><time>2026-04-05T08:33:18.193Z</time></trkpt><trkpt lat="37.8439717" lon="14.9901217"><ele>1156.0</ele><time>2026-04-05T08:33:21.193Z</time></trkpt><trkpt lat="37.8439217" lon="14.99005"><ele>1155.0</ele><time>2026-04-05T08:33:24.193Z</time></trkpt><trkpt lat="37.84388" lon="14.9899533"><ele>1154.0</ele><time>2026-04-05T08:33:27.193Z</time></trkpt><trkpt lat="37.8438567" lon="14.9898467"><ele>1153.0</ele><time>2026-04-05T08:33:30.195Z</time></trkpt><trkpt lat="37.8438167" lon="14.989755"><ele>1152.0</ele><time>2026-04-05T08:33:33.194Z</time></trkpt><trkpt lat="37.84377" lon="14.989665"><ele>1151.0</ele><time>2026-04-05T08:33:36.195Z</time></trkpt><trkpt lat="37.8437383" lon="14.9895617"><ele>1150.0</ele><time>2026-04-05T08:33:39.192Z</time></trkpt><trkpt lat="37.843735" lon="14.98945"><ele>1150.0</ele><time>2026-04-05T08:33:42.195Z</time></trkpt><trkpt lat="37.8437583" lon="14.9893533"><ele>1150.0</ele><time>2026-04-05T08:33:45.193Z</time></trkpt><trkpt lat="37.8437767" lon="14.989245"><ele>1150.0</ele><time>2026-04-05T08:33:48.192Z</time></trkpt><trkpt lat="37.8437733" lon="14.9891467"><ele>1150.0</ele><time>2026-04-05T08:33:50.193Z</time></trkpt><trkpt lat="37.8437517" lon="14.9890417"><ele>1150.0</ele><time>2026-04-05T08:33:52.193Z</time></trkpt><trkpt lat="37.8437183" lon="14.9889317"><ele>1150.0</ele><time>2026-04-05T08:33:54.193Z</time></trkpt><trkpt lat="37.84369" lon="14.9888067"><ele>1150.0</ele><time>2026-04-05T08:33:56.201Z</time></trkpt><trkpt lat="37.84367" lon="14.9886667"><ele>1150.0</ele><time>2026-04-05T08:33:58.193Z</time></trkpt><trkpt lat="37.8436833" lon="14.98853"><ele>1150.0</ele><time>2026-04-05T08:34:00.193Z</time></trkpt><trkpt lat="37.8437383" lon="14.9884333"><ele>1150.0</ele><time>2026-04-05T08:34:02.195Z</time></trkpt><trkpt lat="37.84383" lon="14.9883567"><ele>1150.0</ele><time>2026-04-05T08:34:04.193Z</time></trkpt><trkpt lat="37.8439033" lon="14.9882733"><ele>1150.0</ele><time>2026-04-05T08:34:06.193Z</time></trkpt><trkpt lat="37.8439583" lon="14.9881517"><ele>1150.0</ele><time>2026-04-05T08:34:08.193Z</time></trkpt><trkpt lat="37.84398" lon="14.9880217"><ele>1150.0</ele><time>2026-04-05T08:34:10.193Z</time></trkpt><trkpt lat="37.8439617" lon="14.9879167"><ele>1150.0</ele><time>2026-04-05T08:34:12.192Z</time></trkpt><trkpt lat="37.843925" lon="14.9878283"><ele>1150.0</ele><time>2026-04-05T08:34:14.194Z</time></trkpt><trkpt lat="37.8438717" lon="14.98776"><ele>1150.0</ele><time>2026-04-05T08:34:16.194Z</time></trkpt><trkpt lat="37.84381" lon="14.9877033"><ele>1150.0</ele><time>2026-04-05T08:34:18.192Z</time></trkpt><trkpt lat="37.8437517" lon="14.98765"><ele>1150.0</ele><time>2026-04-05T08:34:20.193Z</time></trkpt><trkpt lat="37.84369" lon="14.987595"><ele>1150.0</ele><time>2026-04-05T08:34:22.193Z</time></trkpt><trkpt lat="37.843635" lon="14.98753"><ele>1150.0</ele><time>2026-04-05T08:34:24.193Z</time></trkpt><trkpt lat="37.8435933" lon="14.9874417"><ele>1150.0</ele><time>2026-04-05T08:34:26.193Z</time></trkpt><trkpt lat="37.8435533" lon="14.987355"><ele>1150.7142857142858</ele><time>2026-04-05T08:34:28.194Z</time></trkpt><trkpt lat="37.8435133" lon="14.9872733"><ele>1151.4285714285713</ele><time>2026-04-05T08:34:30.195Z</time></trkpt><trkpt lat="37.84348" lon="14.9871917"><ele>1152.142857142857</ele><time>2026-04-05T08:34:32.193Z</time></trkpt><trkpt lat="37.8434617" lon="14.9870983"><ele>1152.857142857143</ele><time>2026-04-05T08:34:34.193Z</time></trkpt><trkpt lat="37.8434367" lon="14.9870133"><ele>1153.5714285714284</ele><time>2026-04-05T08:34:36.193Z</time></trkpt><trkpt lat="37.843405" lon="14.9869317"><ele>1154.2857142857142</ele><time>2026-04-05T08:34:38.192Z</time></trkpt><trkpt lat="37.8433683" lon="14.98686"><ele>1155.0</ele><time>2026-04-05T08:34:40.308Z</time></trkpt><trkpt lat="37.84329" lon="14.9867867"><ele>1155.3333333333333</ele><time>2026-04-05T08:34:43.196Z</time></trkpt><trkpt lat="37.8432183" lon="14.986765"><ele>1155.6666666666667</ele><time>2026-04-05T08:34:45.193Z</time></trkpt><trkpt lat="37.843145" lon="14.9867583"><ele>1156.0</ele><time>2026-04-05T08:34:47.194Z</time></trkpt><trkpt lat="37.8430733" lon="14.986755"><ele>1156.3333333333335</ele><time>2026-04-05T08:34:49.194Z</time></trkpt><trkpt lat="37.8430083" lon="14.9867417"><ele>1156.6666666666667</ele><time>2026-04-05T08:34:51.194Z</time></trkpt><trkpt lat="37.8429433" lon="14.9867117"><ele>1157.0</ele><time>2026-04-05T08:34:53.194Z</time></trkpt><trkpt lat="37.84285" lon="14.9866467"><ele>1157.0</ele><time>2026-04-05T08:34:56.198Z</time></trkpt><trkpt lat="37.842795" lon="14.9865467"><ele>1157.0</ele><time>2026-04-05T08:34:59.192Z</time></trkpt><trkpt lat="37.8427617" lon="14.986465"><ele>1157.0</ele><time>2026-04-05T08:35:01.193Z</time></trkpt><trkpt lat="37.8427417" lon="14.9863717"><ele>1157.0</ele><time>2026-04-05T08:35:04.192Z</time></trkpt><trkpt lat="37.8426867" lon="14.98629"><ele>1157.0</ele><time>2026-04-05T08:35:07.192Z</time></trkpt><trkpt lat="37.8426167" lon="14.9862383"><ele>1157.0</ele><time>2026-04-05T08:35:10.191Z</time></trkpt><trkpt lat="37.8425367" lon="14.9862033"><ele>1158.4285714285713</ele><time>2026-04-05T08:35:13.193Z</time></trkpt><trkpt lat="37.8424583" lon="14.9861483"><ele>1159.8571428571427</ele><time>2026-04-05T08:35:16.192Z</time></trkpt><trkpt lat="37.842425" lon="14.9860783"><ele>1161.2857142857142</ele><time>2026-04-05T08:35:18.193Z</time></trkpt><trkpt lat="37.8424067" lon="14.985995"><ele>1162.7142857142858</ele><time>2026-04-05T08:35:20.195Z</time></trkpt><trkpt lat="37.8424267" lon="14.9858833"><ele>1164.1428571428573</ele><time>2026-04-05T08:35:23.192Z</time></trkpt><trkpt lat="37.8424733" lon="14.9858233"><ele>1165.5714285714287</ele><time>2026-04-05T08:35:25.193Z</time></trkpt><trkpt lat="37.8425133" lon="14.9857583"><ele>1167.0</ele><time>2026-04-05T08:35:27.192Z</time></trkpt><trkpt lat="37.8425567" lon="14.9856867"><ele>1167.0</ele><time>2026-04-05T08:35:29.195Z</time></trkpt><trkpt lat="37.842615" lon="14.985605"><ele>1167.0</ele><time>2026-04-05T08:35:31.195Z</time></trkpt><trkpt lat="37.8426817" lon="14.9855017"><ele>1167.0</ele><time>2026-04-05T08:35:33.192Z</time></trkpt><trkpt lat="37.8427233" lon="14.985355"><ele>1167.0</ele><time>2026-04-05T08:35:35.193Z</time></trkpt><trkpt lat="37.8427217" lon="14.985275"><ele>1167.0</ele><time>2026-04-05T08:35:36.193Z</time></trkpt><trkpt lat="37.8427" lon="14.985195"><ele>1167.0</ele><time>2026-04-05T08:35:37.192Z</time></trkpt><trkpt lat="37.8426633" lon="14.9851283"><ele>1167.0</ele><time>2026-04-05T08:35:38.193Z</time></trkpt><trkpt lat="37.8425717" lon="14.9850383"><ele>1167.0</ele><time>2026-04-05T08:35:40.191Z</time></trkpt><trkpt lat="37.8424783" lon="14.9850267"><ele>1167.0</ele><time>2026-04-05T08:35:42.194Z</time></trkpt><trkpt lat="37.8423917" lon="14.9850483"><ele>1167.0</ele><time>2026-04-05T08:35:45.192Z</time></trkpt><trkpt lat="37.8423133" lon="14.9850633"><ele>1167.0</ele><time>2026-04-05T08:35:48.194Z</time></trkpt><trkpt lat="37.8422383" lon="14.985115"><ele>1167.0</ele><time>2026-04-05T08:35:51.195Z</time></trkpt><trkpt lat="37.8421667" lon="14.9851833"><ele>1167.0</ele><time>2026-04-05T08:35:54.193Z</time></trkpt><trkpt lat="37.8420867" lon="14.9852333"><ele>1167.0</ele><time>2026-04-05T08:35:57.193Z</time></trkpt><trkpt lat="37.8420167" lon="14.98528"><ele>1167.0</ele><time>2026-04-05T08:36:00.195Z</time></trkpt><trkpt lat="37.84194" lon="14.9852967"><ele>1167.0</ele><time>2026-04-05T08:36:03.193Z</time></trkpt><trkpt lat="37.8418717" lon="14.9852833"><ele>1167.0</ele><time>2026-04-05T08:36:06.193Z</time></trkpt><trkpt lat="37.8418067" lon="14.985235"><ele>1168.6666666666667</ele><time>2026-04-05T08:36:09.193Z</time></trkpt><trkpt lat="37.8417533" lon="14.9851633"><ele>1170.3333333333333</ele><time>2026-04-05T08:36:12.192Z</time></trkpt><trkpt lat="37.8417117" lon="14.9850783"><ele>1172.0</ele><time>2026-04-05T08:36:15.193Z</time></trkpt><trkpt lat="37.841665" lon="14.9849983"><ele>1173.6666666666665</ele><time>2026-04-05T08:36:18.193Z</time></trkpt><trkpt lat="37.8416183" lon="14.9849133"><ele>1175.3333333333333</ele><time>2026-04-05T08:36:21.193Z</time></trkpt><trkpt lat="37.84159" lon="14.98482"><ele>1177.0</ele><time>2026-04-05T08:36:24.194Z</time></trkpt><trkpt lat="37.8415733" lon="14.9847183"><ele>1177.0</ele><time>2026-04-05T08:36:27.192Z</time></trkpt><trkpt lat="37.8415567" lon="14.9846267"><ele>1177.0</ele><time>2026-04-05T08:36:30.193Z</time></trkpt><trkpt lat="37.8415017" lon="14.984555"><ele>1177.0</ele><time>2026-04-05T08:36:33.194Z</time></trkpt><trkpt lat="37.8414383" lon="14.9844983"><ele>1177.0</ele><time>2026-04-05T08:36:36.194Z</time></trkpt><trkpt lat="37.841375" lon="14.9844717"><ele>1177.0</ele><time>2026-04-05T08:36:39.194Z</time></trkpt><trkpt lat="37.8413117" lon="14.9844583"><ele>1177.0</ele><time>2026-04-05T08:36:42.194Z</time></trkpt><trkpt lat="37.8412467" lon="14.9844183"><ele>1177.0</ele><time>2026-04-05T08:36:45.193Z</time></trkpt><trkpt lat="37.84119" lon="14.9843567"><ele>1177.0</ele><time>2026-04-05T08:36:48.194Z</time></trkpt><trkpt lat="37.8411317" lon="14.9842967"><ele>1177.0</ele><time>2026-04-05T08:36:51.194Z</time></trkpt><trkpt lat="37.841065" lon="14.9842383"><ele>1177.0</ele><time>2026-04-05T08:36:54.194Z</time></trkpt><trkpt lat="37.8410083" lon="14.9841783"><ele>1177.0</ele><time>2026-04-05T08:36:57.194Z</time></trkpt><trkpt lat="37.8409583" lon="14.9840983"><ele>1177.0</ele><time>2026-04-05T08:37:01.193Z</time></trkpt><trkpt lat="37.8409067" lon="14.984035"><ele>1177.0</ele><time>2026-04-05T08:37:04.193Z</time></trkpt><trkpt lat="37.84086" lon="14.9839467"><ele>1178.7142857142858</ele><time>2026-04-05T08:37:07.192Z</time></trkpt><trkpt lat="37.8408267" lon="14.9838783"><ele>1180.4285714285713</ele><time>2026-04-05T08:37:09.193Z</time></trkpt><trkpt lat="37.840795" lon="14.9837933"><ele>1182.142857142857</ele><time>2026-04-05T08:37:12.193Z</time></trkpt><trkpt lat="37.8407667" lon="14.9837"><ele>1183.857142857143</ele><time>2026-04-05T08:37:15.193Z</time></trkpt><trkpt lat="37.8407283" lon="14.9836067"><ele>1185.5714285714287</ele><time>2026-04-05T08:37:18.194Z</time></trkpt><trkpt lat="37.8406767" lon="14.9835267"><ele>1187.2857142857142</ele><time>2026-04-05T08:37:21.193Z</time></trkpt><trkpt lat="37.8406283" lon="14.9834683"><ele>1189.0</ele><time>2026-04-05T08:37:24.193Z</time></trkpt><trkpt lat="37.8405833" lon="14.9834"><ele>1188.4285714285713</ele><time>2026-04-05T08:37:27.196Z</time></trkpt><trkpt lat="37.8405383" lon="14.98333"><ele>1187.857142857143</ele><time>2026-04-05T08:37:30.193Z</time></trkpt><trkpt lat="37.84049" lon="14.9832667"><ele>1187.2857142857142</ele><time>2026-04-05T08:37:33.193Z</time></trkpt><trkpt lat="37.8404417" lon="14.9831967"><ele>1186.7142857142858</ele><time>2026-04-05T08:37:36.193Z</time></trkpt><trkpt lat="37.8403867" lon="14.9831317"><ele>1186.142857142857</ele><time>2026-04-05T08:37:39.196Z</time></trkpt><trkpt lat="37.84034" lon="14.983065"><ele>1185.5714285714284</ele><time>2026-04-05T08:37:42.193Z</time></trkpt><trkpt lat="37.8403083" lon="14.9829917"><ele>1185.0</ele><time>2026-04-05T08:37:45.194Z</time></trkpt><trkpt lat="37.8402917" lon="14.9828983"><ele>1185.0</ele><time>2026-04-05T08:37:48.192Z</time></trkpt><trkpt lat="37.8402717" lon="14.9828017"><ele>1185.0</ele><time>2026-04-05T08:37:51.195Z</time></trkpt><trkpt lat="37.8402533" lon="14.982705"><ele>1185.0</ele><time>2026-04-05T08:37:54.192Z</time></trkpt><trkpt lat="37.840225" lon="14.9826117"><ele>1185.0</ele><time>2026-04-05T08:37:57.192Z</time></trkpt><trkpt lat="37.8402033" lon="14.9825117"><ele>1185.0</ele><time>2026-04-05T08:38:00.192Z</time></trkpt><trkpt lat="37.8401767" lon="14.98241"><ele>1185.0</ele><time>2026-04-05T08:38:03.192Z</time></trkpt><trkpt lat="37.840135" lon="14.982315"><ele>1187.0</ele><time>2026-04-05T08:38:06.194Z</time></trkpt><trkpt lat="37.8400833" lon="14.9822667"><ele>1189.0</ele><time>2026-04-05T08:38:08.192Z</time></trkpt><trkpt lat="37.8400283" lon="14.982225"><ele>1191.0</ele><time>2026-04-05T08:38:10.191Z</time></trkpt><trkpt lat="37.839955" lon="14.9821733"><ele>1193.0</ele><time>2026-04-05T08:38:13.191Z</time></trkpt><trkpt lat="37.8398867" lon="14.98214"><ele>1195.0</ele><time>2026-04-05T08:38:16.193Z</time></trkpt><trkpt lat="37.8398317" lon="14.9820817"><ele>1197.0</ele><time>2026-04-05T08:38:19.196Z</time></trkpt><trkpt lat="37.839785" lon="14.9820167"><ele>1199.0</ele><time>2026-04-05T08:38:22.193Z</time></trkpt><trkpt lat="37.839735" lon="14.9819517"><ele>1199.0</ele><time>2026-04-05T08:38:25.193Z</time></trkpt><trkpt lat="37.8396917" lon="14.98189"><ele>1199.0</ele><time>2026-04-05T08:38:28.193Z</time></trkpt><trkpt lat="37.8396167" lon="14.9818417"><ele>1199.0</ele><time>2026-04-05T08:38:32.198Z</time></trkpt><trkpt lat="37.839545" lon="14.98183"><ele>1199.0</ele><time>2026-04-05T08:38:35.193Z</time></trkpt><trkpt lat="37.83948" lon="14.9818383"><ele>1199.0</ele><time>2026-04-05T08:38:38.195Z</time></trkpt><trkpt lat="37.83941" lon="14.9818467"><ele>1199.0</ele><time>2026-04-05T08:38:41.192Z</time></trkpt><trkpt lat="37.8393517" lon="14.9818017"><ele>1199.0</ele><time>2026-04-05T08:38:44.192Z</time></trkpt><trkpt lat="37.8393033" lon="14.98173"><ele>1201.0</ele><time>2026-04-05T08:38:47.193Z</time></trkpt><trkpt lat="37.8392633" lon="14.9816483"><ele>1203.0</ele><time>2026-04-05T08:38:50.203Z</time></trkpt><trkpt lat="37.839245" lon="14.981545"><ele>1205.0</ele><time>2026-04-05T08:38:54.191Z</time></trkpt><trkpt lat="37.8392183" lon="14.9814667"><ele>1207.0</ele><time>2026-04-05T08:38:57.193Z</time></trkpt><trkpt lat="37.8391717" lon="14.9813883"><ele>1209.0</ele><time>2026-04-05T08:39:00.192Z</time></trkpt><trkpt lat="37.8391233" lon="14.98133"><ele>1211.0</ele><time>2026-04-05T08:39:03.194Z</time></trkpt><trkpt lat="37.8390617" lon="14.9812667"><ele>1211.0</ele><time>2026-04-05T08:39:07.192Z</time></trkpt><trkpt lat="37.839005" lon="14.98122"><ele>1211.0</ele><time>2026-04-05T08:39:10.191Z</time></trkpt><trkpt lat="37.8389617" lon="14.98116"><ele>1211.0</ele><time>2026-04-05T08:39:13.192Z</time></trkpt><trkpt lat="37.8389333" lon="14.981085"><ele>1211.0</ele><time>2026-04-05T08:39:16.193Z</time></trkpt><trkpt lat="37.8388983" lon="14.9809967"><ele>1211.0</ele><time>2026-04-05T08:39:20.194Z</time></trkpt><trkpt lat="37.8388633" lon="14.98093"><ele>1211.0</ele><time>2026-04-05T08:39:25.192Z</time></trkpt><trkpt lat="37.8387917" lon="14.9809"><ele>1211.0</ele><time>2026-04-05T08:39:30.191Z</time></trkpt><trkpt lat="37.838725" lon="14.980895"><ele>1211.0</ele><time>2026-04-05T08:39:34.193Z</time></trkpt><trkpt lat="37.8386567" lon="14.98085"><ele>1211.0</ele><time>2026-04-05T08:39:39.192Z</time></trkpt><trkpt lat="37.83864" lon="14.9807683"><ele>1211.0</ele><time>2026-04-05T08:39:44.193Z</time></trkpt><trkpt lat="37.83862" lon="14.9806867"><ele>1211.0</ele><time>2026-04-05T08:39:49.2Z</time></trkpt><trkpt lat="37.8385733" lon="14.9806133"><ele>1211.0</ele><time>2026-04-05T08:39:54.194Z</time></trkpt><trkpt lat="37.8385017" lon="14.980605"><ele>1211.0</ele><time>2026-04-05T08:39:58.193Z</time></trkpt><trkpt lat="37.8384367" lon="14.9806283"><ele>1211.0</ele><time>2026-04-05T08:40:03.192Z</time></trkpt><trkpt lat="37.8383633" lon="14.9806217"><ele>1213.0</ele><time>2026-04-05T08:40:08.192Z</time></trkpt><trkpt lat="37.8382867" lon="14.980635"><ele>1215.0</ele><time>2026-04-05T08:40:13.191Z</time></trkpt><trkpt lat="37.8382183" lon="14.9806367"><ele>1217.0</ele><time>2026-04-05T08:40:18.193Z</time></trkpt><trkpt lat="37.8381483" lon="14.9806367"><ele>1219.0</ele><time>2026-04-05T08:40:22.194Z</time></trkpt><trkpt lat="37.8380833" lon="14.9806217"><ele>1221.0</ele><time>2026-04-05T08:40:26.196Z</time></trkpt><trkpt lat="37.838015" lon="14.9805967"><ele>1223.0</ele><time>2026-04-05T08:40:30.195Z</time></trkpt><trkpt lat="37.837985" lon="14.98051"><ele>1225.0</ele><time>2026-04-05T08:40:35.196Z</time></trkpt><trkpt lat="37.8379783" lon="14.9804167"><ele>1225.0</ele><time>2026-04-05T08:40:40.192Z</time></trkpt><trkpt lat="37.8379633" lon="14.980335"><ele>1225.0</ele><time>2026-04-05T08:40:44.194Z</time></trkpt><trkpt lat="37.8379133" lon="14.980255"><ele>1225.0</ele><time>2026-04-05T08:40:48.196Z</time></trkpt><trkpt lat="37.83784" lon="14.98021"><ele>1225.0</ele><time>2026-04-05T08:40:52.193Z</time></trkpt><trkpt lat="37.8377667" lon="14.9801767"><ele>1225.0</ele><time>2026-04-05T08:40:56.194Z</time></trkpt><trkpt lat="37.837705" lon="14.9801183"><ele>1225.0</ele><time>2026-04-05T08:41:00.192Z</time></trkpt><trkpt lat="37.8376833" lon="14.98002"><ele>1224.4285714285713</ele><time>2026-04-05T08:41:04.193Z</time></trkpt><trkpt lat="37.8376767" lon="14.9799183"><ele>1223.857142857143</ele><time>2026-04-05T08:41:08.195Z</time></trkpt><trkpt lat="37.8376667" lon="14.9798267"><ele>1223.2857142857142</ele><time>2026-04-05T08:41:12.193Z</time></trkpt><trkpt lat="37.83765" lon="14.9797417"><ele>1222.7142857142858</ele><time>2026-04-05T08:41:16.193Z</time></trkpt><trkpt lat="37.8376233" lon="14.9796683"><ele>1222.142857142857</ele><time>2026-04-05T08:41:20.194Z</time></trkpt><trkpt lat="37.8376117" lon="14.9795783"><ele>1221.5714285714284</ele><time>2026-04-05T08:41:24.194Z</time></trkpt><trkpt lat="37.8375733" lon="14.9795117"><ele>1221.0</ele><time>2026-04-05T08:41:28.197Z</time></trkpt><trkpt lat="37.8375317" lon="14.9794333"><ele>1224.2857142857142</ele><time>2026-04-05T08:41:33.193Z</time></trkpt><trkpt lat="37.8374917" lon="14.9793633"><ele>1227.5714285714284</ele><time>2026-04-05T08:41:38.196Z</time></trkpt><trkpt lat="37.837425" lon="14.9793033"><ele>1230.8571428571427</ele><time>2026-04-05T08:41:46.192Z</time></trkpt><trkpt lat="37.8373517" lon="14.9792867"><ele>1234.142857142857</ele><time>2026-04-05T08:41:52.196Z</time></trkpt><trkpt lat="37.83728" lon="14.979275"><ele>1237.4285714285716</ele><time>2026-04-05T08:41:58.196Z</time></trkpt><trkpt lat="37.8372067" lon="14.9792933"><ele>1240.7142857142856</ele><time>2026-04-05T08:42:03.194Z</time></trkpt><trkpt lat="37.8371383" lon="14.979305"><ele>1244.0</ele><time>2026-04-05T08:42:08.193Z</time></trkpt><trkpt lat="37.8370683" lon="14.979265"><ele>1244.0</ele><time>2026-04-05T08:42:12.194Z</time></trkpt><trkpt lat="37.837035" lon="14.97919"><ele>1244.0</ele><time>2026-04-05T08:42:15.194Z</time></trkpt><trkpt lat="37.8370667" lon="14.9790933"><ele>1244.0</ele><time>2026-04-05T08:42:19.193Z</time></trkpt><trkpt lat="37.8371183" lon="14.9790417"><ele>1244.0</ele><time>2026-04-05T08:42:22.193Z</time></trkpt><trkpt lat="37.83715" lon="14.9789467"><ele>1244.0</ele><time>2026-04-05T08:42:27.194Z</time></trkpt><trkpt lat="37.8371983" lon="14.9788783"><ele>1244.0</ele><time>2026-04-05T08:42:31.194Z</time></trkpt><trkpt lat="37.837255" lon="14.9788117"><ele>1244.0</ele><time>2026-04-05T08:42:35.194Z</time></trkpt><trkpt lat="37.8372633" lon="14.97872"><ele>1244.3333333333335</ele><time>2026-04-05T08:42:39.195Z</time></trkpt><trkpt lat="37.8372817" lon="14.9786317"><ele>1244.6666666666667</ele><time>2026-04-05T08:42:42.192Z</time></trkpt><trkpt lat="37.8372767" lon="14.9785283"><ele>1245.0</ele><time>2026-04-05T08:42:46.193Z</time></trkpt><trkpt lat="37.8372333" lon="14.978465"><ele>1245.3333333333333</ele><time>2026-04-05T08:42:48.193Z</time></trkpt><trkpt lat="37.8371817" lon="14.97838"><ele>1245.6666666666665</ele><time>2026-04-05T08:42:51.192Z</time></trkpt><trkpt lat="37.83713" lon="14.9783117"><ele>1246.0</ele><time>2026-04-05T08:42:54.193Z</time></trkpt><trkpt lat="37.8370883" lon="14.9782333"><ele>1246.3333333333333</ele><time>2026-04-05T08:42:57.192Z</time></trkpt><trkpt lat="37.8370417" lon="14.97815"><ele>1246.6666666666665</ele><time>2026-04-05T08:43:01.194Z</time></trkpt><trkpt lat="37.836975" lon="14.9781133"><ele>1247.0</ele><time>2026-04-05T08:43:04.192Z</time></trkpt><trkpt lat="37.836915" lon="14.9780667"><ele>1247.3333333333333</ele><time>2026-04-05T08:43:07.194Z</time></trkpt><trkpt lat="37.83685" lon="14.97805"><ele>1247.6666666666667</ele><time>2026-04-05T08:43:10.194Z</time></trkpt><trkpt lat="37.8367683" lon="14.9780233"><ele>1248.0</ele><time>2026-04-05T08:43:14.193Z</time></trkpt><trkpt lat="37.83669" lon="14.9779933"><ele>1251.5</ele><time>2026-04-05T08:43:18.192Z</time></trkpt><trkpt lat="37.8366133" lon="14.978"><ele>1255.0</ele><time>2026-04-05T08:43:22.195Z</time></trkpt><trkpt lat="37.8365333" lon="14.97796"><ele>1258.5</ele><time>2026-04-05T08:43:26.195Z</time></trkpt><trkpt lat="37.83647" lon="14.977915"><ele>1262.0</ele><time>2026-04-05T08:43:29.193Z</time></trkpt><trkpt lat="37.836435" lon="14.9778333"><ele>1265.5</ele><time>2026-04-05T08:43:33.193Z</time></trkpt><trkpt lat="37.8364083" lon="14.9777383"><ele>1269.0</ele><time>2026-04-05T08:43:37.196Z</time></trkpt><trkpt lat="37.8363967" lon="14.977655"><ele>1269.0</ele><time>2026-04-05T08:43:40.194Z</time></trkpt><trkpt lat="37.836375" lon="14.9775667"><ele>1269.0</ele><time>2026-04-05T08:43:43.193Z</time></trkpt><trkpt lat="37.8363233" lon="14.9774767"><ele>1269.0</ele><time>2026-04-05T08:43:46.197Z</time></trkpt><trkpt lat="37.83627" lon="14.9774183"><ele>1269.0</ele><time>2026-04-05T08:43:48.194Z</time></trkpt><trkpt lat="37.83622" lon="14.9773583"><ele>1269.0</ele><time>2026-04-05T08:43:51.192Z</time></trkpt><trkpt lat="37.83617" lon="14.977295"><ele>1269.0</ele><time>2026-04-05T08:43:55.194Z</time></trkpt><trkpt lat="37.8361267" lon="14.977235"><ele>1269.0</ele><time>2026-04-05T08:43:58.194Z</time></trkpt><trkpt lat="37.8361133" lon="14.9771433"><ele>1267.8333333333333</ele><time>2026-04-05T08:44:02.194Z</time></trkpt><trkpt lat="37.8361217" lon="14.9770433"><ele>1266.6666666666667</ele><time>2026-04-05T08:44:06.194Z</time></trkpt><trkpt lat="37.8361467" lon="14.9769317"><ele>1265.5</ele><time>2026-04-05T08:44:10.193Z</time></trkpt><trkpt lat="37.8361517" lon="14.9768417"><ele>1264.3333333333335</ele><time>2026-04-05T08:44:12.194Z</time></trkpt><trkpt lat="37.8361467" lon="14.9767383"><ele>1263.1666666666667</ele><time>2026-04-05T08:44:15.192Z</time></trkpt><trkpt lat="37.8361883" lon="14.976645"><ele>1262.0</ele><time>2026-04-05T08:44:18.193Z</time></trkpt><trkpt lat="37.8362267" lon="14.9765517"><ele>1262.0</ele><time>2026-04-05T08:44:21.194Z</time></trkpt><trkpt lat="37.8362817" lon="14.9764367"><ele>1262.0</ele><time>2026-04-05T08:44:24.195Z</time></trkpt><trkpt lat="37.8363183" lon="14.9763467"><ele>1262.0</ele><time>2026-04-05T08:44:26.193Z</time></trkpt><trkpt lat="37.8363417" lon="14.976265"><ele>1262.0</ele><time>2026-04-05T08:44:28.195Z</time></trkpt><trkpt lat="37.83634" lon="14.976145"><ele>1262.0</ele><time>2026-04-05T08:44:31.193Z</time></trkpt><trkpt lat="37.8363017" lon="14.9760783"><ele>1262.0</ele><time>2026-04-05T08:44:33.194Z</time></trkpt><trkpt lat="37.8362183" lon="14.9760383"><ele>1262.0</ele><time>2026-04-05T08:44:36.193Z</time></trkpt><trkpt lat="37.8361383" lon="14.976005"><ele>1262.0</ele><time>2026-04-05T08:44:39.193Z</time></trkpt><trkpt lat="37.8360633" lon="14.9759617"><ele>1262.0</ele><time>2026-04-05T08:44:43.193Z</time></trkpt><trkpt lat="37.8359817" lon="14.97595"><ele>1262.0</ele><time>2026-04-05T08:44:46.193Z</time></trkpt><trkpt lat="37.8359" lon="14.9759383"><ele>1262.0</ele><time>2026-04-05T08:44:49.194Z</time></trkpt><trkpt lat="37.835835" lon="14.9759233"><ele>1262.0</ele><time>2026-04-05T08:44:51.193Z</time></trkpt><trkpt lat="37.8357567" lon="14.9758967"><ele>1264.0</ele><time>2026-04-05T08:44:54.199Z</time></trkpt><trkpt lat="37.835675" lon="14.9758833"><ele>1266.0</ele><time>2026-04-05T08:44:57.192Z</time></trkpt><trkpt lat="37.8355883" lon="14.97585"><ele>1268.0</ele><time>2026-04-05T08:45:00.194Z</time></trkpt><trkpt lat="37.835515" lon="14.9757767"><ele>1270.0</ele><time>2026-04-05T08:45:03.194Z</time></trkpt><trkpt lat="37.8354667" lon="14.975725"><ele>1272.0</ele><time>2026-04-05T08:45:05.193Z</time></trkpt><trkpt lat="37.8354033" lon="14.9756567"><ele>1274.0</ele><time>2026-04-05T08:45:08.194Z</time></trkpt><trkpt lat="37.83534" lon="14.9755883"><ele>1274.0</ele><time>2026-04-05T08:45:12.193Z</time></trkpt><trkpt lat="37.8353283" lon="14.9754733"><ele>1274.0</ele><time>2026-04-05T08:45:15.195Z</time></trkpt><trkpt lat="37.8353317" lon="14.9753867"><ele>1274.0</ele><time>2026-04-05T08:45:17.193Z</time></trkpt><trkpt lat="37.83531" lon="14.97531"><ele>1274.0</ele><time>2026-04-05T08:45:19.192Z</time></trkpt><trkpt lat="37.83528" lon="14.975205"><ele>1274.0</ele><time>2026-04-05T08:45:22.192Z</time></trkpt><trkpt lat="37.8352317" lon="14.9751217"><ele>1274.0</ele><time>2026-04-05T08:45:25.197Z</time></trkpt><trkpt lat="37.8351783" lon="14.9750483"><ele>1276.7142857142858</ele><time>2026-04-05T08:45:29.193Z</time></trkpt><trkpt lat="37.83512" lon="14.9749833"><ele>1279.4285714285716</ele><time>2026-04-05T08:45:34.193Z</time></trkpt><trkpt lat="37.8350517" lon="14.9749367"><ele>1282.142857142857</ele><time>2026-04-05T08:45:37.192Z</time></trkpt><trkpt lat="37.834995" lon="14.9748883"><ele>1284.857142857143</ele><time>2026-04-05T08:45:39.194Z</time></trkpt><trkpt lat="37.8349467" lon="14.9748067"><ele>1287.5714285714287</ele><time>2026-04-05T08:45:42.194Z</time></trkpt><trkpt lat="37.83491" lon="14.9747233"><ele>1290.2857142857142</ele><time>2026-04-05T08:45:46.193Z</time></trkpt><trkpt lat="37.8348667" lon="14.974665"><ele>1293.0</ele><time>2026-04-05T08:45:49.192Z</time></trkpt><trkpt lat="37.8348367" lon="14.9745883"><ele>1293.0</ele><time>2026-04-05T08:45:52.193Z</time></trkpt><trkpt lat="37.8347683" lon="14.9745367"><ele>1293.0</ele><time>2026-04-05T08:45:55.194Z</time></trkpt><trkpt lat="37.8346833" lon="14.9745133"><ele>1293.0</ele><time>2026-04-05T08:45:59.193Z</time></trkpt><trkpt lat="37.8346183" lon="14.974485"><ele>1293.0</ele><time>2026-04-05T08:46:01.193Z</time></trkpt><trkpt lat="37.834545" lon="14.9744517"><ele>1293.0</ele><time>2026-04-05T08:46:04.192Z</time></trkpt><trkpt lat="37.8344617" lon="14.97444"><ele>1293.0</ele><time>2026-04-05T08:46:08.194Z</time></trkpt><trkpt lat="37.8343967" lon="14.97441"><ele>1293.0</ele><time>2026-04-05T08:46:10.193Z</time></trkpt><trkpt lat="37.8343317" lon="14.97441"><ele>1293.0</ele><time>2026-04-05T08:46:12.193Z</time></trkpt><trkpt lat="37.8342583" lon="14.9743917"><ele>1293.0</ele><time>2026-04-05T08:46:14.195Z</time></trkpt><trkpt lat="37.8341783" lon="14.97436"><ele>1293.0</ele><time>2026-04-05T08:46:17.194Z</time></trkpt><trkpt lat="37.8341033" lon="14.9743083"><ele>1293.0</ele><time>2026-04-05T08:46:20.194Z</time></trkpt><trkpt lat="37.8340567" lon="14.9742517"><ele>1293.0</ele><time>2026-04-05T08:46:22.192Z</time></trkpt><trkpt lat="37.8340167" lon="14.9741383"><ele>1293.857142857143</ele><time>2026-04-05T08:46:25.193Z</time></trkpt><trkpt lat="37.8339867" lon="14.9740533"><ele>1294.7142857142858</ele><time>2026-04-05T08:46:27.192Z</time></trkpt><trkpt lat="37.8339567" lon="14.9739617"><ele>1295.5714285714287</ele><time>2026-04-05T08:46:29.196Z</time></trkpt><trkpt lat="37.833915" lon="14.973875"><ele>1296.4285714285716</ele><time>2026-04-05T08:46:32.193Z</time></trkpt><trkpt lat="37.83387" lon="14.9738167"><ele>1297.2857142857142</ele><time>2026-04-05T08:46:35.194Z</time></trkpt><trkpt lat="37.8337867" lon="14.9737867"><ele>1298.1428571428573</ele><time>2026-04-05T08:46:38.194Z</time></trkpt><trkpt lat="37.833725" lon="14.9737567"><ele>1299.0</ele><time>2026-04-05T08:46:40.194Z</time></trkpt><trkpt lat="37.8336483" lon="14.9737133"><ele>1299.0000000000002</ele><time>2026-04-05T08:46:43.193Z</time></trkpt><trkpt lat="37.8335867" lon="14.97368"><ele>1299.0</ele><time>2026-04-05T08:46:46.192Z</time></trkpt><trkpt lat="37.8335333" lon="14.9736233"><ele>1299.0</ele><time>2026-04-05T08:46:49.195Z</time></trkpt><trkpt lat="37.8334717" lon="14.9735633"><ele>1299.0</ele><time>2026-04-05T08:46:52.195Z</time></trkpt><trkpt lat="37.833395" lon="14.9735317"><ele>1299.0</ele><time>2026-04-05T08:46:55.193Z</time></trkpt><trkpt lat="37.8333417" lon="14.973475"><ele>1299.0000000000002</ele><time>2026-04-05T08:46:58.195Z</time></trkpt><trkpt lat="37.833325" lon="14.973385"><ele>1299.0</ele><time>2026-04-05T08:47:01.194Z</time></trkpt><trkpt lat="37.8333033" lon="14.9732883"><ele>1300.1666666666667</ele><time>2026-04-05T08:47:04.195Z</time></trkpt><trkpt lat="37.8332867" lon="14.973185"><ele>1301.3333333333333</ele><time>2026-04-05T08:47:07.193Z</time></trkpt><trkpt lat="37.8332683" lon="14.9730767"><ele>1302.5</ele><time>2026-04-05T08:47:10.193Z</time></trkpt><trkpt lat="37.833245" lon="14.9729917"><ele>1303.6666666666665</ele><time>2026-04-05T08:47:13.192Z</time></trkpt><trkpt lat="37.833225" lon="14.97291"><ele>1304.8333333333333</ele><time>2026-04-05T08:47:16.193Z</time></trkpt><trkpt lat="37.8332217" lon="14.9728117"><ele>1306.0</ele><time>2026-04-05T08:47:20.193Z</time></trkpt><trkpt lat="37.8332267" lon="14.972725"><ele>1306.0000000000002</ele><time>2026-04-05T08:47:24.195Z</time></trkpt><trkpt lat="37.83323" lon="14.972645"><ele>1306.0</ele><time>2026-04-05T08:47:29.193Z</time></trkpt><trkpt lat="37.833235" lon="14.9725633"><ele>1306.0</ele><time>2026-04-05T08:47:34.193Z</time></trkpt><trkpt lat="37.8332333" lon="14.9724717"><ele>1306.0</ele><time>2026-04-05T08:47:39.193Z</time></trkpt><trkpt lat="37.83322" lon="14.9723767"><ele>1306.0</ele><time>2026-04-05T08:47:44.193Z</time></trkpt><trkpt lat="37.8331867" lon="14.9722967"><ele>1306.0000000000002</ele><time>2026-04-05T08:47:48.194Z</time></trkpt><trkpt lat="37.83311" lon="14.9723"><ele>1306.0</ele><time>2026-04-05T08:47:52.194Z</time></trkpt><trkpt lat="37.8330617" lon="14.9723533"><ele>1306.0000000000002</ele><time>2026-04-05T08:47:55.193Z</time></trkpt><trkpt lat="37.8330133" lon="14.9724117"><ele>1306.0</ele><time>2026-04-05T08:47:58.194Z</time></trkpt><trkpt lat="37.832965" lon="14.97247"><ele>1306.0</ele><time>2026-04-05T08:48:01.192Z</time></trkpt><trkpt lat="37.8329133" lon="14.97254"><ele>1306.0</ele><time>2026-04-05T08:48:04.193Z</time></trkpt><trkpt lat="37.8328583" lon="14.9726"><ele>1306.0</ele><time>2026-04-05T08:48:07.192Z</time></trkpt><trkpt lat="37.832795" lon="14.972635"><ele>1306.0000000000002</ele><time>2026-04-05T08:48:10.192Z</time></trkpt><trkpt lat="37.832725" lon="14.9726383"><ele>1306.0</ele><time>2026-04-05T08:48:13.193Z</time></trkpt><trkpt lat="37.8326567" lon="14.9726233"><ele>1307.5714285714287</ele><time>2026-04-05T08:48:16.192Z</time></trkpt><trkpt lat="37.8325833" lon="14.9725983"><ele>1309.142857142857</ele><time>2026-04-05T08:48:19.194Z</time></trkpt><trkpt lat="37.8325167" lon="14.97256"><ele>1310.7142857142858</ele><time>2026-04-05T08:48:22.195Z</time></trkpt><trkpt lat="37.8324667" lon="14.97251"><ele>1312.2857142857142</ele><time>2026-04-05T08:48:25.193Z</time></trkpt><trkpt lat="37.8324" lon="14.9724883"><ele>1313.857142857143</ele><time>2026-04-05T08:48:28.192Z</time></trkpt><trkpt lat="37.8323317" lon="14.9724733"><ele>1315.4285714285716</ele><time>2026-04-05T08:48:32.201Z</time></trkpt><trkpt lat="37.83225" lon="14.9724533"><ele>1317.0</ele><time>2026-04-05T08:48:36.194Z</time></trkpt><trkpt lat="37.832185" lon="14.97244"><ele>1317.0</ele><time>2026-04-05T08:48:39.193Z</time></trkpt><trkpt lat="37.8321183" lon="14.9724267"><ele>1317.0</ele><time>2026-04-05T08:48:43.192Z</time></trkpt><trkpt lat="37.8320433" lon="14.9724017"><ele>1317.0</ele><time>2026-04-05T08:48:47.194Z</time></trkpt><trkpt lat="37.8319867" lon="14.9723583"><ele>1317.0</ele><time>2026-04-05T08:48:50.193Z</time></trkpt><trkpt lat="37.8319383" lon="14.9723"><ele>1317.0</ele><time>2026-04-05T08:48:53.196Z</time></trkpt><trkpt lat="37.8318833" lon="14.972245"><ele>1317.0</ele><time>2026-04-05T08:48:57.194Z</time></trkpt><trkpt lat="37.8318133" lon="14.972215"><ele>1317.0</ele><time>2026-04-05T08:49:00.191Z</time></trkpt><trkpt lat="37.8317483" lon="14.97222"><ele>1318.2857142857142</ele><time>2026-04-05T08:49:03.193Z</time></trkpt><trkpt lat="37.8316833" lon="14.9722733"><ele>1319.5714285714284</ele><time>2026-04-05T08:49:07.193Z</time></trkpt><trkpt lat="37.8316617" lon="14.97237"><ele>1320.8571428571427</ele><time>2026-04-05T08:49:11.192Z</time></trkpt><trkpt lat="37.8317" lon="14.9724517"><ele>1322.142857142857</ele><time>2026-04-05T08:49:15.192Z</time></trkpt><trkpt lat="37.8317517" lon="14.9725117"><ele>1323.4285714285713</ele><time>2026-04-05T08:49:18.193Z</time></trkpt><trkpt lat="37.8318083" lon="14.97256"><ele>1324.7142857142856</ele><time>2026-04-05T08:49:21.191Z</time></trkpt><trkpt lat="37.831875" lon="14.97261"><ele>1326.0</ele><time>2026-04-05T08:49:25.193Z</time></trkpt><trkpt lat="37.831925" lon="14.9726633"><ele>1325.9999999999998</ele><time>2026-04-05T08:49:28.193Z</time></trkpt><trkpt lat="37.8319717" lon="14.9727283"><ele>1326.0</ele><time>2026-04-05T08:49:31.191Z</time></trkpt><trkpt lat="37.8320117" lon="14.9728083"><ele>1326.0</ele><time>2026-04-05T08:49:34.194Z</time></trkpt><trkpt lat="37.8320483" lon="14.972875"><ele>1326.0</ele><time>2026-04-05T08:49:37.194Z</time></trkpt><trkpt lat="37.8320917" lon="14.9729433"><ele>1326.0</ele><time>2026-04-05T08:49:40.191Z</time></trkpt><trkpt lat="37.83213" lon="14.9730267"><ele>1325.9999999999998</ele><time>2026-04-05T08:49:43.191Z</time></trkpt><trkpt lat="37.8321417" lon="14.97311"><ele>1326.0</ele><time>2026-04-05T08:49:46.193Z</time></trkpt><trkpt lat="37.832165" lon="14.9731867"><ele>1325.9999999999998</ele><time>2026-04-05T08:49:49.192Z</time></trkpt><trkpt lat="37.8321783" lon="14.9732933"><ele>1326.0</ele><time>2026-04-05T08:49:53.193Z</time></trkpt><trkpt lat="37.83219" lon="14.9733717"><ele>1326.0</ele><time>2026-04-05T08:49:56.197Z</time></trkpt><trkpt lat="37.8321767" lon="14.9734533"><ele>1326.0</ele><time>2026-04-05T08:49:59.193Z</time></trkpt><trkpt lat="37.832095" lon="14.97347"><ele>1326.0</ele><time>2026-04-05T08:50:03.193Z</time></trkpt><trkpt lat="37.8320517" lon="14.97341"><ele>1325.9999999999998</ele><time>2026-04-05T08:50:06.192Z</time></trkpt><trkpt lat="37.832015" lon="14.9733367"><ele>1326.0</ele><time>2026-04-05T08:50:09.193Z</time></trkpt><trkpt lat="37.83198" lon="14.97326"><ele>1326.0</ele><time>2026-04-05T08:50:12.194Z</time></trkpt><trkpt lat="37.83193" lon="14.97318"><ele>1326.0</ele><time>2026-04-05T08:50:15.192Z</time></trkpt><trkpt lat="37.8318717" lon="14.9731033"><ele>1326.0</ele><time>2026-04-05T08:50:18.194Z</time></trkpt><trkpt lat="37.8318067" lon="14.97304"><ele>1326.0</ele><time>2026-04-05T08:50:21.192Z</time></trkpt><trkpt lat="37.831725" lon="14.9729717"><ele>1326.0</ele><time>2026-04-05T08:50:24.191Z</time></trkpt><trkpt lat="37.8316667" lon="14.972925"><ele>1326.0</ele><time>2026-04-05T08:50:26.194Z</time></trkpt><trkpt lat="37.8315883" lon="14.9728683"><ele>1326.9999999999998</ele><time>2026-04-05T08:50:29.197Z</time></trkpt><trkpt lat="37.8315183" lon="14.9728133"><ele>1328.0</ele><time>2026-04-05T08:50:32.194Z</time></trkpt><trkpt lat="37.8314667" lon="14.9727467"><ele>1329.0</ele><time>2026-04-05T08:50:35.192Z</time></trkpt><trkpt lat="37.83143" lon="14.9726467"><ele>1330.0</ele><time>2026-04-05T08:50:38.193Z</time></trkpt><trkpt lat="37.8313983" lon="14.9725667"><ele>1331.0</ele><time>2026-04-05T08:50:40.191Z</time></trkpt><trkpt lat="37.8313617" lon="14.972495"><ele>1331.9999999999998</ele><time>2026-04-05T08:50:42.192Z</time></trkpt><trkpt lat="37.831325" lon="14.9724283"><ele>1333.0</ele><time>2026-04-05T08:50:44.196Z</time></trkpt><trkpt lat="37.83128" lon="14.9723667"><ele>1333.0</ele><time>2026-04-05T08:50:46.192Z</time></trkpt><trkpt lat="37.8312317" lon="14.97231"><ele>1333.0</ele><time>2026-04-05T08:50:48.193Z</time></trkpt><trkpt lat="37.8311767" lon="14.9722583"><ele>1333.0</ele><time>2026-04-05T08:50:50.193Z</time></trkpt><trkpt lat="37.8311183" lon="14.97217"><ele>1333.0</ele><time>2026-04-05T08:50:53.195Z</time></trkpt><trkpt lat="37.8310717" lon="14.97207"><ele>1333.0</ele><time>2026-04-05T08:50:56.193Z</time></trkpt><trkpt lat="37.8310533" lon="14.971985"><ele>1333.0</ele><time>2026-04-05T08:50:59.193Z</time></trkpt><trkpt lat="37.8310267" lon="14.9719033"><ele>1332.9999999999998</ele><time>2026-04-05T08:51:02.192Z</time></trkpt><trkpt lat="37.8309967" lon="14.9718217"><ele>1333.0</ele><time>2026-04-05T08:51:05.193Z</time></trkpt><trkpt lat="37.8309683" lon="14.9717417"><ele>1333.0</ele><time>2026-04-05T08:51:09.197Z</time></trkpt><trkpt lat="37.830925" lon="14.97167"><ele>1333.0</ele><time>2026-04-05T08:51:12.191Z</time></trkpt><trkpt lat="37.8308767" lon="14.971585"><ele>1333.0</ele><time>2026-04-05T08:51:16.194Z</time></trkpt><trkpt lat="37.830825" lon="14.971535"><ele>1332.9999999999998</ele><time>2026-04-05T08:51:19.192Z</time></trkpt><trkpt lat="37.83077" lon="14.971485"><ele>1333.0</ele><time>2026-04-05T08:51:22.192Z</time></trkpt><trkpt lat="37.83072" lon="14.97142"><ele>1336.1666666666665</ele><time>2026-04-05T08:51:26.192Z</time></trkpt><trkpt lat="37.8306483" lon="14.9714167"><ele>1339.3333333333333</ele><time>2026-04-05T08:51:30.193Z</time></trkpt><trkpt lat="37.8305967" lon="14.971495"><ele>1342.5</ele><time>2026-04-05T08:51:33.192Z</time></trkpt><trkpt lat="37.8305833" lon="14.9715917"><ele>1345.6666666666667</ele><time>2026-04-05T08:51:37.192Z</time></trkpt><trkpt lat="37.8306167" lon="14.97169"><ele>1348.8333333333335</ele><time>2026-04-05T08:51:41.192Z</time></trkpt><trkpt lat="37.8306483" lon="14.9717783"><ele>1352.0</ele><time>2026-04-05T08:51:45.192Z</time></trkpt><trkpt lat="37.830665" lon="14.9718783"><ele>1352.857142857143</ele><time>2026-04-05T08:51:49.193Z</time></trkpt><trkpt lat="37.8306167" lon="14.9719617"><ele>1353.7142857142858</ele><time>2026-04-05T08:51:53.196Z</time></trkpt><trkpt lat="37.8305533" lon="14.971985"><ele>1354.5714285714284</ele><time>2026-04-05T08:51:56.197Z</time></trkpt><trkpt lat="37.830525" lon="14.9720583"><ele>1355.4285714285716</ele><time>2026-04-05T08:51:59.193Z</time></trkpt><trkpt lat="37.83052" lon="14.972155"><ele>1356.2857142857142</ele><time>2026-04-05T08:52:02.194Z</time></trkpt><trkpt lat="37.8305383" lon="14.9722467"><ele>1357.142857142857</ele><time>2026-04-05T08:52:05.192Z</time></trkpt><trkpt lat="37.8305517" lon="14.97234"><ele>1358.0</ele><time>2026-04-05T08:52:08.198Z</time></trkpt><trkpt lat="37.8305633" lon="14.9724267"><ele>1358.0</ele><time>2026-04-05T08:52:11.194Z</time></trkpt><trkpt lat="37.830565" lon="14.9725167"><ele>1358.0</ele><time>2026-04-05T08:52:14.192Z</time></trkpt><trkpt lat="37.83055" lon="14.9726133"><ele>1358.0</ele><time>2026-04-05T08:52:17.194Z</time></trkpt><trkpt lat="37.8305633" lon="14.97272"><ele>1358.0</ele><time>2026-04-05T08:52:20.193Z</time></trkpt><trkpt lat="37.8306133" lon="14.9727833"><ele>1358.0</ele><time>2026-04-05T08:52:23.192Z</time></trkpt><trkpt lat="37.8306767" lon="14.9728567"><ele>1358.0</ele><time>2026-04-05T08:52:27.192Z</time></trkpt><trkpt lat="37.83074" lon="14.9729283"><ele>1359.7142857142858</ele><time>2026-04-05T08:52:31.192Z</time></trkpt><trkpt lat="37.8307867" lon="14.9730133"><ele>1361.4285714285716</ele><time>2026-04-05T08:52:35.193Z</time></trkpt><trkpt lat="37.8308117" lon="14.9730983"><ele>1363.142857142857</ele><time>2026-04-05T08:52:38.198Z</time></trkpt><trkpt lat="37.8308317" lon="14.9731833"><ele>1364.857142857143</ele><time>2026-04-05T08:52:42.193Z</time></trkpt><trkpt lat="37.8308467" lon="14.9732617"><ele>1366.5714285714287</ele><time>2026-04-05T08:52:45.193Z</time></trkpt><trkpt lat="37.8308633" lon="14.97334"><ele>1368.2857142857142</ele><time>2026-04-05T08:52:48.196Z</time></trkpt><trkpt lat="37.830885" lon="14.9734183"><ele>1370.0</ele><time>2026-04-05T08:52:51.196Z</time></trkpt><trkpt lat="37.83092" lon="14.9734867"><ele>1371.1666666666667</ele><time>2026-04-05T08:52:54.193Z</time></trkpt><trkpt lat="37.8309633" lon="14.973555"><ele>1372.3333333333335</ele><time>2026-04-05T08:52:58.194Z</time></trkpt><trkpt lat="37.831025" lon="14.9736217"><ele>1373.5</ele><time>2026-04-05T08:53:02.196Z</time></trkpt><trkpt lat="37.8310533" lon="14.973695"><ele>1374.6666666666667</ele><time>2026-04-05T08:53:05.193Z</time></trkpt><trkpt lat="37.8310683" lon="14.9737967"><ele>1375.8333333333333</ele><time>2026-04-05T08:53:08.192Z</time></trkpt><trkpt lat="37.8310833" lon="14.973885"><ele>1377.0</ele><time>2026-04-05T08:53:11.193Z</time></trkpt><trkpt lat="37.831115" lon="14.9739833"><ele>1375.4285714285713</ele><time>2026-04-05T08:53:14.196Z</time></trkpt><trkpt lat="37.8311483" lon="14.974055"><ele>1373.857142857143</ele><time>2026-04-05T08:53:16.194Z</time></trkpt><trkpt lat="37.8311983" lon="14.9741183"><ele>1372.2857142857142</ele><time>2026-04-05T08:53:18.194Z</time></trkpt><trkpt lat="37.8312533" lon="14.9741617"><ele>1370.7142857142858</ele><time>2026-04-05T08:53:20.194Z</time></trkpt><trkpt lat="37.83134" lon="14.9741933"><ele>1369.142857142857</ele><time>2026-04-05T08:53:23.194Z</time></trkpt><trkpt lat="37.8314133" lon="14.9742267"><ele>1367.5714285714287</ele><time>2026-04-05T08:53:25.194Z</time></trkpt><trkpt lat="37.831475" lon="14.97427"><ele>1366.0</ele><time>2026-04-05T08:53:27.193Z</time></trkpt><trkpt lat="37.8315267" lon="14.9743417"><ele>1366.0</ele><time>2026-04-05T08:53:29.193Z</time></trkpt><trkpt lat="37.8315417" lon="14.9744383"><ele>1366.0</ele><time>2026-04-05T08:53:31.194Z</time></trkpt><trkpt lat="37.8315067" lon="14.9745417"><ele>1366.0</ele><time>2026-04-05T08:53:33.192Z</time></trkpt><trkpt lat="37.83145" lon="14.974605"><ele>1366.0</ele><time>2026-04-05T08:53:35.199Z</time></trkpt><trkpt lat="37.831385" lon="14.974655"><ele>1366.0</ele><time>2026-04-05T08:53:37.196Z</time></trkpt><trkpt lat="37.8313133" lon="14.9746883"><ele>1366.0</ele><time>2026-04-05T08:53:39.192Z</time></trkpt><trkpt lat="37.8312517" lon="14.9747133"><ele>1366.0</ele><time>2026-04-05T08:53:41.192Z</time></trkpt><trkpt lat="37.8311983" lon="14.97477"><ele>1366.0</ele><time>2026-04-05T08:53:43.195Z</time></trkpt><trkpt lat="37.8311767" lon="14.9748533"><ele>1366.0</ele><time>2026-04-05T08:53:45.193Z</time></trkpt><trkpt lat="37.8311917" lon="14.9749783"><ele>1366.0</ele><time>2026-04-05T08:53:48.195Z</time></trkpt><trkpt lat="37.8312283" lon="14.9750683"><ele>1366.0</ele><time>2026-04-05T08:53:50.194Z</time></trkpt><trkpt lat="37.8312667" lon="14.9751333"><ele>1366.0</ele><time>2026-04-05T08:53:52.195Z</time></trkpt><trkpt lat="37.8313217" lon="14.975195"><ele>1366.5714285714287</ele><time>2026-04-05T08:53:55.194Z</time></trkpt><trkpt lat="37.831385" lon="14.975215"><ele>1367.142857142857</ele><time>2026-04-05T08:53:58.196Z</time></trkpt><trkpt lat="37.8314417" lon="14.9752683"><ele>1367.7142857142858</ele><time>2026-04-05T08:54:01.195Z</time></trkpt><trkpt lat="37.831485" lon="14.975355"><ele>1368.2857142857142</ele><time>2026-04-05T08:54:04.193Z</time></trkpt><trkpt lat="37.8315267" lon="14.9754283"><ele>1368.857142857143</ele><time>2026-04-05T08:54:07.194Z</time></trkpt><trkpt lat="37.831565" lon="14.9755267"><ele>1369.4285714285713</ele><time>2026-04-05T08:54:10.194Z</time></trkpt><trkpt lat="37.8315767" lon="14.975615"><ele>1370.0</ele><time>2026-04-05T08:54:12.193Z</time></trkpt><trkpt lat="37.8316017" lon="14.97572"><ele>1370.0</ele><time>2026-04-05T08:54:14.193Z</time></trkpt><trkpt lat="37.8316283" lon="14.97583"><ele>1370.0</ele><time>2026-04-05T08:54:16.193Z</time></trkpt><trkpt lat="37.83164" lon="14.9759417"><ele>1370.0</ele><time>2026-04-05T08:54:18.194Z</time></trkpt><trkpt lat="37.8316333" lon="14.9760533"><ele>1370.0</ele><time>2026-04-05T08:54:20.196Z</time></trkpt><trkpt lat="37.8316183" lon="14.9761783"><ele>1370.0</ele><time>2026-04-05T08:54:22.196Z</time></trkpt><trkpt lat="37.83163" lon="14.97629"><ele>1371.0</ele><time>2026-04-05T08:54:24.193Z</time></trkpt><trkpt lat="37.83169" lon="14.9763983"><ele>1372.0</ele><time>2026-04-05T08:54:26.192Z</time></trkpt><trkpt lat="37.8317867" lon="14.9764617"><ele>1373.0</ele><time>2026-04-05T08:54:28.196Z</time></trkpt><trkpt lat="37.8318533" lon="14.9765133"><ele>1374.0</ele><time>2026-04-05T08:54:30.193Z</time></trkpt><trkpt lat="37.83192" lon="14.9765467"><ele>1375.0</ele><time>2026-04-05T08:54:32.192Z</time></trkpt><trkpt lat="37.831975" lon="14.9765867"><ele>1376.0</ele><time>2026-04-05T08:54:34.195Z</time></trkpt><trkpt lat="37.832035" lon="14.976615"><ele>1375.2857142857144</ele><time>2026-04-05T08:54:37.193Z</time></trkpt><trkpt lat="37.8321183" lon="14.9766633"><ele>1374.5714285714287</ele><time>2026-04-05T08:54:40.193Z</time></trkpt><trkpt lat="37.8321967" lon="14.976695"><ele>1373.857142857143</ele><time>2026-04-05T08:54:43.194Z</time></trkpt><trkpt lat="37.8322583" lon="14.9767133"><ele>1373.1428571428573</ele><time>2026-04-05T08:54:45.193Z</time></trkpt><trkpt lat="37.8323167" lon="14.97675"><ele>1372.4285714285716</ele><time>2026-04-05T08:54:47.192Z</time></trkpt><trkpt lat="37.832375" lon="14.976805"><ele>1371.7142857142858</ele><time>2026-04-05T08:54:49.192Z</time></trkpt><trkpt lat="37.8324133" lon="14.9768833"><ele>1371.0</ele><time>2026-04-05T08:54:52.192Z</time></trkpt><trkpt lat="37.8323817" lon="14.976975"><ele>1371.0</ele><time>2026-04-05T08:54:55.194Z</time></trkpt><trkpt lat="37.8323133" lon="14.9770617"><ele>1371.0</ele><time>2026-04-05T08:54:58.193Z</time></trkpt><trkpt lat="37.8322717" lon="14.9771433"><ele>1371.0</ele><time>2026-04-05T08:55:01.194Z</time></trkpt><trkpt lat="37.83224" lon="14.9772467"><ele>1371.0</ele><time>2026-04-05T08:55:05.193Z</time></trkpt><trkpt lat="37.8322217" lon="14.9773283"><ele>1371.0</ele><time>2026-04-05T08:55:07.192Z</time></trkpt><trkpt lat="37.8322" lon="14.9774067"><ele>1371.0</ele><time>2026-04-05T08:55:09.193Z</time></trkpt><trkpt lat="37.8321483" lon="14.9775317"><ele>1370.8333333333333</ele><time>2026-04-05T08:55:15.192Z</time></trkpt><trkpt lat="37.8321217" lon="14.977605"><ele>1370.6666666666667</ele><time>2026-04-05T08:55:17.192Z</time></trkpt><trkpt lat="37.832095" lon="14.977705"><ele>1370.5</ele><time>2026-04-05T08:55:20.193Z</time></trkpt><trkpt lat="37.8320867" lon="14.9778117"><ele>1370.3333333333335</ele><time>2026-04-05T08:55:23.194Z</time></trkpt><trkpt lat="37.8320917" lon="14.9779183"><ele>1370.1666666666667</ele><time>2026-04-05T08:55:26.193Z</time></trkpt><trkpt lat="37.8321267" lon="14.9780183"><ele>1370.0</ele><time>2026-04-05T08:55:29.193Z</time></trkpt><trkpt lat="37.8321567" lon="14.9781117"><ele>1370.0</ele><time>2026-04-05T08:55:32.196Z</time></trkpt><trkpt lat="37.8321983" lon="14.9782117"><ele>1370.0</ele><time>2026-04-05T08:55:35.193Z</time></trkpt><trkpt lat="37.832245" lon="14.9783067"><ele>1370.0</ele><time>2026-04-05T08:55:38.192Z</time></trkpt><trkpt lat="37.8322917" lon="14.9784"><ele>1370.0</ele><time>2026-04-05T08:55:41.193Z</time></trkpt><trkpt lat="37.832325" lon="14.9785033"><ele>1370.0</ele><time>2026-04-05T08:55:44.194Z</time></trkpt><trkpt lat="37.83233" lon="14.9786217"><ele>1370.0</ele><time>2026-04-05T08:55:47.197Z</time></trkpt><trkpt lat="37.8323167" lon="14.978705"><ele>1370.8333333333335</ele><time>2026-04-05T08:55:49.192Z</time></trkpt><trkpt lat="37.8322983" lon="14.978815"><ele>1371.6666666666667</ele><time>2026-04-05T08:55:52.192Z</time></trkpt><trkpt lat="37.8322933" lon="14.978925"><ele>1372.5</ele><time>2026-04-05T08:55:55.194Z</time></trkpt><trkpt lat="37.8323117" lon="14.979035"><ele>1373.3333333333333</ele><time>2026-04-05T08:55:58.198Z</time></trkpt><trkpt lat="37.8323267" lon="14.9791367"><ele>1374.1666666666665</ele><time>2026-04-05T08:56:01.194Z</time></trkpt><trkpt lat="37.83232" lon="14.9792533"><ele>1375.0</ele><time>2026-04-05T08:56:04.195Z</time></trkpt><trkpt lat="37.832295" lon="14.9793667"><ele>1375.5</ele><time>2026-04-05T08:56:07.193Z</time></trkpt><trkpt lat="37.8322633" lon="14.97948"><ele>1376.0</ele><time>2026-04-05T08:56:10.2Z</time></trkpt><trkpt lat="37.83222" lon="14.979585"><ele>1376.5</ele><time>2026-04-05T08:56:13.194Z</time></trkpt><trkpt lat="37.8321983" lon="14.979665"><ele>1377.0</ele><time>2026-04-05T08:56:15.192Z</time></trkpt><trkpt lat="37.83219" lon="14.9797533"><ele>1377.5</ele><time>2026-04-05T08:56:17.193Z</time></trkpt><trkpt lat="37.8322133" lon="14.97986"><ele>1378.0</ele><time>2026-04-05T08:56:20.194Z</time></trkpt><trkpt lat="37.832215" lon="14.97996"><ele>1377.3333333333333</ele><time>2026-04-05T08:56:23.196Z</time></trkpt><trkpt lat="37.8322283" lon="14.9800567"><ele>1376.6666666666665</ele><time>2026-04-05T08:56:26.194Z</time></trkpt><trkpt lat="37.832215" lon="14.9801617"><ele>1376.0</ele><time>2026-04-05T08:56:29.193Z</time></trkpt><trkpt lat="37.8322183" lon="14.9802733"><ele>1375.3333333333333</ele><time>2026-04-05T08:56:32.195Z</time></trkpt><trkpt lat="37.832225" lon="14.980365"><ele>1374.6666666666667</ele><time>2026-04-05T08:56:34.196Z</time></trkpt><trkpt lat="37.832225" lon="14.98048"><ele>1374.0</ele><time>2026-04-05T08:56:37.192Z</time></trkpt><trkpt lat="37.8322083" lon="14.9805617"><ele>1374.0</ele><time>2026-04-05T08:56:39.196Z</time></trkpt><trkpt lat="37.8321833" lon="14.980645"><ele>1374.0</ele><time>2026-04-05T08:56:41.192Z</time></trkpt><trkpt lat="37.8321667" lon="14.9807283"><ele>1374.0</ele><time>2026-04-05T08:56:43.193Z</time></trkpt><trkpt lat="37.832155" lon="14.9808167"><ele>1374.0</ele><time>2026-04-05T08:56:45.195Z</time></trkpt><trkpt lat="37.8321583" lon="14.9809133"><ele>1376.0</ele><time>2026-04-05T08:56:48.192Z</time></trkpt><trkpt lat="37.8321717" lon="14.98101"><ele>1376.0</ele><time>2026-04-05T08:56:51.196Z</time></trkpt></trkseg><trkseg><trkpt lat="37.8321817" lon="14.98073"><ele>1374.0</ele><time>2026-04-05T09:17:28.195Z</time></trkpt><trkpt lat="37.8321983" lon="14.98063"><ele>1374.0</ele><time>2026-04-05T09:17:32.195Z</time></trkpt><trkpt lat="37.8322217" lon="14.9805467"><ele>1374.0</ele><time>2026-04-05T09:17:35.2Z</time></trkpt><trkpt lat="37.8322217" lon="14.98046"><ele>1374.0</ele><time>2026-04-05T09:17:38.195Z</time></trkpt><trkpt lat="37.8322283" lon="14.9803667"><ele>1374.0</ele><time>2026-04-05T09:17:41.196Z</time></trkpt><trkpt lat="37.8322533" lon="14.9802667"><ele>1374.0</ele><time>2026-04-05T09:17:44.195Z</time></trkpt><trkpt lat="37.83227" lon="14.98018"><ele>1374.0</ele><time>2026-04-05T09:17:46.197Z</time></trkpt><trkpt lat="37.8322817" lon="14.9800967"><ele>1374.6666666666667</ele><time>2026-04-05T09:17:48.195Z</time></trkpt><trkpt lat="37.8322783" lon="14.9799817"><ele>1375.3333333333333</ele><time>2026-04-05T09:17:51.195Z</time></trkpt><trkpt lat="37.8322783" lon="14.979885"><ele>1376.0</ele><time>2026-04-05T09:17:53.197Z</time></trkpt><trkpt lat="37.8322783" lon="14.9797817"><ele>1376.6666666666665</ele><time>2026-04-05T09:17:55.194Z</time></trkpt><trkpt lat="37.8322733" lon="14.97967"><ele>1377.3333333333333</ele><time>2026-04-05T09:17:57.195Z</time></trkpt><trkpt lat="37.83227" lon="14.979565"><ele>1378.0</ele><time>2026-04-05T09:17:59.197Z</time></trkpt><trkpt lat="37.8322667" lon="14.979445"><ele>1378.0</ele><time>2026-04-05T09:18:01.197Z</time></trkpt><trkpt lat="37.8322833" lon="14.9793267"><ele>1378.0</ele><time>2026-04-05T09:18:03.195Z</time></trkpt><trkpt lat="37.8323" lon="14.9791867"><ele>1378.0</ele><time>2026-04-05T09:18:05.196Z</time></trkpt><trkpt lat="37.8323117" lon="14.9790317"><ele>1378.0</ele><time>2026-04-05T09:18:07.197Z</time></trkpt><trkpt lat="37.8323133" lon="14.9788867"><ele>1378.0</ele><time>2026-04-05T09:18:09.193Z</time></trkpt><trkpt lat="37.8323317" lon="14.97876"><ele>1377.4</ele><time>2026-04-05T09:18:11.192Z</time></trkpt><trkpt lat="37.8323433" lon="14.97863"><ele>1376.8000000000002</ele><time>2026-04-05T09:18:13.194Z</time></trkpt><trkpt lat="37.8323267" lon="14.9785"><ele>1376.2</ele><time>2026-04-05T09:18:15.192Z</time></trkpt><trkpt lat="37.8322917" lon="14.9784067"><ele>1375.6</ele><time>2026-04-05T09:18:17.193Z</time></trkpt><trkpt lat="37.8322483" lon="14.978305"><ele>1375.0</ele><time>2026-04-05T09:18:19.194Z</time></trkpt><trkpt lat="37.8321933" lon="14.9781767"><ele>1374.0</ele><time>2026-04-05T09:18:21.192Z</time></trkpt><trkpt lat="37.832145" lon="14.9780467"><ele>1373.0</ele><time>2026-04-05T09:18:23.193Z</time></trkpt><trkpt lat="37.832095" lon="14.9779267"><ele>1372.0</ele><time>2026-04-05T09:18:25.201Z</time></trkpt><trkpt lat="37.83207" lon="14.977795"><ele>1371.0</ele><time>2026-04-05T09:18:27.195Z</time></trkpt><trkpt lat="37.8320867" lon="14.977665"><ele>1370.0</ele><time>2026-04-05T09:18:29.195Z</time></trkpt><trkpt lat="37.83213" lon="14.9775483"><ele>1370.2</ele><time>2026-04-05T09:18:31.193Z</time></trkpt><trkpt lat="37.8321833" lon="14.9774333"><ele>1370.4</ele><time>2026-04-05T09:18:33.192Z</time></trkpt><trkpt lat="37.8322367" lon="14.9773183"><ele>1370.6</ele><time>2026-04-05T09:18:35.195Z</time></trkpt><trkpt lat="37.8322883" lon="14.977215"><ele>1370.8</ele><time>2026-04-05T09:18:37.196Z</time></trkpt><trkpt lat="37.8323483" lon="14.977115"><ele>1371.0</ele><time>2026-04-05T09:18:39.197Z</time></trkpt><trkpt lat="37.8323933" lon="14.9770383"><ele>1371.0</ele><time>2026-04-05T09:18:41.194Z</time></trkpt><trkpt lat="37.8323933" lon="14.9769367"><ele>1371.0</ele><time>2026-04-05T09:18:44.195Z</time></trkpt><trkpt lat="37.8323467" lon="14.9768367"><ele>1371.0</ele><time>2026-04-05T09:18:47.195Z</time></trkpt><trkpt lat="37.8322717" lon="14.9767833"><ele>1371.0</ele><time>2026-04-05T09:18:49.195Z</time></trkpt><trkpt lat="37.8321933" lon="14.976745"><ele>1371.0</ele><time>2026-04-05T09:18:51.194Z</time></trkpt><trkpt lat="37.8321083" lon="14.9767117"><ele>1371.0</ele><time>2026-04-05T09:18:53.195Z</time></trkpt><trkpt lat="37.83202" lon="14.9766617"><ele>1371.8333333333333</ele><time>2026-04-05T09:18:55.196Z</time></trkpt><trkpt lat="37.8319467" lon="14.9766017"><ele>1372.6666666666667</ele><time>2026-04-05T09:18:57.194Z</time></trkpt><trkpt lat="37.8318733" lon="14.9765483"><ele>1373.5</ele><time>2026-04-05T09:18:59.196Z</time></trkpt><trkpt lat="37.831805" lon="14.9764883"><ele>1374.3333333333335</ele><time>2026-04-05T09:19:01.194Z</time></trkpt><trkpt lat="37.8317417" lon="14.9764267"><ele>1375.1666666666667</ele><time>2026-04-05T09:19:03.192Z</time></trkpt><trkpt lat="37.8316733" lon="14.9763633"><ele>1376.0</ele><time>2026-04-05T09:19:05.192Z</time></trkpt><trkpt lat="37.831645" lon="14.9762717"><ele>1376.0000000000002</ele><time>2026-04-05T09:19:08.196Z</time></trkpt><trkpt lat="37.8316767" lon="14.9761733"><ele>1376.0</ele><time>2026-04-05T09:19:11.193Z</time></trkpt><trkpt lat="37.831725" lon="14.9761033"><ele>1376.0</ele><time>2026-04-05T09:19:14.192Z</time></trkpt><trkpt lat="37.8317117" lon="14.9760067"><ele>1376.0</ele><time>2026-04-05T09:19:17.193Z</time></trkpt><trkpt lat="37.8316867" lon="14.9759267"><ele>1376.0</ele><time>2026-04-05T09:19:19.194Z</time></trkpt><trkpt lat="37.83165" lon="14.9758433"><ele>1376.0000000000002</ele><time>2026-04-05T09:19:21.192Z</time></trkpt><trkpt lat="37.8316283" lon="14.9757667"><ele>1376.0</ele><time>2026-04-05T09:19:23.193Z</time></trkpt><trkpt lat="37.8316183" lon="14.9756717"><ele>1375.0</ele><time>2026-04-05T09:19:26.192Z</time></trkpt><trkpt lat="37.8316017" lon="14.97557"><ele>1374.0</ele><time>2026-04-05T09:19:29.193Z</time></trkpt><trkpt lat="37.8315633" lon="14.9754817"><ele>1373.0</ele><time>2026-04-05T09:19:32.193Z</time></trkpt><trkpt lat="37.8315183" lon="14.9753917"><ele>1372.0</ele><time>2026-04-05T09:19:34.194Z</time></trkpt><trkpt lat="37.8314733" lon="14.97531"><ele>1371.0</ele><time>2026-04-05T09:19:36.193Z</time></trkpt><trkpt lat="37.8314133" lon="14.975235"><ele>1370.0</ele><time>2026-04-05T09:19:38.192Z</time></trkpt><trkpt lat="37.831345" lon="14.9751733"><ele>1370.0</ele><time>2026-04-05T09:19:40.192Z</time></trkpt><trkpt lat="37.8312783" lon="14.975085"><ele>1370.0</ele><time>2026-04-05T09:19:42.196Z</time></trkpt><trkpt lat="37.8312283" lon="14.97499"><ele>1370.0</ele><time>2026-04-05T09:19:44.195Z</time></trkpt><trkpt lat="37.83121" lon="14.974875"><ele>1370.0</ele><time>2026-04-05T09:19:46.195Z</time></trkpt><trkpt lat="37.831215" lon="14.9747717"><ele>1370.0</ele><time>2026-04-05T09:19:48.193Z</time></trkpt><trkpt lat="37.831265" lon="14.9747067"><ele>1370.0</ele><time>2026-04-05T09:19:50.192Z</time></trkpt><trkpt lat="37.831335" lon="14.9746617"><ele>1369.3333333333335</ele><time>2026-04-05T09:19:52.192Z</time></trkpt><trkpt lat="37.831415" lon="14.9746133"><ele>1368.6666666666667</ele><time>2026-04-05T09:19:54.191Z</time></trkpt><trkpt lat="37.8314783" lon="14.9745583"><ele>1368.0</ele><time>2026-04-05T09:19:56.196Z</time></trkpt><trkpt lat="37.8315233" lon="14.9744683"><ele>1367.3333333333333</ele><time>2026-04-05T09:19:58.194Z</time></trkpt><trkpt lat="37.83154" lon="14.9743683"><ele>1366.6666666666665</ele><time>2026-04-05T09:20:00.195Z</time></trkpt><trkpt lat="37.8315183" lon="14.9742767"><ele>1366.0</ele><time>2026-04-05T09:20:02.194Z</time></trkpt><trkpt lat="37.8314617" lon="14.9742017"><ele>1364.7142857142858</ele><time>2026-04-05T09:20:04.194Z</time></trkpt><trkpt lat="37.831395" lon="14.974165"><ele>1363.4285714285713</ele><time>2026-04-05T09:20:06.195Z</time></trkpt><trkpt lat="37.8313117" lon="14.9741267"><ele>1362.142857142857</ele><time>2026-04-05T09:20:09.194Z</time></trkpt><trkpt lat="37.8312483" lon="14.9741117"><ele>1360.857142857143</ele><time>2026-04-05T09:20:11.192Z</time></trkpt><trkpt lat="37.831185" lon="14.9740833"><ele>1359.5714285714287</ele><time>2026-04-05T09:20:13.197Z</time></trkpt><trkpt lat="37.8311333" lon="14.974035"><ele>1358.2857142857142</ele><time>2026-04-05T09:20:15.192Z</time></trkpt><trkpt lat="37.8311" lon="14.973955"><ele>1357.0</ele><time>2026-04-05T09:20:17.192Z</time></trkpt><trkpt lat="37.8310783" lon="14.973875"><ele>1357.0</ele><time>2026-04-05T09:20:19.196Z</time></trkpt><trkpt lat="37.8310733" lon="14.97378"><ele>1357.0</ele><time>2026-04-05T09:20:21.196Z</time></trkpt><trkpt lat="37.8310517" lon="14.9736767"><ele>1357.0</ele><time>2026-04-05T09:20:23.198Z</time></trkpt><trkpt lat="37.831" lon="14.9735883"><ele>1357.0</ele><time>2026-04-05T09:20:25.192Z</time></trkpt><trkpt lat="37.8309133" lon="14.9734983"><ele>1357.0</ele><time>2026-04-05T09:20:27.192Z</time></trkpt><trkpt lat="37.830845" lon="14.9733733"><ele>1358.857142857143</ele><time>2026-04-05T09:20:29.196Z</time></trkpt><trkpt lat="37.8308267" lon="14.9732917"><ele>1360.7142857142858</ele><time>2026-04-05T09:20:30.192Z</time></trkpt><trkpt lat="37.8308117" lon="14.973205"><ele>1362.5714285714284</ele><time>2026-04-05T09:20:31.193Z</time></trkpt><trkpt lat="37.8307917" lon="14.97312"><ele>1364.4285714285716</ele><time>2026-04-05T09:20:32.198Z</time></trkpt><trkpt lat="37.8307667" lon="14.9730383"><ele>1366.2857142857144</ele><time>2026-04-05T09:20:33.195Z</time></trkpt><trkpt lat="37.8307367" lon="14.9729617"><ele>1368.142857142857</ele><time>2026-04-05T09:20:34.196Z</time></trkpt><trkpt lat="37.8307017" lon="14.9728833"><ele>1370.0</ele><time>2026-04-05T09:20:35.199Z</time></trkpt><trkpt lat="37.8306667" lon="14.9728167"><ele>1370.0</ele><time>2026-04-05T09:20:36.194Z</time></trkpt><trkpt lat="37.8306217" lon="14.97275"><ele>1370.0</ele><time>2026-04-05T09:20:37.194Z</time></trkpt><trkpt lat="37.8305883" lon="14.9726817"><ele>1370.0</ele><time>2026-04-05T09:20:38.198Z</time></trkpt><trkpt lat="37.83056" lon="14.97261"><ele>1370.0</ele><time>2026-04-05T09:20:39.197Z</time></trkpt><trkpt lat="37.8305333" lon="14.9724717"><ele>1370.0</ele><time>2026-04-05T09:20:41.194Z</time></trkpt><trkpt lat="37.830535" lon="14.9723383"><ele>1370.0</ele><time>2026-04-05T09:20:43.193Z</time></trkpt><trkpt lat="37.8305267" lon="14.9722017"><ele>1368.0</ele><time>2026-04-05T09:20:45.192Z</time></trkpt><trkpt lat="37.8305583" lon="14.9720667"><ele>1366.0</ele><time>2026-04-05T09:20:47.192Z</time></trkpt><trkpt lat="37.8306033" lon="14.9719783"><ele>1364.0</ele><time>2026-04-05T09:20:49.192Z</time></trkpt><trkpt lat="37.83064" lon="14.9718933"><ele>1362.0</ele><time>2026-04-05T09:20:51.199Z</time></trkpt><trkpt lat="37.83064" lon="14.9717967"><ele>1360.0</ele><time>2026-04-05T09:20:53.194Z</time></trkpt><trkpt lat="37.8306133" lon="14.9716967"><ele>1358.0</ele><time>2026-04-05T09:20:55.195Z</time></trkpt><trkpt lat="37.8305917" lon="14.9715933"><ele>1356.8000000000002</ele><time>2026-04-05T09:20:57.194Z</time></trkpt><trkpt lat="37.8306133" lon="14.97148"><ele>1355.6</ele><time>2026-04-05T09:20:59.195Z</time></trkpt><trkpt lat="37.830675" lon="14.9714033"><ele>1354.4</ele><time>2026-04-05T09:21:01.197Z</time></trkpt><trkpt lat="37.830755" lon="14.9714067"><ele>1353.1999999999998</ele><time>2026-04-05T09:21:03.193Z</time></trkpt><trkpt lat="37.8308517" lon="14.9714933"><ele>1352.0</ele><time>2026-04-05T09:21:05.198Z</time></trkpt><trkpt lat="37.8309233" lon="14.9716233"><ele>1352.857142857143</ele><time>2026-04-05T09:21:07.194Z</time></trkpt><trkpt lat="37.830955" lon="14.9716933"><ele>1353.7142857142858</ele><time>2026-04-05T09:21:08.2Z</time></trkpt><trkpt lat="37.8309817" lon="14.9717683"><ele>1354.5714285714284</ele><time>2026-04-05T09:21:09.193Z</time></trkpt><trkpt lat="37.8310117" lon="14.9718417"><ele>1355.4285714285716</ele><time>2026-04-05T09:21:10.193Z</time></trkpt><trkpt lat="37.8310567" lon="14.97199"><ele>1356.2857142857142</ele><time>2026-04-05T09:21:12.192Z</time></trkpt><trkpt lat="37.8310833" lon="14.972065"><ele>1357.142857142857</ele><time>2026-04-05T09:21:13.194Z</time></trkpt><trkpt lat="37.8311083" lon="14.97214"><ele>1358.0</ele><time>2026-04-05T09:21:14.193Z</time></trkpt><trkpt lat="37.831145" lon="14.9722067"><ele>1356.142857142857</ele><time>2026-04-05T09:21:15.192Z</time></trkpt><trkpt lat="37.83119" lon="14.972265"><ele>1354.2857142857142</ele><time>2026-04-05T09:21:16.193Z</time></trkpt><trkpt lat="37.831245" lon="14.9723183"><ele>1352.4285714285716</ele><time>2026-04-05T09:21:17.197Z</time></trkpt><trkpt lat="37.8312967" lon="14.9723783"><ele>1350.5714285714284</ele><time>2026-04-05T09:21:18.193Z</time></trkpt><trkpt lat="37.8313317" lon="14.9724517"><ele>1348.7142857142858</ele><time>2026-04-05T09:21:19.191Z</time></trkpt><trkpt lat="37.8313683" lon="14.972525"><ele>1346.857142857143</ele><time>2026-04-05T09:21:20.194Z</time></trkpt><trkpt lat="37.831405" lon="14.972595"><ele>1345.0</ele><time>2026-04-05T09:21:21.192Z</time></trkpt><trkpt lat="37.8314383" lon="14.9726633"><ele>1345.0</ele><time>2026-04-05T09:21:22.196Z</time></trkpt><trkpt lat="37.8315067" lon="14.9727883"><ele>1345.0</ele><time>2026-04-05T09:21:24.192Z</time></trkpt><trkpt lat="37.8316083" lon="14.972885"><ele>1345.0</ele><time>2026-04-05T09:21:26.194Z</time></trkpt><trkpt lat="37.8317183" lon="14.9729717"><ele>1345.0</ele><time>2026-04-05T09:21:28.199Z</time></trkpt><trkpt lat="37.8317717" lon="14.973015"><ele>1345.0</ele><time>2026-04-05T09:21:29.2Z</time></trkpt><trkpt lat="37.8318717" lon="14.97311"><ele>1343.6</ele><time>2026-04-05T09:21:31.196Z</time></trkpt><trkpt lat="37.83195" lon="14.9732167"><ele>1342.2</ele><time>2026-04-05T09:21:33.195Z</time></trkpt><trkpt lat="37.832005" lon="14.9733417"><ele>1340.8000000000002</ele><time>2026-04-05T09:21:35.196Z</time></trkpt><trkpt lat="37.8320667" lon="14.9734483"><ele>1339.4</ele><time>2026-04-05T09:21:37.198Z</time></trkpt><trkpt lat="37.8321333" lon="14.9735033"><ele>1338.0</ele><time>2026-04-05T09:21:39.194Z</time></trkpt><trkpt lat="37.832205" lon="14.9734683"><ele>1338.0</ele><time>2026-04-05T09:21:42.196Z</time></trkpt><trkpt lat="37.8322183" lon="14.97339"><ele>1338.0</ele><time>2026-04-05T09:21:44.196Z</time></trkpt><trkpt lat="37.8322017" lon="14.9732517"><ele>1338.0</ele><time>2026-04-05T09:21:46.192Z</time></trkpt><trkpt lat="37.832175" lon="14.9731517"><ele>1338.0</ele><time>2026-04-05T09:21:47.199Z</time></trkpt><trkpt lat="37.83215" lon="14.973065"><ele>1338.0</ele><time>2026-04-05T09:21:48.193Z</time></trkpt><trkpt lat="37.8321117" lon="14.9729883"><ele>1338.0</ele><time>2026-04-05T09:21:49.193Z</time></trkpt><trkpt lat="37.8320683" lon="14.9729017"><ele>1337.2857142857142</ele><time>2026-04-05T09:21:50.198Z</time></trkpt><trkpt lat="37.8320267" lon="14.9728283"><ele>1336.5714285714284</ele><time>2026-04-05T09:21:51.196Z</time></trkpt><trkpt lat="37.83199" lon="14.9727533"><ele>1335.8571428571427</ele><time>2026-04-05T09:21:52.196Z</time></trkpt><trkpt lat="37.8319517" lon="14.97268"><ele>1335.142857142857</ele><time>2026-04-05T09:21:53.192Z</time></trkpt><trkpt lat="37.83191" lon="14.9726133"><ele>1334.4285714285713</ele><time>2026-04-05T09:21:54.192Z</time></trkpt><trkpt lat="37.831855" lon="14.97256"><ele>1333.7142857142856</ele><time>2026-04-05T09:21:55.193Z</time></trkpt><trkpt lat="37.8317983" lon="14.9725117"><ele>1333.0</ele><time>2026-04-05T09:21:56.193Z</time></trkpt><trkpt lat="37.8317417" lon="14.9724683"><ele>1333.0</ele><time>2026-04-05T09:21:57.195Z</time></trkpt><trkpt lat="37.83167" lon="14.9723817"><ele>1333.0</ele><time>2026-04-05T09:21:59.197Z</time></trkpt><trkpt lat="37.83167" lon="14.9722917"><ele>1333.0</ele><time>2026-04-05T09:22:01.193Z</time></trkpt><trkpt lat="37.8317317" lon="14.9722333"><ele>1333.0</ele><time>2026-04-05T09:22:03.194Z</time></trkpt><trkpt lat="37.8318217" lon="14.9722167"><ele>1333.0</ele><time>2026-04-05T09:22:05.195Z</time></trkpt><trkpt lat="37.8319183" lon="14.9722867"><ele>1333.0</ele><time>2026-04-05T09:22:07.198Z</time></trkpt><trkpt lat="37.83201" lon="14.9723833"><ele>1331.6000000000001</ele><time>2026-04-05T09:22:09.195Z</time></trkpt><trkpt lat="37.8321033" lon="14.97245"><ele>1330.2</ele><time>2026-04-05T09:22:11.196Z</time></trkpt><trkpt lat="37.8322083" lon="14.97247"><ele>1328.8</ele><time>2026-04-05T09:22:13.195Z</time></trkpt><trkpt lat="37.8323333" lon="14.9724833"><ele>1327.4</ele><time>2026-04-05T09:22:15.191Z</time></trkpt><trkpt lat="37.8324" lon="14.972505"><ele>1326.0</ele><time>2026-04-05T09:22:16.193Z</time></trkpt><trkpt lat="37.8324683" lon="14.97254"><ele>1325.9999999999998</ele><time>2026-04-05T09:22:17.192Z</time></trkpt><trkpt lat="37.832535" lon="14.9725883"><ele>1326.0</ele><time>2026-04-05T09:22:18.196Z</time></trkpt><trkpt lat="37.832605" lon="14.9726317"><ele>1326.0</ele><time>2026-04-05T09:22:19.194Z</time></trkpt><trkpt lat="37.8326733" lon="14.97266"><ele>1326.0</ele><time>2026-04-05T09:22:20.193Z</time></trkpt><trkpt lat="37.8327417" lon="14.9726667"><ele>1326.0</ele><time>2026-04-05T09:22:21.193Z</time></trkpt><trkpt lat="37.8328083" lon="14.9726483"><ele>1325.9999999999998</ele><time>2026-04-05T09:22:22.194Z</time></trkpt><trkpt lat="37.8328733" lon="14.972605"><ele>1326.0</ele><time>2026-04-05T09:22:23.196Z</time></trkpt><trkpt lat="37.8329267" lon="14.972545"><ele>1322.6666666666667</ele><time>2026-04-05T09:22:24.191Z</time></trkpt><trkpt lat="37.832975" lon="14.9724767"><ele>1319.3333333333333</ele><time>2026-04-05T09:22:25.192Z</time></trkpt><trkpt lat="37.83302" lon="14.9724083"><ele>1316.0</ele><time>2026-04-05T09:22:26.192Z</time></trkpt><trkpt lat="37.833105" lon="14.97231"><ele>1312.6666666666665</ele><time>2026-04-05T09:22:28.193Z</time></trkpt><trkpt lat="37.8331833" lon="14.972305"><ele>1309.3333333333333</ele><time>2026-04-05T09:22:30.195Z</time></trkpt><trkpt lat="37.83324" lon="14.9723933"><ele>1306.0</ele><time>2026-04-05T09:22:32.201Z</time></trkpt><trkpt lat="37.8332617" lon="14.9725267"><ele>1306.0</ele><time>2026-04-05T09:22:34.198Z</time></trkpt><trkpt lat="37.8332567" lon="14.9726667"><ele>1306.0</ele><time>2026-04-05T09:22:36.195Z</time></trkpt><trkpt lat="37.8332533" lon="14.9728183"><ele>1306.0</ele><time>2026-04-05T09:22:38.194Z</time></trkpt><trkpt lat="37.8332583" lon="14.9729"><ele>1306.0</ele><time>2026-04-05T09:22:39.196Z</time></trkpt><trkpt lat="37.8332717" lon="14.972985"><ele>1306.0</ele><time>2026-04-05T09:22:40.196Z</time></trkpt><trkpt lat="37.83329" lon="14.9730783"><ele>1306.0</ele><time>2026-04-05T09:22:41.195Z</time></trkpt><trkpt lat="37.8333067" lon="14.9731717"><ele>1306.0</ele><time>2026-04-05T09:22:42.195Z</time></trkpt><trkpt lat="37.8333217" lon="14.9732567"><ele>1306.0</ele><time>2026-04-05T09:22:43.195Z</time></trkpt><trkpt lat="37.8333433" lon="14.9733333"><ele>1306.0</ele><time>2026-04-05T09:22:44.194Z</time></trkpt><trkpt lat="37.833395" lon="14.9734533"><ele>1306.0</ele><time>2026-04-05T09:22:46.193Z</time></trkpt><trkpt lat="37.8334633" lon="14.97356"><ele>1306.0</ele><time>2026-04-05T09:22:48.193Z</time></trkpt><trkpt lat="37.8335533" lon="14.973645"><ele>1304.6</ele><time>2026-04-05T09:22:50.195Z</time></trkpt><trkpt lat="37.8336217" lon="14.9737567"><ele>1303.1999999999998</ele><time>2026-04-05T09:22:52.193Z</time></trkpt><trkpt lat="37.83371" lon="14.9738367"><ele>1301.8000000000002</ele><time>2026-04-05T09:22:54.194Z</time></trkpt><trkpt lat="37.83377" lon="14.9738717"><ele>1300.4</ele><time>2026-04-05T09:22:55.191Z</time></trkpt><trkpt lat="37.8338767" lon="14.9739367"><ele>1299.0</ele><time>2026-04-05T09:22:57.191Z</time></trkpt><trkpt lat="37.8339317" lon="14.9739783"><ele>1299.0</ele><time>2026-04-05T09:22:58.195Z</time></trkpt><trkpt lat="37.8339817" lon="14.9740283"><ele>1299.0</ele><time>2026-04-05T09:22:59.193Z</time></trkpt><trkpt lat="37.8340333" lon="14.97408"><ele>1299.0</ele><time>2026-04-05T09:23:00.193Z</time></trkpt><trkpt lat="37.83408" lon="14.974145"><ele>1299.0</ele><time>2026-04-05T09:23:01.193Z</time></trkpt><trkpt lat="37.8341733" lon="14.9742367"><ele>1299.0</ele><time>2026-04-05T09:23:03.195Z</time></trkpt><trkpt lat="37.8342833" lon="14.974305"><ele>1299.0</ele><time>2026-04-05T09:23:05.195Z</time></trkpt><trkpt lat="37.8343467" lon="14.9743467"><ele>1298.1428571428573</ele><time>2026-04-05T09:23:06.194Z</time></trkpt><trkpt lat="37.8344067" lon="14.974385"><ele>1297.2857142857142</ele><time>2026-04-05T09:23:07.194Z</time></trkpt><trkpt lat="37.8344667" lon="14.97442"><ele>1296.4285714285716</ele><time>2026-04-05T09:23:08.196Z</time></trkpt><trkpt lat="37.83453" lon="14.9744333"><ele>1295.5714285714287</ele><time>2026-04-05T09:23:09.193Z</time></trkpt><trkpt lat="37.8346" lon="14.9744367"><ele>1294.7142857142858</ele><time>2026-04-05T09:23:10.195Z</time></trkpt><trkpt lat="37.8346667" lon="14.9744533"><ele>1293.857142857143</ele><time>2026-04-05T09:23:11.196Z</time></trkpt><trkpt lat="37.8347383" lon="14.97448"><ele>1293.0</ele><time>2026-04-05T09:23:12.195Z</time></trkpt><trkpt lat="37.8348333" lon="14.9745617"><ele>1293.0</ele><time>2026-04-05T09:23:14.195Z</time></trkpt><trkpt lat="37.8348867" lon="14.9746083"><ele>1293.0</ele><time>2026-04-05T09:23:15.194Z</time></trkpt><trkpt lat="37.8349567" lon="14.9747333"><ele>1293.0</ele><time>2026-04-05T09:23:17.193Z</time></trkpt><trkpt lat="37.8350067" lon="14.97479"><ele>1293.0</ele><time>2026-04-05T09:23:18.196Z</time></trkpt><trkpt lat="37.8350483" lon="14.97485"><ele>1293.0</ele><time>2026-04-05T09:23:19.195Z</time></trkpt><trkpt lat="37.8350883" lon="14.9749217"><ele>1293.0</ele><time>2026-04-05T09:23:20.195Z</time></trkpt><trkpt lat="37.835135" lon="14.9749867"><ele>1289.8333333333333</ele><time>2026-04-05T09:23:21.194Z</time></trkpt><trkpt lat="37.8352133" lon="14.9751183"><ele>1286.6666666666667</ele><time>2026-04-05T09:23:23.193Z</time></trkpt><trkpt lat="37.8352383" lon="14.9751967"><ele>1283.5</ele><time>2026-04-05T09:23:24.195Z</time></trkpt><trkpt lat="37.8352667" lon="14.97527"><ele>1280.3333333333335</ele><time>2026-04-05T09:23:25.194Z</time></trkpt><trkpt lat="37.8352933" lon="14.9753483"><ele>1277.1666666666667</ele><time>2026-04-05T09:23:26.193Z</time></trkpt><trkpt lat="37.83532" lon="14.9754867"><ele>1274.0</ele><time>2026-04-05T09:23:28.197Z</time></trkpt><trkpt lat="37.8353633" lon="14.9756067"><ele>1274.0</ele><time>2026-04-05T09:23:30.194Z</time></trkpt><trkpt lat="37.8354517" lon="14.9757183"><ele>1274.0</ele><time>2026-04-05T09:23:32.196Z</time></trkpt><trkpt lat="37.835505" lon="14.97577"><ele>1274.0</ele><time>2026-04-05T09:23:33.193Z</time></trkpt><trkpt lat="37.83557" lon="14.9758133"><ele>1274.0</ele><time>2026-04-05T09:23:34.191Z</time></trkpt><trkpt lat="37.835645" lon="14.97585"><ele>1274.0</ele><time>2026-04-05T09:23:35.193Z</time></trkpt><trkpt lat="37.8357267" lon="14.975875"><ele>1274.0</ele><time>2026-04-05T09:23:36.194Z</time></trkpt><trkpt lat="37.8358117" lon="14.97589"><ele>1276.0</ele><time>2026-04-05T09:23:37.193Z</time></trkpt><trkpt lat="37.8358883" lon="14.9759"><ele>1278.0</ele><time>2026-04-05T09:23:38.193Z</time></trkpt><trkpt lat="37.8359667" lon="14.9759067"><ele>1280.0</ele><time>2026-04-05T09:23:39.195Z</time></trkpt><trkpt lat="37.8360417" lon="14.975915"><ele>1282.0</ele><time>2026-04-05T09:23:40.193Z</time></trkpt><trkpt lat="37.8361167" lon="14.975935"><ele>1284.0</ele><time>2026-04-05T09:23:41.193Z</time></trkpt><trkpt lat="37.836195" lon="14.9759667"><ele>1286.0</ele><time>2026-04-05T09:23:42.192Z</time></trkpt><trkpt lat="37.836265" lon="14.9760117"><ele>1281.2</ele><time>2026-04-05T09:23:43.195Z</time></trkpt><trkpt lat="37.8363283" lon="14.9760583"><ele>1276.3999999999999</ele><time>2026-04-05T09:23:44.195Z</time></trkpt><trkpt lat="37.8363817" lon="14.97611"><ele>1271.6</ele><time>2026-04-05T09:23:45.193Z</time></trkpt><trkpt lat="37.83642" lon="14.97624"><ele>1266.8</ele><time>2026-04-05T09:23:47.193Z</time></trkpt><trkpt lat="37.83638" lon="14.9763817"><ele>1262.0</ele><time>2026-04-05T09:23:49.193Z</time></trkpt><trkpt lat="37.836315" lon="14.9764933"><ele>1262.0</ele><time>2026-04-05T09:23:51.192Z</time></trkpt><trkpt lat="37.83626" lon="14.9766"><ele>1262.0</ele><time>2026-04-05T09:23:53.193Z</time></trkpt><trkpt lat="37.8362067" lon="14.9766933"><ele>1262.0</ele><time>2026-04-05T09:23:55.194Z</time></trkpt><trkpt lat="37.8361733" lon="14.9768"><ele>1262.0</ele><time>2026-04-05T09:23:57.193Z</time></trkpt><trkpt lat="37.83617" lon="14.9769217"><ele>1262.0</ele><time>2026-04-05T09:23:59.195Z</time></trkpt><trkpt lat="37.836175" lon="14.9770467"><ele>1261.8</ele><time>2026-04-05T09:24:01.194Z</time></trkpt><trkpt lat="37.8362017" lon="14.9771733"><ele>1261.6</ele><time>2026-04-05T09:24:03.191Z</time></trkpt><trkpt lat="37.8362533" lon="14.9772967"><ele>1261.3999999999999</ele><time>2026-04-05T09:24:05.191Z</time></trkpt><trkpt lat="37.83633" lon="14.97741"><ele>1261.2</ele><time>2026-04-05T09:24:07.192Z</time></trkpt><trkpt lat="37.8363583" lon="14.977485"><ele>1261.0</ele><time>2026-04-05T09:24:08.193Z</time></trkpt><trkpt lat="37.836385" lon="14.9775633"><ele>1262.3333333333333</ele><time>2026-04-05T09:24:09.192Z</time></trkpt><trkpt lat="37.836405" lon="14.9776517"><ele>1263.6666666666665</ele><time>2026-04-05T09:24:10.191Z</time></trkpt><trkpt lat="37.836435" lon="14.9777367"><ele>1265.0</ele><time>2026-04-05T09:24:11.194Z</time></trkpt><trkpt lat="37.836465" lon="14.9778117"><ele>1266.3333333333333</ele><time>2026-04-05T09:24:12.192Z</time></trkpt><trkpt lat="37.83654" lon="14.97792"><ele>1267.6666666666667</ele><time>2026-04-05T09:24:14.196Z</time></trkpt><trkpt lat="37.8366367" lon="14.977975"><ele>1269.0</ele><time>2026-04-05T09:24:16.197Z</time></trkpt><trkpt lat="37.8367" lon="14.9779867"><ele>1269.0</ele><time>2026-04-05T09:24:17.192Z</time></trkpt><trkpt lat="37.8367633" lon="14.9779983"><ele>1269.0</ele><time>2026-04-05T09:24:18.193Z</time></trkpt><trkpt lat="37.8368267" lon="14.9780017"><ele>1269.0</ele><time>2026-04-05T09:24:19.195Z</time></trkpt><trkpt lat="37.836945" lon="14.9780317"><ele>1269.0</ele><time>2026-04-05T09:24:21.194Z</time></trkpt><trkpt lat="37.83705" lon="14.9781333"><ele>1269.0</ele><time>2026-04-05T09:24:23.193Z</time></trkpt><trkpt lat="37.837105" lon="14.9782033"><ele>1266.0</ele><time>2026-04-05T09:24:24.195Z</time></trkpt><trkpt lat="37.837155" lon="14.9782767"><ele>1263.0</ele><time>2026-04-05T09:24:25.192Z</time></trkpt><trkpt lat="37.8371917" lon="14.9783583"><ele>1260.0</ele><time>2026-04-05T09:24:26.194Z</time></trkpt><trkpt lat="37.8372233" lon="14.97845"><ele>1257.0</ele><time>2026-04-05T09:24:27.194Z</time></trkpt><trkpt lat="37.83724" lon="14.9785383"><ele>1254.0</ele><time>2026-04-05T09:24:28.194Z</time></trkpt><trkpt lat="37.837255" lon="14.978625"><ele>1251.0</ele><time>2026-04-05T09:24:29.193Z</time></trkpt><trkpt lat="37.8372667" lon="14.9787083"><ele>1248.0</ele><time>2026-04-05T09:24:30.193Z</time></trkpt><trkpt lat="37.8372633" lon="14.9787933"><ele>1247.6</ele><time>2026-04-05T09:24:31.194Z</time></trkpt><trkpt lat="37.837225" lon="14.9789283"><ele>1247.1999999999998</ele><time>2026-04-05T09:24:33.193Z</time></trkpt><trkpt lat="37.8371617" lon="14.9790183"><ele>1246.8</ele><time>2026-04-05T09:24:35.194Z</time></trkpt><trkpt lat="37.8370967" lon="14.9791167"><ele>1246.3999999999999</ele><time>2026-04-05T09:24:37.196Z</time></trkpt><trkpt lat="37.83708" lon="14.97922"><ele>1246.0</ele><time>2026-04-05T09:24:39.2Z</time></trkpt><trkpt lat="37.8371333" lon="14.9792917"><ele>1245.6666666666665</ele><time>2026-04-05T09:24:41.192Z</time></trkpt><trkpt lat="37.8372133" lon="14.9792917"><ele>1245.3333333333333</ele><time>2026-04-05T09:24:43.193Z</time></trkpt><trkpt lat="37.83728" lon="14.9792867"><ele>1245.0</ele><time>2026-04-05T09:24:45.192Z</time></trkpt><trkpt lat="37.8373467" lon="14.9792917"><ele>1244.6666666666667</ele><time>2026-04-05T09:24:47.195Z</time></trkpt><trkpt lat="37.837415" lon="14.979305"><ele>1244.3333333333335</ele><time>2026-04-05T09:24:50.197Z</time></trkpt><trkpt lat="37.8374833" lon="14.97935"><ele>1244.0</ele><time>2026-04-05T09:24:53.194Z</time></trkpt><trkpt lat="37.8375583" lon="14.9794417"><ele>1244.0</ele><time>2026-04-05T09:24:56.194Z</time></trkpt><trkpt lat="37.8376267" lon="14.97955"><ele>1244.0</ele><time>2026-04-05T09:24:58.192Z</time></trkpt><trkpt lat="37.83765" lon="14.979625"><ele>1244.0</ele><time>2026-04-05T09:24:59.193Z</time></trkpt><trkpt lat="37.8376667" lon="14.9797083"><ele>1244.0</ele><time>2026-04-05T09:25:00.195Z</time></trkpt><trkpt lat="37.8376867" lon="14.9798683"><ele>1244.0</ele><time>2026-04-05T09:25:02.193Z</time></trkpt><trkpt lat="37.83769" lon="14.98002"><ele>1240.2</ele><time>2026-04-05T09:25:04.194Z</time></trkpt><trkpt lat="37.83773" lon="14.98015"><ele>1236.4</ele><time>2026-04-05T09:25:06.192Z</time></trkpt><trkpt lat="37.837825" lon="14.98021"><ele>1232.6</ele><time>2026-04-05T09:25:08.193Z</time></trkpt><trkpt lat="37.8379317" lon="14.98026"><ele>1228.8</ele><time>2026-04-05T09:25:10.192Z</time></trkpt><trkpt lat="37.8379933" lon="14.9803583"><ele>1225.0</ele><time>2026-04-05T09:25:12.192Z</time></trkpt><trkpt lat="37.8380067" lon="14.9804633"><ele>1225.0</ele><time>2026-04-05T09:25:14.193Z</time></trkpt><trkpt lat="37.8380267" lon="14.9805583"><ele>1225.0</ele><time>2026-04-05T09:25:16.191Z</time></trkpt><trkpt lat="37.8380833" lon="14.9806117"><ele>1225.0</ele><time>2026-04-05T09:25:18.194Z</time></trkpt><trkpt lat="37.838185" lon="14.9806133"><ele>1225.0</ele><time>2026-04-05T09:25:20.193Z</time></trkpt><trkpt lat="37.8382933" lon="14.9806067"><ele>1225.0</ele><time>2026-04-05T09:25:22.193Z</time></trkpt><trkpt lat="37.8383883" lon="14.9805983"><ele>1222.6666666666665</ele><time>2026-04-05T09:25:24.192Z</time></trkpt><trkpt lat="37.8384867" lon="14.9805883"><ele>1220.3333333333333</ele><time>2026-04-05T09:25:26.192Z</time></trkpt><trkpt lat="37.83858" lon="14.980605"><ele>1218.0</ele><time>2026-04-05T09:25:28.193Z</time></trkpt><trkpt lat="37.8386383" lon="14.9806817"><ele>1215.6666666666667</ele><time>2026-04-05T09:25:30.191Z</time></trkpt><trkpt lat="37.8386617" lon="14.9807833"><ele>1213.3333333333335</ele><time>2026-04-05T09:25:32.193Z</time></trkpt><trkpt lat="37.8387033" lon="14.9808617"><ele>1211.0</ele><time>2026-04-05T09:25:34.199Z</time></trkpt><trkpt lat="37.8388017" lon="14.9809017"><ele>1211.0</ele><time>2026-04-05T09:25:36.194Z</time></trkpt><trkpt lat="37.8388917" lon="14.98095"><ele>1211.0</ele><time>2026-04-05T09:25:38.194Z</time></trkpt><trkpt lat="37.8389383" lon="14.9810583"><ele>1211.0</ele><time>2026-04-05T09:25:40.201Z</time></trkpt><trkpt lat="37.839015" lon="14.9811833"><ele>1211.0</ele><time>2026-04-05T09:25:42.195Z</time></trkpt><trkpt lat="37.8391067" lon="14.981295"><ele>1211.0</ele><time>2026-04-05T09:25:44.195Z</time></trkpt><trkpt lat="37.83919" lon="14.98141"><ele>1211.0</ele><time>2026-04-05T09:25:46.194Z</time></trkpt><trkpt lat="37.8392333" lon="14.98154"><ele>1211.0</ele><time>2026-04-05T09:25:48.193Z</time></trkpt><trkpt lat="37.8392717" lon="14.98167"><ele>1211.0</ele><time>2026-04-05T09:25:50.2Z</time></trkpt><trkpt lat="37.8393517" lon="14.981775"><ele>1211.0</ele><time>2026-04-05T09:25:52.194Z</time></trkpt><trkpt lat="37.8394567" lon="14.9818183"><ele>1211.0</ele><time>2026-04-05T09:25:54.192Z</time></trkpt><trkpt lat="37.8395783" lon="14.9818267"><ele>1208.6</ele><time>2026-04-05T09:25:56.194Z</time></trkpt><trkpt lat="37.8396833" lon="14.9818783"><ele>1206.1999999999998</ele><time>2026-04-05T09:25:58.194Z</time></trkpt><trkpt lat="37.8397667" lon="14.98199"><ele>1203.8000000000002</ele><time>2026-04-05T09:26:00.193Z</time></trkpt><trkpt lat="37.839845" lon="14.9821033"><ele>1201.4</ele><time>2026-04-05T09:26:02.194Z</time></trkpt><trkpt lat="37.8399" lon="14.9821483"><ele>1199.0</ele><time>2026-04-05T09:26:03.193Z</time></trkpt><trkpt lat="37.8399633" lon="14.9821883"><ele>1199.0</ele><time>2026-04-05T09:26:04.192Z</time></trkpt><trkpt lat="37.84003" lon="14.9822333"><ele>1199.0</ele><time>2026-04-05T09:26:05.195Z</time></trkpt><trkpt lat="37.840095" lon="14.982295"><ele>1199.0</ele><time>2026-04-05T09:26:06.194Z</time></trkpt><trkpt lat="37.8401417" lon="14.9823717"><ele>1199.0</ele><time>2026-04-05T09:26:07.194Z</time></trkpt><trkpt lat="37.84017" lon="14.982455"><ele>1199.0</ele><time>2026-04-05T09:26:08.196Z</time></trkpt><trkpt lat="37.84019" lon="14.982535"><ele>1199.0</ele><time>2026-04-05T09:26:09.195Z</time></trkpt><trkpt lat="37.84021" lon="14.9826183"><ele>1199.0</ele><time>2026-04-05T09:26:10.195Z</time></trkpt><trkpt lat="37.8402367" lon="14.9827083"><ele>1196.2</ele><time>2026-04-05T09:26:11.194Z</time></trkpt><trkpt lat="37.8402583" lon="14.982795"><ele>1193.4</ele><time>2026-04-05T09:26:12.195Z</time></trkpt><trkpt lat="37.8402783" lon="14.9828717"><ele>1190.6</ele><time>2026-04-05T09:26:13.195Z</time></trkpt><trkpt lat="37.8403067" lon="14.9829933"><ele>1187.8</ele><time>2026-04-05T09:26:15.197Z</time></trkpt><trkpt lat="37.840365" lon="14.983105"><ele>1185.0</ele><time>2026-04-05T09:26:17.194Z</time></trkpt><trkpt lat="37.840455" lon="14.9832217"><ele>1185.0</ele><time>2026-04-05T09:26:19.192Z</time></trkpt><trkpt lat="37.8405033" lon="14.98329"><ele>1185.0</ele><time>2026-04-05T09:26:20.193Z</time></trkpt><trkpt lat="37.8405517" lon="14.9833633"><ele>1185.0</ele><time>2026-04-05T09:26:21.192Z</time></trkpt><trkpt lat="37.8405983" lon="14.9834383"><ele>1185.0</ele><time>2026-04-05T09:26:22.193Z</time></trkpt><trkpt lat="37.840655" lon="14.98352"><ele>1185.0</ele><time>2026-04-05T09:26:23.193Z</time></trkpt><trkpt lat="37.8407083" lon="14.9836017"><ele>1185.0</ele><time>2026-04-05T09:26:24.193Z</time></trkpt><trkpt lat="37.840755" lon="14.9836883"><ele>1185.6666666666667</ele><time>2026-04-05T09:26:25.194Z</time></trkpt><trkpt lat="37.8407967" lon="14.9837783"><ele>1186.3333333333333</ele><time>2026-04-05T09:26:26.196Z</time></trkpt><trkpt lat="37.840835" lon="14.9838717"><ele>1187.0</ele><time>2026-04-05T09:26:27.195Z</time></trkpt><trkpt lat="37.8408767" lon="14.98396"><ele>1187.6666666666665</ele><time>2026-04-05T09:26:28.196Z</time></trkpt><trkpt lat="37.84092" lon="14.9840417"><ele>1188.3333333333333</ele><time>2026-04-05T09:26:29.197Z</time></trkpt><trkpt lat="37.8409633" lon="14.9841083"><ele>1189.0</ele><time>2026-04-05T09:26:30.195Z</time></trkpt><trkpt lat="37.841055" lon="14.9842133"><ele>1186.0</ele><time>2026-04-05T09:26:32.196Z</time></trkpt><trkpt lat="37.8411467" lon="14.9843133"><ele>1183.0</ele><time>2026-04-05T09:26:34.198Z</time></trkpt><trkpt lat="37.841245" lon="14.9844083"><ele>1180.0</ele><time>2026-04-05T09:26:36.194Z</time></trkpt><trkpt lat="37.8413433" lon="14.9844667"><ele>1177.0</ele><time>2026-04-05T09:26:38.198Z</time></trkpt><trkpt lat="37.8414517" lon="14.984515"><ele>1177.0</ele><time>2026-04-05T09:26:40.192Z</time></trkpt><trkpt lat="37.84154" lon="14.9846033"><ele>1177.0</ele><time>2026-04-05T09:26:42.195Z</time></trkpt><trkpt lat="37.84159" lon="14.9847183"><ele>1177.0</ele><time>2026-04-05T09:26:44.195Z</time></trkpt><trkpt lat="37.8416167" lon="14.9848683"><ele>1177.0</ele><time>2026-04-05T09:26:46.193Z</time></trkpt><trkpt lat="37.84164" lon="14.9849433"><ele>1177.0</ele><time>2026-04-05T09:26:47.2Z</time></trkpt><trkpt lat="37.8416767" lon="14.9850117"><ele>1178.2</ele><time>2026-04-05T09:26:48.195Z</time></trkpt><trkpt lat="37.8417167" lon="14.9850733"><ele>1179.4</ele><time>2026-04-05T09:26:49.195Z</time></trkpt><trkpt lat="37.8417833" lon="14.9851833"><ele>1180.6</ele><time>2026-04-05T09:26:51.194Z</time></trkpt><trkpt lat="37.841855" lon="14.98526"><ele>1181.8</ele><time>2026-04-05T09:26:53.196Z</time></trkpt><trkpt lat="37.841945" lon="14.9852867"><ele>1183.0</ele><time>2026-04-05T09:26:55.195Z</time></trkpt><trkpt lat="37.8420467" lon="14.9852683"><ele>1180.7142857142858</ele><time>2026-04-05T09:26:57.195Z</time></trkpt><trkpt lat="37.842105" lon="14.9852267"><ele>1178.4285714285716</ele><time>2026-04-05T09:26:58.196Z</time></trkpt><trkpt lat="37.842165" lon="14.98518"><ele>1176.142857142857</ele><time>2026-04-05T09:26:59.196Z</time></trkpt><trkpt lat="37.8422217" lon="14.98513"><ele>1173.857142857143</ele><time>2026-04-05T09:27:00.195Z</time></trkpt><trkpt lat="37.84228" lon="14.985085"><ele>1171.5714285714287</ele><time>2026-04-05T09:27:01.194Z</time></trkpt><trkpt lat="37.8423417" lon="14.985055"><ele>1169.2857142857142</ele><time>2026-04-05T09:27:02.195Z</time></trkpt><trkpt lat="37.8424033" lon="14.9850383"><ele>1167.0</ele><time>2026-04-05T09:27:03.195Z</time></trkpt><trkpt lat="37.84247" lon="14.98503"><ele>1167.0</ele><time>2026-04-05T09:27:04.194Z</time></trkpt><trkpt lat="37.84254" lon="14.9850383"><ele>1167.0</ele><time>2026-04-05T09:27:05.196Z</time></trkpt><trkpt lat="37.8426083" lon="14.98507"><ele>1167.0</ele><time>2026-04-05T09:27:06.193Z</time></trkpt><trkpt lat="37.8426667" lon="14.9851283"><ele>1167.0</ele><time>2026-04-05T09:27:07.195Z</time></trkpt><trkpt lat="37.8427017" lon="14.9852033"><ele>1167.0</ele><time>2026-04-05T09:27:08.194Z</time></trkpt><trkpt lat="37.8427133" lon="14.9852867"><ele>1167.0</ele><time>2026-04-05T09:27:09.194Z</time></trkpt><trkpt lat="37.8426983" lon="14.9854333"><ele>1167.0</ele><time>2026-04-05T09:27:11.197Z</time></trkpt><trkpt lat="37.8426633" lon="14.9855233"><ele>1167.0</ele><time>2026-04-05T09:27:13.195Z</time></trkpt><trkpt lat="37.8425967" lon="14.9856017"><ele>1167.0</ele><time>2026-04-05T09:27:16.194Z</time></trkpt><trkpt lat="37.8425383" lon="14.9856833"><ele>1167.0</ele><time>2026-04-05T09:27:19.195Z</time></trkpt><trkpt lat="37.842495" lon="14.9857517"><ele>1167.0</ele><time>2026-04-05T09:27:21.196Z</time></trkpt><trkpt lat="37.8424533" lon="14.9858317"><ele>1167.0</ele><time>2026-04-05T09:27:23.197Z</time></trkpt><trkpt lat="37.8424233" lon="14.9859217"><ele>1167.4</ele><time>2026-04-05T09:27:25.196Z</time></trkpt><trkpt lat="37.842415" lon="14.98603"><ele>1167.8000000000002</ele><time>2026-04-05T09:27:27.195Z</time></trkpt><trkpt lat="37.842455" lon="14.98613"><ele>1168.2</ele><time>2026-04-05T09:27:29.194Z</time></trkpt><trkpt lat="37.84253" lon="14.9861983"><ele>1168.6000000000001</ele><time>2026-04-05T09:27:31.195Z</time></trkpt><trkpt lat="37.84262" lon="14.9862433"><ele>1169.0</ele><time>2026-04-05T09:27:33.195Z</time></trkpt><trkpt lat="37.8427017" lon="14.9863183"><ele>1167.6666666666667</ele><time>2026-04-05T09:27:35.195Z</time></trkpt><trkpt lat="37.8427533" lon="14.9864467"><ele>1166.3333333333335</ele><time>2026-04-05T09:27:37.196Z</time></trkpt><trkpt lat="37.84278" lon="14.9865217"><ele>1165.0</ele><time>2026-04-05T09:27:38.196Z</time></trkpt><trkpt lat="37.842815" lon="14.9865933"><ele>1163.6666666666667</ele><time>2026-04-05T09:27:39.194Z</time></trkpt><trkpt lat="37.842865" lon="14.986655"><ele>1162.3333333333333</ele><time>2026-04-05T09:27:40.196Z</time></trkpt><trkpt lat="37.8429267" lon="14.9867"><ele>1161.0</ele><time>2026-04-05T09:27:41.195Z</time></trkpt><trkpt lat="37.842995" lon="14.986725"><ele>1161.0</ele><time>2026-04-05T09:27:42.196Z</time></trkpt><trkpt lat="37.8430667" lon="14.9867283"><ele>1161.0</ele><time>2026-04-05T09:27:43.195Z</time></trkpt><trkpt lat="37.843135" lon="14.9867333"><ele>1161.0</ele><time>2026-04-05T09:27:44.195Z</time></trkpt><trkpt lat="37.8432133" lon="14.9867367"><ele>1161.0</ele><time>2026-04-05T09:27:45.193Z</time></trkpt><trkpt lat="37.84333" lon="14.986775"><ele>1161.0</ele><time>2026-04-05T09:27:47.193Z</time></trkpt><trkpt lat="37.8433817" lon="14.9868233"><ele>1161.0</ele><time>2026-04-05T09:27:48.194Z</time></trkpt><trkpt lat="37.8434617" lon="14.9869517"><ele>1160.0</ele><time>2026-04-05T09:27:50.194Z</time></trkpt><trkpt lat="37.84349" lon="14.98703"><ele>1159.0</ele><time>2026-04-05T09:27:51.195Z</time></trkpt><trkpt lat="37.843515" lon="14.98711"><ele>1158.0</ele><time>2026-04-05T09:27:52.192Z</time></trkpt><trkpt lat="37.84356" lon="14.98727"><ele>1157.0</ele><time>2026-04-05T09:27:54.194Z</time></trkpt><trkpt lat="37.8435933" lon="14.987355"><ele>1156.0</ele><time>2026-04-05T09:27:55.193Z</time></trkpt><trkpt lat="37.84363" lon="14.9874383"><ele>1155.0</ele><time>2026-04-05T09:27:56.196Z</time></trkpt><trkpt lat="37.843675" lon="14.987515"><ele>1154.2857142857142</ele><time>2026-04-05T09:27:57.193Z</time></trkpt><trkpt lat="37.843725" lon="14.9875867"><ele>1153.5714285714284</ele><time>2026-04-05T09:27:58.194Z</time></trkpt><trkpt lat="37.84378" lon="14.9876517"><ele>1152.857142857143</ele><time>2026-04-05T09:27:59.194Z</time></trkpt><trkpt lat="37.8438333" lon="14.9877117"><ele>1152.142857142857</ele><time>2026-04-05T09:28:00.195Z</time></trkpt><trkpt lat="37.843885" lon="14.9877783"><ele>1151.4285714285713</ele><time>2026-04-05T09:28:01.194Z</time></trkpt><trkpt lat="37.843925" lon="14.9878467"><ele>1150.7142857142858</ele><time>2026-04-05T09:28:02.194Z</time></trkpt><trkpt lat="37.8439517" lon="14.9879233"><ele>1150.0</ele><time>2026-04-05T09:28:03.194Z</time></trkpt><trkpt lat="37.843965" lon="14.9880117"><ele>1150.0</ele><time>2026-04-05T09:28:04.193Z</time></trkpt><trkpt lat="37.8439633" lon="14.9881067"><ele>1150.0</ele><time>2026-04-05T09:28:05.196Z</time></trkpt><trkpt lat="37.843945" lon="14.9882017"><ele>1150.0</ele><time>2026-04-05T09:28:06.194Z</time></trkpt><trkpt lat="37.8439083" lon="14.9882817"><ele>1150.0</ele><time>2026-04-05T09:28:07.195Z</time></trkpt><trkpt lat="37.8438583" lon="14.9883483"><ele>1150.0</ele><time>2026-04-05T09:28:08.196Z</time></trkpt><trkpt lat="37.84376" lon="14.9884267"><ele>1150.0</ele><time>2026-04-05T09:28:10.193Z</time></trkpt><trkpt lat="37.843695" lon="14.9884983"><ele>1150.0</ele><time>2026-04-05T09:28:12.197Z</time></trkpt><trkpt lat="37.8436733" lon="14.9886"><ele>1150.0</ele><time>2026-04-05T09:28:14.196Z</time></trkpt><trkpt lat="37.843675" lon="14.9887217"><ele>1150.0</ele><time>2026-04-05T09:28:16.193Z</time></trkpt><trkpt lat="37.8436867" lon="14.988825"><ele>1150.0</ele><time>2026-04-05T09:28:18.193Z</time></trkpt><trkpt lat="37.8437117" lon="14.9889117"><ele>1150.0</ele><time>2026-04-05T09:28:20.196Z</time></trkpt><trkpt lat="37.8437433" lon="14.9890017"><ele>1150.0</ele><time>2026-04-05T09:28:22.196Z</time></trkpt><trkpt lat="37.8437783" lon="14.9891033"><ele>1150.0</ele><time>2026-04-05T09:28:24.194Z</time></trkpt><trkpt lat="37.843795" lon="14.9892117"><ele>1150.0</ele><time>2026-04-05T09:28:26.195Z</time></trkpt><trkpt lat="37.84378" lon="14.98932"><ele>1150.0</ele><time>2026-04-05T09:28:28.193Z</time></trkpt><trkpt lat="37.8437433" lon="14.989425"><ele>1150.0</ele><time>2026-04-05T09:28:30.194Z</time></trkpt><trkpt lat="37.8437467" lon="14.9895483"><ele>1150.0</ele><time>2026-04-05T09:28:32.195Z</time></trkpt><trkpt lat="37.8437833" lon="14.9896817"><ele>1150.0</ele><time>2026-04-05T09:28:34.195Z</time></trkpt><trkpt lat="37.8438433" lon="14.9898083"><ele>1150.0</ele><time>2026-04-05T09:28:36.196Z</time></trkpt><trkpt lat="37.8438783" lon="14.9899533"><ele>1150.0</ele><time>2026-04-05T09:28:38.196Z</time></trkpt><trkpt lat="37.843935" lon="14.9900883"><ele>1150.0</ele><time>2026-04-05T09:28:40.195Z</time></trkpt><trkpt lat="37.844035" lon="14.99017"><ele>1151.0</ele><time>2026-04-05T09:28:42.193Z</time></trkpt><trkpt lat="37.8441483" lon="14.990235"><ele>1152.0</ele><time>2026-04-05T09:28:44.195Z</time></trkpt><trkpt lat="37.84421" lon="14.990265"><ele>1153.0</ele><time>2026-04-05T09:28:45.195Z</time></trkpt><trkpt lat="37.84427" lon="14.990295"><ele>1154.0</ele><time>2026-04-05T09:28:46.192Z</time></trkpt><trkpt lat="37.84433" lon="14.990325"><ele>1155.0</ele><time>2026-04-05T09:28:47.194Z</time></trkpt><trkpt lat="37.8443967" lon="14.9903517"><ele>1156.0</ele><time>2026-04-05T09:28:48.193Z</time></trkpt><trkpt lat="37.8444583" lon="14.9903833"><ele>1154.6</ele><time>2026-04-05T09:28:49.195Z</time></trkpt><trkpt lat="37.8445483" lon="14.9904733"><ele>1153.1999999999998</ele><time>2026-04-05T09:28:51.193Z</time></trkpt><trkpt lat="37.844585" lon="14.99058"><ele>1151.8000000000002</ele><time>2026-04-05T09:28:53.197Z</time></trkpt><trkpt lat="37.844605" lon="14.9906783"><ele>1150.4</ele><time>2026-04-05T09:28:55.195Z</time></trkpt><trkpt lat="37.84461" lon="14.9908433"><ele>1149.0</ele><time>2026-04-05T09:30:56.195Z</time></trkpt><trkpt lat="37.8446217" lon="14.99093"><ele>1149.0</ele><time>2026-04-05T09:30:59.194Z</time></trkpt><trkpt lat="37.8446483" lon="14.9910283"><ele>1149.0</ele><time>2026-04-05T09:31:02.196Z</time></trkpt><trkpt lat="37.84469" lon="14.9911133"><ele>1149.0</ele><time>2026-04-05T09:31:05.195Z</time></trkpt><trkpt lat="37.844735" lon="14.9911933"><ele>1149.0</ele><time>2026-04-05T09:31:08.195Z</time></trkpt><trkpt lat="37.8447667" lon="14.9912867"><ele>1149.0</ele><time>2026-04-05T09:31:11.193Z</time></trkpt><trkpt lat="37.8447833" lon="14.9913817"><ele>1149.0</ele><time>2026-04-05T09:31:14.195Z</time></trkpt><trkpt lat="37.8447717" lon="14.9914717"><ele>1149.0</ele><time>2026-04-05T09:31:17.192Z</time></trkpt><trkpt lat="37.8447867" lon="14.9915733"><ele>1149.0</ele><time>2026-04-05T09:31:20.196Z</time></trkpt><trkpt lat="37.844815" lon="14.9916817"><ele>1149.0</ele><time>2026-04-05T09:31:23.192Z</time></trkpt><trkpt lat="37.8448333" lon="14.9917867"><ele>1149.0</ele><time>2026-04-05T09:31:26.196Z</time></trkpt><trkpt lat="37.8448583" lon="14.9918783"><ele>1149.0</ele><time>2026-04-05T09:31:29.195Z</time></trkpt><trkpt lat="37.8449083" lon="14.9919767"><ele>1149.0</ele><time>2026-04-05T09:31:32.196Z</time></trkpt><trkpt lat="37.8449617" lon="14.992055"><ele>1149.0</ele><time>2026-04-05T09:31:34.194Z</time></trkpt><trkpt lat="37.8450433" lon="14.9921317"><ele>1149.0</ele><time>2026-04-05T09:31:36.195Z</time></trkpt><trkpt lat="37.8451433" lon="14.9922083"><ele>1149.0</ele><time>2026-04-05T09:31:38.197Z</time></trkpt><trkpt lat="37.8452" lon="14.9922433"><ele>1149.0</ele><time>2026-04-05T09:31:39.194Z</time></trkpt><trkpt lat="37.84531" lon="14.9922967"><ele>1149.0</ele><time>2026-04-05T09:31:41.197Z</time></trkpt><trkpt lat="37.84539" lon="14.99231"><ele>1146.6000000000001</ele><time>2026-04-05T09:31:43.197Z</time></trkpt><trkpt lat="37.8454633" lon="14.992265"><ele>1144.2</ele><time>2026-04-05T09:31:46.193Z</time></trkpt><trkpt lat="37.8455083" lon="14.99216"><ele>1141.8000000000002</ele><time>2026-04-05T09:31:49.194Z</time></trkpt><trkpt lat="37.84553" lon="14.9920567"><ele>1139.4</ele><time>2026-04-05T09:31:51.191Z</time></trkpt><trkpt lat="37.8455533" lon="14.9919333"><ele>1137.0</ele><time>2026-04-05T09:31:53.192Z</time></trkpt><trkpt lat="37.8455667" lon="14.99179"><ele>1136.6666666666667</ele><time>2026-04-05T09:31:55.196Z</time></trkpt><trkpt lat="37.8455517" lon="14.9916333"><ele>1136.3333333333333</ele><time>2026-04-05T09:31:57.196Z</time></trkpt><trkpt lat="37.8455367" lon="14.991555"><ele>1136.0</ele><time>2026-04-05T09:31:58.195Z</time></trkpt><trkpt lat="37.84552" lon="14.99147"><ele>1135.6666666666665</ele><time>2026-04-05T09:31:59.195Z</time></trkpt><trkpt lat="37.8455" lon="14.9913867"><ele>1135.3333333333333</ele><time>2026-04-05T09:32:00.194Z</time></trkpt><trkpt lat="37.845485" lon="14.9913"><ele>1135.0</ele><time>2026-04-05T09:32:01.195Z</time></trkpt><trkpt lat="37.845475" lon="14.9912083"><ele>1135.0</ele><time>2026-04-05T09:32:02.195Z</time></trkpt><trkpt lat="37.8454617" lon="14.9911167"><ele>1135.0</ele><time>2026-04-05T09:32:03.194Z</time></trkpt><trkpt lat="37.8454483" lon="14.9910233"><ele>1135.0</ele><time>2026-04-05T09:32:04.194Z</time></trkpt><trkpt lat="37.84543" lon="14.9909283"><ele>1135.0</ele><time>2026-04-05T09:32:05.195Z</time></trkpt><trkpt lat="37.8454117" lon="14.99083"><ele>1135.0</ele><time>2026-04-05T09:32:06.194Z</time></trkpt><trkpt lat="37.8453933" lon="14.9907317"><ele>1135.0</ele><time>2026-04-05T09:32:07.196Z</time></trkpt><trkpt lat="37.845375" lon="14.9906317"><ele>1134.5</ele><time>2026-04-05T09:32:08.194Z</time></trkpt><trkpt lat="37.845355" lon="14.9905267"><ele>1134.0</ele><time>2026-04-05T09:32:09.195Z</time></trkpt><trkpt lat="37.845335" lon="14.9904233"><ele>1133.5</ele><time>2026-04-05T09:32:10.194Z</time></trkpt><trkpt lat="37.8453167" lon="14.9903183"><ele>1133.0</ele><time>2026-04-05T09:32:11.194Z</time></trkpt><trkpt lat="37.8452967" lon="14.99021"><ele>1132.5</ele><time>2026-04-05T09:32:12.194Z</time></trkpt><trkpt lat="37.8452783" lon="14.9901017"><ele>1132.0</ele><time>2026-04-05T09:32:13.196Z</time></trkpt><trkpt lat="37.8452567" lon="14.9899933"><ele>1131.2</ele><time>2026-04-05T09:32:14.195Z</time></trkpt><trkpt lat="37.8452317" lon="14.98988"><ele>1130.4</ele><time>2026-04-05T09:32:15.192Z</time></trkpt><trkpt lat="37.8452033" lon="14.9897683"><ele>1129.6</ele><time>2026-04-05T09:32:16.191Z</time></trkpt><trkpt lat="37.8451783" lon="14.9896517"><ele>1128.8</ele><time>2026-04-05T09:32:17.192Z</time></trkpt><trkpt lat="37.8451633" lon="14.9895333"><ele>1128.0</ele><time>2026-04-05T09:32:18.192Z</time></trkpt><trkpt lat="37.84517" lon="14.9894217"><ele>1128.0</ele><time>2026-04-05T09:32:19.193Z</time></trkpt><trkpt lat="37.8451967" lon="14.9893183"><ele>1128.0</ele><time>2026-04-05T09:32:20.194Z</time></trkpt><trkpt lat="37.8452417" lon="14.9892233"><ele>1128.0</ele><time>2026-04-05T09:32:21.195Z</time></trkpt><trkpt lat="37.8453117" lon="14.9891533"><ele>1128.0</ele><time>2026-04-05T09:32:22.194Z</time></trkpt><trkpt lat="37.8454" lon="14.98912"><ele>1128.0</ele><time>2026-04-05T09:32:23.191Z</time></trkpt><trkpt lat="37.8454983" lon="14.9891083"><ele>1128.0</ele><time>2026-04-05T09:32:24.191Z</time></trkpt><trkpt lat="37.8455983" lon="14.98912"><ele>1128.0</ele><time>2026-04-05T09:32:25.2Z</time></trkpt><trkpt lat="37.8456983" lon="14.989145"><ele>1128.0</ele><time>2026-04-05T09:32:26.194Z</time></trkpt><trkpt lat="37.8457983" lon="14.9891733"><ele>1128.0</ele><time>2026-04-05T09:32:27.192Z</time></trkpt><trkpt lat="37.8459" lon="14.9892067"><ele>1128.0</ele><time>2026-04-05T09:32:28.191Z</time></trkpt><trkpt lat="37.8459983" lon="14.9892467"><ele>1125.6</ele><time>2026-04-05T09:32:29.193Z</time></trkpt><trkpt lat="37.8460983" lon="14.9892967"><ele>1123.1999999999998</ele><time>2026-04-05T09:32:30.197Z</time></trkpt><trkpt lat="37.8461917" lon="14.9893583"><ele>1120.8</ele><time>2026-04-05T09:32:31.192Z</time></trkpt><trkpt lat="37.8462717" lon="14.98945"><ele>1118.3999999999999</ele><time>2026-04-05T09:32:32.194Z</time></trkpt><trkpt lat="37.846335" lon="14.9895567"><ele>1116.0</ele><time>2026-04-05T09:32:33.192Z</time></trkpt><trkpt lat="37.8463983" lon="14.9896717"><ele>1116.0</ele><time>2026-04-05T09:32:34.193Z</time></trkpt><trkpt lat="37.8464583" lon="14.9897833"><ele>1116.0</ele><time>2026-04-05T09:32:35.192Z</time></trkpt><trkpt lat="37.8465183" lon="14.9898983"><ele>1116.0</ele><time>2026-04-05T09:32:36.192Z</time></trkpt><trkpt lat="37.8465817" lon="14.9900083"><ele>1116.0</ele><time>2026-04-05T09:32:37.193Z</time></trkpt><trkpt lat="37.8466467" lon="14.9901167"><ele>1116.0</ele><time>2026-04-05T09:32:38.195Z</time></trkpt><trkpt lat="37.846715" lon="14.99022"><ele>1117.2</ele><time>2026-04-05T09:32:39.193Z</time></trkpt><trkpt lat="37.846785" lon="14.990315"><ele>1118.3999999999999</ele><time>2026-04-05T09:32:40.191Z</time></trkpt><trkpt lat="37.8468583" lon="14.990405"><ele>1119.6</ele><time>2026-04-05T09:32:41.192Z</time></trkpt><trkpt lat="37.846935" lon="14.9904933"><ele>1120.8</ele><time>2026-04-05T09:32:42.193Z</time></trkpt><trkpt lat="37.8470133" lon="14.99058"><ele>1122.0</ele><time>2026-04-05T09:32:43.193Z</time></trkpt><trkpt lat="37.8470917" lon="14.9906717"><ele>1120.2</ele><time>2026-04-05T09:32:44.193Z</time></trkpt><trkpt lat="37.8471683" lon="14.9907683"><ele>1118.4</ele><time>2026-04-05T09:32:45.193Z</time></trkpt><trkpt lat="37.8472433" lon="14.990865"><ele>1116.6</ele><time>2026-04-05T09:32:46.192Z</time></trkpt><trkpt lat="37.8473183" lon="14.9909617"><ele>1114.8</ele><time>2026-04-05T09:32:47.193Z</time></trkpt><trkpt lat="37.8473967" lon="14.991055"><ele>1113.0</ele><time>2026-04-05T09:32:48.192Z</time></trkpt><trkpt lat="37.847475" lon="14.9911517"><ele>1113.0</ele><time>2026-04-05T09:32:49.193Z</time></trkpt><trkpt lat="37.8475533" lon="14.99125"><ele>1113.0</ele><time>2026-04-05T09:32:50.193Z</time></trkpt><trkpt lat="37.8476283" lon="14.9913533"><ele>1113.0</ele><time>2026-04-05T09:32:51.193Z</time></trkpt><trkpt lat="37.8476917" lon="14.9914633"><ele>1113.0</ele><time>2026-04-05T09:32:52.193Z</time></trkpt><trkpt lat="37.8477567" lon="14.9915767"><ele>1113.0</ele><time>2026-04-05T09:32:53.192Z</time></trkpt><trkpt lat="37.8478167" lon="14.9916933"><ele>1108.5</ele><time>2026-04-05T09:32:54.191Z</time></trkpt><trkpt lat="37.8478783" lon="14.99181"><ele>1104.0</ele><time>2026-04-05T09:32:55.192Z</time></trkpt><trkpt lat="37.84794" lon="14.9919333"><ele>1099.5</ele><time>2026-04-05T09:32:56.193Z</time></trkpt><trkpt lat="37.848" lon="14.99206"><ele>1095.0</ele><time>2026-04-05T09:32:57.192Z</time></trkpt><trkpt lat="37.8480483" lon="14.9921933"><ele>1095.0</ele><time>2026-04-05T09:32:58.192Z</time></trkpt><trkpt lat="37.8480833" lon="14.9923367"><ele>1095.0</ele><time>2026-04-05T09:32:59.195Z</time></trkpt><trkpt lat="37.848105" lon="14.9924833"><ele>1095.0</ele><time>2026-04-05T09:33:00.192Z</time></trkpt><trkpt lat="37.8481233" lon="14.992625"><ele>1095.0</ele><time>2026-04-05T09:33:01.194Z</time></trkpt><trkpt lat="37.848135" lon="14.9927667"><ele>1095.2</ele><time>2026-04-05T09:33:02.194Z</time></trkpt><trkpt lat="37.8481483" lon="14.9929067"><ele>1095.4</ele><time>2026-04-05T09:33:03.192Z</time></trkpt><trkpt lat="37.84816" lon="14.99305"><ele>1095.6</ele><time>2026-04-05T09:33:04.191Z</time></trkpt><trkpt lat="37.8481667" lon="14.9931883"><ele>1095.8</ele><time>2026-04-05T09:33:05.191Z</time></trkpt><trkpt lat="37.84816" lon="14.99332"><ele>1096.0</ele><time>2026-04-05T09:33:06.192Z</time></trkpt><trkpt lat="37.84813" lon="14.993435"><ele>1094.3999999999999</ele><time>2026-04-05T09:33:07.193Z</time></trkpt><trkpt lat="37.84807" lon="14.993525"><ele>1092.8</ele><time>2026-04-05T09:33:08.193Z</time></trkpt><trkpt lat="37.8479917" lon="14.993595"><ele>1091.1999999999998</ele><time>2026-04-05T09:33:09.193Z</time></trkpt><trkpt lat="37.8479067" lon="14.993655"><ele>1089.6</ele><time>2026-04-05T09:33:10.191Z</time></trkpt><trkpt lat="37.8478283" lon="14.9937183"><ele>1088.0</ele><time>2026-04-05T09:33:11.191Z</time></trkpt><trkpt lat="37.8477633" lon="14.9937983"><ele>1088.0</ele><time>2026-04-05T09:33:12.197Z</time></trkpt><trkpt lat="37.8477233" lon="14.9938883"><ele>1088.0</ele><time>2026-04-05T09:33:13.193Z</time></trkpt><trkpt lat="37.8477033" lon="14.9939833"><ele>1088.0</ele><time>2026-04-05T09:33:14.192Z</time></trkpt><trkpt lat="37.8477133" lon="14.99409"><ele>1088.0</ele><time>2026-04-05T09:33:15.192Z</time></trkpt><trkpt lat="37.8477433" lon="14.9941933"><ele>1088.0</ele><time>2026-04-05T09:33:16.198Z</time></trkpt><trkpt lat="37.8477833" lon="14.9942983"><ele>1088.0</ele><time>2026-04-05T09:33:17.193Z</time></trkpt><trkpt lat="37.847835" lon="14.9944"><ele>1088.6</ele><time>2026-04-05T09:33:18.192Z</time></trkpt><trkpt lat="37.8479" lon="14.9944917"><ele>1089.1999999999998</ele><time>2026-04-05T09:33:19.192Z</time></trkpt><trkpt lat="37.8479817" lon="14.994565"><ele>1089.8</ele><time>2026-04-05T09:33:20.197Z</time></trkpt><trkpt lat="37.8480767" lon="14.9946217"><ele>1090.3999999999999</ele><time>2026-04-05T09:33:21.193Z</time></trkpt><trkpt lat="37.8481783" lon="14.994675"><ele>1091.0</ele><time>2026-04-05T09:33:22.199Z</time></trkpt><trkpt lat="37.8482817" lon="14.9947283"><ele>1091.0</ele><time>2026-04-05T09:33:23.192Z</time></trkpt><trkpt lat="37.8483883" lon="14.9947783"><ele>1091.0</ele><time>2026-04-05T09:33:24.193Z</time></trkpt><trkpt lat="37.8484933" lon="14.994835"><ele>1091.0</ele><time>2026-04-05T09:33:25.192Z</time></trkpt><trkpt lat="37.8485917" lon="14.9949133"><ele>1091.0</ele><time>2026-04-05T09:33:26.196Z</time></trkpt><trkpt lat="37.8486783" lon="14.99501"><ele>1086.6</ele><time>2026-04-05T09:33:27.195Z</time></trkpt><trkpt lat="37.8487567" lon="14.9951117"><ele>1082.1999999999998</ele><time>2026-04-05T09:33:28.192Z</time></trkpt><trkpt lat="37.848825" lon="14.995205"><ele>1077.8000000000002</ele><time>2026-04-05T09:33:29.191Z</time></trkpt><trkpt lat="37.84889" lon="14.9952783"><ele>1073.4</ele><time>2026-04-05T09:33:30.193Z</time></trkpt><trkpt lat="37.8489567" lon="14.9953317"><ele>1069.0</ele><time>2026-04-05T09:33:31.192Z</time></trkpt><trkpt lat="37.8490333" lon="14.9953667"><ele>1069.0</ele><time>2026-04-05T09:33:32.195Z</time></trkpt><trkpt lat="37.84912" lon="14.9953817"><ele>1069.0</ele><time>2026-04-05T09:33:33.192Z</time></trkpt><trkpt lat="37.8492067" lon="14.995365"><ele>1069.0</ele><time>2026-04-05T09:33:34.193Z</time></trkpt><trkpt lat="37.8492867" lon="14.9953233"><ele>1069.0</ele><time>2026-04-05T09:33:35.196Z</time></trkpt><trkpt lat="37.84934" lon="14.9952467"><ele>1069.0</ele><time>2026-04-05T09:33:36.196Z</time></trkpt><trkpt lat="37.8493833" lon="14.9951583"><ele>1069.0</ele><time>2026-04-05T09:33:37.196Z</time></trkpt><trkpt lat="37.8494083" lon="14.9950667"><ele>1070.0</ele><time>2026-04-05T09:33:38.195Z</time></trkpt><trkpt lat="37.84941" lon="14.9949667"><ele>1071.0</ele><time>2026-04-05T09:33:39.192Z</time></trkpt><trkpt lat="37.8493933" lon="14.994865"><ele>1072.0</ele><time>2026-04-05T09:33:40.195Z</time></trkpt><trkpt lat="37.8493667" lon="14.9947667"><ele>1073.0</ele><time>2026-04-05T09:33:41.195Z</time></trkpt><trkpt lat="37.849325" lon="14.9946733"><ele>1074.0</ele><time>2026-04-05T09:33:42.194Z</time></trkpt><trkpt lat="37.849275" lon="14.994585"><ele>1075.0</ele><time>2026-04-05T09:33:43.195Z</time></trkpt><trkpt lat="37.8492267" lon="14.9945"><ele>1075.0</ele><time>2026-04-05T09:33:44.198Z</time></trkpt><trkpt lat="37.8491783" lon="14.9944133"><ele>1075.0</ele><time>2026-04-05T09:33:45.197Z</time></trkpt><trkpt lat="37.8491317" lon="14.9943233"><ele>1075.0</ele><time>2026-04-05T09:33:46.191Z</time></trkpt><trkpt lat="37.8490883" lon="14.9942317"><ele>1075.0</ele><time>2026-04-05T09:33:47.192Z</time></trkpt><trkpt lat="37.8490517" lon="14.9941333"><ele>1075.0</ele><time>2026-04-05T09:33:48.192Z</time></trkpt><trkpt lat="37.849035" lon="14.9940283"><ele>1075.0</ele><time>2026-04-05T09:33:49.194Z</time></trkpt><trkpt lat="37.8490417" lon="14.9939283"><ele>1074.6666666666665</ele><time>2026-04-05T09:33:50.192Z</time></trkpt><trkpt lat="37.8490667" lon="14.993835"><ele>1074.3333333333333</ele><time>2026-04-05T09:33:51.196Z</time></trkpt><trkpt lat="37.8491117" lon="14.9937533"><ele>1074.0</ele><time>2026-04-05T09:33:52.192Z</time></trkpt><trkpt lat="37.849175" lon="14.9937"><ele>1073.6666666666667</ele><time>2026-04-05T09:33:53.193Z</time></trkpt><trkpt lat="37.84925" lon="14.993675"><ele>1073.3333333333335</ele><time>2026-04-05T09:33:54.191Z</time></trkpt><trkpt lat="37.8493267" lon="14.9936767"><ele>1073.0</ele><time>2026-04-05T09:33:55.193Z</time></trkpt><trkpt lat="37.8494033" lon="14.9937017"><ele>1070.0</ele><time>2026-04-05T09:33:56.193Z</time></trkpt><trkpt lat="37.8494767" lon="14.9937583"><ele>1067.0</ele><time>2026-04-05T09:33:57.194Z</time></trkpt><trkpt lat="37.84953" lon="14.9938467"><ele>1064.0</ele><time>2026-04-05T09:33:58.195Z</time></trkpt><trkpt lat="37.8495667" lon="14.9939483"><ele>1061.0</ele><time>2026-04-05T09:33:59.195Z</time></trkpt><trkpt lat="37.8495933" lon="14.9940517"><ele>1058.0</ele><time>2026-04-05T09:34:00.192Z</time></trkpt><trkpt lat="37.8496133" lon="14.9941583"><ele>1055.0</ele><time>2026-04-05T09:34:01.197Z</time></trkpt><trkpt lat="37.8496367" lon="14.994265"><ele>1055.0</ele><time>2026-04-05T09:34:02.192Z</time></trkpt><trkpt lat="37.8496683" lon="14.9943717"><ele>1055.0</ele><time>2026-04-05T09:34:03.192Z</time></trkpt><trkpt lat="37.84971" lon="14.994465"><ele>1055.0</ele><time>2026-04-05T09:34:04.193Z</time></trkpt><trkpt lat="37.84976" lon="14.9945367"><ele>1055.0</ele><time>2026-04-05T09:34:05.194Z</time></trkpt><trkpt lat="37.8498217" lon="14.9945867"><ele>1055.0</ele><time>2026-04-05T09:34:06.195Z</time></trkpt><trkpt lat="37.8498883" lon="14.994615"><ele>1055.0</ele><time>2026-04-05T09:34:07.197Z</time></trkpt><trkpt lat="37.8499533" lon="14.9946133"><ele>1055.0</ele><time>2026-04-05T09:34:08.195Z</time></trkpt><trkpt lat="37.850025" lon="14.9945533"><ele>1055.0</ele><time>2026-04-05T09:34:09.194Z</time></trkpt><trkpt lat="37.85008" lon="14.99448"><ele>1055.0</ele><time>2026-04-05T09:34:10.194Z</time></trkpt><trkpt lat="37.8501133" lon="14.9943817"><ele>1055.0</ele><time>2026-04-05T09:34:11.194Z</time></trkpt><trkpt lat="37.8501283" lon="14.994275"><ele>1055.0</ele><time>2026-04-05T09:34:12.192Z</time></trkpt><trkpt lat="37.850135" lon="14.9941633"><ele>1055.0</ele><time>2026-04-05T09:34:13.192Z</time></trkpt><trkpt lat="37.8501433" lon="14.9940533"><ele>1051.1666666666667</ele><time>2026-04-05T09:34:14.194Z</time></trkpt><trkpt lat="37.850155" lon="14.9939433"><ele>1047.3333333333335</ele><time>2026-04-05T09:34:15.194Z</time></trkpt><trkpt lat="37.8501683" lon="14.9938317"><ele>1043.5</ele><time>2026-04-05T09:34:16.195Z</time></trkpt><trkpt lat="37.8501817" lon="14.9937217"><ele>1039.6666666666667</ele><time>2026-04-05T09:34:17.192Z</time></trkpt><trkpt lat="37.8501917" lon="14.9936083"><ele>1035.8333333333333</ele><time>2026-04-05T09:34:18.192Z</time></trkpt><trkpt lat="37.8502033" lon="14.9934933"><ele>1032.0</ele><time>2026-04-05T09:34:19.192Z</time></trkpt><trkpt lat="37.85022" lon="14.9933767"><ele>1032.2</ele><time>2026-04-05T09:34:20.196Z</time></trkpt><trkpt lat="37.8502383" lon="14.9932617"><ele>1032.4</ele><time>2026-04-05T09:34:21.192Z</time></trkpt><trkpt lat="37.8502567" lon="14.9931467"><ele>1032.6</ele><time>2026-04-05T09:34:22.2Z</time></trkpt><trkpt lat="37.85027" lon="14.993035"><ele>1032.8</ele><time>2026-04-05T09:34:23.193Z</time></trkpt><trkpt lat="37.8502783" lon="14.9929217"><ele>1033.0</ele><time>2026-04-05T09:34:24.193Z</time></trkpt><trkpt lat="37.8502883" lon="14.992805"><ele>1033.0</ele><time>2026-04-05T09:34:25.194Z</time></trkpt><trkpt lat="37.8502983" lon="14.9926867"><ele>1033.0</ele><time>2026-04-05T09:34:26.194Z</time></trkpt><trkpt lat="37.8503117" lon="14.99257"><ele>1033.0</ele><time>2026-04-05T09:34:27.197Z</time></trkpt><trkpt lat="37.8503217" lon="14.9924533"><ele>1033.0</ele><time>2026-04-05T09:34:28.195Z</time></trkpt><trkpt lat="37.8503283" lon="14.9923367"><ele>1033.0</ele><time>2026-04-05T09:34:29.192Z</time></trkpt><trkpt lat="37.8503317" lon="14.9922217"><ele>1033.0</ele><time>2026-04-05T09:34:30.193Z</time></trkpt><trkpt lat="37.8503383" lon="14.99211"><ele>1033.0</ele><time>2026-04-05T09:34:31.194Z</time></trkpt><trkpt lat="37.8503533" lon="14.992"><ele>1033.0</ele><time>2026-04-05T09:34:32.194Z</time></trkpt><trkpt lat="37.85038" lon="14.9918933"><ele>1033.0</ele><time>2026-04-05T09:34:33.193Z</time></trkpt><trkpt lat="37.850415" lon="14.9917917"><ele>1033.0</ele><time>2026-04-05T09:34:34.193Z</time></trkpt><trkpt lat="37.850465" lon="14.9916933"><ele>1033.0</ele><time>2026-04-05T09:34:35.196Z</time></trkpt><trkpt lat="37.8505283" lon="14.9916"><ele>1033.0</ele><time>2026-04-05T09:34:36.194Z</time></trkpt><trkpt lat="37.8505983" lon="14.9915183"><ele>1033.0</ele><time>2026-04-05T09:34:37.194Z</time></trkpt><trkpt lat="37.850665" lon="14.99144"><ele>1033.0</ele><time>2026-04-05T09:34:38.194Z</time></trkpt><trkpt lat="37.8507283" lon="14.9913567"><ele>1033.0</ele><time>2026-04-05T09:34:39.195Z</time></trkpt><trkpt lat="37.8507867" lon="14.99126"><ele>1033.0</ele><time>2026-04-05T09:34:40.195Z</time></trkpt><trkpt lat="37.85084" lon="14.99115"><ele>1033.0</ele><time>2026-04-05T09:34:41.193Z</time></trkpt><trkpt lat="37.850885" lon="14.991035"><ele>1033.0</ele><time>2026-04-05T09:34:42.196Z</time></trkpt><trkpt lat="37.8509183" lon="14.99091"><ele>1033.0</ele><time>2026-04-05T09:34:43.195Z</time></trkpt><trkpt lat="37.8509417" lon="14.990775"><ele>1033.0</ele><time>2026-04-05T09:34:44.194Z</time></trkpt><trkpt lat="37.8509517" lon="14.990635"><ele>1033.0</ele><time>2026-04-05T09:34:45.193Z</time></trkpt><trkpt lat="37.8509467" lon="14.990495"><ele>1033.0</ele><time>2026-04-05T09:34:46.193Z</time></trkpt><trkpt lat="37.8509317" lon="14.9903517"><ele>1033.0</ele><time>2026-04-05T09:34:47.194Z</time></trkpt><trkpt lat="37.85091" lon="14.9902117"><ele>1033.0</ele><time>2026-04-05T09:34:48.192Z</time></trkpt><trkpt lat="37.85089" lon="14.9900783"><ele>1033.0</ele><time>2026-04-05T09:34:49.192Z</time></trkpt><trkpt lat="37.850875" lon="14.98996"><ele>1033.0</ele><time>2026-04-05T09:34:50.194Z</time></trkpt><trkpt lat="37.85086" lon="14.9898433"><ele>1032.6666666666665</ele><time>2026-04-05T09:34:51.192Z</time></trkpt><trkpt lat="37.8508467" lon="14.9897267"><ele>1032.3333333333333</ele><time>2026-04-05T09:34:52.196Z</time></trkpt><trkpt lat="37.8508317" lon="14.9896067"><ele>1032.0</ele><time>2026-04-05T09:34:53.196Z</time></trkpt><trkpt lat="37.850815" lon="14.9894917"><ele>1031.6666666666667</ele><time>2026-04-05T09:34:54.194Z</time></trkpt><trkpt lat="37.8508" lon="14.9893933"><ele>1031.3333333333335</ele><time>2026-04-05T09:34:55.192Z</time></trkpt><trkpt lat="37.8507883" lon="14.9893133"><ele>1031.0</ele><time>2026-04-05T09:34:56.193Z</time></trkpt><trkpt lat="37.8507733" lon="14.989235"><ele>1030.142857142857</ele><time>2026-04-05T09:34:57.198Z</time></trkpt><trkpt lat="37.8507583" lon="14.98915"><ele>1029.2857142857142</ele><time>2026-04-05T09:34:58.195Z</time></trkpt><trkpt lat="37.8507467" lon="14.9890583"><ele>1028.4285714285713</ele><time>2026-04-05T09:34:59.193Z</time></trkpt><trkpt lat="37.8507367" lon="14.9889617"><ele>1027.5714285714284</ele><time>2026-04-05T09:35:00.193Z</time></trkpt><trkpt lat="37.850725" lon="14.988865"><ele>1026.7142857142858</ele><time>2026-04-05T09:35:01.192Z</time></trkpt><trkpt lat="37.85071" lon="14.988775"><ele>1025.8571428571427</ele><time>2026-04-05T09:35:02.194Z</time></trkpt><trkpt lat="37.8506967" lon="14.9886833"><ele>1025.0</ele><time>2026-04-05T09:35:03.193Z</time></trkpt><trkpt lat="37.8506867" lon="14.9885883"><ele>1025.0</ele><time>2026-04-05T09:35:04.191Z</time></trkpt><trkpt lat="37.8506767" lon="14.9884867"><ele>1025.0</ele><time>2026-04-05T09:35:05.193Z</time></trkpt><trkpt lat="37.8506633" lon="14.9883817"><ele>1025.0</ele><time>2026-04-05T09:35:06.192Z</time></trkpt><trkpt lat="37.8506467" lon="14.988275"><ele>1025.0</ele><time>2026-04-05T09:35:07.192Z</time></trkpt><trkpt lat="37.8506317" lon="14.9881633"><ele>1025.0</ele><time>2026-04-05T09:35:08.194Z</time></trkpt><trkpt lat="37.8506183" lon="14.9880517"><ele>1025.0</ele><time>2026-04-05T09:35:09.194Z</time></trkpt><trkpt lat="37.8506033" lon="14.9879383"><ele>1023.4</ele><time>2026-04-05T09:35:10.195Z</time></trkpt><trkpt lat="37.85059" lon="14.9878233"><ele>1021.8</ele><time>2026-04-05T09:35:11.193Z</time></trkpt><trkpt lat="37.85058" lon="14.987705"><ele>1020.2</ele><time>2026-04-05T09:35:12.193Z</time></trkpt><trkpt lat="37.8505733" lon="14.987585"><ele>1018.6</ele><time>2026-04-05T09:35:13.196Z</time></trkpt><trkpt lat="37.8505767" lon="14.9874633"><ele>1017.0</ele><time>2026-04-05T09:35:14.193Z</time></trkpt><trkpt lat="37.8505917" lon="14.9873383"><ele>1016.0</ele><time>2026-04-05T09:35:15.193Z</time></trkpt><trkpt lat="37.8506183" lon="14.9872083"><ele>1015.0</ele><time>2026-04-05T09:35:16.193Z</time></trkpt><trkpt lat="37.85065" lon="14.98708"><ele>1014.0</ele><time>2026-04-05T09:35:17.195Z</time></trkpt><trkpt lat="37.8506817" lon="14.986955"><ele>1013.0</ele><time>2026-04-05T09:35:18.193Z</time></trkpt><trkpt lat="37.850715" lon="14.98683"><ele>1012.0</ele><time>2026-04-05T09:35:19.192Z</time></trkpt><trkpt lat="37.8507417" lon="14.9867"><ele>1011.4000000000001</ele><time>2026-04-05T09:35:20.197Z</time></trkpt><trkpt lat="37.8507617" lon="14.9865683"><ele>1010.8000000000001</ele><time>2026-04-05T09:35:21.193Z</time></trkpt><trkpt lat="37.8507733" lon="14.9864317"><ele>1010.2</ele><time>2026-04-05T09:35:22.194Z</time></trkpt><trkpt lat="37.8507783" lon="14.986295"><ele>1009.6</ele><time>2026-04-05T09:35:23.193Z</time></trkpt><trkpt lat="37.8507767" lon="14.986155"><ele>1009.0</ele><time>2026-04-05T09:35:24.193Z</time></trkpt><trkpt lat="37.8507717" lon="14.9860133"><ele>1009.0</ele><time>2026-04-05T09:35:25.192Z</time></trkpt><trkpt lat="37.8507633" lon="14.9858683"><ele>1009.0</ele><time>2026-04-05T09:35:26.195Z</time></trkpt><trkpt lat="37.8507583" lon="14.9857217"><ele>1009.0</ele><time>2026-04-05T09:35:27.195Z</time></trkpt><trkpt lat="37.8507517" lon="14.9855767"><ele>1009.0</ele><time>2026-04-05T09:35:28.194Z</time></trkpt><trkpt lat="37.8507383" lon="14.9854317"><ele>1008.0</ele><time>2026-04-05T09:35:29.198Z</time></trkpt><trkpt lat="37.8507017" lon="14.9853"><ele>1007.0000000000001</ele><time>2026-04-05T09:35:30.195Z</time></trkpt><trkpt lat="37.8506467" lon="14.985185"><ele>1006.0000000000001</ele><time>2026-04-05T09:35:31.195Z</time></trkpt><trkpt lat="37.850585" lon="14.9850767"><ele>1005.0</ele><time>2026-04-05T09:35:32.193Z</time></trkpt><trkpt lat="37.8505233" lon="14.9849717"><ele>1004.0</ele><time>2026-04-05T09:35:33.192Z</time></trkpt><trkpt lat="37.8504617" lon="14.9848683"><ele>1002.8000000000001</ele><time>2026-04-05T09:35:34.194Z</time></trkpt><trkpt lat="37.8503983" lon="14.9847683"><ele>1001.6000000000001</ele><time>2026-04-05T09:35:35.195Z</time></trkpt><trkpt lat="37.85034" lon="14.9846683"><ele>1000.4</ele><time>2026-04-05T09:35:36.191Z</time></trkpt><trkpt lat="37.8502833" lon="14.9845733"><ele>999.2</ele><time>2026-04-05T09:35:37.191Z</time></trkpt><trkpt lat="37.850225" lon="14.9844783"><ele>998.0</ele><time>2026-04-05T09:35:38.192Z</time></trkpt><trkpt lat="37.85017" lon="14.984385"><ele>999.4</ele><time>2026-04-05T09:35:39.194Z</time></trkpt><trkpt lat="37.8501183" lon="14.9842917"><ele>1000.8</ele><time>2026-04-05T09:35:40.195Z</time></trkpt><trkpt lat="37.85007" lon="14.9841983"><ele>1002.2</ele><time>2026-04-05T09:35:41.192Z</time></trkpt><trkpt lat="37.850015" lon="14.9841067"><ele>1003.6</ele><time>2026-04-05T09:35:42.194Z</time></trkpt><trkpt lat="37.8499583" lon="14.9840167"><ele>1005.0</ele><time>2026-04-05T09:35:43.191Z</time></trkpt><trkpt lat="37.8499017" lon="14.9839267"><ele>1005.0</ele><time>2026-04-05T09:35:44.196Z</time></trkpt><trkpt lat="37.849845" lon="14.983835"><ele>1005.0</ele><time>2026-04-05T09:35:45.194Z</time></trkpt><trkpt lat="37.8497883" lon="14.9837433"><ele>1005.0</ele><time>2026-04-05T09:35:46.193Z</time></trkpt><trkpt lat="37.84973" lon="14.9836483"><ele>1005.0</ele><time>2026-04-05T09:35:47.196Z</time></trkpt><trkpt lat="37.8496717" lon="14.9835533"><ele>1005.0</ele><time>2026-04-05T09:35:48.196Z</time></trkpt><trkpt lat="37.8496117" lon="14.9834583"><ele>1005.0</ele><time>2026-04-05T09:35:49.193Z</time></trkpt><trkpt lat="37.8495517" lon="14.9833633"><ele>1005.0</ele><time>2026-04-05T09:35:50.193Z</time></trkpt><trkpt lat="37.8494883" lon="14.9832683"><ele>1005.0</ele><time>2026-04-05T09:35:51.193Z</time></trkpt><trkpt lat="37.8494233" lon="14.9831717"><ele>1005.0</ele><time>2026-04-05T09:35:52.192Z</time></trkpt><trkpt lat="37.8493633" lon="14.9830733"><ele>1005.0</ele><time>2026-04-05T09:35:53.192Z</time></trkpt><trkpt lat="37.8493067" lon="14.98298"><ele>1006.0</ele><time>2026-04-05T09:35:54.192Z</time></trkpt><trkpt lat="37.8492583" lon="14.9828833"><ele>1007.0</ele><time>2026-04-05T09:35:55.194Z</time></trkpt><trkpt lat="37.8492267" lon="14.9827867"><ele>1008.0</ele><time>2026-04-05T09:35:56.198Z</time></trkpt><trkpt lat="37.849215" lon="14.9826833"><ele>1009.0</ele><time>2026-04-05T09:35:57.192Z</time></trkpt><trkpt lat="37.849235" lon="14.982585"><ele>1010.0</ele><time>2026-04-05T09:35:58.194Z</time></trkpt><trkpt lat="37.8493117" lon="14.982525"><ele>1011.0</ele><time>2026-04-05T09:35:59.194Z</time></trkpt><trkpt lat="37.8494017" lon="14.9825067"><ele>1008.0</ele><time>2026-04-05T09:36:00.197Z</time></trkpt><trkpt lat="37.8494933" lon="14.982535"><ele>1005.0</ele><time>2026-04-05T09:36:01.196Z</time></trkpt><trkpt lat="37.8495617" lon="14.9826117"><ele>1002.0</ele><time>2026-04-05T09:36:02.196Z</time></trkpt><trkpt lat="37.8496083" lon="14.9827067"><ele>999.0</ele><time>2026-04-05T09:36:03.195Z</time></trkpt><trkpt lat="37.849645" lon="14.982805"><ele>996.0</ele><time>2026-04-05T09:36:04.194Z</time></trkpt><trkpt lat="37.8496833" lon="14.9828983"><ele>993.0</ele><time>2026-04-05T09:36:05.193Z</time></trkpt><trkpt lat="37.84972" lon="14.982985"><ele>993.0</ele><time>2026-04-05T09:36:06.194Z</time></trkpt><trkpt lat="37.849755" lon="14.9830733"><ele>993.0</ele><time>2026-04-05T09:36:07.192Z</time></trkpt><trkpt lat="37.8497933" lon="14.9831567"><ele>993.0</ele><time>2026-04-05T09:36:08.195Z</time></trkpt><trkpt lat="37.849835" lon="14.9832317"><ele>993.0</ele><time>2026-04-05T09:36:09.195Z</time></trkpt><trkpt lat="37.8498817" lon="14.9832983"><ele>993.0</ele><time>2026-04-05T09:36:10.193Z</time></trkpt><trkpt lat="37.849935" lon="14.9833567"><ele>993.0</ele><time>2026-04-05T09:36:11.193Z</time></trkpt><trkpt lat="37.8499983" lon="14.9834083"><ele>993.0</ele><time>2026-04-05T09:36:12.194Z</time></trkpt><trkpt lat="37.8500633" lon="14.9834517"><ele>992.6666666666666</ele><time>2026-04-05T09:36:13.192Z</time></trkpt><trkpt lat="37.85013" lon="14.9834967"><ele>992.3333333333333</ele><time>2026-04-05T09:36:14.194Z</time></trkpt><trkpt lat="37.8501967" lon="14.9835467"><ele>992.0</ele><time>2026-04-05T09:36:15.193Z</time></trkpt><trkpt lat="37.8502633" lon="14.9835967"><ele>991.6666666666666</ele><time>2026-04-05T09:36:16.192Z</time></trkpt><trkpt lat="37.8503333" lon="14.9836433"><ele>991.3333333333333</ele><time>2026-04-05T09:36:17.192Z</time></trkpt><trkpt lat="37.8504083" lon="14.9836917"><ele>991.0</ele><time>2026-04-05T09:36:18.195Z</time></trkpt><trkpt lat="37.8504833" lon="14.9837417"><ele>990.9999999999999</ele><time>2026-04-05T09:36:19.196Z</time></trkpt><trkpt lat="37.8505617" lon="14.9837933"><ele>991.0</ele><time>2026-04-05T09:36:20.195Z</time></trkpt><trkpt lat="37.85064" lon="14.983845"><ele>991.0</ele><time>2026-04-05T09:36:21.196Z</time></trkpt><trkpt lat="37.8507217" lon="14.9838967"><ele>991.0</ele><time>2026-04-05T09:36:22.195Z</time></trkpt><trkpt lat="37.8508067" lon="14.9839383"><ele>990.9999999999999</ele><time>2026-04-05T09:36:23.195Z</time></trkpt><trkpt lat="37.8508883" lon="14.9839583"><ele>991.0</ele><time>2026-04-05T09:36:24.193Z</time></trkpt><trkpt lat="37.8509633" lon="14.9839483"><ele>988.0</ele><time>2026-04-05T09:36:25.194Z</time></trkpt><trkpt lat="37.8510283" lon="14.9838833"><ele>984.9999999999999</ele><time>2026-04-05T09:36:26.193Z</time></trkpt><trkpt lat="37.8510783" lon="14.983815"><ele>981.9999999999999</ele><time>2026-04-05T09:36:27.193Z</time></trkpt><trkpt lat="37.851065" lon="14.9836833"><ele>979.0</ele><time>2026-04-05T09:36:28.193Z</time></trkpt><trkpt lat="37.8510283" lon="14.9835667"><ele>976.0</ele><time>2026-04-05T09:36:29.201Z</time></trkpt><trkpt lat="37.8509717" lon="14.9834633"><ele>976.4</ele><time>2026-04-05T09:36:30.196Z</time></trkpt><trkpt lat="37.8509117" lon="14.98336"><ele>976.8</ele><time>2026-04-05T09:36:31.194Z</time></trkpt><trkpt lat="37.85085" lon="14.9832583"><ele>977.1999999999999</ele><time>2026-04-05T09:36:32.194Z</time></trkpt><trkpt lat="37.8507833" lon="14.983155"><ele>977.5999999999999</ele><time>2026-04-05T09:36:33.193Z</time></trkpt><trkpt lat="37.850715" lon="14.9830517"><ele>978.0</ele><time>2026-04-05T09:36:34.193Z</time></trkpt><trkpt lat="37.8506417" lon="14.9829467"><ele>978.0</ele><time>2026-04-05T09:36:35.194Z</time></trkpt><trkpt lat="37.85057" lon="14.9828367"><ele>978.0</ele><time>2026-04-05T09:36:36.194Z</time></trkpt><trkpt lat="37.8505067" lon="14.9827167"><ele>978.0</ele><time>2026-04-05T09:36:37.193Z</time></trkpt><trkpt lat="37.85046" lon="14.982585"><ele>978.0</ele><time>2026-04-05T09:36:38.196Z</time></trkpt><trkpt lat="37.8504267" lon="14.9824417"><ele>976.5999999999999</ele><time>2026-04-05T09:36:39.197Z</time></trkpt><trkpt lat="37.8504067" lon="14.9822967"><ele>975.1999999999999</ele><time>2026-04-05T09:36:40.194Z</time></trkpt><trkpt lat="37.8503917" lon="14.9821617"><ele>973.8</ele><time>2026-04-05T09:36:41.193Z</time></trkpt><trkpt lat="37.8503867" lon="14.982045"><ele>972.4</ele><time>2026-04-05T09:36:42.193Z</time></trkpt><trkpt lat="37.8503983" lon="14.9819333"><ele>971.0</ele><time>2026-04-05T09:36:43.195Z</time></trkpt><trkpt lat="37.85045" lon="14.9818483"><ele>971.0</ele><time>2026-04-05T09:36:44.193Z</time></trkpt><trkpt lat="37.850535" lon="14.9818117"><ele>970.9999999999999</ele><time>2026-04-05T09:36:45.192Z</time></trkpt><trkpt lat="37.8506317" lon="14.9818017"><ele>970.9999999999999</ele><time>2026-04-05T09:36:46.194Z</time></trkpt><trkpt lat="37.8507267" lon="14.9818233"><ele>971.0</ele><time>2026-04-05T09:36:47.199Z</time></trkpt><trkpt lat="37.8508183" lon="14.9818733"><ele>971.0</ele><time>2026-04-05T09:36:48.194Z</time></trkpt><trkpt lat="37.8508983" lon="14.9819433"><ele>968.8</ele><time>2026-04-05T09:36:49.194Z</time></trkpt><trkpt lat="37.850975" lon="14.9820233"><ele>966.5999999999999</ele><time>2026-04-05T09:36:50.194Z</time></trkpt><trkpt lat="37.85105" lon="14.982105"><ele>964.4</ele><time>2026-04-05T09:36:51.201Z</time></trkpt><trkpt lat="37.8511267" lon="14.9821883"><ele>962.2</ele><time>2026-04-05T09:36:52.198Z</time></trkpt><trkpt lat="37.851205" lon="14.9822717"><ele>960.0</ele><time>2026-04-05T09:36:53.198Z</time></trkpt><trkpt lat="37.8512833" lon="14.9823567"><ele>960.0</ele><time>2026-04-05T09:36:54.201Z</time></trkpt><trkpt lat="37.8513617" lon="14.982445"><ele>960.0</ele><time>2026-04-05T09:36:55.194Z</time></trkpt><trkpt lat="37.8514417" lon="14.9825317"><ele>960.0</ele><time>2026-04-05T09:36:56.194Z</time></trkpt><trkpt lat="37.8515233" lon="14.982615"><ele>960.0</ele><time>2026-04-05T09:36:57.2Z</time></trkpt><trkpt lat="37.8516067" lon="14.9826933"><ele>960.0</ele><time>2026-04-05T09:36:58.198Z</time></trkpt><trkpt lat="37.8516983" lon="14.9827633"><ele>959.4</ele><time>2026-04-05T09:36:59.193Z</time></trkpt><trkpt lat="37.851795" lon="14.982825"><ele>958.8</ele><time>2026-04-05T09:37:00.192Z</time></trkpt><trkpt lat="37.8518967" lon="14.9828767"><ele>958.2</ele><time>2026-04-05T09:37:01.192Z</time></trkpt><trkpt lat="37.852" lon="14.9829267"><ele>957.6</ele><time>2026-04-05T09:37:02.195Z</time></trkpt><trkpt lat="37.8521017" lon="14.9829767"><ele>957.0</ele><time>2026-04-05T09:37:03.193Z</time></trkpt><trkpt lat="37.852205" lon="14.9830267"><ele>957.0</ele><time>2026-04-05T09:37:04.192Z</time></trkpt><trkpt lat="37.8523083" lon="14.98308"><ele>957.0</ele><time>2026-04-05T09:37:05.196Z</time></trkpt><trkpt lat="37.8524117" lon="14.9831333"><ele>957.0</ele><time>2026-04-05T09:37:06.193Z</time></trkpt><trkpt lat="37.852515" lon="14.9831883"><ele>957.0</ele><time>2026-04-05T09:37:07.194Z</time></trkpt><trkpt lat="37.8526183" lon="14.9832467"><ele>957.0</ele><time>2026-04-05T09:37:08.192Z</time></trkpt><trkpt lat="37.85272" lon="14.98331"><ele>954.8</ele><time>2026-04-05T09:37:09.196Z</time></trkpt><trkpt lat="37.852815" lon="14.9833867"><ele>952.6</ele><time>2026-04-05T09:37:10.193Z</time></trkpt><trkpt lat="37.8528967" lon="14.9834817"><ele>950.3999999999999</ele><time>2026-04-05T09:37:11.193Z</time></trkpt><trkpt lat="37.8529633" lon="14.9835867"><ele>948.1999999999999</ele><time>2026-04-05T09:37:12.197Z</time></trkpt><trkpt lat="37.853025" lon="14.983695"><ele>946.0</ele><time>2026-04-05T09:37:13.194Z</time></trkpt><trkpt lat="37.8530833" lon="14.983805"><ele>946.0</ele><time>2026-04-05T09:37:14.201Z</time></trkpt><trkpt lat="37.85314" lon="14.9839167"><ele>945.9999999999999</ele><time>2026-04-05T09:37:15.192Z</time></trkpt><trkpt lat="37.8531983" lon="14.98403"><ele>945.9999999999999</ele><time>2026-04-05T09:37:16.194Z</time></trkpt><trkpt lat="37.8532583" lon="14.9841433"><ele>946.0</ele><time>2026-04-05T09:37:17.194Z</time></trkpt><trkpt lat="37.8533267" lon="14.9842533"><ele>946.0</ele><time>2026-04-05T09:37:18.192Z</time></trkpt><trkpt lat="37.8534117" lon="14.9843467"><ele>945.75</ele><time>2026-04-05T09:37:19.193Z</time></trkpt><trkpt lat="37.8535083" lon="14.98442"><ele>945.5</ele><time>2026-04-05T09:37:20.194Z</time></trkpt><trkpt lat="37.8536133" lon="14.9844783"><ele>945.25</ele><time>2026-04-05T09:37:21.192Z</time></trkpt><trkpt lat="37.8537183" lon="14.9845283"><ele>945.0</ele><time>2026-04-05T09:37:22.198Z</time></trkpt><trkpt lat="37.8538233" lon="14.98458"><ele>945.0</ele><time>2026-04-05T09:37:23.194Z</time></trkpt><trkpt lat="37.8539283" lon="14.98463"><ele>945.0</ele><time>2026-04-05T09:37:24.193Z</time></trkpt><trkpt lat="37.85403" lon="14.98468"><ele>945.0</ele><time>2026-04-05T09:37:25.193Z</time></trkpt><trkpt lat="37.8541283" lon="14.98473"><ele>945.0</ele><time>2026-04-05T09:37:26.195Z</time></trkpt><trkpt lat="37.8542283" lon="14.98478"><ele>945.0</ele><time>2026-04-05T09:37:27.196Z</time></trkpt><trkpt lat="37.8543317" lon="14.98483"><ele>942.75</ele><time>2026-04-05T09:37:28.193Z</time></trkpt><trkpt lat="37.8544367" lon="14.98488"><ele>940.5</ele><time>2026-04-05T09:37:29.199Z</time></trkpt><trkpt lat="37.8545417" lon="14.9849317"><ele>938.25</ele><time>2026-04-05T09:37:30.193Z</time></trkpt><trkpt lat="37.8546467" lon="14.9849933"><ele>936.0</ele><time>2026-04-05T09:37:31.194Z</time></trkpt><trkpt lat="37.8547367" lon="14.9850767"><ele>936.0</ele><time>2026-04-05T09:37:32.196Z</time></trkpt><trkpt lat="37.8548167" lon="14.9851833"><ele>936.0</ele><time>2026-04-05T09:37:33.194Z</time></trkpt><trkpt lat="37.854885" lon="14.9852983"><ele>936.0</ele><time>2026-04-05T09:37:34.194Z</time></trkpt><trkpt lat="37.85495" lon="14.9854167"><ele>936.0</ele><time>2026-04-05T09:37:35.196Z</time></trkpt><trkpt lat="37.855015" lon="14.9855333"><ele>936.0</ele><time>2026-04-05T09:37:36.196Z</time></trkpt><trkpt lat="37.8550817" lon="14.9856517"><ele>936.0</ele><time>2026-04-05T09:37:37.194Z</time></trkpt><trkpt lat="37.8551367" lon="14.9857767"><ele>936.0</ele><time>2026-04-05T09:37:38.197Z</time></trkpt><trkpt lat="37.8551767" lon="14.9859117"><ele>936.0</ele><time>2026-04-05T09:37:39.2Z</time></trkpt><trkpt lat="37.8552017" lon="14.9860533"><ele>933.0</ele><time>2026-04-05T09:37:40.192Z</time></trkpt><trkpt lat="37.85522" lon="14.986195"><ele>929.9999999999999</ele><time>2026-04-05T09:37:41.193Z</time></trkpt><trkpt lat="37.85523" lon="14.9863267"><ele>926.9999999999999</ele><time>2026-04-05T09:37:42.192Z</time></trkpt><trkpt lat="37.8552417" lon="14.9864467"><ele>924.0</ele><time>2026-04-05T09:37:43.195Z</time></trkpt><trkpt lat="37.855255" lon="14.986555"><ele>921.0</ele><time>2026-04-05T09:37:44.194Z</time></trkpt><trkpt lat="37.8552767" lon="14.9866533"><ele>921.3333333333334</ele><time>2026-04-05T09:37:45.194Z</time></trkpt><trkpt lat="37.85531" lon="14.98674"><ele>921.6666666666667</ele><time>2026-04-05T09:37:46.197Z</time></trkpt><trkpt lat="37.85536" lon="14.9868033"><ele>922.0</ele><time>2026-04-05T09:37:47.197Z</time></trkpt><trkpt lat="37.855475" lon="14.9868683"><ele>922.3333333333334</ele><time>2026-04-05T09:37:49.193Z</time></trkpt><trkpt lat="37.8555717" lon="14.9868683"><ele>922.6666666666667</ele><time>2026-04-05T09:37:51.193Z</time></trkpt><trkpt lat="37.85564" lon="14.9868383"><ele>923.0</ele><time>2026-04-05T09:37:55.192Z</time></trkpt><trkpt lat="37.8557067" lon="14.986785"><ele>923.0000000000001</ele><time>2026-04-05T09:37:59.196Z</time></trkpt><trkpt lat="37.8557633" lon="14.9867133"><ele>923.0</ele><time>2026-04-05T09:38:01.194Z</time></trkpt><trkpt lat="37.8558117" lon="14.9866033"><ele>923.0</ele><time>2026-04-05T09:38:03.194Z</time></trkpt><trkpt lat="37.8558583" lon="14.98647"><ele>923.0</ele><time>2026-04-05T09:38:05.194Z</time></trkpt><trkpt lat="37.855885" lon="14.9863967"><ele>923.0000000000001</ele><time>2026-04-05T09:38:06.196Z</time></trkpt><trkpt lat="37.855915" lon="14.9863183"><ele>923.0</ele><time>2026-04-05T09:38:07.193Z</time></trkpt><trkpt lat="37.8559483" lon="14.986235"><ele>920.8333333333334</ele><time>2026-04-05T09:38:08.193Z</time></trkpt><trkpt lat="37.8559783" lon="14.9861483"><ele>918.6666666666667</ele><time>2026-04-05T09:38:09.193Z</time></trkpt><trkpt lat="37.85601" lon="14.9860567"><ele>916.5</ele><time>2026-04-05T09:38:10.192Z</time></trkpt><trkpt lat="37.8560417" lon="14.9859633"><ele>914.3333333333333</ele><time>2026-04-05T09:38:11.194Z</time></trkpt><trkpt lat="37.8560767" lon="14.9858633"><ele>912.1666666666666</ele><time>2026-04-05T09:38:12.193Z</time></trkpt><trkpt lat="37.8561033" lon="14.9857583"><ele>910.0</ele><time>2026-04-05T09:38:13.193Z</time></trkpt><trkpt lat="37.8561233" lon="14.9856467"><ele>909.4</ele><time>2026-04-05T09:38:14.193Z</time></trkpt><trkpt lat="37.856135" lon="14.9855283"><ele>908.8</ele><time>2026-04-05T09:38:15.192Z</time></trkpt><trkpt lat="37.856135" lon="14.9854067"><ele>908.2</ele><time>2026-04-05T09:38:16.192Z</time></trkpt><trkpt lat="37.8561267" lon="14.9852783"><ele>907.6</ele><time>2026-04-05T09:38:17.193Z</time></trkpt><trkpt lat="37.85611" lon="14.98515"><ele>907.0</ele><time>2026-04-05T09:38:18.193Z</time></trkpt><trkpt lat="37.8560817" lon="14.9850217"><ele>906.4000000000001</ele><time>2026-04-05T09:38:19.197Z</time></trkpt><trkpt lat="37.8560467" lon="14.9849"><ele>905.8000000000001</ele><time>2026-04-05T09:38:20.194Z</time></trkpt><trkpt lat="37.8560083" lon="14.9847783"><ele>905.2</ele><time>2026-04-05T09:38:21.196Z</time></trkpt><trkpt lat="37.8559733" lon="14.98466"><ele>904.6</ele><time>2026-04-05T09:38:22.193Z</time></trkpt><trkpt lat="37.8559417" lon="14.9845433"><ele>904.0</ele><time>2026-04-05T09:38:23.194Z</time></trkpt><trkpt lat="37.8559083" lon="14.9844283"><ele>905.4999999999999</ele><time>2026-04-05T09:38:24.194Z</time></trkpt><trkpt lat="37.8558783" lon="14.98432"><ele>907.0</ele><time>2026-04-05T09:38:25.196Z</time></trkpt><trkpt lat="37.8558467" lon="14.9842167"><ele>908.5</ele><time>2026-04-05T09:38:26.196Z</time></trkpt><trkpt lat="37.8558167" lon="14.984115"><ele>910.0</ele><time>2026-04-05T09:38:27.192Z</time></trkpt><trkpt lat="37.8557883" lon="14.9840167"><ele>911.4999999999999</ele><time>2026-04-05T09:38:28.192Z</time></trkpt><trkpt lat="37.8557583" lon="14.98392"><ele>913.0</ele><time>2026-04-05T09:38:29.193Z</time></trkpt><trkpt lat="37.8557283" lon="14.9838283"><ele>912.9999999999999</ele><time>2026-04-05T09:38:30.194Z</time></trkpt><trkpt lat="37.8557017" lon="14.98374"><ele>913.0</ele><time>2026-04-05T09:38:31.193Z</time></trkpt><trkpt lat="37.855675" lon="14.983655"><ele>913.0</ele><time>2026-04-05T09:38:32.198Z</time></trkpt><trkpt lat="37.8556517" lon="14.9835733"><ele>913.0</ele><time>2026-04-05T09:38:33.193Z</time></trkpt><trkpt lat="37.8556267" lon="14.983495"><ele>912.9999999999999</ele><time>2026-04-05T09:38:34.193Z</time></trkpt><trkpt lat="37.8556" lon="14.9834217"><ele>913.0</ele><time>2026-04-05T09:38:35.195Z</time></trkpt><trkpt lat="37.8555533" lon="14.98328"><ele>911.5999999999999</ele><time>2026-04-05T09:38:37.192Z</time></trkpt><trkpt lat="37.8555033" lon="14.983155"><ele>910.1999999999999</ele><time>2026-04-05T09:38:39.192Z</time></trkpt><trkpt lat="37.8554467" lon="14.9830383"><ele>908.8</ele><time>2026-04-05T09:38:41.192Z</time></trkpt><trkpt lat="37.85539" lon="14.9829217"><ele>907.4</ele><time>2026-04-05T09:38:43.194Z</time></trkpt><trkpt lat="37.8553267" lon="14.9828017"><ele>906.0</ele><time>2026-04-05T09:38:45.195Z</time></trkpt><trkpt lat="37.855265" lon="14.9826817"><ele>906.0</ele><time>2026-04-05T09:38:47.193Z</time></trkpt><trkpt lat="37.85521" lon="14.982555"><ele>906.0</ele><time>2026-04-05T09:38:49.194Z</time></trkpt><trkpt lat="37.8551567" lon="14.982425"><ele>906.0</ele><time>2026-04-05T09:38:51.195Z</time></trkpt><trkpt lat="37.8551117" lon="14.9822933"><ele>906.0</ele><time>2026-04-05T09:38:53.193Z</time></trkpt><trkpt lat="37.855065" lon="14.9821533"><ele>906.8333333333334</ele><time>2026-04-05T09:38:55.192Z</time></trkpt><trkpt lat="37.85502" lon="14.9820133"><ele>907.6666666666667</ele><time>2026-04-05T09:38:57.193Z</time></trkpt><trkpt lat="37.8549967" lon="14.9819367"><ele>908.5</ele><time>2026-04-05T09:38:58.193Z</time></trkpt><trkpt lat="37.8549733" lon="14.9818567"><ele>909.3333333333334</ele><time>2026-04-05T09:38:59.192Z</time></trkpt><trkpt lat="37.85495" lon="14.9817733"><ele>910.1666666666667</ele><time>2026-04-05T09:39:00.193Z</time></trkpt><trkpt lat="37.8549267" lon="14.9816867"><ele>911.0</ele><time>2026-04-05T09:39:01.192Z</time></trkpt><trkpt lat="37.8549033" lon="14.9815983"><ele>911.0</ele><time>2026-04-05T09:39:02.195Z</time></trkpt><trkpt lat="37.85488" lon="14.9815117"><ele>911.0</ele><time>2026-04-05T09:39:03.192Z</time></trkpt><trkpt lat="37.8548567" lon="14.981425"><ele>911.0</ele><time>2026-04-05T09:39:04.192Z</time></trkpt><trkpt lat="37.8548333" lon="14.9813383"><ele>911.0</ele><time>2026-04-05T09:39:05.193Z</time></trkpt><trkpt lat="37.8548117" lon="14.9812533"><ele>911.0</ele><time>2026-04-05T09:39:06.194Z</time></trkpt><trkpt lat="37.85479" lon="14.9811683"><ele>911.0</ele><time>2026-04-05T09:39:07.193Z</time></trkpt><trkpt lat="37.8547683" lon="14.981085"><ele>911.0</ele><time>2026-04-05T09:39:08.193Z</time></trkpt><trkpt lat="37.85475" lon="14.9810017"><ele>911.0</ele><time>2026-04-05T09:39:09.193Z</time></trkpt><trkpt lat="37.85473" lon="14.9809183"><ele>911.0</ele><time>2026-04-05T09:39:10.193Z</time></trkpt><trkpt lat="37.8547083" lon="14.9808317"><ele>911.0</ele><time>2026-04-05T09:39:11.192Z</time></trkpt><trkpt lat="37.8546867" lon="14.9807483"><ele>911.0</ele><time>2026-04-05T09:39:12.192Z</time></trkpt><trkpt lat="37.8546633" lon="14.980665"><ele>911.0</ele><time>2026-04-05T09:39:13.193Z</time></trkpt><trkpt lat="37.8546417" lon="14.9805833"><ele>911.0</ele><time>2026-04-05T09:39:14.194Z</time></trkpt><trkpt lat="37.85462" lon="14.9805033"><ele>911.0</ele><time>2026-04-05T09:39:15.193Z</time></trkpt><trkpt lat="37.8545983" lon="14.9804233"><ele>910.4285714285714</ele><time>2026-04-05T09:39:16.193Z</time></trkpt><trkpt lat="37.8545767" lon="14.9803433"><ele>909.8571428571429</ele><time>2026-04-05T09:39:17.193Z</time></trkpt><trkpt lat="37.854555" lon="14.980265"><ele>909.2857142857143</ele><time>2026-04-05T09:39:18.196Z</time></trkpt><trkpt lat="37.8545333" lon="14.9801867"><ele>908.7142857142858</ele><time>2026-04-05T09:39:19.196Z</time></trkpt><trkpt lat="37.8545133" lon="14.9801067"><ele>908.1428571428571</ele><time>2026-04-05T09:39:20.195Z</time></trkpt><trkpt lat="37.8544933" lon="14.9800267"><ele>907.5714285714287</ele><time>2026-04-05T09:39:21.195Z</time></trkpt><trkpt lat="37.8544733" lon="14.9799467"><ele>907.0000000000001</ele><time>2026-04-05T09:39:22.196Z</time></trkpt><trkpt lat="37.8544533" lon="14.9798683"><ele>907.0000000000001</ele><time>2026-04-05T09:39:23.195Z</time></trkpt><trkpt lat="37.8544333" lon="14.9797883"><ele>907.0</ele><time>2026-04-05T09:39:24.199Z</time></trkpt><trkpt lat="37.854415" lon="14.9797083"><ele>907.0000000000001</ele><time>2026-04-05T09:39:25.196Z</time></trkpt><trkpt lat="37.8544" lon="14.97963"><ele>907.0000000000001</ele><time>2026-04-05T09:39:26.195Z</time></trkpt><trkpt lat="37.8543867" lon="14.9795517"><ele>907.0</ele><time>2026-04-05T09:39:27.194Z</time></trkpt><trkpt lat="37.8543733" lon="14.9794717"><ele>907.0000000000001</ele><time>2026-04-05T09:39:28.196Z</time></trkpt><trkpt lat="37.85436" lon="14.97939"><ele>907.0000000000001</ele><time>2026-04-05T09:39:29.194Z</time></trkpt><trkpt lat="37.8543517" lon="14.9793083"><ele>906.9999999999999</ele><time>2026-04-05T09:39:30.193Z</time></trkpt><trkpt lat="37.8543483" lon="14.9792267"><ele>907.0</ele><time>2026-04-05T09:39:31.192Z</time></trkpt><trkpt lat="37.85435" lon="14.979145"><ele>907.0</ele><time>2026-04-05T09:39:32.193Z</time></trkpt><trkpt lat="37.8543567" lon="14.9790617"><ele>907.0</ele><time>2026-04-05T09:39:33.193Z</time></trkpt><trkpt lat="37.8543683" lon="14.9789833"><ele>906.9999999999999</ele><time>2026-04-05T09:39:34.193Z</time></trkpt><trkpt lat="37.8543817" lon="14.978905"><ele>907.0</ele><time>2026-04-05T09:39:35.198Z</time></trkpt><trkpt lat="37.8544067" lon="14.978745"><ele>907.5714285714287</ele><time>2026-04-05T09:39:37.192Z</time></trkpt><trkpt lat="37.8544183" lon="14.9786633"><ele>908.1428571428571</ele><time>2026-04-05T09:39:38.2Z</time></trkpt><trkpt lat="37.85443" lon="14.9785817"><ele>908.7142857142858</ele><time>2026-04-05T09:39:39.197Z</time></trkpt><trkpt lat="37.8544433" lon="14.9785"><ele>909.2857142857143</ele><time>2026-04-05T09:39:40.194Z</time></trkpt><trkpt lat="37.8544567" lon="14.9784183"><ele>909.8571428571429</ele><time>2026-04-05T09:39:41.193Z</time></trkpt><trkpt lat="37.85447" lon="14.978335"><ele>910.4285714285714</ele><time>2026-04-05T09:39:42.193Z</time></trkpt><trkpt lat="37.8544833" lon="14.9782533"><ele>911.0</ele><time>2026-04-05T09:39:43.193Z</time></trkpt><trkpt lat="37.8544967" lon="14.9781717"><ele>911.1428571428571</ele><time>2026-04-05T09:39:44.192Z</time></trkpt><trkpt lat="37.8545083" lon="14.97809"><ele>911.2857142857142</ele><time>2026-04-05T09:39:45.198Z</time></trkpt><trkpt lat="37.85452" lon="14.9780067"><ele>911.4285714285713</ele><time>2026-04-05T09:39:46.193Z</time></trkpt><trkpt lat="37.8545317" lon="14.9779233"><ele>911.5714285714286</ele><time>2026-04-05T09:39:47.193Z</time></trkpt><trkpt lat="37.854545" lon="14.9778383"><ele>911.7142857142856</ele><time>2026-04-05T09:39:48.192Z</time></trkpt><trkpt lat="37.8545583" lon="14.9777517"><ele>911.8571428571428</ele><time>2026-04-05T09:39:49.199Z</time></trkpt><trkpt lat="37.85457" lon="14.9776633"><ele>912.0</ele><time>2026-04-05T09:39:50.198Z</time></trkpt><trkpt lat="37.8545833" lon="14.9775767"><ele>912.1428571428571</ele><time>2026-04-05T09:39:51.195Z</time></trkpt><trkpt lat="37.8545983" lon="14.9774883"><ele>912.2857142857142</ele><time>2026-04-05T09:39:52.194Z</time></trkpt><trkpt lat="37.8546117" lon="14.9773983"><ele>912.4285714285713</ele><time>2026-04-05T09:39:53.196Z</time></trkpt><trkpt lat="37.854625" lon="14.9773067"><ele>912.5714285714284</ele><time>2026-04-05T09:39:54.196Z</time></trkpt><trkpt lat="37.8546367" lon="14.9772133"><ele>912.7142857142857</ele><time>2026-04-05T09:39:55.196Z</time></trkpt><trkpt lat="37.85465" lon="14.9771183"><ele>912.8571428571427</ele><time>2026-04-05T09:39:56.196Z</time></trkpt><trkpt lat="37.8546633" lon="14.9770217"><ele>912.9999999999999</ele><time>2026-04-05T09:39:57.195Z</time></trkpt><trkpt lat="37.8546783" lon="14.976925"><ele>912.9999999999999</ele><time>2026-04-05T09:39:58.196Z</time></trkpt><trkpt lat="37.8546933" lon="14.9768283"><ele>913.0</ele><time>2026-04-05T09:39:59.193Z</time></trkpt><trkpt lat="37.8547067" lon="14.9767283"><ele>913.0</ele><time>2026-04-05T09:40:00.196Z</time></trkpt><trkpt lat="37.85472" lon="14.9766283"><ele>913.0</ele><time>2026-04-05T09:40:01.192Z</time></trkpt><trkpt lat="37.8547333" lon="14.9765283"><ele>912.9999999999999</ele><time>2026-04-05T09:40:02.193Z</time></trkpt><trkpt lat="37.8547467" lon="14.976425"><ele>913.0</ele><time>2026-04-05T09:40:03.195Z</time></trkpt><trkpt lat="37.85476" lon="14.9763217"><ele>912.4999999999999</ele><time>2026-04-05T09:40:04.195Z</time></trkpt><trkpt lat="37.854775" lon="14.9762183"><ele>912.0</ele><time>2026-04-05T09:40:05.192Z</time></trkpt><trkpt lat="37.85479" lon="14.9761133"><ele>911.5</ele><time>2026-04-05T09:40:06.194Z</time></trkpt><trkpt lat="37.8548067" lon="14.9760117"><ele>911.0</ele><time>2026-04-05T09:40:07.195Z</time></trkpt><trkpt lat="37.8548217" lon="14.9759083"><ele>910.4999999999999</ele><time>2026-04-05T09:40:08.194Z</time></trkpt><trkpt lat="37.854835" lon="14.975805"><ele>910.0</ele><time>2026-04-05T09:40:09.198Z</time></trkpt><trkpt lat="37.85485" lon="14.9757017"><ele>909.8333333333333</ele><time>2026-04-05T09:40:10.194Z</time></trkpt><trkpt lat="37.854865" lon="14.9756"><ele>909.6666666666666</ele><time>2026-04-05T09:40:11.193Z</time></trkpt><trkpt lat="37.8548817" lon="14.9755"><ele>909.5</ele><time>2026-04-05T09:40:12.192Z</time></trkpt><trkpt lat="37.8549033" lon="14.9754017"><ele>909.3333333333333</ele><time>2026-04-05T09:40:13.197Z</time></trkpt><trkpt lat="37.854925" lon="14.975305"><ele>909.1666666666666</ele><time>2026-04-05T09:40:14.195Z</time></trkpt><trkpt lat="37.8549483" lon="14.97521"><ele>909.0</ele><time>2026-04-05T09:40:15.194Z</time></trkpt><trkpt lat="37.8549733" lon="14.9751183"><ele>909.0</ele><time>2026-04-05T09:40:16.193Z</time></trkpt><trkpt lat="37.8549983" lon="14.975025"><ele>909.0</ele><time>2026-04-05T09:40:17.192Z</time></trkpt><trkpt lat="37.855025" lon="14.97493"><ele>909.0</ele><time>2026-04-05T09:40:18.194Z</time></trkpt><trkpt lat="37.8550533" lon="14.9748383"><ele>909.0</ele><time>2026-04-05T09:40:19.196Z</time></trkpt><trkpt lat="37.8550817" lon="14.97475"><ele>909.0</ele><time>2026-04-05T09:40:20.195Z</time></trkpt><trkpt lat="37.8551117" lon="14.9746633"><ele>909.0</ele><time>2026-04-05T09:40:21.195Z</time></trkpt><trkpt lat="37.8551383" lon="14.9745767"><ele>907.8571428571429</ele><time>2026-04-05T09:40:22.194Z</time></trkpt><trkpt lat="37.8551667" lon="14.9744917"><ele>906.7142857142858</ele><time>2026-04-05T09:40:23.195Z</time></trkpt><trkpt lat="37.8551883" lon="14.9744017"><ele>905.5714285714287</ele><time>2026-04-05T09:40:24.194Z</time></trkpt><trkpt lat="37.8552083" lon="14.974315"><ele>904.4285714285714</ele><time>2026-04-05T09:40:25.194Z</time></trkpt><trkpt lat="37.8552217" lon="14.9742267"><ele>903.2857142857144</ele><time>2026-04-05T09:40:26.201Z</time></trkpt><trkpt lat="37.8552333" lon="14.974135"><ele>902.1428571428572</ele><time>2026-04-05T09:40:27.195Z</time></trkpt><trkpt lat="37.8552433" lon="14.97404"><ele>901.0</ele><time>2026-04-05T09:40:28.197Z</time></trkpt><trkpt lat="37.8552467" lon="14.9739433"><ele>900.4999999999999</ele><time>2026-04-05T09:40:29.193Z</time></trkpt><trkpt lat="37.8552483" lon="14.9738467"><ele>900.0</ele><time>2026-04-05T09:40:30.192Z</time></trkpt><trkpt lat="37.8552467" lon="14.9737483"><ele>899.5</ele><time>2026-04-05T09:40:31.192Z</time></trkpt><trkpt lat="37.855245" lon="14.97365"><ele>899.0</ele><time>2026-04-05T09:40:32.192Z</time></trkpt><trkpt lat="37.85524" lon="14.9735533"><ele>898.4999999999999</ele><time>2026-04-05T09:40:33.194Z</time></trkpt><trkpt lat="37.8552367" lon="14.9734583"><ele>898.0</ele><time>2026-04-05T09:40:34.193Z</time></trkpt><trkpt lat="37.8552333" lon="14.9733567"><ele>897.8333333333333</ele><time>2026-04-05T09:40:35.193Z</time></trkpt><trkpt lat="37.85523" lon="14.973255"><ele>897.6666666666666</ele><time>2026-04-05T09:40:36.194Z</time></trkpt><trkpt lat="37.855225" lon="14.9731533"><ele>897.5</ele><time>2026-04-05T09:40:37.192Z</time></trkpt><trkpt lat="37.85522" lon="14.973055"><ele>897.3333333333333</ele><time>2026-04-05T09:40:38.194Z</time></trkpt><trkpt lat="37.8552183" lon="14.9729567"><ele>897.1666666666666</ele><time>2026-04-05T09:40:39.195Z</time></trkpt><trkpt lat="37.8552167" lon="14.9728583"><ele>897.0</ele><time>2026-04-05T09:40:40.192Z</time></trkpt><trkpt lat="37.855215" lon="14.97276"><ele>897.0</ele><time>2026-04-05T09:40:41.195Z</time></trkpt><trkpt lat="37.8552117" lon="14.9726617"><ele>897.0</ele><time>2026-04-05T09:40:42.196Z</time></trkpt><trkpt lat="37.8552083" lon="14.9725633"><ele>897.0</ele><time>2026-04-05T09:40:43.195Z</time></trkpt><trkpt lat="37.8552067" lon="14.9724667"><ele>897.0</ele><time>2026-04-05T09:40:44.193Z</time></trkpt><trkpt lat="37.8552083" lon="14.9723733"><ele>897.0</ele><time>2026-04-05T09:40:45.193Z</time></trkpt><trkpt lat="37.85521" lon="14.97228"><ele>897.0</ele><time>2026-04-05T09:40:46.196Z</time></trkpt><trkpt lat="37.8552117" lon="14.9721883"><ele>897.5</ele><time>2026-04-05T09:40:47.193Z</time></trkpt><trkpt lat="37.855215" lon="14.9720983"><ele>898.0</ele><time>2026-04-05T09:40:48.194Z</time></trkpt><trkpt lat="37.8552217" lon="14.9720117"><ele>898.5</ele><time>2026-04-05T09:40:49.192Z</time></trkpt><trkpt lat="37.8552333" lon="14.9719283"><ele>899.0</ele><time>2026-04-05T09:40:50.194Z</time></trkpt><trkpt lat="37.8552483" lon="14.9718483"><ele>899.5</ele><time>2026-04-05T09:40:51.193Z</time></trkpt><trkpt lat="37.855285" lon="14.9717"><ele>900.0</ele><time>2026-04-05T09:40:53.193Z</time></trkpt><trkpt lat="37.8553333" lon="14.97156"><ele>900.0</ele><time>2026-04-05T09:40:55.193Z</time></trkpt><trkpt lat="37.855395" lon="14.9714317"><ele>900.0</ele><time>2026-04-05T09:40:57.193Z</time></trkpt><trkpt lat="37.8554633" lon="14.9713067"><ele>900.0</ele><time>2026-04-05T09:40:59.193Z</time></trkpt><trkpt lat="37.8555333" lon="14.9711817"><ele>900.0</ele><time>2026-04-05T09:41:01.192Z</time></trkpt><trkpt lat="37.8555717" lon="14.9711167"><ele>900.0</ele><time>2026-04-05T09:41:02.193Z</time></trkpt><trkpt lat="37.85561" lon="14.9710483"><ele>900.0000000000001</ele><time>2026-04-05T09:41:03.193Z</time></trkpt><trkpt lat="37.8556483" lon="14.9709833"><ele>900.0</ele><time>2026-04-05T09:41:04.197Z</time></trkpt><trkpt lat="37.8556867" lon="14.9709133"><ele>900.0000000000001</ele><time>2026-04-05T09:41:05.195Z</time></trkpt><trkpt lat="37.8557267" lon="14.9708467"><ele>900.0000000000001</ele><time>2026-04-05T09:41:06.196Z</time></trkpt><trkpt lat="37.855765" lon="14.9707783"><ele>900.0</ele><time>2026-04-05T09:41:07.193Z</time></trkpt><trkpt lat="37.8558033" lon="14.9707067"><ele>900.0000000000001</ele><time>2026-04-05T09:41:08.194Z</time></trkpt><trkpt lat="37.8558383" lon="14.9706333"><ele>900.0000000000001</ele><time>2026-04-05T09:41:09.192Z</time></trkpt><trkpt lat="37.8558717" lon="14.9705567"><ele>900.857142857143</ele><time>2026-04-05T09:41:10.195Z</time></trkpt><trkpt lat="37.8559" lon="14.9704767"><ele>901.7142857142858</ele><time>2026-04-05T09:41:11.195Z</time></trkpt><trkpt lat="37.85592" lon="14.9703933"><ele>902.5714285714286</ele><time>2026-04-05T09:41:12.193Z</time></trkpt><trkpt lat="37.855935" lon="14.9703083"><ele>903.4285714285714</ele><time>2026-04-05T09:41:13.193Z</time></trkpt><trkpt lat="37.8559417" lon="14.97022"><ele>904.2857142857142</ele><time>2026-04-05T09:41:14.195Z</time></trkpt><trkpt lat="37.855945" lon="14.9701283"><ele>905.142857142857</ele><time>2026-04-05T09:41:15.191Z</time></trkpt><trkpt lat="37.855945" lon="14.9700367"><ele>905.9999999999999</ele><time>2026-04-05T09:41:16.193Z</time></trkpt><trkpt lat="37.8559417" lon="14.96994"><ele>906.1666666666666</ele><time>2026-04-05T09:41:17.197Z</time></trkpt><trkpt lat="37.8559417" lon="14.9698417"><ele>906.3333333333333</ele><time>2026-04-05T09:41:18.195Z</time></trkpt><trkpt lat="37.8559417" lon="14.9697433"><ele>906.5</ele><time>2026-04-05T09:41:19.194Z</time></trkpt><trkpt lat="37.85594" lon="14.9696433"><ele>906.6666666666666</ele><time>2026-04-05T09:41:20.195Z</time></trkpt><trkpt lat="37.8559367" lon="14.9695433"><ele>906.8333333333333</ele><time>2026-04-05T09:41:21.194Z</time></trkpt><trkpt lat="37.8559317" lon="14.969445"><ele>907.0</ele><time>2026-04-05T09:41:22.196Z</time></trkpt><trkpt lat="37.8559283" lon="14.969345"><ele>907.0000000000001</ele><time>2026-04-05T09:41:23.196Z</time></trkpt><trkpt lat="37.8559267" lon="14.9692483"><ele>907.0</ele><time>2026-04-05T09:41:24.197Z</time></trkpt><trkpt lat="37.8559283" lon="14.9691517"><ele>907.0000000000001</ele><time>2026-04-05T09:41:25.197Z</time></trkpt><trkpt lat="37.8559267" lon="14.9690583"><ele>907.0000000000001</ele><time>2026-04-05T09:41:26.194Z</time></trkpt><trkpt lat="37.8559267" lon="14.96897"><ele>907.0</ele><time>2026-04-05T09:41:27.192Z</time></trkpt><trkpt lat="37.8559233" lon="14.9688833"><ele>907.0000000000001</ele><time>2026-04-05T09:41:28.193Z</time></trkpt><trkpt lat="37.8559217" lon="14.9688"><ele>907.0000000000001</ele><time>2026-04-05T09:41:29.195Z</time></trkpt><trkpt lat="37.85592" lon="14.9687167"><ele>907.2</ele><time>2026-04-05T09:41:30.194Z</time></trkpt><trkpt lat="37.8559167" lon="14.968635"><ele>907.4000000000001</ele><time>2026-04-05T09:41:31.193Z</time></trkpt><trkpt lat="37.8559133" lon="14.9684817"><ele>907.5999999999999</ele><time>2026-04-05T09:41:33.192Z</time></trkpt><trkpt lat="37.855915" lon="14.9683367"><ele>907.8</ele><time>2026-04-05T09:41:35.193Z</time></trkpt><trkpt lat="37.8559167" lon="14.9681867"><ele>908.0</ele><time>2026-04-05T09:41:37.193Z</time></trkpt><trkpt lat="37.8559183" lon="14.9680367"><ele>908.0</ele><time>2026-04-05T09:41:39.192Z</time></trkpt><trkpt lat="37.8559167" lon="14.9678883"><ele>908.0</ele><time>2026-04-05T09:41:41.193Z</time></trkpt><trkpt lat="37.85592" lon="14.96774"><ele>908.0</ele><time>2026-04-05T09:41:43.192Z</time></trkpt><trkpt lat="37.8559217" lon="14.9675967"><ele>908.0</ele><time>2026-04-05T09:41:45.195Z</time></trkpt><trkpt lat="37.855925" lon="14.967455"><ele>908.8</ele><time>2026-04-05T09:41:47.197Z</time></trkpt><trkpt lat="37.8559283" lon="14.9673133"><ele>909.5999999999999</ele><time>2026-04-05T09:41:49.195Z</time></trkpt><trkpt lat="37.8559317" lon="14.967175"><ele>910.4000000000001</ele><time>2026-04-05T09:41:51.193Z</time></trkpt><trkpt lat="37.85594" lon="14.9670333"><ele>911.2</ele><time>2026-04-05T09:41:53.195Z</time></trkpt><trkpt lat="37.855945" lon="14.96689"><ele>912.0</ele><time>2026-04-05T09:41:55.193Z</time></trkpt><trkpt lat="37.85595" lon="14.9667417"><ele>911.5</ele><time>2026-04-05T09:41:57.195Z</time></trkpt><trkpt lat="37.8559533" lon="14.9665967"><ele>911.0</ele><time>2026-04-05T09:41:59.192Z</time></trkpt><trkpt lat="37.8559583" lon="14.96645"><ele>910.5</ele><time>2026-04-05T09:42:01.192Z</time></trkpt><trkpt lat="37.8559633" lon="14.9663"><ele>910.0</ele><time>2026-04-05T09:42:03.195Z</time></trkpt><trkpt lat="37.8559667" lon="14.96614"><ele>908.7142857142858</ele><time>2026-04-05T09:42:05.194Z</time></trkpt><trkpt lat="37.85597" lon="14.9660567"><ele>907.4285714285714</ele><time>2026-04-05T09:42:06.192Z</time></trkpt><trkpt lat="37.8559733" lon="14.9659717"><ele>906.1428571428571</ele><time>2026-04-05T09:42:07.194Z</time></trkpt><trkpt lat="37.8559733" lon="14.9658867"><ele>904.8571428571429</ele><time>2026-04-05T09:42:08.194Z</time></trkpt><trkpt lat="37.8559767" lon="14.9658017"><ele>903.5714285714287</ele><time>2026-04-05T09:42:09.192Z</time></trkpt><trkpt lat="37.85598" lon="14.965715"><ele>902.2857142857143</ele><time>2026-04-05T09:42:10.192Z</time></trkpt><trkpt lat="37.8559833" lon="14.9656283"><ele>901.0</ele><time>2026-04-05T09:42:11.196Z</time></trkpt><trkpt lat="37.8559883" lon="14.9655417"><ele>900.7142857142858</ele><time>2026-04-05T09:42:12.193Z</time></trkpt><trkpt lat="37.8559917" lon="14.9654533"><ele>900.4285714285716</ele><time>2026-04-05T09:42:13.192Z</time></trkpt><trkpt lat="37.8559933" lon="14.9653617"><ele>900.1428571428571</ele><time>2026-04-05T09:42:14.192Z</time></trkpt><trkpt lat="37.8559867" lon="14.9652683"><ele>899.8571428571429</ele><time>2026-04-05T09:42:15.192Z</time></trkpt><trkpt lat="37.855975" lon="14.9651767"><ele>899.5714285714286</ele><time>2026-04-05T09:42:16.193Z</time></trkpt><trkpt lat="37.855955" lon="14.9650867"><ele>899.2857142857142</ele><time>2026-04-05T09:42:17.193Z</time></trkpt><trkpt lat="37.8559283" lon="14.965"><ele>898.9999999999999</ele><time>2026-04-05T09:42:18.191Z</time></trkpt><trkpt lat="37.855895" lon="14.9649133"><ele>899.9999999999999</ele><time>2026-04-05T09:42:19.194Z</time></trkpt><trkpt lat="37.8558583" lon="14.9648283"><ele>901.0</ele><time>2026-04-05T09:42:20.193Z</time></trkpt><trkpt lat="37.8558217" lon="14.964745"><ele>901.9999999999999</ele><time>2026-04-05T09:42:21.193Z</time></trkpt><trkpt lat="37.855785" lon="14.9646617"><ele>902.9999999999999</ele><time>2026-04-05T09:42:22.195Z</time></trkpt><trkpt lat="37.85575" lon="14.9645783"><ele>904.0</ele><time>2026-04-05T09:42:23.194Z</time></trkpt><trkpt lat="37.855715" lon="14.9644967"><ele>904.9999999999999</ele><time>2026-04-05T09:42:24.192Z</time></trkpt><trkpt lat="37.85568" lon="14.9644167"><ele>905.9999999999999</ele><time>2026-04-05T09:42:25.193Z</time></trkpt><trkpt lat="37.8556467" lon="14.9643383"><ele>905.9999999999999</ele><time>2026-04-05T09:42:26.193Z</time></trkpt><trkpt lat="37.8556117" lon="14.96426"><ele>906.0</ele><time>2026-04-05T09:42:27.192Z</time></trkpt><trkpt lat="37.85558" lon="14.9641817"><ele>905.9999999999999</ele><time>2026-04-05T09:42:28.192Z</time></trkpt><trkpt lat="37.85555" lon="14.9641017"><ele>905.9999999999999</ele><time>2026-04-05T09:42:29.193Z</time></trkpt><trkpt lat="37.8555217" lon="14.9640233"><ele>906.0</ele><time>2026-04-05T09:42:30.192Z</time></trkpt><trkpt lat="37.8554917" lon="14.9639483"><ele>905.9999999999999</ele><time>2026-04-05T09:42:31.194Z</time></trkpt><trkpt lat="37.8554567" lon="14.963875"><ele>905.9999999999999</ele><time>2026-04-05T09:42:32.194Z</time></trkpt><trkpt lat="37.855395" lon="14.9637333"><ele>905.4285714285713</ele><time>2026-04-05T09:42:34.194Z</time></trkpt><trkpt lat="37.8553633" lon="14.96366"><ele>904.8571428571429</ele><time>2026-04-05T09:42:35.192Z</time></trkpt><trkpt lat="37.8553283" lon="14.9635883"><ele>904.2857142857142</ele><time>2026-04-05T09:42:36.192Z</time></trkpt><trkpt lat="37.8552983" lon="14.963515"><ele>903.7142857142857</ele><time>2026-04-05T09:42:37.193Z</time></trkpt><trkpt lat="37.8552717" lon="14.9634383"><ele>903.1428571428571</ele><time>2026-04-05T09:42:38.192Z</time></trkpt><trkpt lat="37.8552517" lon="14.9633583"><ele>902.5714285714286</ele><time>2026-04-05T09:42:39.193Z</time></trkpt><trkpt lat="37.85524" lon="14.9632783"><ele>902.0</ele><time>2026-04-05T09:42:40.209Z</time></trkpt><trkpt lat="37.8552317" lon="14.9631983"><ele>901.4285714285713</ele><time>2026-04-05T09:42:41.193Z</time></trkpt><trkpt lat="37.8552267" lon="14.9631167"><ele>900.8571428571429</ele><time>2026-04-05T09:42:42.193Z</time></trkpt><trkpt lat="37.8552283" lon="14.963035"><ele>900.2857142857142</ele><time>2026-04-05T09:42:43.193Z</time></trkpt><trkpt lat="37.855235" lon="14.962955"><ele>899.7142857142857</ele><time>2026-04-05T09:42:44.193Z</time></trkpt><trkpt lat="37.8552433" lon="14.9628733"><ele>899.1428571428571</ele><time>2026-04-05T09:42:45.201Z</time></trkpt><trkpt lat="37.8552583" lon="14.9627933"><ele>898.5714285714286</ele><time>2026-04-05T09:42:46.192Z</time></trkpt><trkpt lat="37.8552767" lon="14.9627117"><ele>898.0</ele><time>2026-04-05T09:42:47.194Z</time></trkpt><trkpt lat="37.8552967" lon="14.9626333"><ele>898.0</ele><time>2026-04-05T09:42:48.193Z</time></trkpt><trkpt lat="37.8553183" lon="14.9625567"><ele>898.0</ele><time>2026-04-05T09:42:49.194Z</time></trkpt><trkpt lat="37.855355" lon="14.9624067"><ele>898.0</ele><time>2026-04-05T09:42:51.192Z</time></trkpt><trkpt lat="37.8553883" lon="14.9622583"><ele>898.0</ele><time>2026-04-05T09:42:53.194Z</time></trkpt><trkpt lat="37.8554217" lon="14.9621183"><ele>898.0</ele><time>2026-04-05T09:42:55.192Z</time></trkpt><trkpt lat="37.85545" lon="14.96198"><ele>898.4</ele><time>2026-04-05T09:42:57.192Z</time></trkpt><trkpt lat="37.85547" lon="14.961835"><ele>898.8</ele><time>2026-04-05T09:42:59.193Z</time></trkpt><trkpt lat="37.8554783" lon="14.9616883"><ele>899.2</ele><time>2026-04-05T09:43:01.193Z</time></trkpt><trkpt lat="37.85548" lon="14.9615283"><ele>899.6</ele><time>2026-04-05T09:43:03.192Z</time></trkpt><trkpt lat="37.8554783" lon="14.9614483"><ele>900.0</ele><time>2026-04-05T09:43:04.194Z</time></trkpt><trkpt lat="37.8554767" lon="14.961365"><ele>900.0000000000001</ele><time>2026-04-05T09:43:05.192Z</time></trkpt><trkpt lat="37.855475" lon="14.9612783"><ele>900.0</ele><time>2026-04-05T09:43:06.193Z</time></trkpt><trkpt lat="37.8554733" lon="14.96119"><ele>900.0000000000001</ele><time>2026-04-05T09:43:07.191Z</time></trkpt><trkpt lat="37.85547" lon="14.9611017"><ele>900.0000000000001</ele><time>2026-04-05T09:43:08.194Z</time></trkpt><trkpt lat="37.8554683" lon="14.96101"><ele>900.0</ele><time>2026-04-05T09:43:09.193Z</time></trkpt><trkpt lat="37.8554683" lon="14.9609183"><ele>900.0000000000001</ele><time>2026-04-05T09:43:10.192Z</time></trkpt><trkpt lat="37.8554683" lon="14.9608267"><ele>900.0000000000001</ele><time>2026-04-05T09:43:11.192Z</time></trkpt><trkpt lat="37.8554667" lon="14.9607317"><ele>900.3333333333334</ele><time>2026-04-05T09:43:12.193Z</time></trkpt><trkpt lat="37.8554633" lon="14.960635"><ele>900.6666666666667</ele><time>2026-04-05T09:43:13.192Z</time></trkpt><trkpt lat="37.8554617" lon="14.9605367"><ele>901.0</ele><time>2026-04-05T09:43:14.193Z</time></trkpt><trkpt lat="37.85546" lon="14.9604367"><ele>901.3333333333334</ele><time>2026-04-05T09:43:15.193Z</time></trkpt><trkpt lat="37.8554617" lon="14.960335"><ele>901.6666666666667</ele><time>2026-04-05T09:43:16.192Z</time></trkpt><trkpt lat="37.8554617" lon="14.9602333"><ele>902.0</ele><time>2026-04-05T09:43:17.192Z</time></trkpt><trkpt lat="37.8554617" lon="14.96013"><ele>901.6666666666667</ele><time>2026-04-05T09:43:18.193Z</time></trkpt><trkpt lat="37.8554583" lon="14.9600233"><ele>901.3333333333334</ele><time>2026-04-05T09:43:19.194Z</time></trkpt><trkpt lat="37.855455" lon="14.9599167"><ele>901.0</ele><time>2026-04-05T09:43:20.193Z</time></trkpt><trkpt lat="37.8554467" lon="14.9598117"><ele>900.6666666666667</ele><time>2026-04-05T09:43:21.194Z</time></trkpt><trkpt lat="37.8554333" lon="14.959705"><ele>900.3333333333334</ele><time>2026-04-05T09:43:22.192Z</time></trkpt><trkpt lat="37.855415" lon="14.9596"><ele>900.0</ele><time>2026-04-05T09:43:23.194Z</time></trkpt><trkpt lat="37.855395" lon="14.959495"><ele>900.0</ele><time>2026-04-05T09:43:24.193Z</time></trkpt><trkpt lat="37.855375" lon="14.959385"><ele>900.0</ele><time>2026-04-05T09:43:25.193Z</time></trkpt><trkpt lat="37.855355" lon="14.959275"><ele>900.0</ele><time>2026-04-05T09:43:26.195Z</time></trkpt><trkpt lat="37.8553333" lon="14.9591633"><ele>900.0</ele><time>2026-04-05T09:43:27.193Z</time></trkpt><trkpt lat="37.8553133" lon="14.95905"><ele>900.0</ele><time>2026-04-05T09:43:28.193Z</time></trkpt><trkpt lat="37.8552967" lon="14.9589333"><ele>898.8</ele><time>2026-04-05T09:43:29.198Z</time></trkpt><trkpt lat="37.8552767" lon="14.958815"><ele>897.6</ele><time>2026-04-05T09:43:30.196Z</time></trkpt><trkpt lat="37.855255" lon="14.9586933"><ele>896.4000000000001</ele><time>2026-04-05T09:43:31.195Z</time></trkpt><trkpt lat="37.8552317" lon="14.9585733"><ele>895.2</ele><time>2026-04-05T09:43:32.192Z</time></trkpt><trkpt lat="37.8552067" lon="14.9584583"><ele>894.0</ele><time>2026-04-05T09:43:33.194Z</time></trkpt><trkpt lat="37.8551817" lon="14.9583483"><ele>893.3333333333334</ele><time>2026-04-05T09:43:34.193Z</time></trkpt><trkpt lat="37.8551583" lon="14.9582433"><ele>892.6666666666667</ele><time>2026-04-05T09:43:35.193Z</time></trkpt><trkpt lat="37.85514" lon="14.95814"><ele>892.0</ele><time>2026-04-05T09:43:36.193Z</time></trkpt><trkpt lat="37.855125" lon="14.95805"><ele>891.3333333333334</ele><time>2026-04-05T09:43:37.196Z</time></trkpt><trkpt lat="37.8551217" lon="14.9579583"><ele>890.6666666666667</ele><time>2026-04-05T09:43:38.194Z</time></trkpt><trkpt lat="37.8551417" lon="14.9578617"><ele>890.0</ele><time>2026-04-05T09:43:39.193Z</time></trkpt><trkpt lat="37.85519" lon="14.957785"><ele>890.0</ele><time>2026-04-05T09:43:40.195Z</time></trkpt><trkpt lat="37.8552767" lon="14.9577733"><ele>890.0</ele><time>2026-04-05T09:43:41.196Z</time></trkpt><trkpt lat="37.8553683" lon="14.9577817"><ele>890.0</ele><time>2026-04-05T09:43:42.192Z</time></trkpt><trkpt lat="37.8554633" lon="14.9578067"><ele>890.0</ele><time>2026-04-05T09:43:43.197Z</time></trkpt><trkpt lat="37.85556" lon="14.9578333"><ele>890.0</ele><time>2026-04-05T09:43:44.193Z</time></trkpt><trkpt lat="37.8556583" lon="14.9578583"><ele>890.0</ele><time>2026-04-05T09:43:45.193Z</time></trkpt><trkpt lat="37.8557617" lon="14.9578833"><ele>890.0</ele><time>2026-04-05T09:43:46.197Z</time></trkpt><trkpt lat="37.8558667" lon="14.9579017"><ele>890.0</ele><time>2026-04-05T09:43:47.193Z</time></trkpt><trkpt lat="37.8559717" lon="14.957905"><ele>890.0</ele><time>2026-04-05T09:43:48.195Z</time></trkpt><trkpt lat="37.8560817" lon="14.9578867"><ele>890.0</ele><time>2026-04-05T09:43:49.194Z</time></trkpt><trkpt lat="37.8561883" lon="14.9578467"><ele>889.0</ele><time>2026-04-05T09:43:50.193Z</time></trkpt><trkpt lat="37.856295" lon="14.9577917"><ele>888.0</ele><time>2026-04-05T09:43:51.191Z</time></trkpt><trkpt lat="37.8564067" lon="14.9577267"><ele>887.0</ele><time>2026-04-05T09:43:52.192Z</time></trkpt><trkpt lat="37.85652" lon="14.9576617"><ele>886.0</ele><time>2026-04-05T09:43:53.194Z</time></trkpt><trkpt lat="37.8566367" lon="14.957595"><ele>885.25</ele><time>2026-04-05T09:43:54.195Z</time></trkpt><trkpt lat="37.8567583" lon="14.9575317"><ele>884.5</ele><time>2026-04-05T09:43:55.196Z</time></trkpt><trkpt lat="37.856885" lon="14.957465"><ele>883.75</ele><time>2026-04-05T09:43:56.193Z</time></trkpt><trkpt lat="37.8570117" lon="14.957395"><ele>883.0</ele><time>2026-04-05T09:43:57.194Z</time></trkpt><trkpt lat="37.85714" lon="14.9573267"><ele>880.25</ele><time>2026-04-05T09:43:58.194Z</time></trkpt><trkpt lat="37.85727" lon="14.95726"><ele>877.5</ele><time>2026-04-05T09:43:59.194Z</time></trkpt><trkpt lat="37.8574" lon="14.9571917"><ele>874.75</ele><time>2026-04-05T09:44:00.194Z</time></trkpt><trkpt lat="37.8575317" lon="14.9571233"><ele>872.0</ele><time>2026-04-05T09:44:01.193Z</time></trkpt><trkpt lat="37.8576633" lon="14.957055"><ele>870.75</ele><time>2026-04-05T09:44:02.193Z</time></trkpt><trkpt lat="37.857795" lon="14.956985"><ele>869.5</ele><time>2026-04-05T09:44:03.193Z</time></trkpt><trkpt lat="37.8579267" lon="14.95692"><ele>868.25</ele><time>2026-04-05T09:44:04.191Z</time></trkpt><trkpt lat="37.858065" lon="14.9568667"><ele>867.0</ele><time>2026-04-05T09:44:05.195Z</time></trkpt><trkpt lat="37.8582017" lon="14.9568267"><ele>867.0</ele><time>2026-04-05T09:44:06.193Z</time></trkpt><trkpt lat="37.8583417" lon="14.9568"><ele>867.0</ele><time>2026-04-05T09:44:07.193Z</time></trkpt><trkpt lat="37.8584817" lon="14.9567833"><ele>867.0</ele><time>2026-04-05T09:44:08.192Z</time></trkpt><trkpt lat="37.8586183" lon="14.9567717"><ele>867.0</ele><time>2026-04-05T09:44:09.192Z</time></trkpt><trkpt lat="37.858755" lon="14.9567583"><ele>866.0</ele><time>2026-04-05T09:44:10.192Z</time></trkpt><trkpt lat="37.8588917" lon="14.956745"><ele>865.0</ele><time>2026-04-05T09:44:11.194Z</time></trkpt><trkpt lat="37.8590283" lon="14.9567283"><ele>864.0</ele><time>2026-04-05T09:44:12.192Z</time></trkpt><trkpt lat="37.8591667" lon="14.95671"><ele>863.0</ele><time>2026-04-05T09:44:13.192Z</time></trkpt><trkpt lat="37.8593033" lon="14.956685"><ele>861.5</ele><time>2026-04-05T09:44:14.196Z</time></trkpt><trkpt lat="37.8594383" lon="14.9566467"><ele>860.0</ele><time>2026-04-05T09:44:15.192Z</time></trkpt><trkpt lat="37.8595683" lon="14.9565833"><ele>858.5</ele><time>2026-04-05T09:44:16.194Z</time></trkpt><trkpt lat="37.8596817" lon="14.956485"><ele>857.0</ele><time>2026-04-05T09:44:17.191Z</time></trkpt><trkpt lat="37.8597767" lon="14.9563583"><ele>857.0</ele><time>2026-04-05T09:44:18.194Z</time></trkpt><trkpt lat="37.8598517" lon="14.956215"><ele>857.0</ele><time>2026-04-05T09:44:19.192Z</time></trkpt><trkpt lat="37.8599183" lon="14.956065"><ele>857.0</ele><time>2026-04-05T09:44:20.193Z</time></trkpt><trkpt lat="37.8599883" lon="14.9559183"><ele>857.0</ele><time>2026-04-05T09:44:21.193Z</time></trkpt><trkpt lat="37.8600617" lon="14.9557783"><ele>856.25</ele><time>2026-04-05T09:44:22.192Z</time></trkpt><trkpt lat="37.86015" lon="14.9556533"><ele>855.5</ele><time>2026-04-05T09:44:23.194Z</time></trkpt><trkpt lat="37.8602533" lon="14.9555467"><ele>854.75</ele><time>2026-04-05T09:44:24.192Z</time></trkpt><trkpt lat="37.860365" lon="14.955455"><ele>854.0</ele><time>2026-04-05T09:44:25.194Z</time></trkpt><trkpt lat="37.86048" lon="14.9553783"><ele>854.0</ele><time>2026-04-05T09:44:26.192Z</time></trkpt><trkpt lat="37.860595" lon="14.955305"><ele>854.0</ele><time>2026-04-05T09:44:27.191Z</time></trkpt><trkpt lat="37.8607067" lon="14.9552267"><ele>854.0</ele><time>2026-04-05T09:44:28.191Z</time></trkpt><trkpt lat="37.8608217" lon="14.9551583"><ele>854.0</ele><time>2026-04-05T09:44:29.195Z</time></trkpt><trkpt lat="37.8609383" lon="14.95509"><ele>851.5</ele><time>2026-04-05T09:44:30.193Z</time></trkpt><trkpt lat="37.8610483" lon="14.9550167"><ele>849.0</ele><time>2026-04-05T09:44:31.192Z</time></trkpt><trkpt lat="37.8611583" lon="14.95494"><ele>846.5</ele><time>2026-04-05T09:44:32.193Z</time></trkpt><trkpt lat="37.8612633" lon="14.9548567"><ele>844.0</ele><time>2026-04-05T09:44:33.194Z</time></trkpt><trkpt lat="37.86136" lon="14.95476"><ele>844.0</ele><time>2026-04-05T09:44:34.193Z</time></trkpt><trkpt lat="37.8614467" lon="14.9546483"><ele>844.0</ele><time>2026-04-05T09:44:35.193Z</time></trkpt><trkpt lat="37.8615317" lon="14.9545383"><ele>844.0</ele><time>2026-04-05T09:44:36.192Z</time></trkpt><trkpt lat="37.8616133" lon="14.9544267"><ele>844.0</ele><time>2026-04-05T09:44:37.195Z</time></trkpt><trkpt lat="37.861695" lon="14.9543167"><ele>844.0</ele><time>2026-04-05T09:44:38.193Z</time></trkpt><trkpt lat="37.861775" lon="14.9542067"><ele>844.0</ele><time>2026-04-05T09:44:39.191Z</time></trkpt><trkpt lat="37.861855" lon="14.9540967"><ele>844.0</ele><time>2026-04-05T09:44:40.193Z</time></trkpt><trkpt lat="37.8619367" lon="14.95399"><ele>844.0</ele><time>2026-04-05T09:44:41.191Z</time></trkpt><trkpt lat="37.862025" lon="14.9538883"><ele>843.0</ele><time>2026-04-05T09:44:42.191Z</time></trkpt><trkpt lat="37.86212" lon="14.9538017"><ele>842.0</ele><time>2026-04-05T09:44:43.192Z</time></trkpt><trkpt lat="37.8622217" lon="14.9537333"><ele>841.0</ele><time>2026-04-05T09:44:44.194Z</time></trkpt><trkpt lat="37.8623317" lon="14.9536833"><ele>840.0</ele><time>2026-04-05T09:44:45.193Z</time></trkpt><trkpt lat="37.8624417" lon="14.9536483"><ele>840.0</ele><time>2026-04-05T09:44:46.193Z</time></trkpt><trkpt lat="37.86255" lon="14.9536217"><ele>840.0</ele><time>2026-04-05T09:44:47.191Z</time></trkpt><trkpt lat="37.86266" lon="14.9535917"><ele>840.0</ele><time>2026-04-05T09:44:48.192Z</time></trkpt><trkpt lat="37.8627717" lon="14.9535683"><ele>840.0</ele><time>2026-04-05T09:44:49.192Z</time></trkpt><trkpt lat="37.8628833" lon="14.9535467"><ele>840.0</ele><time>2026-04-05T09:44:50.197Z</time></trkpt><trkpt lat="37.862995" lon="14.9535217"><ele>838.5</ele><time>2026-04-05T09:44:51.194Z</time></trkpt><trkpt lat="37.863105" lon="14.953495"><ele>837.0</ele><time>2026-04-05T09:44:52.195Z</time></trkpt><trkpt lat="37.8632167" lon="14.9534683"><ele>835.5</ele><time>2026-04-05T09:44:53.193Z</time></trkpt><trkpt lat="37.8633283" lon="14.9534467"><ele>834.0</ele><time>2026-04-05T09:44:54.192Z</time></trkpt><trkpt lat="37.86344" lon="14.953425"><ele>833.2</ele><time>2026-04-05T09:44:55.193Z</time></trkpt><trkpt lat="37.86355" lon="14.9534067"><ele>832.4000000000001</ele><time>2026-04-05T09:44:56.193Z</time></trkpt><trkpt lat="37.8636567" lon="14.95339"><ele>831.6</ele><time>2026-04-05T09:44:57.194Z</time></trkpt><trkpt lat="37.8637617" lon="14.953375"><ele>830.8</ele><time>2026-04-05T09:44:58.195Z</time></trkpt><trkpt lat="37.8638633" lon="14.9533617"><ele>830.0</ele><time>2026-04-05T09:44:59.193Z</time></trkpt><trkpt lat="37.863965" lon="14.9533483"><ele>830.0</ele><time>2026-04-05T09:45:00.193Z</time></trkpt><trkpt lat="37.8640617" lon="14.9533367"><ele>830.0</ele><time>2026-04-05T09:45:01.192Z</time></trkpt><trkpt lat="37.8641567" lon="14.9533283"><ele>830.0</ele><time>2026-04-05T09:45:02.193Z</time></trkpt><trkpt lat="37.86425" lon="14.9533183"><ele>830.0</ele><time>2026-04-05T09:45:03.193Z</time></trkpt><trkpt lat="37.86434" lon="14.9533083"><ele>830.0</ele><time>2026-04-05T09:45:04.192Z</time></trkpt><trkpt lat="37.8644283" lon="14.9532967"><ele>830.0000000000001</ele><time>2026-04-05T09:45:05.195Z</time></trkpt><trkpt lat="37.8645167" lon="14.9532883"><ele>830.0</ele><time>2026-04-05T09:45:06.193Z</time></trkpt><trkpt lat="37.8646017" lon="14.95328"><ele>830.0</ele><time>2026-04-05T09:45:07.194Z</time></trkpt><trkpt lat="37.8646867" lon="14.95327"><ele>830.0</ele><time>2026-04-05T09:45:08.194Z</time></trkpt><trkpt lat="37.86477" lon="14.9532633"><ele>830.0000000000001</ele><time>2026-04-05T09:45:09.192Z</time></trkpt><trkpt lat="37.8648533" lon="14.953255"><ele>830.0</ele><time>2026-04-05T09:45:10.194Z</time></trkpt><trkpt lat="37.8649333" lon="14.953245"><ele>830.0000000000001</ele><time>2026-04-05T09:45:11.193Z</time></trkpt><trkpt lat="37.8650133" lon="14.9532367"><ele>830.0</ele><time>2026-04-05T09:45:12.192Z</time></trkpt><trkpt lat="37.8650917" lon="14.9532283"><ele>830.0</ele><time>2026-04-05T09:45:13.193Z</time></trkpt><trkpt lat="37.86517" lon="14.95322"><ele>830.0</ele><time>2026-04-05T09:45:14.194Z</time></trkpt><trkpt lat="37.8652467" lon="14.9532133"><ele>830.0000000000001</ele><time>2026-04-05T09:45:15.192Z</time></trkpt><trkpt lat="37.8653267" lon="14.9532083"><ele>830.0</ele><time>2026-04-05T09:45:16.193Z</time></trkpt><trkpt lat="37.865405" lon="14.9532033"><ele>829.3333333333334</ele><time>2026-04-05T09:45:17.191Z</time></trkpt><trkpt lat="37.8654817" lon="14.9531967"><ele>828.6666666666667</ele><time>2026-04-05T09:45:18.194Z</time></trkpt><trkpt lat="37.8655617" lon="14.9531883"><ele>828.0</ele><time>2026-04-05T09:45:19.193Z</time></trkpt><trkpt lat="37.8656433" lon="14.953175"><ele>827.3333333333333</ele><time>2026-04-05T09:45:20.192Z</time></trkpt><trkpt lat="37.8657233" lon="14.953165"><ele>826.6666666666666</ele><time>2026-04-05T09:45:21.192Z</time></trkpt><trkpt lat="37.865805" lon="14.9531583"><ele>826.0</ele><time>2026-04-05T09:45:22.192Z</time></trkpt><trkpt lat="37.8658883" lon="14.9531517"><ele>825.1666666666666</ele><time>2026-04-05T09:45:23.193Z</time></trkpt><trkpt lat="37.86597" lon="14.953145"><ele>824.3333333333333</ele><time>2026-04-05T09:45:24.192Z</time></trkpt><trkpt lat="37.8660533" lon="14.9531367"><ele>823.5</ele><time>2026-04-05T09:45:25.193Z</time></trkpt><trkpt lat="37.8661383" lon="14.9531283"><ele>822.6666666666667</ele><time>2026-04-05T09:45:26.192Z</time></trkpt><trkpt lat="37.8662217" lon="14.9531183"><ele>821.8333333333334</ele><time>2026-04-05T09:45:27.192Z</time></trkpt><trkpt lat="37.8663067" lon="14.9531083"><ele>821.0</ele><time>2026-04-05T09:45:28.2Z</time></trkpt><trkpt lat="37.86639" lon="14.9530983"><ele>821.0000000000001</ele><time>2026-04-05T09:45:29.192Z</time></trkpt><trkpt lat="37.866475" lon="14.95309"><ele>821.0</ele><time>2026-04-05T09:45:30.193Z</time></trkpt><trkpt lat="37.8665617" lon="14.9530783"><ele>821.0</ele><time>2026-04-05T09:45:31.194Z</time></trkpt><trkpt lat="37.8666467" lon="14.9530683"><ele>821.0</ele><time>2026-04-05T09:45:32.195Z</time></trkpt><trkpt lat="37.8667333" lon="14.9530617"><ele>821.0000000000001</ele><time>2026-04-05T09:45:33.193Z</time></trkpt><trkpt lat="37.86682" lon="14.9530583"><ele>821.0</ele><time>2026-04-05T09:45:34.193Z</time></trkpt><trkpt lat="37.8669083" lon="14.9530533"><ele>820.5000000000001</ele><time>2026-04-05T09:45:35.193Z</time></trkpt><trkpt lat="37.8669967" lon="14.9530467"><ele>820.0</ele><time>2026-04-05T09:45:36.192Z</time></trkpt><trkpt lat="37.867085" lon="14.95304"><ele>819.5</ele><time>2026-04-05T09:45:37.195Z</time></trkpt><trkpt lat="37.867175" lon="14.9530317"><ele>819.0</ele><time>2026-04-05T09:45:38.193Z</time></trkpt><trkpt lat="37.8672633" lon="14.9530233"><ele>818.5000000000001</ele><time>2026-04-05T09:45:39.194Z</time></trkpt><trkpt lat="37.867355" lon="14.953015"><ele>818.0</ele><time>2026-04-05T09:45:40.195Z</time></trkpt><trkpt lat="37.8674433" lon="14.953"><ele>818.0</ele><time>2026-04-05T09:45:41.196Z</time></trkpt><trkpt lat="37.86753" lon="14.9529683"><ele>818.0</ele><time>2026-04-05T09:45:42.193Z</time></trkpt><trkpt lat="37.8676117" lon="14.9529217"><ele>818.0</ele><time>2026-04-05T09:45:43.193Z</time></trkpt><trkpt lat="37.86769" lon="14.9528567"><ele>818.0</ele><time>2026-04-05T09:45:44.193Z</time></trkpt><trkpt lat="37.8677617" lon="14.9527767"><ele>818.0</ele><time>2026-04-05T09:45:45.192Z</time></trkpt><trkpt lat="37.8678217" lon="14.9526817"><ele>816.2</ele><time>2026-04-05T09:45:46.192Z</time></trkpt><trkpt lat="37.867875" lon="14.9525783"><ele>814.4</ele><time>2026-04-05T09:45:47.193Z</time></trkpt><trkpt lat="37.8679183" lon="14.95246"><ele>812.6</ele><time>2026-04-05T09:45:48.192Z</time></trkpt><trkpt lat="37.8679533" lon="14.95234"><ele>810.8000000000001</ele><time>2026-04-05T09:45:49.193Z</time></trkpt><trkpt lat="37.86799" lon="14.9522183"><ele>809.0</ele><time>2026-04-05T09:45:50.193Z</time></trkpt><trkpt lat="37.8680283" lon="14.9520967"><ele>809.0</ele><time>2026-04-05T09:45:51.197Z</time></trkpt><trkpt lat="37.868065" lon="14.9519717"><ele>809.0</ele><time>2026-04-05T09:45:52.194Z</time></trkpt><trkpt lat="37.8681033" lon="14.951845"><ele>809.0</ele><time>2026-04-05T09:45:53.194Z</time></trkpt><trkpt lat="37.868145" lon="14.95172"><ele>809.0</ele><time>2026-04-05T09:45:54.193Z</time></trkpt><trkpt lat="37.8682" lon="14.9516033"><ele>809.0</ele><time>2026-04-05T09:45:55.192Z</time></trkpt><trkpt lat="37.8682767" lon="14.9515033"><ele>809.0</ele><time>2026-04-05T09:45:56.192Z</time></trkpt><trkpt lat="37.8683733" lon="14.9514333"><ele>809.0</ele><time>2026-04-05T09:45:57.193Z</time></trkpt><trkpt lat="37.8684817" lon="14.9514"><ele>809.0</ele><time>2026-04-05T09:45:58.191Z</time></trkpt><trkpt lat="37.8685933" lon="14.9513867"><ele>809.0</ele><time>2026-04-05T09:45:59.192Z</time></trkpt><trkpt lat="37.8687083" lon="14.951375"><ele>807.25</ele><time>2026-04-05T09:46:00.192Z</time></trkpt><trkpt lat="37.8688233" lon="14.9513567"><ele>805.5</ele><time>2026-04-05T09:46:01.192Z</time></trkpt><trkpt lat="37.8689367" lon="14.9513433"><ele>803.75</ele><time>2026-04-05T09:46:02.193Z</time></trkpt><trkpt lat="37.8690483" lon="14.9513283"><ele>802.0</ele><time>2026-04-05T09:46:03.193Z</time></trkpt><trkpt lat="37.8691617" lon="14.95131"><ele>802.0</ele><time>2026-04-05T09:46:04.192Z</time></trkpt><trkpt lat="37.869275" lon="14.95129"><ele>802.0</ele><time>2026-04-05T09:46:05.192Z</time></trkpt><trkpt lat="37.8693883" lon="14.95127"><ele>802.0</ele><time>2026-04-05T09:46:06.193Z</time></trkpt><trkpt lat="37.8695" lon="14.95125"><ele>802.0</ele><time>2026-04-05T09:46:07.193Z</time></trkpt><trkpt lat="37.86961" lon="14.95123"><ele>801.25</ele><time>2026-04-05T09:46:08.192Z</time></trkpt><trkpt lat="37.8697217" lon="14.95121"><ele>800.5</ele><time>2026-04-05T09:46:09.193Z</time></trkpt><trkpt lat="37.869835" lon="14.9512017"><ele>799.75</ele><time>2026-04-05T09:46:10.193Z</time></trkpt><trkpt lat="37.8699483" lon="14.95121"><ele>799.0</ele><time>2026-04-05T09:46:11.192Z</time></trkpt><trkpt lat="37.87006" lon="14.9512417"><ele>795.0</ele><time>2026-04-05T09:46:12.192Z</time></trkpt><trkpt lat="37.8701667" lon="14.9512933"><ele>791.0</ele><time>2026-04-05T09:46:13.191Z</time></trkpt><trkpt lat="37.87027" lon="14.9513567"><ele>787.0</ele><time>2026-04-05T09:46:14.193Z</time></trkpt><trkpt lat="37.87037" lon="14.951425"><ele>783.0</ele><time>2026-04-05T09:46:15.192Z</time></trkpt><trkpt lat="37.8704717" lon="14.9514933"><ele>783.0</ele><time>2026-04-05T09:46:16.192Z</time></trkpt><trkpt lat="37.8705717" lon="14.9515617"><ele>783.0</ele><time>2026-04-05T09:46:17.192Z</time></trkpt><trkpt lat="37.8706617" lon="14.95165"><ele>783.0</ele><time>2026-04-05T09:46:18.192Z</time></trkpt><trkpt lat="37.8707317" lon="14.9517633"><ele>783.0</ele><time>2026-04-05T09:46:19.194Z</time></trkpt><trkpt lat="37.8707767" lon="14.9518933"><ele>783.25</ele><time>2026-04-05T09:46:20.195Z</time></trkpt><trkpt lat="37.8708017" lon="14.952035"><ele>783.5</ele><time>2026-04-05T09:46:21.192Z</time></trkpt><trkpt lat="37.87082" lon="14.95218"><ele>783.75</ele><time>2026-04-05T09:46:22.192Z</time></trkpt><trkpt lat="37.8708383" lon="14.9523167"><ele>784.0</ele><time>2026-04-05T09:46:23.191Z</time></trkpt><trkpt lat="37.8708583" lon="14.9524567"><ele>784.0</ele><time>2026-04-05T09:46:24.191Z</time></trkpt><trkpt lat="37.8708783" lon="14.9525933"><ele>784.0</ele><time>2026-04-05T09:46:25.193Z</time></trkpt><trkpt lat="37.8708983" lon="14.9527217"><ele>784.0</ele><time>2026-04-05T09:46:26.193Z</time></trkpt><trkpt lat="37.8709183" lon="14.9528467"><ele>784.0</ele><time>2026-04-05T09:46:27.192Z</time></trkpt><trkpt lat="37.870935" lon="14.95297"><ele>784.0</ele><time>2026-04-05T09:46:28.192Z</time></trkpt><trkpt lat="37.870945" lon="14.9530883"><ele>782.4000000000001</ele><time>2026-04-05T09:46:29.193Z</time></trkpt><trkpt lat="37.8709533" lon="14.953205"><ele>780.8</ele><time>2026-04-05T09:46:30.194Z</time></trkpt><trkpt lat="37.8709667" lon="14.9533183"><ele>779.2</ele><time>2026-04-05T09:46:31.193Z</time></trkpt><trkpt lat="37.8709917" lon="14.9534317"><ele>777.5999999999999</ele><time>2026-04-05T09:46:32.192Z</time></trkpt><trkpt lat="37.8710333" lon="14.9535467"><ele>776.0</ele><time>2026-04-05T09:46:33.192Z</time></trkpt><trkpt lat="37.8710883" lon="14.9536583"><ele>776.0</ele><time>2026-04-05T09:46:34.193Z</time></trkpt><trkpt lat="37.87116" lon="14.9537667"><ele>776.0</ele><time>2026-04-05T09:46:35.193Z</time></trkpt><trkpt lat="37.8712333" lon="14.9538733"><ele>776.0</ele><time>2026-04-05T09:46:36.194Z</time></trkpt><trkpt lat="37.8713033" lon="14.9539817"><ele>776.0</ele><time>2026-04-05T09:46:37.197Z</time></trkpt><trkpt lat="37.87137" lon="14.954085"><ele>776.0</ele><time>2026-04-05T09:46:38.194Z</time></trkpt><trkpt lat="37.8714317" lon="14.954185"><ele>776.3333333333334</ele><time>2026-04-05T09:46:39.192Z</time></trkpt><trkpt lat="37.8714967" lon="14.954275"><ele>776.6666666666667</ele><time>2026-04-05T09:46:40.193Z</time></trkpt><trkpt lat="37.8715533" lon="14.95436"><ele>777.0</ele><time>2026-04-05T09:46:41.193Z</time></trkpt><trkpt lat="37.871605" lon="14.9544367"><ele>777.3333333333333</ele><time>2026-04-05T09:46:42.197Z</time></trkpt><trkpt lat="37.8716483" lon="14.9545083"><ele>777.6666666666666</ele><time>2026-04-05T09:46:43.193Z</time></trkpt><trkpt lat="37.8717183" lon="14.954615"><ele>778.0</ele><time>2026-04-05T09:46:45.192Z</time></trkpt><trkpt lat="37.8717733" lon="14.9546583"><ele>776.8</ele><time>2026-04-05T09:46:47.193Z</time></trkpt><trkpt lat="37.8718533" lon="14.9546767"><ele>775.5999999999999</ele><time>2026-04-05T09:46:50.196Z</time></trkpt><trkpt lat="37.8719317" lon="14.9546283"><ele>774.4000000000001</ele><time>2026-04-05T09:46:52.2Z</time></trkpt><trkpt lat="37.872025" lon="14.95456"><ele>773.2</ele><time>2026-04-05T09:46:54.196Z</time></trkpt><trkpt lat="37.87213" lon="14.9544867"><ele>772.0</ele><time>2026-04-05T09:46:56.196Z</time></trkpt><trkpt lat="37.8721883" lon="14.9544467"><ele>771.9999999999999</ele><time>2026-04-05T09:46:57.194Z</time></trkpt><trkpt lat="37.8722467" lon="14.9544033"><ele>772.0</ele><time>2026-04-05T09:46:58.195Z</time></trkpt><trkpt lat="37.8723067" lon="14.9543617"><ele>772.0</ele><time>2026-04-05T09:46:59.195Z</time></trkpt><trkpt lat="37.8723733" lon="14.954315"><ele>772.0</ele><time>2026-04-05T09:47:00.196Z</time></trkpt><trkpt lat="37.8724433" lon="14.9542617"><ele>771.9999999999999</ele><time>2026-04-05T09:47:01.195Z</time></trkpt><trkpt lat="37.8725117" lon="14.9542117"><ele>772.0</ele><time>2026-04-05T09:47:02.195Z</time></trkpt><trkpt lat="37.87258" lon="14.9541583"><ele>771.5714285714287</ele><time>2026-04-05T09:47:03.195Z</time></trkpt><trkpt lat="37.8726483" lon="14.954105"><ele>771.1428571428571</ele><time>2026-04-05T09:47:04.196Z</time></trkpt><trkpt lat="37.8727133" lon="14.9540533"><ele>770.7142857142858</ele><time>2026-04-05T09:47:05.193Z</time></trkpt><trkpt lat="37.8727767" lon="14.9540083"><ele>770.2857142857143</ele><time>2026-04-05T09:47:06.194Z</time></trkpt><trkpt lat="37.8728383" lon="14.95396"><ele>769.8571428571429</ele><time>2026-04-05T09:47:07.195Z</time></trkpt><trkpt lat="37.8728983" lon="14.953915"><ele>769.4285714285714</ele><time>2026-04-05T09:47:08.196Z</time></trkpt><trkpt lat="37.872955" lon="14.95387"><ele>769.0</ele><time>2026-04-05T09:47:09.194Z</time></trkpt><trkpt lat="37.8730083" lon="14.953825"><ele>769.0</ele><time>2026-04-05T09:47:10.194Z</time></trkpt><trkpt lat="37.8731133" lon="14.9537417"><ele>769.0</ele><time>2026-04-05T09:47:12.195Z</time></trkpt><trkpt lat="37.8732233" lon="14.9536667"><ele>769.0</ele><time>2026-04-05T09:47:14.194Z</time></trkpt><trkpt lat="37.87328" lon="14.95363"><ele>769.0</ele><time>2026-04-05T09:47:15.194Z</time></trkpt><trkpt lat="37.8733883" lon="14.9535583"><ele>769.0</ele><time>2026-04-05T09:47:17.193Z</time></trkpt><trkpt lat="37.873495" lon="14.953485"><ele>768.0</ele><time>2026-04-05T09:47:19.194Z</time></trkpt><trkpt lat="37.8735983" lon="14.95341"><ele>767.0</ele><time>2026-04-05T09:47:21.192Z</time></trkpt><trkpt lat="37.8736983" lon="14.9533383"><ele>766.0</ele><time>2026-04-05T09:47:23.192Z</time></trkpt><trkpt lat="37.8737833" lon="14.9532683"><ele>765.0</ele><time>2026-04-05T09:47:25.192Z</time></trkpt><trkpt lat="37.8738733" lon="14.9531967"><ele>764.0</ele><time>2026-04-05T09:47:27.191Z</time></trkpt><trkpt lat="37.873965" lon="14.9531283"><ele>764.0</ele><time>2026-04-05T09:47:29.193Z</time></trkpt><trkpt lat="37.8740567" lon="14.953055"><ele>764.0</ele><time>2026-04-05T09:47:31.193Z</time></trkpt><trkpt lat="37.8741567" lon="14.9529833"><ele>764.0</ele><time>2026-04-05T09:47:33.192Z</time></trkpt><trkpt lat="37.8742683" lon="14.9529183"><ele>764.0</ele><time>2026-04-05T09:47:35.199Z</time></trkpt><trkpt lat="37.8743283" lon="14.9528833"><ele>764.0</ele><time>2026-04-05T09:47:36.193Z</time></trkpt><trkpt lat="37.8743883" lon="14.9528433"><ele>763.4285714285714</ele><time>2026-04-05T09:47:37.195Z</time></trkpt><trkpt lat="37.8744533" lon="14.952805"><ele>762.8571428571428</ele><time>2026-04-05T09:47:38.196Z</time></trkpt><trkpt lat="37.874515" lon="14.9527633"><ele>762.2857142857142</ele><time>2026-04-05T09:47:39.192Z</time></trkpt><trkpt lat="37.8745717" lon="14.952725"><ele>761.7142857142858</ele><time>2026-04-05T09:47:40.192Z</time></trkpt><trkpt lat="37.874625" lon="14.9526817"><ele>761.1428571428571</ele><time>2026-04-05T09:47:41.192Z</time></trkpt><trkpt lat="37.874685" lon="14.95263"><ele>760.5714285714286</ele><time>2026-04-05T09:47:42.193Z</time></trkpt><trkpt lat="37.8747517" lon="14.9525767"><ele>760.0</ele><time>2026-04-05T09:47:43.194Z</time></trkpt><trkpt lat="37.8748233" lon="14.9525183"><ele>760.0</ele><time>2026-04-05T09:47:44.194Z</time></trkpt><trkpt lat="37.8748983" lon="14.9524567"><ele>760.0</ele><time>2026-04-05T09:47:45.194Z</time></trkpt><trkpt lat="37.8749783" lon="14.9523917"><ele>760.0</ele><time>2026-04-05T09:47:46.194Z</time></trkpt><trkpt lat="37.8750617" lon="14.952325"><ele>760.0</ele><time>2026-04-05T09:47:47.194Z</time></trkpt><trkpt lat="37.8751467" lon="14.9522583"><ele>760.0</ele><time>2026-04-05T09:47:48.197Z</time></trkpt><trkpt lat="37.8752317" lon="14.9521867"><ele>759.8</ele><time>2026-04-05T09:47:49.197Z</time></trkpt><trkpt lat="37.87531" lon="14.9521217"><ele>759.6</ele><time>2026-04-05T09:47:50.195Z</time></trkpt><trkpt lat="37.87539" lon="14.9520533"><ele>759.4000000000001</ele><time>2026-04-05T09:47:51.193Z</time></trkpt><trkpt lat="37.87547" lon="14.9519833"><ele>759.2</ele><time>2026-04-05T09:47:52.194Z</time></trkpt><trkpt lat="37.8755533" lon="14.95191"><ele>759.0</ele><time>2026-04-05T09:47:53.193Z</time></trkpt><trkpt lat="37.8756267" lon="14.9518267"><ele>759.0</ele><time>2026-04-05T09:47:54.194Z</time></trkpt><trkpt lat="37.8757" lon="14.9517683"><ele>759.0</ele><time>2026-04-05T09:47:55.194Z</time></trkpt><trkpt lat="37.87577" lon="14.9517183"><ele>759.0</ele><time>2026-04-05T09:47:56.194Z</time></trkpt><trkpt lat="37.8758333" lon="14.9516817"><ele>759.0</ele><time>2026-04-05T09:47:57.195Z</time></trkpt><trkpt lat="37.8758883" lon="14.9516417"><ele>759.0</ele><time>2026-04-05T09:47:58.195Z</time></trkpt><trkpt lat="37.8759917" lon="14.951575"><ele>759.0</ele><time>2026-04-05T09:48:00.193Z</time></trkpt><trkpt lat="37.876075" lon="14.95152"><ele>758.8333333333334</ele><time>2026-04-05T09:48:02.194Z</time></trkpt><trkpt lat="37.8761417" lon="14.9515"><ele>758.6666666666666</ele><time>2026-04-05T09:48:04.194Z</time></trkpt><trkpt lat="37.876185" lon="14.951565"><ele>758.5</ele><time>2026-04-05T09:48:06.191Z</time></trkpt><trkpt lat="37.8762117" lon="14.9516633"><ele>758.3333333333333</ele><time>2026-04-05T09:48:08.191Z</time></trkpt><trkpt lat="37.8762467" lon="14.9517683"><ele>758.1666666666666</ele><time>2026-04-05T09:48:10.191Z</time></trkpt><trkpt lat="37.87629" lon="14.9518683"><ele>758.0</ele><time>2026-04-05T09:48:12.196Z</time></trkpt><trkpt lat="37.87633" lon="14.9519617"><ele>758.0</ele><time>2026-04-05T09:48:14.193Z</time></trkpt><trkpt lat="37.87639" lon="14.9520417"><ele>758.0</ele><time>2026-04-05T09:48:17.192Z</time></trkpt><trkpt lat="37.876445" lon="14.9520917"><ele>758.0</ele><time>2026-04-05T09:48:20.191Z</time></trkpt><trkpt lat="37.8765167" lon="14.9520533"><ele>758.0</ele><time>2026-04-05T09:48:23.194Z</time></trkpt><trkpt lat="37.8765733" lon="14.9520067"><ele>758.0</ele><time>2026-04-05T09:48:25.193Z</time></trkpt><trkpt lat="37.876645" lon="14.9520017"><ele>758.0</ele><time>2026-04-05T09:48:27.191Z</time></trkpt><trkpt lat="37.8767133" lon="14.9520567"><ele>757.6666666666666</ele><time>2026-04-05T09:48:29.192Z</time></trkpt><trkpt lat="37.8767783" lon="14.9521217"><ele>757.3333333333333</ele><time>2026-04-05T09:48:31.193Z</time></trkpt><trkpt lat="37.8768367" lon="14.9521867"><ele>757.0</ele><time>2026-04-05T09:48:33.192Z</time></trkpt><trkpt lat="37.8768933" lon="14.95225"><ele>756.6666666666666</ele><time>2026-04-05T09:48:35.192Z</time></trkpt><trkpt lat="37.8769483" lon="14.9523117"><ele>756.3333333333334</ele><time>2026-04-05T09:48:37.193Z</time></trkpt><trkpt lat="37.876985" lon="14.9524183"><ele>756.0</ele><time>2026-04-05T09:48:40.194Z</time></trkpt><trkpt lat="37.8769217" lon="14.9525133"><ele>756.0</ele><time>2026-04-05T09:48:43.191Z</time></trkpt><trkpt lat="37.8768717" lon="14.9525883"><ele>756.0</ele><time>2026-04-05T09:48:45.193Z</time></trkpt><trkpt lat="37.8768117" lon="14.9526617"><ele>756.0</ele><time>2026-04-05T09:48:47.194Z</time></trkpt><trkpt lat="37.8767533" lon="14.9527383"><ele>756.0</ele><time>2026-04-05T09:48:49.194Z</time></trkpt><trkpt lat="37.8766917" lon="14.9528117"><ele>756.0</ele><time>2026-04-05T09:48:51.193Z</time></trkpt><trkpt lat="37.8766317" lon="14.9528783"><ele>756.0</ele><time>2026-04-05T09:48:53.192Z</time></trkpt><trkpt lat="37.8765733" lon="14.9529417"><ele>756.0</ele><time>2026-04-05T09:48:55.193Z</time></trkpt><trkpt lat="37.8765617" lon="14.95305"><ele>756.0</ele><time>2026-04-05T09:48:58.193Z</time></trkpt><trkpt lat="37.8766383" lon="14.9531217"><ele>756.0</ele><time>2026-04-05T09:49:00.191Z</time></trkpt><trkpt lat="37.8767017" lon="14.9532033"><ele>756.0</ele><time>2026-04-05T09:49:02.193Z</time></trkpt><trkpt lat="37.8767533" lon="14.9532817"><ele>756.0</ele><time>2026-04-05T09:49:04.191Z</time></trkpt><trkpt lat="37.8768117" lon="14.95336"><ele>756.0</ele><time>2026-04-05T09:49:06.191Z</time></trkpt><trkpt lat="37.8768667" lon="14.9534417"><ele>755.8333333333334</ele><time>2026-04-05T09:49:08.203Z</time></trkpt><trkpt lat="37.87692" lon="14.95353"><ele>755.6666666666666</ele><time>2026-04-05T09:49:10.191Z</time></trkpt><trkpt lat="37.8769833" lon="14.9536083"><ele>755.5</ele><time>2026-04-05T09:49:12.191Z</time></trkpt><trkpt lat="37.8770517" lon="14.953675"><ele>755.3333333333333</ele><time>2026-04-05T09:49:14.192Z</time></trkpt><trkpt lat="37.8770933" lon="14.9537667"><ele>755.1666666666666</ele><time>2026-04-05T09:49:16.195Z</time></trkpt><trkpt lat="37.8770833" lon="14.9538883"><ele>755.0</ele><time>2026-04-05T09:49:18.195Z</time></trkpt><trkpt lat="37.87706" lon="14.9539917"><ele>755.0</ele><time>2026-04-05T09:49:20.193Z</time></trkpt><trkpt lat="37.87704" lon="14.954095"><ele>755.0</ele><time>2026-04-05T09:49:22.192Z</time></trkpt><trkpt lat="37.8770217" lon="14.9541917"><ele>755.0</ele><time>2026-04-05T09:49:24.194Z</time></trkpt><trkpt lat="37.877005" lon="14.95428"><ele>755.0</ele><time>2026-04-05T09:49:26.193Z</time></trkpt><trkpt lat="37.876985" lon="14.9543683"><ele>755.0</ele><time>2026-04-05T09:49:28.193Z</time></trkpt><trkpt lat="37.876965" lon="14.9544583"><ele>755.0</ele><time>2026-04-05T09:49:30.191Z</time></trkpt></trkseg><trkseg><trkpt lat="37.8771625" lon="14.9550897"><ele>754.2</ele><time>2026-04-05T17:40:05.289Z</time></trkpt><trkpt lat="37.8771357" lon="14.9548736"><ele>754.4000000000001</ele><time>2026-04-05T17:42:01.21Z</time></trkpt><trkpt lat="37.8771917" lon="14.95479"><ele>754.6</ele><time>2026-04-05T17:47:44.194Z</time></trkpt><trkpt lat="37.8772583" lon="14.9547733"><ele>754.8</ele><time>2026-04-05T17:47:53.194Z</time></trkpt><trkpt lat="37.8772017" lon="14.95483"><ele>755.0</ele><time>2026-04-05T17:48:17.193Z</time></trkpt><trkpt lat="37.8771333" lon="14.95484"><ele>755.0</ele><time>2026-04-05T17:48:25.192Z</time></trkpt><trkpt lat="37.8770783" lon="14.954915"><ele>755.0</ele><time>2026-04-05T17:48:51.195Z</time></trkpt><trkpt lat="37.877105" lon="14.9548417"><ele>755.0</ele><time>2026-04-05T17:51:26.186Z</time></trkpt><trkpt lat="37.8770883" lon="14.954925"><ele>755.0</ele><time>2026-04-05T17:51:53.193Z</time></trkpt><trkpt lat="37.877105" lon="14.9548117"><ele>755.0</ele><time>2026-04-05T17:55:00.195Z</time></trkpt><trkpt lat="37.877035" lon="14.95486"><ele>755.0</ele><time>2026-04-05T17:57:24.193Z</time></trkpt><trkpt lat="37.87712" lon="14.954825"><ele>755.0</ele><time>2026-04-05T17:58:31.195Z</time></trkpt><trkpt lat="37.8771433" lon="14.9549017"><ele>755.0</ele><time>2026-04-05T17:58:53.194Z</time></trkpt><trkpt lat="37.877075" lon="14.954975"><ele>755.0</ele><time>2026-04-05T18:00:23.192Z</time></trkpt><trkpt lat="37.8770283" lon="14.9549133"><ele>755.0</ele><time>2026-04-05T18:00:41.193Z</time></trkpt><trkpt lat="37.8770617" lon="14.9548367"><ele>755.0</ele><time>2026-04-05T18:00:57.191Z</time></trkpt><trkpt lat="37.8771017" lon="14.9549617"><ele>755.0</ele><time>2026-04-05T18:03:20.201Z</time></trkpt><trkpt lat="37.8771517" lon="14.9550233"><ele>755.0</ele><time>2026-04-05T18:03:28.192Z</time></trkpt><trkpt lat="37.8771367" lon="14.954945"><ele>755.0</ele><time>2026-04-05T18:03:56.194Z</time></trkpt><trkpt lat="37.8770483" lon="14.9549517"><ele>755.0</ele><time>2026-04-05T18:04:45.194Z</time></trkpt><trkpt lat="37.8771333" lon="14.9548783"><ele>755.0</ele><time>2026-04-05T18:06:42.193Z</time></trkpt><trkpt lat="37.877125" lon="14.9547883"><ele>755.0</ele><time>2026-04-05T18:08:11.193Z</time></trkpt><trkpt lat="37.8771483" lon="14.9548883"><ele>755.0</ele><time>2026-04-05T18:10:49.193Z</time></trkpt><trkpt lat="37.8770583" lon="14.9549"><ele>755.0</ele><time>2026-04-05T18:11:38.192Z</time></trkpt><trkpt lat="37.8771517" lon="14.9549017"><ele>755.0</ele><time>2026-04-05T18:13:42.192Z</time></trkpt><trkpt lat="37.8771833" lon="14.95481"><ele>755.0</ele><time>2026-04-05T18:14:24.192Z</time></trkpt><trkpt lat="37.8771217" lon="14.9548433"><ele>755.0</ele><time>2026-04-05T18:14:44.192Z</time></trkpt><trkpt lat="37.8770683" lon="14.9548917"><ele>755.0</ele><time>2026-04-05T18:20:24.193Z</time></trkpt><trkpt lat="37.87714" lon="14.9548933"><ele>755.0</ele><time>2026-04-05T18:24:30.195Z</time></trkpt><trkpt lat="37.87718" lon="14.9548317"><ele>755.0</ele><time>2026-04-05T18:25:12.195Z</time></trkpt><trkpt lat="37.8771467" lon="14.9549217"><ele>755.0</ele><time>2026-04-05T18:26:09.197Z</time></trkpt><trkpt lat="37.8771833" lon="14.954855"><ele>755.0</ele><time>2026-04-05T18:26:25.195Z</time></trkpt><trkpt lat="37.8772733" lon="14.954795"><ele>755.0</ele><time>2026-04-05T18:26:37.195Z</time></trkpt><trkpt lat="37.87721" lon="14.954755"><ele>755.0</ele><time>2026-04-05T18:26:45.195Z</time></trkpt><trkpt lat="37.877205" lon="14.9546683"><ele>755.0</ele><time>2026-04-05T18:26:53.195Z</time></trkpt><trkpt lat="37.87725" lon="14.954595"><ele>755.0</ele><time>2026-04-05T18:26:55.196Z</time></trkpt><trkpt lat="37.8773267" lon="14.9544467"><ele>755.0</ele><time>2026-04-05T18:27:00.194Z</time></trkpt><trkpt lat="37.8773717" lon="14.9543783"><ele>755.0</ele><time>2026-04-05T18:27:03.193Z</time></trkpt><trkpt lat="37.87744" lon="14.9543267"><ele>755.0</ele><time>2026-04-05T18:27:10.194Z</time></trkpt><trkpt lat="37.8773283" lon="14.9544783"><ele>755.0</ele><time>2026-04-05T18:27:19.195Z</time></trkpt><trkpt lat="37.877275" lon="14.95455"><ele>755.0</ele><time>2026-04-05T18:27:21.193Z</time></trkpt><trkpt lat="37.8772033" lon="14.9546567"><ele>755.0</ele><time>2026-04-05T18:27:23.195Z</time></trkpt><trkpt lat="37.8771583" lon="14.9547283"><ele>755.0</ele><time>2026-04-05T18:27:25.194Z</time></trkpt><trkpt lat="37.87709" lon="14.9548083"><ele>755.0</ele><time>2026-04-05T18:27:27.193Z</time></trkpt><trkpt lat="37.8771067" lon="14.9547183"><ele>755.0</ele><time>2026-04-05T18:27:46.195Z</time></trkpt><trkpt lat="37.8771017" lon="14.9548017"><ele>755.0</ele><time>2026-04-05T18:28:43.195Z</time></trkpt><trkpt lat="37.8770583" lon="14.9548767"><ele>755.0</ele><time>2026-04-05T18:28:45.194Z</time></trkpt><trkpt lat="37.8770117" lon="14.9549317"><ele>755.0</ele><time>2026-04-05T18:28:47.195Z</time></trkpt><trkpt lat="37.8769483" lon="14.9550233"><ele>755.0</ele><time>2026-04-05T18:28:50.196Z</time></trkpt><trkpt lat="37.8769017" lon="14.9550783"><ele>755.0</ele><time>2026-04-05T18:28:52.196Z</time></trkpt><trkpt lat="37.876845" lon="14.9551533"><ele>755.0</ele><time>2026-04-05T18:28:55.194Z</time></trkpt><trkpt lat="37.8769833" lon="14.9549"><ele>755.0</ele><time>2026-04-05T18:29:10.194Z</time></trkpt><trkpt lat="37.8769" lon="14.9549467"><ele>755.0</ele><time>2026-04-05T18:29:19.196Z</time></trkpt><trkpt lat="37.8768317" lon="14.9549333"><ele>755.0</ele><time>2026-04-05T18:29:29.195Z</time></trkpt><trkpt lat="37.8767733" lon="14.95501"><ele>755.0</ele><time>2026-04-05T18:29:30.196Z</time></trkpt><trkpt lat="37.8768383" lon="14.9549817"><ele>755.0</ele><time>2026-04-05T18:29:34.193Z</time></trkpt><trkpt lat="37.87695" lon="14.954955"><ele>755.0</ele><time>2026-04-05T18:29:47.193Z</time></trkpt><trkpt lat="37.8770217" lon="14.9549433"><ele>755.0</ele><time>2026-04-05T18:30:26.195Z</time></trkpt><trkpt lat="37.87709" lon="14.9549233"><ele>755.0</ele><time>2026-04-05T18:31:42.196Z</time></trkpt><trkpt lat="37.8771083" lon="14.954795"><ele>755.0</ele><time>2026-04-05T18:31:47.194Z</time></trkpt><trkpt lat="37.87704" lon="14.9548567"><ele>755.0</ele><time>2026-04-05T18:32:02.196Z</time></trkpt><trkpt lat="37.8770034" lon="14.9549627"><ele>755.0</ele><time>2026-04-05T18:40:48.549Z</time></trkpt><trkpt lat="37.8771533" lon="14.9550317"><ele>755.0</ele><time>2026-04-05T18:41:11.661Z</time></trkpt><trkpt lat="37.87706" lon="14.954795"><ele>755.0</ele><time>2026-04-05T18:41:13.663Z</time></trkpt><trkpt lat="37.8769983" lon="14.9547733"><ele>755.0</ele><time>2026-04-05T18:41:18.66Z</time></trkpt><trkpt lat="37.8770867" lon="14.954815"><ele>755.0</ele><time>2026-04-05T18:41:52.66Z</time></trkpt><trkpt lat="37.8771567" lon="14.9548583"><ele>755.0</ele><time>2026-04-05T19:03:44.195Z</time></trkpt><trkpt lat="37.8770933" lon="14.9549133"><ele>755.0</ele><time>2026-04-05T19:03:54.197Z</time></trkpt><trkpt lat="37.8770317" lon="14.95494"><ele>755.0</ele><time>2026-04-05T19:04:07.196Z</time></trkpt><trkpt lat="37.8770433" lon="14.954825"><ele>755.0</ele><time>2026-04-05T19:04:29.198Z</time></trkpt><trkpt lat="37.8771217" lon="14.9548633"><ele>755.0</ele><time>2026-04-05T19:14:41.194Z</time></trkpt><trkpt lat="37.8770183" lon="14.9548333"><ele>755.0</ele><time>2026-04-05T19:17:20.197Z</time></trkpt><trkpt lat="37.8770183" lon="14.9549533"><ele>755.0</ele><time>2026-04-05T19:18:24.197Z</time></trkpt><trkpt lat="37.8770483" lon="14.9548533"><ele>755.0</ele><time>2026-04-05T19:18:42.194Z</time></trkpt><trkpt lat="37.877125" lon="14.95481"><ele>755.0</ele><time>2026-04-05T19:18:56.198Z</time></trkpt><trkpt lat="37.8770817" lon="14.95487"><ele>755.0</ele><time>2026-04-05T19:19:52.195Z</time></trkpt><trkpt lat="37.877155" lon="14.95488"><ele>755.0</ele><time>2026-04-05T19:20:16.195Z</time></trkpt><trkpt lat="37.8770967" lon="14.9548433"><ele>755.0</ele><time>2026-04-05T19:22:35.188Z</time></trkpt><trkpt lat="37.877105" lon="14.9549283"><ele>755.0</ele><time>2026-04-05T19:26:00.194Z</time></trkpt><trkpt lat="37.87713" lon="14.954825"><ele>755.0</ele><time>2026-04-05T19:27:31.194Z</time></trkpt></trkseg><trkseg><trkpt lat="37.864485" lon="14.9942767"><ele>804.9999999999999</ele><time>2026-04-06T09:58:53.194Z</time></trkpt><trkpt lat="37.8644783" lon="14.9941817"><ele>805.0</ele><time>2026-04-06T09:59:01.192Z</time></trkpt><trkpt lat="37.8645167" lon="14.9940933"><ele>805.0</ele><time>2026-04-06T09:59:06.193Z</time></trkpt><trkpt lat="37.8645517" lon="14.9939967"><ele>805.0</ele><time>2026-04-06T09:59:10.193Z</time></trkpt><trkpt lat="37.86458" lon="14.993915"><ele>804.9999999999999</ele><time>2026-04-06T09:59:13.193Z</time></trkpt><trkpt lat="37.864585" lon="14.9938217"><ele>805.0</ele><time>2026-04-06T09:59:16.194Z</time></trkpt><trkpt lat="37.864585" lon="14.9937367"><ele>804.4</ele><time>2026-04-06T09:59:19.193Z</time></trkpt><trkpt lat="37.8645383" lon="14.9936367"><ele>803.8</ele><time>2026-04-06T09:59:22.194Z</time></trkpt><trkpt lat="37.86452" lon="14.993535"><ele>803.2</ele><time>2026-04-06T09:59:24.193Z</time></trkpt><trkpt lat="37.8645417" lon="14.9934017"><ele>802.6</ele><time>2026-04-06T09:59:26.193Z</time></trkpt><trkpt lat="37.86458" lon="14.9932567"><ele>802.0</ele><time>2026-04-06T09:59:28.194Z</time></trkpt><trkpt lat="37.8645883" lon="14.9931767"><ele>800.9999999999999</ele><time>2026-04-06T09:59:29.194Z</time></trkpt><trkpt lat="37.8645983" lon="14.9930933"><ele>800.0</ele><time>2026-04-06T09:59:30.193Z</time></trkpt><trkpt lat="37.8646033" lon="14.9930033"><ele>799.0</ele><time>2026-04-06T09:59:31.193Z</time></trkpt><trkpt lat="37.86461" lon="14.992915"><ele>798.0</ele><time>2026-04-06T09:59:32.194Z</time></trkpt><trkpt lat="37.8646117" lon="14.99282"><ele>796.9999999999999</ele><time>2026-04-06T09:59:33.192Z</time></trkpt><trkpt lat="37.864615" lon="14.9927283"><ele>796.0</ele><time>2026-04-06T09:59:34.193Z</time></trkpt><trkpt lat="37.86464" lon="14.992595"><ele>795.5999999999999</ele><time>2026-04-06T09:59:36.193Z</time></trkpt><trkpt lat="37.8646867" lon="14.9924667"><ele>795.2</ele><time>2026-04-06T09:59:38.193Z</time></trkpt><trkpt lat="37.8647633" lon="14.99237"><ele>794.8</ele><time>2026-04-06T09:59:40.193Z</time></trkpt><trkpt lat="37.8648533" lon="14.9923083"><ele>794.4000000000001</ele><time>2026-04-06T09:59:42.192Z</time></trkpt><trkpt lat="37.8649417" lon="14.9922783"><ele>794.0</ele><time>2026-04-06T09:59:44.194Z</time></trkpt><trkpt lat="37.8650267" lon="14.9922767"><ele>794.0000000000001</ele><time>2026-04-06T09:59:46.192Z</time></trkpt><trkpt lat="37.865105" lon="14.99225"><ele>794.0</ele><time>2026-04-06T09:59:48.193Z</time></trkpt><trkpt lat="37.8651717" lon="14.99218"><ele>794.0</ele><time>2026-04-06T09:59:50.194Z</time></trkpt><trkpt lat="37.86523" lon="14.992115"><ele>794.0</ele><time>2026-04-06T09:59:52.194Z</time></trkpt><trkpt lat="37.8653083" lon="14.9920367"><ele>794.0000000000001</ele><time>2026-04-06T09:59:55.193Z</time></trkpt><trkpt lat="37.8653517" lon="14.9919533"><ele>794.0</ele><time>2026-04-06T09:59:57.192Z</time></trkpt><trkpt lat="37.8654" lon="14.9918617"><ele>793.8571428571429</ele><time>2026-04-06T09:59:59.195Z</time></trkpt><trkpt lat="37.8654433" lon="14.9917617"><ele>793.7142857142857</ele><time>2026-04-06T10:00:01.195Z</time></trkpt><trkpt lat="37.86547" lon="14.9916783"><ele>793.5714285714287</ele><time>2026-04-06T10:00:03.194Z</time></trkpt><trkpt lat="37.86548" lon="14.991595"><ele>793.4285714285714</ele><time>2026-04-06T10:00:05.194Z</time></trkpt><trkpt lat="37.865495" lon="14.991515"><ele>793.2857142857143</ele><time>2026-04-06T10:00:07.197Z</time></trkpt><trkpt lat="37.86552" lon="14.9914017"><ele>793.1428571428572</ele><time>2026-04-06T10:00:10.196Z</time></trkpt><trkpt lat="37.8655267" lon="14.9913217"><ele>793.0</ele><time>2026-04-06T10:00:12.193Z</time></trkpt><trkpt lat="37.8655367" lon="14.9912367"><ele>793.0000000000001</ele><time>2026-04-06T10:00:14.193Z</time></trkpt><trkpt lat="37.865565" lon="14.9911483"><ele>793.0</ele><time>2026-04-06T10:00:16.194Z</time></trkpt><trkpt lat="37.86559" lon="14.9910667"><ele>793.0</ele><time>2026-04-06T10:00:18.196Z</time></trkpt><trkpt lat="37.8656217" lon="14.9909817"><ele>793.0</ele><time>2026-04-06T10:00:20.194Z</time></trkpt><trkpt lat="37.8656583" lon="14.99089"><ele>793.0</ele><time>2026-04-06T10:00:22.194Z</time></trkpt><trkpt lat="37.8657033" lon="14.99081"><ele>793.0000000000001</ele><time>2026-04-06T10:00:24.192Z</time></trkpt><trkpt lat="37.8657417" lon="14.99074"><ele>793.0</ele><time>2026-04-06T10:00:26.192Z</time></trkpt><trkpt lat="37.8657783" lon="14.99066"><ele>793.3333333333333</ele><time>2026-04-06T10:00:29.195Z</time></trkpt><trkpt lat="37.86582" lon="14.9905667"><ele>793.6666666666666</ele><time>2026-04-06T10:00:33.192Z</time></trkpt><trkpt lat="37.8658583" lon="14.9904833"><ele>794.0</ele><time>2026-04-06T10:00:36.195Z</time></trkpt><trkpt lat="37.8658983" lon="14.9904067"><ele>794.3333333333333</ele><time>2026-04-06T10:00:39.192Z</time></trkpt><trkpt lat="37.8659367" lon="14.990325"><ele>794.6666666666666</ele><time>2026-04-06T10:00:42.192Z</time></trkpt><trkpt lat="37.8659683" lon="14.9902367"><ele>795.0</ele><time>2026-04-06T10:00:46.192Z</time></trkpt><trkpt lat="37.8659933" lon="14.9901567"><ele>794.1666666666666</ele><time>2026-04-06T10:00:48.193Z</time></trkpt><trkpt lat="37.8660283" lon="14.990065"><ele>793.3333333333333</ele><time>2026-04-06T10:00:50.193Z</time></trkpt><trkpt lat="37.8660667" lon="14.9899783"><ele>792.5</ele><time>2026-04-06T10:00:52.194Z</time></trkpt><trkpt lat="37.8661017" lon="14.9899"><ele>791.6666666666666</ele><time>2026-04-06T10:00:54.196Z</time></trkpt><trkpt lat="37.86614" lon="14.98982"><ele>790.8333333333333</ele><time>2026-04-06T10:00:56.192Z</time></trkpt><trkpt lat="37.8661717" lon="14.9897233"><ele>790.0</ele><time>2026-04-06T10:00:58.192Z</time></trkpt><trkpt lat="37.86618" lon="14.9896117"><ele>789.9999999999999</ele><time>2026-04-06T10:01:00.193Z</time></trkpt><trkpt lat="37.8661917" lon="14.989525"><ele>790.0</ele><time>2026-04-06T10:01:02.194Z</time></trkpt><trkpt lat="37.8662017" lon="14.9894367"><ele>790.0</ele><time>2026-04-06T10:01:06.195Z</time></trkpt><trkpt lat="37.8662133" lon="14.9893217"><ele>790.0</ele><time>2026-04-06T10:01:09.195Z</time></trkpt><trkpt lat="37.8662233" lon="14.9892383"><ele>789.9999999999999</ele><time>2026-04-06T10:01:11.193Z</time></trkpt><trkpt lat="37.8662283" lon="14.989135"><ele>790.0</ele><time>2026-04-06T10:01:14.194Z</time></trkpt><trkpt lat="37.8662217" lon="14.9890417"><ele>789.8571428571428</ele><time>2026-04-06T10:01:18.192Z</time></trkpt><trkpt lat="37.8662067" lon="14.9889583"><ele>789.7142857142858</ele><time>2026-04-06T10:01:21.193Z</time></trkpt><trkpt lat="37.8661983" lon="14.9888717"><ele>789.5714285714286</ele><time>2026-04-06T10:01:24.194Z</time></trkpt><trkpt lat="37.8661833" lon="14.98878"><ele>789.4285714285713</ele><time>2026-04-06T10:01:27.195Z</time></trkpt><trkpt lat="37.8661633" lon="14.988685"><ele>789.2857142857142</ele><time>2026-04-06T10:01:30.194Z</time></trkpt><trkpt lat="37.8661467" lon="14.9885967"><ele>789.1428571428571</ele><time>2026-04-06T10:01:33.193Z</time></trkpt><trkpt lat="37.8661483" lon="14.988495"><ele>789.0</ele><time>2026-04-06T10:01:36.194Z</time></trkpt><trkpt lat="37.8661867" lon="14.9884083"><ele>788.9999999999999</ele><time>2026-04-06T10:01:39.195Z</time></trkpt><trkpt lat="37.8662267" lon="14.988345"><ele>789.0</ele><time>2026-04-06T10:01:41.192Z</time></trkpt><trkpt lat="37.8662583" lon="14.9882717"><ele>789.0</ele><time>2026-04-06T10:01:43.192Z</time></trkpt><trkpt lat="37.8663" lon="14.9881817"><ele>789.0</ele><time>2026-04-06T10:01:46.193Z</time></trkpt><trkpt lat="37.866325" lon="14.988085"><ele>789.0</ele><time>2026-04-06T10:01:49.193Z</time></trkpt><trkpt lat="37.8663233" lon="14.9879933"><ele>788.9999999999999</ele><time>2026-04-06T10:01:52.194Z</time></trkpt><trkpt lat="37.86635" lon="14.987905"><ele>789.0</ele><time>2026-04-06T10:01:55.193Z</time></trkpt><trkpt lat="37.8663767" lon="14.987815"><ele>789.2</ele><time>2026-04-06T10:01:57.193Z</time></trkpt><trkpt lat="37.8664067" lon="14.9877083"><ele>789.4000000000001</ele><time>2026-04-06T10:01:59.192Z</time></trkpt><trkpt lat="37.8664383" lon="14.9875917"><ele>789.6</ele><time>2026-04-06T10:02:01.192Z</time></trkpt><trkpt lat="37.86647" lon="14.9874633"><ele>789.8</ele><time>2026-04-06T10:02:03.192Z</time></trkpt><trkpt lat="37.8665" lon="14.987345"><ele>790.0</ele><time>2026-04-06T10:02:05.194Z</time></trkpt><trkpt lat="37.866525" lon="14.9872317"><ele>789.6</ele><time>2026-04-06T10:02:07.193Z</time></trkpt><trkpt lat="37.8665467" lon="14.9871133"><ele>789.2</ele><time>2026-04-06T10:02:09.194Z</time></trkpt><trkpt lat="37.8665483" lon="14.987"><ele>788.8</ele><time>2026-04-06T10:02:11.193Z</time></trkpt><trkpt lat="37.86654" lon="14.9868817"><ele>788.4</ele><time>2026-04-06T10:02:13.193Z</time></trkpt><trkpt lat="37.8665333" lon="14.986765"><ele>788.0</ele><time>2026-04-06T10:02:15.193Z</time></trkpt><trkpt lat="37.86652" lon="14.986645"><ele>788.0</ele><time>2026-04-06T10:02:17.196Z</time></trkpt><trkpt lat="37.8665083" lon="14.98652"><ele>788.0</ele><time>2026-04-06T10:02:19.195Z</time></trkpt><trkpt lat="37.8664933" lon="14.98639"><ele>788.0</ele><time>2026-04-06T10:02:21.194Z</time></trkpt><trkpt lat="37.8664783" lon="14.9862533"><ele>788.0</ele><time>2026-04-06T10:02:23.193Z</time></trkpt><trkpt lat="37.86648" lon="14.986105"><ele>788.0</ele><time>2026-04-06T10:02:25.193Z</time></trkpt><trkpt lat="37.8664967" lon="14.9859533"><ele>787.5999999999999</ele><time>2026-04-06T10:02:27.195Z</time></trkpt><trkpt lat="37.8665183" lon="14.9858067"><ele>787.1999999999999</ele><time>2026-04-06T10:02:29.192Z</time></trkpt><trkpt lat="37.8665433" lon="14.98567"><ele>786.8</ele><time>2026-04-06T10:02:31.192Z</time></trkpt><trkpt lat="37.8665733" lon="14.9855567"><ele>786.4</ele><time>2026-04-06T10:02:33.193Z</time></trkpt><trkpt lat="37.8666117" lon="14.9854617"><ele>786.0</ele><time>2026-04-06T10:02:35.194Z</time></trkpt><trkpt lat="37.8666383" lon="14.9853667"><ele>786.0000000000001</ele><time>2026-04-06T10:02:37.194Z</time></trkpt><trkpt lat="37.866665" lon="14.9852917"><ele>786.0</ele><time>2026-04-06T10:02:39.192Z</time></trkpt><trkpt lat="37.866685" lon="14.9851917"><ele>786.0</ele><time>2026-04-06T10:02:42.193Z</time></trkpt><trkpt lat="37.866695" lon="14.9851067"><ele>786.0</ele><time>2026-04-06T10:02:45.192Z</time></trkpt><trkpt lat="37.8667017" lon="14.985025"><ele>786.0</ele><time>2026-04-06T10:02:48.193Z</time></trkpt><trkpt lat="37.8667017" lon="14.984935"><ele>786.0000000000001</ele><time>2026-04-06T10:02:51.193Z</time></trkpt><trkpt lat="37.8666817" lon="14.984815"><ele>786.0</ele><time>2026-04-06T10:02:54.194Z</time></trkpt><trkpt lat="37.8666767" lon="14.9847283"><ele>786.1666666666666</ele><time>2026-04-06T10:02:56.193Z</time></trkpt><trkpt lat="37.8666683" lon="14.984645"><ele>786.3333333333333</ele><time>2026-04-06T10:02:58.193Z</time></trkpt><trkpt lat="37.8666567" lon="14.9845333"><ele>786.5</ele><time>2026-04-06T10:03:01.198Z</time></trkpt><trkpt lat="37.8666383" lon="14.9844367"><ele>786.6666666666666</ele><time>2026-04-06T10:03:03.192Z</time></trkpt><trkpt lat="37.8666133" lon="14.9843467"><ele>786.8333333333333</ele><time>2026-04-06T10:03:05.194Z</time></trkpt><trkpt lat="37.8665867" lon="14.98426"><ele>787.0</ele><time>2026-04-06T10:03:07.192Z</time></trkpt><trkpt lat="37.8665617" lon="14.9841733"><ele>786.9999999999999</ele><time>2026-04-06T10:03:09.192Z</time></trkpt><trkpt lat="37.866535" lon="14.98409"><ele>787.0</ele><time>2026-04-06T10:03:11.193Z</time></trkpt><trkpt lat="37.8665" lon="14.984015"><ele>787.0</ele><time>2026-04-06T10:03:13.193Z</time></trkpt><trkpt lat="37.866475" lon="14.9839383"><ele>787.0</ele><time>2026-04-06T10:03:15.192Z</time></trkpt><trkpt lat="37.8664367" lon="14.9838333"><ele>786.9999999999999</ele><time>2026-04-06T10:03:18.195Z</time></trkpt><trkpt lat="37.8664017" lon="14.983735"><ele>787.0</ele><time>2026-04-06T10:03:21.194Z</time></trkpt><trkpt lat="37.8663683" lon="14.983645"><ele>786.9999999999999</ele><time>2026-04-06T10:03:24.195Z</time></trkpt><trkpt lat="37.8663383" lon="14.983545"><ele>787.0</ele><time>2026-04-06T10:03:27.193Z</time></trkpt><trkpt lat="37.8663083" lon="14.983445"><ele>787.0</ele><time>2026-04-06T10:03:30.195Z</time></trkpt><trkpt lat="37.86628" lon="14.9833483"><ele>787.0</ele><time>2026-04-06T10:03:33.195Z</time></trkpt><trkpt lat="37.8662517" lon="14.9832433"><ele>786.9999999999999</ele><time>2026-04-06T10:03:36.194Z</time></trkpt><trkpt lat="37.866255" lon="14.98314"><ele>787.0</ele><time>2026-04-06T10:03:39.193Z</time></trkpt><trkpt lat="37.8662617" lon="14.9830517"><ele>787.0</ele><time>2026-04-06T10:03:41.193Z</time></trkpt><trkpt lat="37.8662717" lon="14.9829633"><ele>787.0</ele><time>2026-04-06T10:03:43.192Z</time></trkpt><trkpt lat="37.86628" lon="14.9828717"><ele>787.0</ele><time>2026-04-06T10:03:45.193Z</time></trkpt><trkpt lat="37.8662933" lon="14.9827833"><ele>787.0</ele><time>2026-04-06T10:03:47.193Z</time></trkpt><trkpt lat="37.8663183" lon="14.982705"><ele>787.0</ele><time>2026-04-06T10:03:49.195Z</time></trkpt><trkpt lat="37.8663467" lon="14.9826317"><ele>787.0</ele><time>2026-04-06T10:03:51.195Z</time></trkpt><trkpt lat="37.8663917" lon="14.9825317"><ele>787.0</ele><time>2026-04-06T10:03:54.195Z</time></trkpt><trkpt lat="37.8664217" lon="14.98246"><ele>786.6666666666666</ele><time>2026-04-06T10:03:56.194Z</time></trkpt><trkpt lat="37.86646" lon="14.9823667"><ele>786.3333333333333</ele><time>2026-04-06T10:03:58.195Z</time></trkpt><trkpt lat="37.8664967" lon="14.9822767"><ele>786.0</ele><time>2026-04-06T10:04:00.194Z</time></trkpt><trkpt lat="37.86653" lon="14.982195"><ele>785.6666666666667</ele><time>2026-04-06T10:04:02.194Z</time></trkpt><trkpt lat="37.8665567" lon="14.982115"><ele>785.3333333333334</ele><time>2026-04-06T10:04:04.193Z</time></trkpt><trkpt lat="37.8665717" lon="14.9819967"><ele>785.0</ele><time>2026-04-06T10:04:07.194Z</time></trkpt><trkpt lat="37.866575" lon="14.9818983"><ele>785.0000000000001</ele><time>2026-04-06T10:04:09.192Z</time></trkpt><trkpt lat="37.866575" lon="14.9818"><ele>785.0</ele><time>2026-04-06T10:04:11.193Z</time></trkpt><trkpt lat="37.866575" lon="14.9817083"><ele>785.0</ele><time>2026-04-06T10:04:13.193Z</time></trkpt><trkpt lat="37.86658" lon="14.9816133"><ele>785.0</ele><time>2026-04-06T10:04:15.192Z</time></trkpt><trkpt lat="37.8665817" lon="14.981505"><ele>785.0000000000001</ele><time>2026-04-06T10:04:17.193Z</time></trkpt><trkpt lat="37.86658" lon="14.9814033"><ele>785.0</ele><time>2026-04-06T10:04:19.193Z</time></trkpt><trkpt lat="37.8665667" lon="14.9813033"><ele>785.1666666666667</ele><time>2026-04-06T10:04:21.193Z</time></trkpt><trkpt lat="37.866555" lon="14.9812033"><ele>785.3333333333334</ele><time>2026-04-06T10:04:23.194Z</time></trkpt><trkpt lat="37.8665433" lon="14.9811033"><ele>785.5</ele><time>2026-04-06T10:04:25.193Z</time></trkpt><trkpt lat="37.866535" lon="14.9809933"><ele>785.6666666666667</ele><time>2026-04-06T10:04:27.193Z</time></trkpt><trkpt lat="37.8665267" lon="14.980885"><ele>785.8333333333334</ele><time>2026-04-06T10:04:29.193Z</time></trkpt><trkpt lat="37.8665133" lon="14.980785"><ele>786.0</ele><time>2026-04-06T10:04:31.193Z</time></trkpt><trkpt lat="37.8665017" lon="14.980685"><ele>786.3333333333334</ele><time>2026-04-06T10:04:33.196Z</time></trkpt><trkpt lat="37.866495" lon="14.9805883"><ele>786.6666666666667</ele><time>2026-04-06T10:04:35.194Z</time></trkpt><trkpt lat="37.8664933" lon="14.9804983"><ele>787.0</ele><time>2026-04-06T10:04:37.194Z</time></trkpt><trkpt lat="37.8665017" lon="14.980405"><ele>787.3333333333334</ele><time>2026-04-06T10:04:39.194Z</time></trkpt><trkpt lat="37.8665167" lon="14.9803183"><ele>787.6666666666667</ele><time>2026-04-06T10:04:41.193Z</time></trkpt><trkpt lat="37.86653" lon="14.9802233"><ele>788.0</ele><time>2026-04-06T10:04:43.193Z</time></trkpt><trkpt lat="37.866545" lon="14.980115"><ele>787.4</ele><time>2026-04-06T10:04:45.193Z</time></trkpt><trkpt lat="37.86657" lon="14.98"><ele>786.8</ele><time>2026-04-06T10:04:47.193Z</time></trkpt><trkpt lat="37.866595" lon="14.979875"><ele>786.2</ele><time>2026-04-06T10:04:49.194Z</time></trkpt><trkpt lat="37.8666217" lon="14.9797417"><ele>785.6</ele><time>2026-04-06T10:04:51.193Z</time></trkpt><trkpt lat="37.8666483" lon="14.9796033"><ele>785.0</ele><time>2026-04-06T10:04:53.197Z</time></trkpt><trkpt lat="37.8666783" lon="14.979465"><ele>785.0</ele><time>2026-04-06T10:04:55.194Z</time></trkpt><trkpt lat="37.8667067" lon="14.9793217"><ele>785.0</ele><time>2026-04-06T10:04:57.194Z</time></trkpt><trkpt lat="37.866735" lon="14.9791767"><ele>785.0</ele><time>2026-04-06T10:04:59.193Z</time></trkpt><trkpt lat="37.866765" lon="14.97903"><ele>785.0</ele><time>2026-04-06T10:05:01.192Z</time></trkpt><trkpt lat="37.8667933" lon="14.9788783"><ele>784.0</ele><time>2026-04-06T10:05:03.192Z</time></trkpt><trkpt lat="37.8668067" lon="14.9787983"><ele>783.0</ele><time>2026-04-06T10:05:04.192Z</time></trkpt><trkpt lat="37.8668217" lon="14.978715"><ele>782.0</ele><time>2026-04-06T10:05:05.193Z</time></trkpt><trkpt lat="37.8668367" lon="14.97863"><ele>781.0</ele><time>2026-04-06T10:05:06.194Z</time></trkpt><trkpt lat="37.866855" lon="14.9785433"><ele>780.0</ele><time>2026-04-06T10:05:07.193Z</time></trkpt><trkpt lat="37.8668717" lon="14.978455"><ele>779.0</ele><time>2026-04-06T10:05:08.193Z</time></trkpt><trkpt lat="37.866895" lon="14.97837"><ele>778.0</ele><time>2026-04-06T10:05:09.192Z</time></trkpt><trkpt lat="37.8669267" lon="14.97829"><ele>777.9999999999999</ele><time>2026-04-06T10:05:10.193Z</time></trkpt><trkpt lat="37.8669633" lon="14.9782083"><ele>778.0</ele><time>2026-04-06T10:05:11.194Z</time></trkpt><trkpt lat="37.867" lon="14.9781233"><ele>778.0</ele><time>2026-04-06T10:05:12.192Z</time></trkpt><trkpt lat="37.8670367" lon="14.9780367"><ele>778.0</ele><time>2026-04-06T10:05:13.192Z</time></trkpt><trkpt lat="37.8670733" lon="14.97795"><ele>777.9999999999999</ele><time>2026-04-06T10:05:14.194Z</time></trkpt><trkpt lat="37.86711" lon="14.9778617"><ele>778.0</ele><time>2026-04-06T10:05:15.192Z</time></trkpt><trkpt lat="37.8671467" lon="14.97777"><ele>777.9999999999999</ele><time>2026-04-06T10:05:16.193Z</time></trkpt><trkpt lat="37.8671833" lon="14.9776783"><ele>778.0</ele><time>2026-04-06T10:05:17.194Z</time></trkpt><trkpt lat="37.86722" lon="14.9775867"><ele>778.0</ele><time>2026-04-06T10:05:18.192Z</time></trkpt><trkpt lat="37.8672583" lon="14.977495"><ele>778.0</ele><time>2026-04-06T10:05:19.194Z</time></trkpt><trkpt lat="37.867295" lon="14.9774"><ele>777.9999999999999</ele><time>2026-04-06T10:05:20.194Z</time></trkpt><trkpt lat="37.8673333" lon="14.977305"><ele>778.0</ele><time>2026-04-06T10:05:21.194Z</time></trkpt><trkpt lat="37.8673717" lon="14.9772067"><ele>777.4999999999999</ele><time>2026-04-06T10:05:22.193Z</time></trkpt><trkpt lat="37.8674133" lon="14.97711"><ele>777.0</ele><time>2026-04-06T10:05:23.194Z</time></trkpt><trkpt lat="37.8674533" lon="14.9770083"><ele>776.5</ele><time>2026-04-06T10:05:24.193Z</time></trkpt><trkpt lat="37.8674917" lon="14.976905"><ele>776.0</ele><time>2026-04-06T10:05:25.193Z</time></trkpt><trkpt lat="37.8675317" lon="14.976805"><ele>775.4999999999999</ele><time>2026-04-06T10:05:26.193Z</time></trkpt><trkpt lat="37.8675767" lon="14.97671"><ele>775.0</ele><time>2026-04-06T10:05:27.194Z</time></trkpt><trkpt lat="37.86762" lon="14.9766117"><ele>774.1666666666666</ele><time>2026-04-06T10:05:28.193Z</time></trkpt><trkpt lat="37.86766" lon="14.9765117"><ele>773.3333333333333</ele><time>2026-04-06T10:05:29.194Z</time></trkpt><trkpt lat="37.8677033" lon="14.9764167"><ele>772.5</ele><time>2026-04-06T10:05:30.193Z</time></trkpt><trkpt lat="37.8677433" lon="14.9763217"><ele>771.6666666666667</ele><time>2026-04-06T10:05:31.195Z</time></trkpt><trkpt lat="37.8677817" lon="14.9762283"><ele>770.8333333333334</ele><time>2026-04-06T10:05:32.194Z</time></trkpt><trkpt lat="37.8678167" lon="14.9761333"><ele>770.0</ele><time>2026-04-06T10:05:33.193Z</time></trkpt><trkpt lat="37.86785" lon="14.9760383"><ele>770.0000000000001</ele><time>2026-04-06T10:05:34.192Z</time></trkpt><trkpt lat="37.867885" lon="14.9759467"><ele>770.0</ele><time>2026-04-06T10:05:35.195Z</time></trkpt><trkpt lat="37.8679217" lon="14.9758567"><ele>770.0</ele><time>2026-04-06T10:05:36.194Z</time></trkpt><trkpt lat="37.8679583" lon="14.97577"><ele>770.0</ele><time>2026-04-06T10:05:37.193Z</time></trkpt><trkpt lat="37.867995" lon="14.9756817"><ele>770.0000000000001</ele><time>2026-04-06T10:05:38.193Z</time></trkpt><trkpt lat="37.8680317" lon="14.9756"><ele>770.0</ele><time>2026-04-06T10:05:39.193Z</time></trkpt><trkpt lat="37.8680667" lon="14.975515"><ele>770.0</ele><time>2026-04-06T10:05:40.192Z</time></trkpt><trkpt lat="37.8681" lon="14.97543"><ele>770.0</ele><time>2026-04-06T10:05:41.193Z</time></trkpt><trkpt lat="37.8681333" lon="14.9753467"><ele>770.0</ele><time>2026-04-06T10:05:42.195Z</time></trkpt><trkpt lat="37.8681683" lon="14.9752617"><ele>770.0</ele><time>2026-04-06T10:05:43.194Z</time></trkpt><trkpt lat="37.8681983" lon="14.9751783"><ele>770.0</ele><time>2026-04-06T10:05:44.195Z</time></trkpt><trkpt lat="37.86823" lon="14.9750967"><ele>770.0</ele><time>2026-04-06T10:05:45.193Z</time></trkpt><trkpt lat="37.8682617" lon="14.975015"><ele>770.0</ele><time>2026-04-06T10:05:46.194Z</time></trkpt><trkpt lat="37.8682967" lon="14.9749383"><ele>770.3333333333334</ele><time>2026-04-06T10:05:47.193Z</time></trkpt><trkpt lat="37.8683283" lon="14.9748567"><ele>770.6666666666667</ele><time>2026-04-06T10:05:48.192Z</time></trkpt><trkpt lat="37.8683617" lon="14.97478"><ele>771.0</ele><time>2026-04-06T10:05:49.193Z</time></trkpt><trkpt lat="37.8683933" lon="14.9747017"><ele>771.3333333333333</ele><time>2026-04-06T10:05:50.193Z</time></trkpt><trkpt lat="37.8684233" lon="14.9746267"><ele>771.6666666666666</ele><time>2026-04-06T10:05:51.193Z</time></trkpt><trkpt lat="37.8684517" lon="14.9745517"><ele>772.0</ele><time>2026-04-06T10:05:52.194Z</time></trkpt><trkpt lat="37.8685083" lon="14.9744133"><ele>771.25</ele><time>2026-04-06T10:05:54.194Z</time></trkpt><trkpt lat="37.8685633" lon="14.9742817"><ele>770.5</ele><time>2026-04-06T10:05:56.192Z</time></trkpt><trkpt lat="37.868615" lon="14.9741533"><ele>769.75</ele><time>2026-04-06T10:05:58.193Z</time></trkpt><trkpt lat="37.8686633" lon="14.974025"><ele>769.0</ele><time>2026-04-06T10:06:00.193Z</time></trkpt><trkpt lat="37.8687133" lon="14.9738983"><ele>768.9999999999999</ele><time>2026-04-06T10:06:02.193Z</time></trkpt><trkpt lat="37.8687683" lon="14.973765"><ele>769.0</ele><time>2026-04-06T10:06:04.195Z</time></trkpt><trkpt lat="37.8688267" lon="14.9736217"><ele>769.0</ele><time>2026-04-06T10:06:06.192Z</time></trkpt><trkpt lat="37.868855" lon="14.973545"><ele>769.0</ele><time>2026-04-06T10:06:07.193Z</time></trkpt><trkpt lat="37.8688833" lon="14.97347"><ele>768.9999999999999</ele><time>2026-04-06T10:06:08.194Z</time></trkpt><trkpt lat="37.8689117" lon="14.973395"><ele>769.0</ele><time>2026-04-06T10:06:09.193Z</time></trkpt><trkpt lat="37.8689433" lon="14.9733217"><ele>769.5</ele><time>2026-04-06T10:06:10.193Z</time></trkpt><trkpt lat="37.8690017" lon="14.9731833"><ele>770.0</ele><time>2026-04-06T10:06:12.193Z</time></trkpt><trkpt lat="37.8690583" lon="14.973045"><ele>770.5</ele><time>2026-04-06T10:06:14.193Z</time></trkpt><trkpt lat="37.8691133" lon="14.9729133"><ele>771.0</ele><time>2026-04-06T10:06:16.192Z</time></trkpt><trkpt lat="37.8691683" lon="14.9727883"><ele>771.0</ele><time>2026-04-06T10:06:18.192Z</time></trkpt><trkpt lat="37.8692233" lon="14.97267"><ele>771.0</ele><time>2026-04-06T10:06:20.193Z</time></trkpt><trkpt lat="37.8692683" lon="14.97255"><ele>771.0</ele><time>2026-04-06T10:06:22.192Z</time></trkpt><trkpt lat="37.8693133" lon="14.9724367"><ele>771.0</ele><time>2026-04-06T10:06:24.193Z</time></trkpt><trkpt lat="37.8693567" lon="14.972325"><ele>771.0</ele><time>2026-04-06T10:06:26.194Z</time></trkpt><trkpt lat="37.8693967" lon="14.97221"><ele>770.1666666666666</ele><time>2026-04-06T10:06:28.193Z</time></trkpt><trkpt lat="37.8694333" lon="14.9720867"><ele>769.3333333333334</ele><time>2026-04-06T10:06:30.194Z</time></trkpt><trkpt lat="37.86947" lon="14.971935"><ele>768.5</ele><time>2026-04-06T10:06:32.192Z</time></trkpt><trkpt lat="37.8694883" lon="14.9718533"><ele>767.6666666666667</ele><time>2026-04-06T10:06:33.193Z</time></trkpt><trkpt lat="37.8695033" lon="14.9717733"><ele>766.8333333333334</ele><time>2026-04-06T10:06:34.193Z</time></trkpt><trkpt lat="37.8695183" lon="14.97169"><ele>766.0</ele><time>2026-04-06T10:06:35.193Z</time></trkpt><trkpt lat="37.869535" lon="14.9716083"><ele>765.8571428571429</ele><time>2026-04-06T10:06:36.194Z</time></trkpt><trkpt lat="37.8695483" lon="14.9715267"><ele>765.7142857142857</ele><time>2026-04-06T10:06:37.193Z</time></trkpt><trkpt lat="37.8695583" lon="14.9714433"><ele>765.5714285714287</ele><time>2026-04-06T10:06:38.194Z</time></trkpt><trkpt lat="37.8695683" lon="14.97136"><ele>765.4285714285714</ele><time>2026-04-06T10:06:39.192Z</time></trkpt><trkpt lat="37.8695783" lon="14.97128"><ele>765.2857142857143</ele><time>2026-04-06T10:06:40.192Z</time></trkpt><trkpt lat="37.8695833" lon="14.9712"><ele>765.1428571428572</ele><time>2026-04-06T10:06:41.192Z</time></trkpt><trkpt lat="37.8695933" lon="14.9710467"><ele>765.0</ele><time>2026-04-06T10:06:43.193Z</time></trkpt><trkpt lat="37.8696" lon="14.9709017"><ele>764.8</ele><time>2026-04-06T10:06:45.192Z</time></trkpt><trkpt lat="37.8696067" lon="14.9707617"><ele>764.6</ele><time>2026-04-06T10:06:47.194Z</time></trkpt><trkpt lat="37.8696167" lon="14.97063"><ele>764.4000000000001</ele><time>2026-04-06T10:06:49.193Z</time></trkpt><trkpt lat="37.8696217" lon="14.9705"><ele>764.2</ele><time>2026-04-06T10:06:51.193Z</time></trkpt><trkpt lat="37.8696283" lon="14.9703667"><ele>764.0</ele><time>2026-04-06T10:06:53.193Z</time></trkpt><trkpt lat="37.8696367" lon="14.97022"><ele>764.0</ele><time>2026-04-06T10:06:55.193Z</time></trkpt><trkpt lat="37.8696467" lon="14.9700683"><ele>764.0</ele><time>2026-04-06T10:06:57.194Z</time></trkpt><trkpt lat="37.8696567" lon="14.9699317"><ele>764.0</ele><time>2026-04-06T10:06:59.193Z</time></trkpt><trkpt lat="37.8696633" lon="14.9698033"><ele>764.0</ele><time>2026-04-06T10:07:01.193Z</time></trkpt><trkpt lat="37.86967" lon="14.969675"><ele>764.0</ele><time>2026-04-06T10:07:03.193Z</time></trkpt><trkpt lat="37.8696767" lon="14.9695533"><ele>764.4000000000001</ele><time>2026-04-06T10:07:05.194Z</time></trkpt><trkpt lat="37.8696867" lon="14.969435"><ele>764.8</ele><time>2026-04-06T10:07:07.195Z</time></trkpt><trkpt lat="37.8696933" lon="14.9693233"><ele>765.2</ele><time>2026-04-06T10:07:09.194Z</time></trkpt><trkpt lat="37.8696933" lon="14.9692017"><ele>765.5999999999999</ele><time>2026-04-06T10:07:11.193Z</time></trkpt><trkpt lat="37.8696983" lon="14.969065"><ele>766.0</ele><time>2026-04-06T10:07:13.192Z</time></trkpt><trkpt lat="37.8697" lon="14.968915"><ele>766.0</ele><time>2026-04-06T10:07:15.193Z</time></trkpt><trkpt lat="37.8696983" lon="14.9688333"><ele>766.0</ele><time>2026-04-06T10:07:16.193Z</time></trkpt><trkpt lat="37.8696983" lon="14.9687517"><ele>766.0</ele><time>2026-04-06T10:07:17.194Z</time></trkpt><trkpt lat="37.8697017" lon="14.9686683"><ele>766.0</ele><time>2026-04-06T10:07:18.194Z</time></trkpt><trkpt lat="37.8697067" lon="14.968585"><ele>766.0</ele><time>2026-04-06T10:07:19.193Z</time></trkpt><trkpt lat="37.8697117" lon="14.968505"><ele>766.0</ele><time>2026-04-06T10:07:20.193Z</time></trkpt><trkpt lat="37.8697167" lon="14.9684233"><ele>766.0</ele><time>2026-04-06T10:07:21.193Z</time></trkpt><trkpt lat="37.8697217" lon="14.9682683"><ele>766.1999999999999</ele><time>2026-04-06T10:07:23.194Z</time></trkpt><trkpt lat="37.869725" lon="14.9681217"><ele>766.4</ele><time>2026-04-06T10:07:25.193Z</time></trkpt><trkpt lat="37.8697217" lon="14.967985"><ele>766.6</ele><time>2026-04-06T10:07:27.193Z</time></trkpt><trkpt lat="37.8697233" lon="14.9678483"><ele>766.8</ele><time>2026-04-06T10:07:29.193Z</time></trkpt><trkpt lat="37.8697333" lon="14.9677233"><ele>767.0</ele><time>2026-04-06T10:07:31.193Z</time></trkpt><trkpt lat="37.8697367" lon="14.9676083"><ele>767.5</ele><time>2026-04-06T10:07:33.192Z</time></trkpt><trkpt lat="37.86975" lon="14.967485"><ele>768.0</ele><time>2026-04-06T10:07:35.193Z</time></trkpt><trkpt lat="37.8697767" lon="14.9673667"><ele>768.5</ele><time>2026-04-06T10:07:37.194Z</time></trkpt><trkpt lat="37.86981" lon="14.967265"><ele>769.0</ele><time>2026-04-06T10:07:39.192Z</time></trkpt><trkpt lat="37.8698417" lon="14.9671733"><ele>769.5000000000001</ele><time>2026-04-06T10:07:41.192Z</time></trkpt><trkpt lat="37.8698717" lon="14.9670983"><ele>770.0</ele><time>2026-04-06T10:07:43.192Z</time></trkpt><trkpt lat="37.8699233" lon="14.96701"><ele>770.0</ele><time>2026-04-06T10:07:46.193Z</time></trkpt><trkpt lat="37.8699817" lon="14.9669267"><ele>770.0</ele><time>2026-04-06T10:07:48.192Z</time></trkpt><trkpt lat="37.87006" lon="14.9668167"><ele>770.0</ele><time>2026-04-06T10:07:50.193Z</time></trkpt><trkpt lat="37.870105" lon="14.96676"><ele>770.0</ele><time>2026-04-06T10:07:51.193Z</time></trkpt><trkpt lat="37.8701983" lon="14.9666483"><ele>770.0</ele><time>2026-04-06T10:07:53.193Z</time></trkpt><trkpt lat="37.870245" lon="14.9665933"><ele>769.7142857142857</ele><time>2026-04-06T10:07:54.193Z</time></trkpt><trkpt lat="37.87029" lon="14.966525"><ele>769.4285714285714</ele><time>2026-04-06T10:07:55.192Z</time></trkpt><trkpt lat="37.8703367" lon="14.9664633"><ele>769.1428571428571</ele><time>2026-04-06T10:07:56.194Z</time></trkpt><trkpt lat="37.8703867" lon="14.966395"><ele>768.8571428571429</ele><time>2026-04-06T10:07:57.194Z</time></trkpt><trkpt lat="37.8704367" lon="14.9663283"><ele>768.5714285714286</ele><time>2026-04-06T10:07:58.194Z</time></trkpt><trkpt lat="37.8704867" lon="14.9662667"><ele>768.2857142857142</ele><time>2026-04-06T10:07:59.194Z</time></trkpt><trkpt lat="37.8705383" lon="14.9662"><ele>768.0</ele><time>2026-04-06T10:08:00.196Z</time></trkpt><trkpt lat="37.8705883" lon="14.9661317"><ele>768.0</ele><time>2026-04-06T10:08:01.193Z</time></trkpt><trkpt lat="37.870635" lon="14.96606"><ele>768.0</ele><time>2026-04-06T10:08:02.193Z</time></trkpt><trkpt lat="37.8706767" lon="14.96598"><ele>768.0</ele><time>2026-04-06T10:08:03.193Z</time></trkpt><trkpt lat="37.87071" lon="14.9658933"><ele>768.0</ele><time>2026-04-06T10:08:04.194Z</time></trkpt><trkpt lat="37.8707383" lon="14.965805"><ele>768.0</ele><time>2026-04-06T10:08:05.193Z</time></trkpt><trkpt lat="37.870765" lon="14.9657117"><ele>768.0</ele><time>2026-04-06T10:08:06.193Z</time></trkpt><trkpt lat="37.8707933" lon="14.9656233"><ele>767.6666666666666</ele><time>2026-04-06T10:08:07.193Z</time></trkpt><trkpt lat="37.87082" lon="14.9655333"><ele>767.3333333333334</ele><time>2026-04-06T10:08:08.194Z</time></trkpt><trkpt lat="37.87085" lon="14.9654433"><ele>767.0</ele><time>2026-04-06T10:08:09.193Z</time></trkpt><trkpt lat="37.87088" lon="14.9653567"><ele>766.6666666666667</ele><time>2026-04-06T10:08:10.193Z</time></trkpt><trkpt lat="37.8709067" lon="14.9652667"><ele>766.3333333333334</ele><time>2026-04-06T10:08:11.192Z</time></trkpt><trkpt lat="37.8709333" lon="14.9651783"><ele>766.0</ele><time>2026-04-06T10:08:12.192Z</time></trkpt><trkpt lat="37.8709583" lon="14.9650883"><ele>765.4285714285714</ele><time>2026-04-06T10:08:13.194Z</time></trkpt><trkpt lat="37.8709883" lon="14.9650017"><ele>764.8571428571429</ele><time>2026-04-06T10:08:14.195Z</time></trkpt><trkpt lat="37.8710183" lon="14.9649167"><ele>764.2857142857142</ele><time>2026-04-06T10:08:15.193Z</time></trkpt><trkpt lat="37.871045" lon="14.96483"><ele>763.7142857142858</ele><time>2026-04-06T10:08:16.194Z</time></trkpt><trkpt lat="37.87107" lon="14.9647417"><ele>763.1428571428572</ele><time>2026-04-06T10:08:17.192Z</time></trkpt><trkpt lat="37.8710983" lon="14.9646583"><ele>762.5714285714286</ele><time>2026-04-06T10:08:18.194Z</time></trkpt><trkpt lat="37.871125" lon="14.9645783"><ele>762.0</ele><time>2026-04-06T10:08:19.193Z</time></trkpt><trkpt lat="37.87115" lon="14.964495"><ele>762.0</ele><time>2026-04-06T10:08:20.193Z</time></trkpt><trkpt lat="37.87117" lon="14.964415"><ele>762.0</ele><time>2026-04-06T10:08:21.193Z</time></trkpt><trkpt lat="37.8711883" lon="14.9643383"><ele>762.0</ele><time>2026-04-06T10:08:22.192Z</time></trkpt><trkpt lat="37.8712217" lon="14.9641933"><ele>762.0</ele><time>2026-04-06T10:08:24.194Z</time></trkpt><trkpt lat="37.8712667" lon="14.964065"><ele>762.0</ele><time>2026-04-06T10:08:26.194Z</time></trkpt><trkpt lat="37.87132" lon="14.9639367"><ele>761.5</ele><time>2026-04-06T10:08:28.194Z</time></trkpt><trkpt lat="37.8713733" lon="14.96379"><ele>761.0</ele><time>2026-04-06T10:08:30.193Z</time></trkpt><trkpt lat="37.8714217" lon="14.963645"><ele>760.5</ele><time>2026-04-06T10:08:32.194Z</time></trkpt><trkpt lat="37.8714617" lon="14.9635017"><ele>760.0</ele><time>2026-04-06T10:08:34.193Z</time></trkpt><trkpt lat="37.871485" lon="14.9633567"><ele>759.8571428571429</ele><time>2026-04-06T10:08:36.193Z</time></trkpt><trkpt lat="37.871485" lon="14.9632767"><ele>759.7142857142858</ele><time>2026-04-06T10:08:37.192Z</time></trkpt><trkpt lat="37.8714817" lon="14.963195"><ele>759.5714285714286</ele><time>2026-04-06T10:08:38.193Z</time></trkpt><trkpt lat="37.8714783" lon="14.9631117"><ele>759.4285714285714</ele><time>2026-04-06T10:08:39.192Z</time></trkpt><trkpt lat="37.8714733" lon="14.9630233"><ele>759.2857142857142</ele><time>2026-04-06T10:08:40.194Z</time></trkpt><trkpt lat="37.8714683" lon="14.9629367"><ele>759.1428571428571</ele><time>2026-04-06T10:08:41.192Z</time></trkpt><trkpt lat="37.8714667" lon="14.9628533"><ele>759.0</ele><time>2026-04-06T10:08:42.192Z</time></trkpt><trkpt lat="37.871465" lon="14.9627683"><ele>759.0</ele><time>2026-04-06T10:08:43.193Z</time></trkpt><trkpt lat="37.87147" lon="14.9626867"><ele>759.0</ele><time>2026-04-06T10:08:44.193Z</time></trkpt><trkpt lat="37.87148" lon="14.962605"><ele>759.0</ele><time>2026-04-06T10:08:45.193Z</time></trkpt><trkpt lat="37.8715" lon="14.962525"><ele>759.0</ele><time>2026-04-06T10:08:46.192Z</time></trkpt><trkpt lat="37.8715233" lon="14.9624467"><ele>759.0</ele><time>2026-04-06T10:08:47.193Z</time></trkpt><trkpt lat="37.8715467" lon="14.96237"><ele>759.0</ele><time>2026-04-06T10:08:48.192Z</time></trkpt><trkpt lat="37.8715733" lon="14.9622917"><ele>759.0</ele><time>2026-04-06T10:08:49.194Z</time></trkpt><trkpt lat="37.8716033" lon="14.96222"><ele>759.75</ele><time>2026-04-06T10:08:50.194Z</time></trkpt><trkpt lat="37.8716667" lon="14.962085"><ele>760.5</ele><time>2026-04-06T10:08:52.194Z</time></trkpt><trkpt lat="37.8717333" lon="14.961965"><ele>761.25</ele><time>2026-04-06T10:08:54.192Z</time></trkpt><trkpt lat="37.871795" lon="14.96185"><ele>762.0</ele><time>2026-04-06T10:08:56.194Z</time></trkpt><trkpt lat="37.8718517" lon="14.9617417"><ele>761.4000000000001</ele><time>2026-04-06T10:08:58.195Z</time></trkpt><trkpt lat="37.8719067" lon="14.9616383"><ele>760.8000000000001</ele><time>2026-04-06T10:09:00.195Z</time></trkpt><trkpt lat="37.87196" lon="14.9615233"><ele>760.2</ele><time>2026-04-06T10:09:02.194Z</time></trkpt><trkpt lat="37.8720183" lon="14.9613867"><ele>759.6</ele><time>2026-04-06T10:09:04.195Z</time></trkpt><trkpt lat="37.8720517" lon="14.9613183"><ele>759.0</ele><time>2026-04-06T10:09:05.195Z</time></trkpt><trkpt lat="37.872115" lon="14.9611883"><ele>759.0</ele><time>2026-04-06T10:09:07.196Z</time></trkpt><trkpt lat="37.8721733" lon="14.961065"><ele>759.0</ele><time>2026-04-06T10:09:09.194Z</time></trkpt><trkpt lat="37.872225" lon="14.960965"><ele>759.0</ele><time>2026-04-06T10:09:11.194Z</time></trkpt><trkpt lat="37.87228" lon="14.9608583"><ele>759.0</ele><time>2026-04-06T10:09:14.194Z</time></trkpt><trkpt lat="37.8723083" lon="14.9607867"><ele>759.0</ele><time>2026-04-06T10:09:17.193Z</time></trkpt><trkpt lat="37.8723317" lon="14.9607083"><ele>759.0</ele><time>2026-04-06T10:09:20.194Z</time></trkpt><trkpt lat="37.8723633" lon="14.9606267"><ele>759.3333333333334</ele><time>2026-04-06T10:09:22.194Z</time></trkpt><trkpt lat="37.872415" lon="14.9605"><ele>759.6666666666666</ele><time>2026-04-06T10:09:24.192Z</time></trkpt><trkpt lat="37.8724417" lon="14.9604233"><ele>760.0</ele><time>2026-04-06T10:09:25.192Z</time></trkpt><trkpt lat="37.8724683" lon="14.9603417"><ele>760.3333333333333</ele><time>2026-04-06T10:09:26.193Z</time></trkpt><trkpt lat="37.8724917" lon="14.960255"><ele>760.6666666666666</ele><time>2026-04-06T10:09:27.194Z</time></trkpt><trkpt lat="37.8725133" lon="14.9601667"><ele>761.0</ele><time>2026-04-06T10:09:28.192Z</time></trkpt><trkpt lat="37.8725367" lon="14.9600783"><ele>761.1666666666666</ele><time>2026-04-06T10:09:29.193Z</time></trkpt><trkpt lat="37.8725583" lon="14.9599867"><ele>761.3333333333333</ele><time>2026-04-06T10:09:30.193Z</time></trkpt><trkpt lat="37.8725783" lon="14.959895"><ele>761.5</ele><time>2026-04-06T10:09:31.193Z</time></trkpt><trkpt lat="37.8725967" lon="14.9597983"><ele>761.6666666666666</ele><time>2026-04-06T10:09:32.194Z</time></trkpt><trkpt lat="37.872615" lon="14.959705"><ele>761.8333333333334</ele><time>2026-04-06T10:09:33.192Z</time></trkpt><trkpt lat="37.8726333" lon="14.9596133"><ele>762.0</ele><time>2026-04-06T10:09:34.193Z</time></trkpt><trkpt lat="37.87265" lon="14.9595217"><ele>762.0</ele><time>2026-04-06T10:09:35.194Z</time></trkpt><trkpt lat="37.872665" lon="14.95943"><ele>762.0</ele><time>2026-04-06T10:09:36.193Z</time></trkpt><trkpt lat="37.8726817" lon="14.9593417"><ele>762.0</ele><time>2026-04-06T10:09:37.194Z</time></trkpt><trkpt lat="37.8726967" lon="14.9592583"><ele>762.0</ele><time>2026-04-06T10:09:38.194Z</time></trkpt><trkpt lat="37.8727383" lon="14.9591167"><ele>762.0</ele><time>2026-04-06T10:09:40.193Z</time></trkpt><trkpt lat="37.87278" lon="14.9589917"><ele>762.0</ele><time>2026-04-06T10:09:42.194Z</time></trkpt><trkpt lat="37.8728183" lon="14.95889"><ele>762.0</ele><time>2026-04-06T10:09:44.193Z</time></trkpt><trkpt lat="37.8728483" lon="14.95878"><ele>762.0</ele><time>2026-04-06T10:09:46.193Z</time></trkpt><trkpt lat="37.8728967" lon="14.95867"><ele>762.0</ele><time>2026-04-06T10:09:48.195Z</time></trkpt><trkpt lat="37.8729567" lon="14.9585583"><ele>762.0</ele><time>2026-04-06T10:09:50.194Z</time></trkpt><trkpt lat="37.8730117" lon="14.958465"><ele>762.0</ele><time>2026-04-06T10:09:52.195Z</time></trkpt><trkpt lat="37.87306" lon="14.9583567"><ele>762.5</ele><time>2026-04-06T10:09:54.194Z</time></trkpt><trkpt lat="37.8731217" lon="14.9582383"><ele>763.0</ele><time>2026-04-06T10:09:56.192Z</time></trkpt><trkpt lat="37.873195" lon="14.9581167"><ele>763.5</ele><time>2026-04-06T10:09:58.193Z</time></trkpt><trkpt lat="37.873265" lon="14.9579967"><ele>764.0</ele><time>2026-04-06T10:10:00.193Z</time></trkpt><trkpt lat="37.87334" lon="14.957895"><ele>764.0</ele><time>2026-04-06T10:10:02.194Z</time></trkpt><trkpt lat="37.8734083" lon="14.9577883"><ele>764.0</ele><time>2026-04-06T10:10:04.193Z</time></trkpt><trkpt lat="37.8734717" lon="14.95768"><ele>764.0</ele><time>2026-04-06T10:10:06.193Z</time></trkpt><trkpt lat="37.87353" lon="14.95757"><ele>764.0</ele><time>2026-04-06T10:10:08.193Z</time></trkpt><trkpt lat="37.8735917" lon="14.9574733"><ele>764.0</ele><time>2026-04-06T10:10:10.193Z</time></trkpt><trkpt lat="37.87366" lon="14.957385"><ele>763.8333333333333</ele><time>2026-04-06T10:10:12.193Z</time></trkpt><trkpt lat="37.8737283" lon="14.95731"><ele>763.6666666666666</ele><time>2026-04-06T10:10:14.194Z</time></trkpt><trkpt lat="37.873795" lon="14.9572317"><ele>763.5</ele><time>2026-04-06T10:10:16.193Z</time></trkpt><trkpt lat="37.8738567" lon="14.957145"><ele>763.3333333333334</ele><time>2026-04-06T10:10:18.195Z</time></trkpt><trkpt lat="37.8739217" lon="14.95707"><ele>763.1666666666667</ele><time>2026-04-06T10:10:20.195Z</time></trkpt><trkpt lat="37.873985" lon="14.9569967"><ele>763.0</ele><time>2026-04-06T10:10:22.194Z</time></trkpt><trkpt lat="37.8740433" lon="14.9569233"><ele>763.0</ele><time>2026-04-06T10:10:24.194Z</time></trkpt><trkpt lat="37.874105" lon="14.9568617"><ele>763.0</ele><time>2026-04-06T10:10:26.193Z</time></trkpt><trkpt lat="37.8741667" lon="14.9567967"><ele>763.0</ele><time>2026-04-06T10:10:28.194Z</time></trkpt><trkpt lat="37.8742217" lon="14.9567383"><ele>763.0</ele><time>2026-04-06T10:10:30.193Z</time></trkpt><trkpt lat="37.8743033" lon="14.956715"><ele>763.0</ele><time>2026-04-06T10:10:34.192Z</time></trkpt><trkpt lat="37.87438" lon="14.95674"><ele>763.0</ele><time>2026-04-06T10:10:36.194Z</time></trkpt><trkpt lat="37.8744767" lon="14.9567683"><ele>762.4</ele><time>2026-04-06T10:10:38.194Z</time></trkpt><trkpt lat="37.8745683" lon="14.9568017"><ele>761.8</ele><time>2026-04-06T10:10:40.193Z</time></trkpt><trkpt lat="37.8746517" lon="14.9568383"><ele>761.2</ele><time>2026-04-06T10:10:42.193Z</time></trkpt><trkpt lat="37.8747417" lon="14.9568717"><ele>760.6</ele><time>2026-04-06T10:10:44.194Z</time></trkpt><trkpt lat="37.8748433" lon="14.956905"><ele>760.0</ele><time>2026-04-06T10:10:46.192Z</time></trkpt><trkpt lat="37.8749583" lon="14.9569283"><ele>760.0</ele><time>2026-04-06T10:10:48.195Z</time></trkpt><trkpt lat="37.8750583" lon="14.95696"><ele>760.0</ele><time>2026-04-06T10:10:50.195Z</time></trkpt><trkpt lat="37.87516" lon="14.9569967"><ele>760.0</ele><time>2026-04-06T10:10:52.195Z</time></trkpt><trkpt lat="37.875265" lon="14.957025"><ele>760.0</ele><time>2026-04-06T10:10:54.193Z</time></trkpt><trkpt lat="37.8753633" lon="14.9570317"><ele>760.0</ele><time>2026-04-06T10:10:56.194Z</time></trkpt><trkpt lat="37.8754717" lon="14.957015"><ele>759.6</ele><time>2026-04-06T10:10:58.193Z</time></trkpt><trkpt lat="37.8755717" lon="14.9569883"><ele>759.2</ele><time>2026-04-06T10:11:00.193Z</time></trkpt><trkpt lat="37.8756617" lon="14.9569583"><ele>758.8</ele><time>2026-04-06T10:11:02.195Z</time></trkpt><trkpt lat="37.875755" lon="14.95691"><ele>758.4</ele><time>2026-04-06T10:11:04.193Z</time></trkpt><trkpt lat="37.875835" lon="14.9568567"><ele>758.0</ele><time>2026-04-06T10:11:06.194Z</time></trkpt><trkpt lat="37.8759033" lon="14.9568"><ele>758.0000000000001</ele><time>2026-04-06T10:11:08.194Z</time></trkpt><trkpt lat="37.875995" lon="14.9567583"><ele>758.0</ele><time>2026-04-06T10:11:11.192Z</time></trkpt><trkpt lat="37.87606" lon="14.95673"><ele>758.0</ele><time>2026-04-06T10:11:13.192Z</time></trkpt><trkpt lat="37.8761233" lon="14.9566967"><ele>758.0</ele><time>2026-04-06T10:11:15.194Z</time></trkpt><trkpt lat="37.8761867" lon="14.95667"><ele>758.0</ele><time>2026-04-06T10:11:17.194Z</time></trkpt><trkpt lat="37.8762467" lon="14.956645"><ele>758.0000000000001</ele><time>2026-04-06T10:11:19.194Z</time></trkpt><trkpt lat="37.8763267" lon="14.9566133"><ele>758.0</ele><time>2026-04-06T10:11:22.193Z</time></trkpt><trkpt lat="37.8764117" lon="14.9566083"><ele>757.5999999999999</ele><time>2026-04-06T10:11:25.192Z</time></trkpt><trkpt lat="37.8764967" lon="14.956605"><ele>757.1999999999999</ele><time>2026-04-06T10:11:27.193Z</time></trkpt><trkpt lat="37.8766067" lon="14.9565867"><ele>756.8</ele><time>2026-04-06T10:11:29.192Z</time></trkpt><trkpt lat="37.87671" lon="14.9565783"><ele>756.4</ele><time>2026-04-06T10:11:31.193Z</time></trkpt><trkpt lat="37.8767867" lon="14.9565917"><ele>756.0</ele><time>2026-04-06T10:11:33.193Z</time></trkpt><trkpt lat="37.8768683" lon="14.956595"><ele>755.5999999999999</ele><time>2026-04-06T10:11:35.194Z</time></trkpt><trkpt lat="37.87696" lon="14.95657"><ele>755.2</ele><time>2026-04-06T10:11:37.194Z</time></trkpt><trkpt lat="37.87706" lon="14.956525"><ele>754.8</ele><time>2026-04-06T10:11:39.195Z</time></trkpt><trkpt lat="37.8771417" lon="14.956465"><ele>754.4000000000001</ele><time>2026-04-06T10:11:41.193Z</time></trkpt><trkpt lat="37.8771817" lon="14.95635"><ele>754.0</ele><time>2026-04-06T10:11:43.193Z</time></trkpt><trkpt lat="37.87721" lon="14.9562433"><ele>754.0</ele><time>2026-04-06T10:11:45.194Z</time></trkpt><trkpt lat="37.87724" lon="14.95614"><ele>754.0</ele><time>2026-04-06T10:11:47.192Z</time></trkpt><trkpt lat="37.8772633" lon="14.95604"><ele>754.0</ele><time>2026-04-06T10:11:49.193Z</time></trkpt><trkpt lat="37.8772817" lon="14.9559533"><ele>754.0</ele><time>2026-04-06T10:11:51.193Z</time></trkpt><trkpt lat="37.8773017" lon="14.9558733"><ele>754.0</ele><time>2026-04-06T10:11:53.194Z</time></trkpt><trkpt lat="37.8773267" lon="14.9557617"><ele>754.0</ele><time>2026-04-06T10:11:56.193Z</time></trkpt><trkpt lat="37.87736" lon="14.955685"><ele>754.0</ele><time>2026-04-06T10:11:58.2Z</time></trkpt><trkpt lat="37.8773883" lon="14.95558"><ele>754.0</ele><time>2026-04-06T10:12:00.193Z</time></trkpt><trkpt lat="37.8774083" lon="14.955465"><ele>754.0</ele><time>2026-04-06T10:12:02.193Z</time></trkpt><trkpt lat="37.8774317" lon="14.9553583"><ele>754.0</ele><time>2026-04-06T10:12:04.192Z</time></trkpt><trkpt lat="37.8774533" lon="14.955265"><ele>754.0</ele><time>2026-04-06T10:12:06.194Z</time></trkpt><trkpt lat="37.877475" lon="14.9551683"><ele>754.0</ele><time>2026-04-06T10:12:08.193Z</time></trkpt><trkpt lat="37.8775" lon="14.9550633"><ele>754.1666666666667</ele><time>2026-04-06T10:12:10.193Z</time></trkpt><trkpt lat="37.8775217" lon="14.9549767"><ele>754.3333333333334</ele><time>2026-04-06T10:12:12.195Z</time></trkpt><trkpt lat="37.877525" lon="14.954875"><ele>754.5</ele><time>2026-04-06T10:12:15.192Z</time></trkpt><trkpt lat="37.8774683" lon="14.9547817"><ele>754.6666666666666</ele><time>2026-04-06T10:12:18.194Z</time></trkpt><trkpt lat="37.87737" lon="14.95475"><ele>754.8333333333333</ele><time>2026-04-06T10:12:20.195Z</time></trkpt><trkpt lat="37.8772883" lon="14.95473"><ele>755.0</ele><time>2026-04-06T10:12:22.193Z</time></trkpt><trkpt lat="37.8772217" lon="14.95472"><ele>755.0</ele><time>2026-04-06T10:12:24.194Z</time></trkpt><trkpt lat="37.8771633" lon="14.95479"><ele>755.0</ele><time>2026-04-06T10:12:27.193Z</time></trkpt><trkpt lat="37.87714" lon="14.954865"><ele>755.0</ele><time>2026-04-06T10:12:30.192Z</time></trkpt><trkpt lat="37.877145" lon="14.9549467"><ele>755.0</ele><time>2026-04-06T10:12:35.194Z</time></trkpt><trkpt lat="37.87718" lon="14.95478"><ele>755.0</ele><time>2026-04-06T10:14:17.198Z</time></trkpt></trkseg></trk></gpx>